<?xml version="1.0" encoding="UTF-8" standalone="no" ?>
<gpx xmlns="http://www.topografix.com/GPX/1/1" xmlns:xsi="http://www.w3.org/2001/XMLSchema-instance" xsi:schemaLocation="http://www.topografix.com/GPX/1/1 http://www.topografix.com/GPX/1/1/gpx.xsd" version="1.1" creator="VisuGPX - https://www.visugpx.com">
  <metadata>
    <name>131109ROBChataigniersBaneMalagaArgentis</name>
    <desc><![CDATA[Bonne sortie]]></desc>
  </metadata>
  <trk>
    <name><![CDATA[131109ROBChataigniersBaneMalagaArgentis]]></name>
    <trkseg>
      <trkpt lat="43.40399" lon="6.06526">
        <ele>216.39999389648</ele>
        <time>2013-11-09T13:09:22Z</time>
      </trkpt>
      <trkpt lat="43.40399" lon="6.06526">
        <ele>216.39999389648</ele>
        <time>2013-11-09T13:09:23Z</time>
      </trkpt>
      <trkpt lat="43.40399" lon="6.06526">
        <ele>216.60000610352</ele>
        <time>2013-11-09T13:09:26Z</time>
      </trkpt>
      <trkpt lat="43.404" lon="6.06527">
        <ele>216.60000610352</ele>
        <time>2013-11-09T13:09:35Z</time>
      </trkpt>
      <trkpt lat="43.40403" lon="6.06526">
        <ele>216.60000610352</ele>
        <time>2013-11-09T13:09:42Z</time>
      </trkpt>
      <trkpt lat="43.40403" lon="6.06526">
        <ele>216.60000610352</ele>
        <time>2013-11-09T13:09:50Z</time>
      </trkpt>
      <trkpt lat="43.40403" lon="6.06526">
        <ele>216.60000610352</ele>
        <time>2013-11-09T13:10:03Z</time>
      </trkpt>
      <trkpt lat="43.40403" lon="6.06524">
        <ele>216.60000610352</ele>
        <time>2013-11-09T13:10:07Z</time>
      </trkpt>
      <trkpt lat="43.40405" lon="6.06515">
        <ele>216.60000610352</ele>
        <time>2013-11-09T13:10:11Z</time>
      </trkpt>
      <trkpt lat="43.40407" lon="6.0651">
        <ele>216.60000610352</ele>
        <time>2013-11-09T13:10:13Z</time>
      </trkpt>
      <trkpt lat="43.40407" lon="6.06507">
        <ele>216.60000610352</ele>
        <time>2013-11-09T13:10:14Z</time>
      </trkpt>
      <trkpt lat="43.40408" lon="6.06498">
        <ele>216.60000610352</ele>
        <time>2013-11-09T13:10:18Z</time>
      </trkpt>
      <trkpt lat="43.40413" lon="6.06485">
        <ele>216.60000610352</ele>
        <time>2013-11-09T13:10:24Z</time>
      </trkpt>
      <trkpt lat="43.4042" lon="6.06482">
        <ele>216.60000610352</ele>
        <time>2013-11-09T13:10:28Z</time>
      </trkpt>
      <trkpt lat="43.40425" lon="6.06482">
        <ele>216.60000610352</ele>
        <time>2013-11-09T13:10:31Z</time>
      </trkpt>
      <trkpt lat="43.4044" lon="6.06487">
        <ele>216.60000610352</ele>
        <time>2013-11-09T13:10:37Z</time>
      </trkpt>
      <trkpt lat="43.40459" lon="6.06492">
        <ele>216.60000610352</ele>
        <time>2013-11-09T13:10:42Z</time>
      </trkpt>
      <trkpt lat="43.40474" lon="6.06499">
        <ele>216.19999694824</ele>
        <time>2013-11-09T13:10:46Z</time>
      </trkpt>
      <trkpt lat="43.40483" lon="6.06502">
        <ele>215.39999389648</ele>
        <time>2013-11-09T13:10:48Z</time>
      </trkpt>
      <trkpt lat="43.40489" lon="6.06501">
        <ele>214.60000610352</ele>
        <time>2013-11-09T13:10:50Z</time>
      </trkpt>
      <trkpt lat="43.40491" lon="6.06503">
        <ele>214.60000610352</ele>
        <time>2013-11-09T13:10:51Z</time>
      </trkpt>
      <trkpt lat="43.40493" lon="6.06506">
        <ele>214.60000610352</ele>
        <time>2013-11-09T13:10:54Z</time>
      </trkpt>
      <trkpt lat="43.40494" lon="6.0651">
        <ele>214.60000610352</ele>
        <time>2013-11-09T13:10:55Z</time>
      </trkpt>
      <trkpt lat="43.40495" lon="6.06525">
        <ele>214.60000610352</ele>
        <time>2013-11-09T13:10:58Z</time>
      </trkpt>
      <trkpt lat="43.40495" lon="6.06528">
        <ele>214.60000610352</ele>
        <time>2013-11-09T13:10:59Z</time>
      </trkpt>
      <trkpt lat="43.40492" lon="6.06556">
        <ele>214.60000610352</ele>
        <time>2013-11-09T13:11:05Z</time>
      </trkpt>
      <trkpt lat="43.40485" lon="6.06593">
        <ele>214.60000610352</ele>
        <time>2013-11-09T13:11:12Z</time>
      </trkpt>
      <trkpt lat="43.40483" lon="6.06604">
        <ele>214.60000610352</ele>
        <time>2013-11-09T13:11:14Z</time>
      </trkpt>
      <trkpt lat="43.4048" lon="6.06621">
        <ele>214.60000610352</ele>
        <time>2013-11-09T13:11:17Z</time>
      </trkpt>
      <trkpt lat="43.40478" lon="6.06633">
        <ele>214.60000610352</ele>
        <time>2013-11-09T13:11:19Z</time>
      </trkpt>
      <trkpt lat="43.40467" lon="6.06691">
        <ele>214.60000610352</ele>
        <time>2013-11-09T13:11:29Z</time>
      </trkpt>
      <trkpt lat="43.4046" lon="6.06722">
        <ele>214.60000610352</ele>
        <time>2013-11-09T13:11:35Z</time>
      </trkpt>
      <trkpt lat="43.40459" lon="6.06742">
        <ele>214.60000610352</ele>
        <time>2013-11-09T13:11:40Z</time>
      </trkpt>
      <trkpt lat="43.40459" lon="6.06768">
        <ele>214.60000610352</ele>
        <time>2013-11-09T13:11:45Z</time>
      </trkpt>
      <trkpt lat="43.40461" lon="6.06805">
        <ele>214.60000610352</ele>
        <time>2013-11-09T13:11:52Z</time>
      </trkpt>
      <trkpt lat="43.40458" lon="6.06853">
        <ele>214.60000610352</ele>
        <time>2013-11-09T13:11:59Z</time>
      </trkpt>
      <trkpt lat="43.40453" lon="6.06879">
        <ele>214.60000610352</ele>
        <time>2013-11-09T13:12:03Z</time>
      </trkpt>
      <trkpt lat="43.40451" lon="6.06884">
        <ele>214.60000610352</ele>
        <time>2013-11-09T13:12:05Z</time>
      </trkpt>
      <trkpt lat="43.40449" lon="6.06892">
        <ele>214.60000610352</ele>
        <time>2013-11-09T13:12:09Z</time>
      </trkpt>
      <trkpt lat="43.40447" lon="6.06896">
        <ele>214.60000610352</ele>
        <time>2013-11-09T13:12:10Z</time>
      </trkpt>
      <trkpt lat="43.40438" lon="6.06915">
        <ele>214.60000610352</ele>
        <time>2013-11-09T13:12:15Z</time>
      </trkpt>
      <trkpt lat="43.40426" lon="6.06946">
        <ele>214.60000610352</ele>
        <time>2013-11-09T13:12:22Z</time>
      </trkpt>
      <trkpt lat="43.40418" lon="6.06975">
        <ele>214.60000610352</ele>
        <time>2013-11-09T13:12:28Z</time>
      </trkpt>
      <trkpt lat="43.40414" lon="6.07004">
        <ele>214.60000610352</ele>
        <time>2013-11-09T13:12:34Z</time>
      </trkpt>
      <trkpt lat="43.40414" lon="6.07007">
        <ele>214.60000610352</ele>
        <time>2013-11-09T13:12:35Z</time>
      </trkpt>
      <trkpt lat="43.40413" lon="6.07008">
        <ele>214.60000610352</ele>
        <time>2013-11-09T13:12:36Z</time>
      </trkpt>
      <trkpt lat="43.40412" lon="6.07017">
        <ele>214.60000610352</ele>
        <time>2013-11-09T13:12:39Z</time>
      </trkpt>
      <trkpt lat="43.40408" lon="6.07044">
        <ele>214.60000610352</ele>
        <time>2013-11-09T13:12:44Z</time>
      </trkpt>
      <trkpt lat="43.40401" lon="6.07082">
        <ele>214.19999694824</ele>
        <time>2013-11-09T13:12:49Z</time>
      </trkpt>
      <trkpt lat="43.404" lon="6.07091">
        <ele>213.80000305176</ele>
        <time>2013-11-09T13:12:50Z</time>
      </trkpt>
      <trkpt lat="43.40398" lon="6.071">
        <ele>213.19999694824</ele>
        <time>2013-11-09T13:12:51Z</time>
      </trkpt>
      <trkpt lat="43.40397" lon="6.07109">
        <ele>212.80000305176</ele>
        <time>2013-11-09T13:12:52Z</time>
      </trkpt>
      <trkpt lat="43.40395" lon="6.07118">
        <ele>212.39999389648</ele>
        <time>2013-11-09T13:12:53Z</time>
      </trkpt>
      <trkpt lat="43.40393" lon="6.07137">
        <ele>212.39999389648</ele>
        <time>2013-11-09T13:12:55Z</time>
      </trkpt>
      <trkpt lat="43.40392" lon="6.07147">
        <ele>212</ele>
        <time>2013-11-09T13:12:56Z</time>
      </trkpt>
      <trkpt lat="43.40391" lon="6.07156">
        <ele>211.60000610352</ele>
        <time>2013-11-09T13:12:57Z</time>
      </trkpt>
      <trkpt lat="43.4039" lon="6.07164">
        <ele>211.19999694824</ele>
        <time>2013-11-09T13:12:58Z</time>
      </trkpt>
      <trkpt lat="43.40388" lon="6.07173">
        <ele>210.80000305176</ele>
        <time>2013-11-09T13:12:59Z</time>
      </trkpt>
      <trkpt lat="43.40387" lon="6.07182">
        <ele>210.39999389648</ele>
        <time>2013-11-09T13:13:00Z</time>
      </trkpt>
      <trkpt lat="43.40384" lon="6.07208">
        <ele>210.39999389648</ele>
        <time>2013-11-09T13:13:03Z</time>
      </trkpt>
      <trkpt lat="43.40383" lon="6.07224">
        <ele>210.39999389648</ele>
        <time>2013-11-09T13:13:05Z</time>
      </trkpt>
      <trkpt lat="43.40382" lon="6.07231">
        <ele>210.39999389648</ele>
        <time>2013-11-09T13:13:06Z</time>
      </trkpt>
      <trkpt lat="43.4038" lon="6.07237">
        <ele>210.39999389648</ele>
        <time>2013-11-09T13:13:07Z</time>
      </trkpt>
      <trkpt lat="43.40378" lon="6.07242">
        <ele>210.39999389648</ele>
        <time>2013-11-09T13:13:08Z</time>
      </trkpt>
      <trkpt lat="43.4037" lon="6.0725">
        <ele>210.39999389648</ele>
        <time>2013-11-09T13:13:11Z</time>
      </trkpt>
      <trkpt lat="43.40367" lon="6.07252">
        <ele>210.39999389648</ele>
        <time>2013-11-09T13:13:12Z</time>
      </trkpt>
      <trkpt lat="43.40361" lon="6.07266">
        <ele>210.39999389648</ele>
        <time>2013-11-09T13:13:16Z</time>
      </trkpt>
      <trkpt lat="43.40363" lon="6.07284">
        <ele>210.39999389648</ele>
        <time>2013-11-09T13:13:20Z</time>
      </trkpt>
      <trkpt lat="43.40373" lon="6.07302">
        <ele>210.39999389648</ele>
        <time>2013-11-09T13:13:24Z</time>
      </trkpt>
      <trkpt lat="43.40375" lon="6.07307">
        <ele>210.39999389648</ele>
        <time>2013-11-09T13:13:25Z</time>
      </trkpt>
      <trkpt lat="43.40377" lon="6.07324">
        <ele>210.39999389648</ele>
        <time>2013-11-09T13:13:28Z</time>
      </trkpt>
      <trkpt lat="43.40381" lon="6.07346">
        <ele>210.80000305176</ele>
        <time>2013-11-09T13:13:32Z</time>
      </trkpt>
      <trkpt lat="43.40387" lon="6.07379">
        <ele>212.60000610352</ele>
        <time>2013-11-09T13:13:38Z</time>
      </trkpt>
      <trkpt lat="43.40387" lon="6.07391">
        <ele>212.60000610352</ele>
        <time>2013-11-09T13:13:40Z</time>
      </trkpt>
      <trkpt lat="43.40384" lon="6.07435">
        <ele>212.60000610352</ele>
        <time>2013-11-09T13:13:47Z</time>
      </trkpt>
      <trkpt lat="43.40383" lon="6.07449">
        <ele>213</ele>
        <time>2013-11-09T13:13:49Z</time>
      </trkpt>
      <trkpt lat="43.4038" lon="6.07469">
        <ele>214.19999694824</ele>
        <time>2013-11-09T13:13:52Z</time>
      </trkpt>
      <trkpt lat="43.40378" lon="6.07489">
        <ele>214.60000610352</ele>
        <time>2013-11-09T13:13:55Z</time>
      </trkpt>
      <trkpt lat="43.40376" lon="6.07502">
        <ele>214.60000610352</ele>
        <time>2013-11-09T13:13:57Z</time>
      </trkpt>
      <trkpt lat="43.40372" lon="6.07526">
        <ele>214.60000610352</ele>
        <time>2013-11-09T13:14:01Z</time>
      </trkpt>
      <trkpt lat="43.40371" lon="6.07546">
        <ele>214.60000610352</ele>
        <time>2013-11-09T13:14:04Z</time>
      </trkpt>
      <trkpt lat="43.4037" lon="6.07584">
        <ele>214.60000610352</ele>
        <time>2013-11-09T13:14:10Z</time>
      </trkpt>
      <trkpt lat="43.40369" lon="6.07596">
        <ele>214.60000610352</ele>
        <time>2013-11-09T13:14:12Z</time>
      </trkpt>
      <trkpt lat="43.4037" lon="6.07602">
        <ele>214.60000610352</ele>
        <time>2013-11-09T13:14:13Z</time>
      </trkpt>
      <trkpt lat="43.40368" lon="6.07629">
        <ele>214.60000610352</ele>
        <time>2013-11-09T13:14:18Z</time>
      </trkpt>
      <trkpt lat="43.40364" lon="6.07642">
        <ele>214.60000610352</ele>
        <time>2013-11-09T13:14:20Z</time>
      </trkpt>
      <trkpt lat="43.40352" lon="6.07666">
        <ele>214.60000610352</ele>
        <time>2013-11-09T13:14:24Z</time>
      </trkpt>
      <trkpt lat="43.40348" lon="6.07671">
        <ele>214.60000610352</ele>
        <time>2013-11-09T13:14:25Z</time>
      </trkpt>
      <trkpt lat="43.40325" lon="6.07698">
        <ele>214.60000610352</ele>
        <time>2013-11-09T13:14:31Z</time>
      </trkpt>
      <trkpt lat="43.40312" lon="6.07728">
        <ele>214.60000610352</ele>
        <time>2013-11-09T13:14:36Z</time>
      </trkpt>
      <trkpt lat="43.4031" lon="6.07734">
        <ele>214.60000610352</ele>
        <time>2013-11-09T13:14:37Z</time>
      </trkpt>
      <trkpt lat="43.40303" lon="6.07775">
        <ele>214.60000610352</ele>
        <time>2013-11-09T13:14:43Z</time>
      </trkpt>
      <trkpt lat="43.403" lon="6.07802">
        <ele>214.60000610352</ele>
        <time>2013-11-09T13:14:47Z</time>
      </trkpt>
      <trkpt lat="43.40296" lon="6.07837">
        <ele>214.60000610352</ele>
        <time>2013-11-09T13:14:52Z</time>
      </trkpt>
      <trkpt lat="43.4029" lon="6.07886">
        <ele>214.60000610352</ele>
        <time>2013-11-09T13:14:59Z</time>
      </trkpt>
      <trkpt lat="43.40288" lon="6.07906">
        <ele>215</ele>
        <time>2013-11-09T13:15:02Z</time>
      </trkpt>
      <trkpt lat="43.40283" lon="6.07932">
        <ele>216.60000610352</ele>
        <time>2013-11-09T13:15:06Z</time>
      </trkpt>
      <trkpt lat="43.40277" lon="6.07951">
        <ele>216.60000610352</ele>
        <time>2013-11-09T13:15:09Z</time>
      </trkpt>
      <trkpt lat="43.40274" lon="6.07957">
        <ele>216.60000610352</ele>
        <time>2013-11-09T13:15:10Z</time>
      </trkpt>
      <trkpt lat="43.40266" lon="6.07975">
        <ele>216.60000610352</ele>
        <time>2013-11-09T13:15:13Z</time>
      </trkpt>
      <trkpt lat="43.4026" lon="6.07984">
        <ele>217</ele>
        <time>2013-11-09T13:15:15Z</time>
      </trkpt>
      <trkpt lat="43.40251" lon="6.07998">
        <ele>218.39999389648</ele>
        <time>2013-11-09T13:15:18Z</time>
      </trkpt>
      <trkpt lat="43.40234" lon="6.0802">
        <ele>219.60000610352</ele>
        <time>2013-11-09T13:15:23Z</time>
      </trkpt>
      <trkpt lat="43.40223" lon="6.08033">
        <ele>221</ele>
        <time>2013-11-09T13:15:26Z</time>
      </trkpt>
      <trkpt lat="43.40205" lon="6.08054">
        <ele>221</ele>
        <time>2013-11-09T13:15:31Z</time>
      </trkpt>
      <trkpt lat="43.40199" lon="6.08063">
        <ele>221</ele>
        <time>2013-11-09T13:15:33Z</time>
      </trkpt>
      <trkpt lat="43.40191" lon="6.08079">
        <ele>221</ele>
        <time>2013-11-09T13:15:36Z</time>
      </trkpt>
      <trkpt lat="43.40189" lon="6.08085">
        <ele>221</ele>
        <time>2013-11-09T13:15:37Z</time>
      </trkpt>
      <trkpt lat="43.40188" lon="6.08096">
        <ele>221.39999389648</ele>
        <time>2013-11-09T13:15:39Z</time>
      </trkpt>
      <trkpt lat="43.40187" lon="6.08101">
        <ele>221.80000305176</ele>
        <time>2013-11-09T13:15:40Z</time>
      </trkpt>
      <trkpt lat="43.40188" lon="6.0811">
        <ele>222.80000305176</ele>
        <time>2013-11-09T13:15:42Z</time>
      </trkpt>
      <trkpt lat="43.40188" lon="6.08113">
        <ele>223.19999694824</ele>
        <time>2013-11-09T13:15:43Z</time>
      </trkpt>
      <trkpt lat="43.4019" lon="6.08121">
        <ele>223.19999694824</ele>
        <time>2013-11-09T13:15:46Z</time>
      </trkpt>
      <trkpt lat="43.40192" lon="6.08124">
        <ele>223.19999694824</ele>
        <time>2013-11-09T13:15:49Z</time>
      </trkpt>
      <trkpt lat="43.40193" lon="6.08125">
        <ele>223.19999694824</ele>
        <time>2013-11-09T13:15:51Z</time>
      </trkpt>
      <trkpt lat="43.40194" lon="6.08126">
        <ele>223.19999694824</ele>
        <time>2013-11-09T13:15:52Z</time>
      </trkpt>
      <trkpt lat="43.40195" lon="6.08129">
        <ele>223.19999694824</ele>
        <time>2013-11-09T13:15:55Z</time>
      </trkpt>
      <trkpt lat="43.40196" lon="6.08129">
        <ele>223.19999694824</ele>
        <time>2013-11-09T13:15:56Z</time>
      </trkpt>
      <trkpt lat="43.40198" lon="6.08136">
        <ele>223.19999694824</ele>
        <time>2013-11-09T13:15:59Z</time>
      </trkpt>
      <trkpt lat="43.40198" lon="6.08139">
        <ele>223.19999694824</ele>
        <time>2013-11-09T13:16:00Z</time>
      </trkpt>
      <trkpt lat="43.40197" lon="6.08151">
        <ele>223.19999694824</ele>
        <time>2013-11-09T13:16:03Z</time>
      </trkpt>
      <trkpt lat="43.40197" lon="6.08155">
        <ele>223.19999694824</ele>
        <time>2013-11-09T13:16:04Z</time>
      </trkpt>
      <trkpt lat="43.40195" lon="6.08172">
        <ele>223.60000610352</ele>
        <time>2013-11-09T13:16:08Z</time>
      </trkpt>
      <trkpt lat="43.40194" lon="6.08181">
        <ele>224.39999389648</ele>
        <time>2013-11-09T13:16:10Z</time>
      </trkpt>
      <trkpt lat="43.40192" lon="6.08191">
        <ele>225.19999694824</ele>
        <time>2013-11-09T13:16:12Z</time>
      </trkpt>
      <trkpt lat="43.40189" lon="6.08202">
        <ele>225.19999694824</ele>
        <time>2013-11-09T13:16:14Z</time>
      </trkpt>
      <trkpt lat="43.40183" lon="6.08218">
        <ele>225.19999694824</ele>
        <time>2013-11-09T13:16:17Z</time>
      </trkpt>
      <trkpt lat="43.40179" lon="6.08241">
        <ele>225.19999694824</ele>
        <time>2013-11-09T13:16:22Z</time>
      </trkpt>
      <trkpt lat="43.40179" lon="6.08245">
        <ele>225.19999694824</ele>
        <time>2013-11-09T13:16:23Z</time>
      </trkpt>
      <trkpt lat="43.40179" lon="6.08252">
        <ele>225.19999694824</ele>
        <time>2013-11-09T13:16:25Z</time>
      </trkpt>
      <trkpt lat="43.40181" lon="6.08257">
        <ele>225.19999694824</ele>
        <time>2013-11-09T13:16:28Z</time>
      </trkpt>
      <trkpt lat="43.40181" lon="6.08256">
        <ele>225.19999694824</ele>
        <time>2013-11-09T13:16:32Z</time>
      </trkpt>
      <trkpt lat="43.40181" lon="6.08258">
        <ele>225.19999694824</ele>
        <time>2013-11-09T13:16:38Z</time>
      </trkpt>
      <trkpt lat="43.40182" lon="6.0826">
        <ele>225.19999694824</ele>
        <time>2013-11-09T13:16:39Z</time>
      </trkpt>
      <trkpt lat="43.40184" lon="6.0827">
        <ele>225.60000610352</ele>
        <time>2013-11-09T13:16:42Z</time>
      </trkpt>
      <trkpt lat="43.40184" lon="6.08274">
        <ele>226.19999694824</ele>
        <time>2013-11-09T13:16:43Z</time>
      </trkpt>
      <trkpt lat="43.40186" lon="6.08279">
        <ele>226.60000610352</ele>
        <time>2013-11-09T13:16:44Z</time>
      </trkpt>
      <trkpt lat="43.40184" lon="6.08283">
        <ele>227</ele>
        <time>2013-11-09T13:16:45Z</time>
      </trkpt>
      <trkpt lat="43.40183" lon="6.08289">
        <ele>227.39999389648</ele>
        <time>2013-11-09T13:16:46Z</time>
      </trkpt>
      <trkpt lat="43.40182" lon="6.08294">
        <ele>227.39999389648</ele>
        <time>2013-11-09T13:16:47Z</time>
      </trkpt>
      <trkpt lat="43.4018" lon="6.08305">
        <ele>227.39999389648</ele>
        <time>2013-11-09T13:16:49Z</time>
      </trkpt>
      <trkpt lat="43.40179" lon="6.08324">
        <ele>227.39999389648</ele>
        <time>2013-11-09T13:16:52Z</time>
      </trkpt>
      <trkpt lat="43.40179" lon="6.08337">
        <ele>227.39999389648</ele>
        <time>2013-11-09T13:16:54Z</time>
      </trkpt>
      <trkpt lat="43.40177" lon="6.08359">
        <ele>227.39999389648</ele>
        <time>2013-11-09T13:16:58Z</time>
      </trkpt>
      <trkpt lat="43.40176" lon="6.08393">
        <ele>227.39999389648</ele>
        <time>2013-11-09T13:17:04Z</time>
      </trkpt>
      <trkpt lat="43.40176" lon="6.08399">
        <ele>227.39999389648</ele>
        <time>2013-11-09T13:17:05Z</time>
      </trkpt>
      <trkpt lat="43.40173" lon="6.08435">
        <ele>227.39999389648</ele>
        <time>2013-11-09T13:17:11Z</time>
      </trkpt>
      <trkpt lat="43.40172" lon="6.08442">
        <ele>227.80000305176</ele>
        <time>2013-11-09T13:17:12Z</time>
      </trkpt>
      <trkpt lat="43.40171" lon="6.08455">
        <ele>228.60000610352</ele>
        <time>2013-11-09T13:17:14Z</time>
      </trkpt>
      <trkpt lat="43.4017" lon="6.08474">
        <ele>229.39999389648</ele>
        <time>2013-11-09T13:17:17Z</time>
      </trkpt>
      <trkpt lat="43.40167" lon="6.08493">
        <ele>229.39999389648</ele>
        <time>2013-11-09T13:17:20Z</time>
      </trkpt>
      <trkpt lat="43.40166" lon="6.08509">
        <ele>229.39999389648</ele>
        <time>2013-11-09T13:17:23Z</time>
      </trkpt>
      <trkpt lat="43.40165" lon="6.08538">
        <ele>229</ele>
        <time>2013-11-09T13:17:28Z</time>
      </trkpt>
      <trkpt lat="43.40167" lon="6.08568">
        <ele>227.39999389648</ele>
        <time>2013-11-09T13:17:32Z</time>
      </trkpt>
      <trkpt lat="43.40165" lon="6.08574">
        <ele>227.39999389648</ele>
        <time>2013-11-09T13:17:33Z</time>
      </trkpt>
      <trkpt lat="43.40163" lon="6.0858">
        <ele>227.39999389648</ele>
        <time>2013-11-09T13:17:34Z</time>
      </trkpt>
      <trkpt lat="43.40141" lon="6.08597">
        <ele>227.39999389648</ele>
        <time>2013-11-09T13:17:40Z</time>
      </trkpt>
      <trkpt lat="43.40127" lon="6.0861">
        <ele>227.39999389648</ele>
        <time>2013-11-09T13:17:44Z</time>
      </trkpt>
      <trkpt lat="43.40103" lon="6.08633">
        <ele>227.39999389648</ele>
        <time>2013-11-09T13:17:51Z</time>
      </trkpt>
      <trkpt lat="43.40098" lon="6.08641">
        <ele>227.39999389648</ele>
        <time>2013-11-09T13:17:53Z</time>
      </trkpt>
      <trkpt lat="43.40096" lon="6.08649">
        <ele>227.39999389648</ele>
        <time>2013-11-09T13:17:55Z</time>
      </trkpt>
      <trkpt lat="43.40097" lon="6.08668">
        <ele>227.39999389648</ele>
        <time>2013-11-09T13:17:59Z</time>
      </trkpt>
      <trkpt lat="43.40099" lon="6.08677">
        <ele>228.19999694824</ele>
        <time>2013-11-09T13:18:01Z</time>
      </trkpt>
      <trkpt lat="43.401" lon="6.08687">
        <ele>229.19999694824</ele>
        <time>2013-11-09T13:18:03Z</time>
      </trkpt>
      <trkpt lat="43.401" lon="6.08692">
        <ele>229.60000610352</ele>
        <time>2013-11-09T13:18:04Z</time>
      </trkpt>
      <trkpt lat="43.40099" lon="6.08708">
        <ele>229.60000610352</ele>
        <time>2013-11-09T13:18:07Z</time>
      </trkpt>
      <trkpt lat="43.40096" lon="6.08723">
        <ele>229.60000610352</ele>
        <time>2013-11-09T13:18:10Z</time>
      </trkpt>
      <trkpt lat="43.40088" lon="6.08758">
        <ele>229.60000610352</ele>
        <time>2013-11-09T13:18:17Z</time>
      </trkpt>
      <trkpt lat="43.40076" lon="6.08794">
        <ele>230.39999389648</ele>
        <time>2013-11-09T13:18:24Z</time>
      </trkpt>
      <trkpt lat="43.40065" lon="6.08824">
        <ele>231.60000610352</ele>
        <time>2013-11-09T13:18:30Z</time>
      </trkpt>
      <trkpt lat="43.40058" lon="6.08845">
        <ele>231.60000610352</ele>
        <time>2013-11-09T13:18:34Z</time>
      </trkpt>
      <trkpt lat="43.40055" lon="6.08856">
        <ele>231.60000610352</ele>
        <time>2013-11-09T13:18:36Z</time>
      </trkpt>
      <trkpt lat="43.40047" lon="6.08885">
        <ele>231.60000610352</ele>
        <time>2013-11-09T13:18:41Z</time>
      </trkpt>
      <trkpt lat="43.40043" lon="6.08897">
        <ele>231.60000610352</ele>
        <time>2013-11-09T13:18:43Z</time>
      </trkpt>
      <trkpt lat="43.40037" lon="6.08916">
        <ele>231.60000610352</ele>
        <time>2013-11-09T13:18:47Z</time>
      </trkpt>
      <trkpt lat="43.40027" lon="6.08955">
        <ele>231.60000610352</ele>
        <time>2013-11-09T13:18:54Z</time>
      </trkpt>
      <trkpt lat="43.40021" lon="6.08962">
        <ele>231.60000610352</ele>
        <time>2013-11-09T13:18:56Z</time>
      </trkpt>
      <trkpt lat="43.4001" lon="6.08968">
        <ele>231.60000610352</ele>
        <time>2013-11-09T13:18:59Z</time>
      </trkpt>
      <trkpt lat="43.39988" lon="6.08974">
        <ele>231.60000610352</ele>
        <time>2013-11-09T13:19:05Z</time>
      </trkpt>
      <trkpt lat="43.3997" lon="6.08976">
        <ele>231.60000610352</ele>
        <time>2013-11-09T13:19:10Z</time>
      </trkpt>
      <trkpt lat="43.39952" lon="6.08981">
        <ele>231.60000610352</ele>
        <time>2013-11-09T13:19:15Z</time>
      </trkpt>
      <trkpt lat="43.39939" lon="6.08982">
        <ele>231.60000610352</ele>
        <time>2013-11-09T13:19:18Z</time>
      </trkpt>
      <trkpt lat="43.39927" lon="6.08982">
        <ele>232.60000610352</ele>
        <time>2013-11-09T13:19:21Z</time>
      </trkpt>
      <trkpt lat="43.39915" lon="6.08981">
        <ele>233.80000305176</ele>
        <time>2013-11-09T13:19:24Z</time>
      </trkpt>
      <trkpt lat="43.39907" lon="6.08981">
        <ele>234.80000305176</ele>
        <time>2013-11-09T13:19:27Z</time>
      </trkpt>
      <trkpt lat="43.399" lon="6.08983">
        <ele>236</ele>
        <time>2013-11-09T13:19:29Z</time>
      </trkpt>
      <trkpt lat="43.39889" lon="6.08988">
        <ele>236</ele>
        <time>2013-11-09T13:19:32Z</time>
      </trkpt>
      <trkpt lat="43.39874" lon="6.09001">
        <ele>236</ele>
        <time>2013-11-09T13:19:37Z</time>
      </trkpt>
      <trkpt lat="43.39861" lon="6.09016">
        <ele>236</ele>
        <time>2013-11-09T13:19:42Z</time>
      </trkpt>
      <trkpt lat="43.39853" lon="6.09024">
        <ele>237.19999694824</ele>
        <time>2013-11-09T13:19:45Z</time>
      </trkpt>
      <trkpt lat="43.39838" lon="6.09038">
        <ele>238</ele>
        <time>2013-11-09T13:19:51Z</time>
      </trkpt>
      <trkpt lat="43.3983" lon="6.09049">
        <ele>238</ele>
        <time>2013-11-09T13:19:54Z</time>
      </trkpt>
      <trkpt lat="43.39826" lon="6.09058">
        <ele>238.39999389648</ele>
        <time>2013-11-09T13:19:56Z</time>
      </trkpt>
      <trkpt lat="43.39823" lon="6.09067">
        <ele>239.19999694824</ele>
        <time>2013-11-09T13:19:58Z</time>
      </trkpt>
      <trkpt lat="43.39819" lon="6.09075">
        <ele>240</ele>
        <time>2013-11-09T13:20:00Z</time>
      </trkpt>
      <trkpt lat="43.39813" lon="6.0909">
        <ele>240</ele>
        <time>2013-11-09T13:20:04Z</time>
      </trkpt>
      <trkpt lat="43.39808" lon="6.09111">
        <ele>240</ele>
        <time>2013-11-09T13:20:08Z</time>
      </trkpt>
      <trkpt lat="43.39803" lon="6.09143">
        <ele>240</ele>
        <time>2013-11-09T13:20:13Z</time>
      </trkpt>
      <trkpt lat="43.39802" lon="6.09149">
        <ele>240</ele>
        <time>2013-11-09T13:20:14Z</time>
      </trkpt>
      <trkpt lat="43.398" lon="6.0917">
        <ele>240</ele>
        <time>2013-11-09T13:20:17Z</time>
      </trkpt>
      <trkpt lat="43.39801" lon="6.09192">
        <ele>239.60000610352</ele>
        <time>2013-11-09T13:20:20Z</time>
      </trkpt>
      <trkpt lat="43.39801" lon="6.092">
        <ele>239.19999694824</ele>
        <time>2013-11-09T13:20:21Z</time>
      </trkpt>
      <trkpt lat="43.39801" lon="6.09207">
        <ele>238.80000305176</ele>
        <time>2013-11-09T13:20:22Z</time>
      </trkpt>
      <trkpt lat="43.398" lon="6.0922">
        <ele>238</ele>
        <time>2013-11-09T13:20:24Z</time>
      </trkpt>
      <trkpt lat="43.39798" lon="6.09234">
        <ele>238</ele>
        <time>2013-11-09T13:20:26Z</time>
      </trkpt>
      <trkpt lat="43.39797" lon="6.09247">
        <ele>238</ele>
        <time>2013-11-09T13:20:28Z</time>
      </trkpt>
      <trkpt lat="43.39787" lon="6.09286">
        <ele>238</ele>
        <time>2013-11-09T13:20:34Z</time>
      </trkpt>
      <trkpt lat="43.39783" lon="6.09299">
        <ele>238</ele>
        <time>2013-11-09T13:20:36Z</time>
      </trkpt>
      <trkpt lat="43.39781" lon="6.0931">
        <ele>238</ele>
        <time>2013-11-09T13:20:38Z</time>
      </trkpt>
      <trkpt lat="43.39775" lon="6.09327">
        <ele>238</ele>
        <time>2013-11-09T13:20:41Z</time>
      </trkpt>
      <trkpt lat="43.3977" lon="6.09338">
        <ele>238</ele>
        <time>2013-11-09T13:20:43Z</time>
      </trkpt>
      <trkpt lat="43.39757" lon="6.09364">
        <ele>238</ele>
        <time>2013-11-09T13:20:49Z</time>
      </trkpt>
      <trkpt lat="43.39746" lon="6.09382">
        <ele>238</ele>
        <time>2013-11-09T13:20:54Z</time>
      </trkpt>
      <trkpt lat="43.3974" lon="6.09392">
        <ele>238</ele>
        <time>2013-11-09T13:20:57Z</time>
      </trkpt>
      <trkpt lat="43.39732" lon="6.09405">
        <ele>238</ele>
        <time>2013-11-09T13:21:01Z</time>
      </trkpt>
      <trkpt lat="43.39728" lon="6.09411">
        <ele>238</ele>
        <time>2013-11-09T13:21:03Z</time>
      </trkpt>
      <trkpt lat="43.39717" lon="6.09421">
        <ele>238</ele>
        <time>2013-11-09T13:21:07Z</time>
      </trkpt>
      <trkpt lat="43.397" lon="6.09426">
        <ele>238</ele>
        <time>2013-11-09T13:21:13Z</time>
      </trkpt>
      <trkpt lat="43.39695" lon="6.09429">
        <ele>238</ele>
        <time>2013-11-09T13:21:15Z</time>
      </trkpt>
      <trkpt lat="43.3969" lon="6.09434">
        <ele>238.39999389648</ele>
        <time>2013-11-09T13:21:17Z</time>
      </trkpt>
      <trkpt lat="43.39682" lon="6.09443">
        <ele>240.19999694824</ele>
        <time>2013-11-09T13:21:21Z</time>
      </trkpt>
      <trkpt lat="43.39677" lon="6.09454">
        <ele>241</ele>
        <time>2013-11-09T13:21:25Z</time>
      </trkpt>
      <trkpt lat="43.39671" lon="6.09478">
        <ele>242.80000305176</ele>
        <time>2013-11-09T13:21:32Z</time>
      </trkpt>
      <trkpt lat="43.39667" lon="6.09488">
        <ele>244</ele>
        <time>2013-11-09T13:21:35Z</time>
      </trkpt>
      <trkpt lat="43.39666" lon="6.09491">
        <ele>244.39999389648</ele>
        <time>2013-11-09T13:21:36Z</time>
      </trkpt>
      <trkpt lat="43.39661" lon="6.09502">
        <ele>244.80000305176</ele>
        <time>2013-11-09T13:21:40Z</time>
      </trkpt>
      <trkpt lat="43.39658" lon="6.09512">
        <ele>246.39999389648</ele>
        <time>2013-11-09T13:21:44Z</time>
      </trkpt>
      <trkpt lat="43.39655" lon="6.09519">
        <ele>246.80000305176</ele>
        <time>2013-11-09T13:21:47Z</time>
      </trkpt>
      <trkpt lat="43.39652" lon="6.09523">
        <ele>247.60000610352</ele>
        <time>2013-11-09T13:21:49Z</time>
      </trkpt>
      <trkpt lat="43.39648" lon="6.09528">
        <ele>248.39999389648</ele>
        <time>2013-11-09T13:21:52Z</time>
      </trkpt>
      <trkpt lat="43.39644" lon="6.09535">
        <ele>248.80000305176</ele>
        <time>2013-11-09T13:21:56Z</time>
      </trkpt>
      <trkpt lat="43.39639" lon="6.09539">
        <ele>250.60000610352</ele>
        <time>2013-11-09T13:21:59Z</time>
      </trkpt>
      <trkpt lat="43.39634" lon="6.09546">
        <ele>250.60000610352</ele>
        <time>2013-11-09T13:22:04Z</time>
      </trkpt>
      <trkpt lat="43.39628" lon="6.09564">
        <ele>250.60000610352</ele>
        <time>2013-11-09T13:22:11Z</time>
      </trkpt>
      <trkpt lat="43.39627" lon="6.09568">
        <ele>251.39999389648</ele>
        <time>2013-11-09T13:22:13Z</time>
      </trkpt>
      <trkpt lat="43.39624" lon="6.09574">
        <ele>252.80000305176</ele>
        <time>2013-11-09T13:22:16Z</time>
      </trkpt>
      <trkpt lat="43.39621" lon="6.09583">
        <ele>252.80000305176</ele>
        <time>2013-11-09T13:22:21Z</time>
      </trkpt>
      <trkpt lat="43.39618" lon="6.09592">
        <ele>252.80000305176</ele>
        <time>2013-11-09T13:22:27Z</time>
      </trkpt>
      <trkpt lat="43.39617" lon="6.09594">
        <ele>252.80000305176</ele>
        <time>2013-11-09T13:22:28Z</time>
      </trkpt>
      <trkpt lat="43.39616" lon="6.09599">
        <ele>252.80000305176</ele>
        <time>2013-11-09T13:22:31Z</time>
      </trkpt>
      <trkpt lat="43.39615" lon="6.09602">
        <ele>252.80000305176</ele>
        <time>2013-11-09T13:22:34Z</time>
      </trkpt>
      <trkpt lat="43.39615" lon="6.09603">
        <ele>252.80000305176</ele>
        <time>2013-11-09T13:22:35Z</time>
      </trkpt>
      <trkpt lat="43.39615" lon="6.09603">
        <ele>252.80000305176</ele>
        <time>2013-11-09T13:22:42Z</time>
      </trkpt>
      <trkpt lat="43.39614" lon="6.09605">
        <ele>252.80000305176</ele>
        <time>2013-11-09T13:22:46Z</time>
      </trkpt>
      <trkpt lat="43.39614" lon="6.09605">
        <ele>252.80000305176</ele>
        <time>2013-11-09T13:22:50Z</time>
      </trkpt>
      <trkpt lat="43.39612" lon="6.0961">
        <ele>252.80000305176</ele>
        <time>2013-11-09T13:22:53Z</time>
      </trkpt>
      <trkpt lat="43.39608" lon="6.09629">
        <ele>252.80000305176</ele>
        <time>2013-11-09T13:22:58Z</time>
      </trkpt>
      <trkpt lat="43.39605" lon="6.09646">
        <ele>252.80000305176</ele>
        <time>2013-11-09T13:23:02Z</time>
      </trkpt>
      <trkpt lat="43.39602" lon="6.0966">
        <ele>252.80000305176</ele>
        <time>2013-11-09T13:23:05Z</time>
      </trkpt>
      <trkpt lat="43.39597" lon="6.09683">
        <ele>252.80000305176</ele>
        <time>2013-11-09T13:23:10Z</time>
      </trkpt>
      <trkpt lat="43.39593" lon="6.09707">
        <ele>252.80000305176</ele>
        <time>2013-11-09T13:23:15Z</time>
      </trkpt>
      <trkpt lat="43.39581" lon="6.09746">
        <ele>252.80000305176</ele>
        <time>2013-11-09T13:23:22Z</time>
      </trkpt>
      <trkpt lat="43.39579" lon="6.09751">
        <ele>252.80000305176</ele>
        <time>2013-11-09T13:23:23Z</time>
      </trkpt>
      <trkpt lat="43.39578" lon="6.09757">
        <ele>253.19999694824</ele>
        <time>2013-11-09T13:23:24Z</time>
      </trkpt>
      <trkpt lat="43.39574" lon="6.09769">
        <ele>254</ele>
        <time>2013-11-09T13:23:26Z</time>
      </trkpt>
      <trkpt lat="43.39568" lon="6.09792">
        <ele>254.80000305176</ele>
        <time>2013-11-09T13:23:30Z</time>
      </trkpt>
      <trkpt lat="43.39562" lon="6.09826">
        <ele>254.80000305176</ele>
        <time>2013-11-09T13:23:36Z</time>
      </trkpt>
      <trkpt lat="43.39558" lon="6.09849">
        <ele>254.80000305176</ele>
        <time>2013-11-09T13:23:40Z</time>
      </trkpt>
      <trkpt lat="43.39557" lon="6.09861">
        <ele>254.80000305176</ele>
        <time>2013-11-09T13:23:42Z</time>
      </trkpt>
      <trkpt lat="43.39554" lon="6.09878">
        <ele>254.80000305176</ele>
        <time>2013-11-09T13:23:45Z</time>
      </trkpt>
      <trkpt lat="43.39552" lon="6.0989">
        <ele>254.80000305176</ele>
        <time>2013-11-09T13:23:47Z</time>
      </trkpt>
      <trkpt lat="43.39544" lon="6.09905">
        <ele>254.80000305176</ele>
        <time>2013-11-09T13:23:50Z</time>
      </trkpt>
      <trkpt lat="43.39545" lon="6.09924">
        <ele>254.80000305176</ele>
        <time>2013-11-09T13:23:53Z</time>
      </trkpt>
      <trkpt lat="43.39547" lon="6.0993">
        <ele>254.80000305176</ele>
        <time>2013-11-09T13:23:54Z</time>
      </trkpt>
      <trkpt lat="43.3955" lon="6.09937">
        <ele>254.80000305176</ele>
        <time>2013-11-09T13:23:55Z</time>
      </trkpt>
      <trkpt lat="43.39553" lon="6.09953">
        <ele>254.19999694824</ele>
        <time>2013-11-09T13:23:57Z</time>
      </trkpt>
      <trkpt lat="43.39553" lon="6.09961">
        <ele>253.80000305176</ele>
        <time>2013-11-09T13:23:58Z</time>
      </trkpt>
      <trkpt lat="43.39552" lon="6.09976">
        <ele>252.39999389648</ele>
        <time>2013-11-09T13:24:00Z</time>
      </trkpt>
      <trkpt lat="43.39552" lon="6.09984">
        <ele>252</ele>
        <time>2013-11-09T13:24:01Z</time>
      </trkpt>
      <trkpt lat="43.39551" lon="6.09998">
        <ele>251</ele>
        <time>2013-11-09T13:24:03Z</time>
      </trkpt>
      <trkpt lat="43.39552" lon="6.10004">
        <ele>250.60000610352</ele>
        <time>2013-11-09T13:24:04Z</time>
      </trkpt>
      <trkpt lat="43.39553" lon="6.10008">
        <ele>250.19999694824</ele>
        <time>2013-11-09T13:24:05Z</time>
      </trkpt>
      <trkpt lat="43.39555" lon="6.10011">
        <ele>250.19999694824</ele>
        <time>2013-11-09T13:24:06Z</time>
      </trkpt>
      <trkpt lat="43.39558" lon="6.10018">
        <ele>250.19999694824</ele>
        <time>2013-11-09T13:24:08Z</time>
      </trkpt>
      <trkpt lat="43.39559" lon="6.10026">
        <ele>250.19999694824</ele>
        <time>2013-11-09T13:24:10Z</time>
      </trkpt>
      <trkpt lat="43.39551" lon="6.10053">
        <ele>250.19999694824</ele>
        <time>2013-11-09T13:24:16Z</time>
      </trkpt>
      <trkpt lat="43.39541" lon="6.10087">
        <ele>250.19999694824</ele>
        <time>2013-11-09T13:24:23Z</time>
      </trkpt>
      <trkpt lat="43.39539" lon="6.10091">
        <ele>250.19999694824</ele>
        <time>2013-11-09T13:24:24Z</time>
      </trkpt>
      <trkpt lat="43.39529" lon="6.10107">
        <ele>250.19999694824</ele>
        <time>2013-11-09T13:24:28Z</time>
      </trkpt>
      <trkpt lat="43.39523" lon="6.10124">
        <ele>250.19999694824</ele>
        <time>2013-11-09T13:24:32Z</time>
      </trkpt>
      <trkpt lat="43.39516" lon="6.1015">
        <ele>251.19999694824</ele>
        <time>2013-11-09T13:24:38Z</time>
      </trkpt>
      <trkpt lat="43.39513" lon="6.10162">
        <ele>252.39999389648</ele>
        <time>2013-11-09T13:24:41Z</time>
      </trkpt>
      <trkpt lat="43.39508" lon="6.10177">
        <ele>252.39999389648</ele>
        <time>2013-11-09T13:24:45Z</time>
      </trkpt>
      <trkpt lat="43.39502" lon="6.10202">
        <ele>252.39999389648</ele>
        <time>2013-11-09T13:24:51Z</time>
      </trkpt>
      <trkpt lat="43.39494" lon="6.10226">
        <ele>252.39999389648</ele>
        <time>2013-11-09T13:24:57Z</time>
      </trkpt>
      <trkpt lat="43.39485" lon="6.10246">
        <ele>254.39999389648</ele>
        <time>2013-11-09T13:25:03Z</time>
      </trkpt>
      <trkpt lat="43.39473" lon="6.10262">
        <ele>254.39999389648</ele>
        <time>2013-11-09T13:25:09Z</time>
      </trkpt>
      <trkpt lat="43.3946" lon="6.10276">
        <ele>255.19999694824</ele>
        <time>2013-11-09T13:25:15Z</time>
      </trkpt>
      <trkpt lat="43.39458" lon="6.10278">
        <ele>255.60000610352</ele>
        <time>2013-11-09T13:25:16Z</time>
      </trkpt>
      <trkpt lat="43.39453" lon="6.10282">
        <ele>256.60000610352</ele>
        <time>2013-11-09T13:25:18Z</time>
      </trkpt>
      <trkpt lat="43.39449" lon="6.10285">
        <ele>256.60000610352</ele>
        <time>2013-11-09T13:25:21Z</time>
      </trkpt>
      <trkpt lat="43.39449" lon="6.10285">
        <ele>256.60000610352</ele>
        <time>2013-11-09T13:25:31Z</time>
      </trkpt>
      <trkpt lat="43.39449" lon="6.10285">
        <ele>256.60000610352</ele>
        <time>2013-11-09T13:25:38Z</time>
      </trkpt>
      <trkpt lat="43.39447" lon="6.10288">
        <ele>256.60000610352</ele>
        <time>2013-11-09T13:25:41Z</time>
      </trkpt>
      <trkpt lat="43.39444" lon="6.10291">
        <ele>256.60000610352</ele>
        <time>2013-11-09T13:25:45Z</time>
      </trkpt>
      <trkpt lat="43.39444" lon="6.10291">
        <ele>256.60000610352</ele>
        <time>2013-11-09T13:25:56Z</time>
      </trkpt>
      <trkpt lat="43.39443" lon="6.10292">
        <ele>256.60000610352</ele>
        <time>2013-11-09T13:26:04Z</time>
      </trkpt>
      <trkpt lat="43.39443" lon="6.10292">
        <ele>256.60000610352</ele>
        <time>2013-11-09T13:26:08Z</time>
      </trkpt>
      <trkpt lat="43.39443" lon="6.10292">
        <ele>256.60000610352</ele>
        <time>2013-11-09T13:26:17Z</time>
      </trkpt>
      <trkpt lat="43.39442" lon="6.10292">
        <ele>256.60000610352</ele>
        <time>2013-11-09T13:26:21Z</time>
      </trkpt>
      <trkpt lat="43.39434" lon="6.10298">
        <ele>256.60000610352</ele>
        <time>2013-11-09T13:26:26Z</time>
      </trkpt>
      <trkpt lat="43.39431" lon="6.10301">
        <ele>257</ele>
        <time>2013-11-09T13:26:28Z</time>
      </trkpt>
      <trkpt lat="43.3943" lon="6.10302">
        <ele>257.79998779297</ele>
        <time>2013-11-09T13:26:29Z</time>
      </trkpt>
      <trkpt lat="43.39426" lon="6.10306">
        <ele>258.60000610352</ele>
        <time>2013-11-09T13:26:31Z</time>
      </trkpt>
      <trkpt lat="43.39422" lon="6.10309">
        <ele>258.60000610352</ele>
        <time>2013-11-09T13:26:33Z</time>
      </trkpt>
      <trkpt lat="43.39409" lon="6.1033">
        <ele>258.60000610352</ele>
        <time>2013-11-09T13:26:40Z</time>
      </trkpt>
      <trkpt lat="43.39395" lon="6.10349">
        <ele>258.60000610352</ele>
        <time>2013-11-09T13:26:46Z</time>
      </trkpt>
      <trkpt lat="43.39384" lon="6.10371">
        <ele>258.60000610352</ele>
        <time>2013-11-09T13:26:52Z</time>
      </trkpt>
      <trkpt lat="43.3937" lon="6.10393">
        <ele>258.60000610352</ele>
        <time>2013-11-09T13:26:59Z</time>
      </trkpt>
      <trkpt lat="43.39368" lon="6.1041">
        <ele>258.60000610352</ele>
        <time>2013-11-09T13:27:03Z</time>
      </trkpt>
      <trkpt lat="43.39365" lon="6.10418">
        <ele>259.39999389648</ele>
        <time>2013-11-09T13:27:05Z</time>
      </trkpt>
      <trkpt lat="43.39359" lon="6.10422">
        <ele>260.20001220703</ele>
        <time>2013-11-09T13:27:07Z</time>
      </trkpt>
      <trkpt lat="43.39351" lon="6.10421">
        <ele>260.60000610352</ele>
        <time>2013-11-09T13:27:10Z</time>
      </trkpt>
      <trkpt lat="43.39344" lon="6.1042">
        <ele>260.60000610352</ele>
        <time>2013-11-09T13:27:12Z</time>
      </trkpt>
      <trkpt lat="43.39338" lon="6.10423">
        <ele>260.60000610352</ele>
        <time>2013-11-09T13:27:14Z</time>
      </trkpt>
      <trkpt lat="43.39333" lon="6.10428">
        <ele>260.60000610352</ele>
        <time>2013-11-09T13:27:16Z</time>
      </trkpt>
      <trkpt lat="43.3932" lon="6.10446">
        <ele>261.79998779297</ele>
        <time>2013-11-09T13:27:22Z</time>
      </trkpt>
      <trkpt lat="43.39317" lon="6.1045">
        <ele>262.20001220703</ele>
        <time>2013-11-09T13:27:23Z</time>
      </trkpt>
      <trkpt lat="43.39316" lon="6.10453">
        <ele>262.60000610352</ele>
        <time>2013-11-09T13:27:24Z</time>
      </trkpt>
      <trkpt lat="43.39304" lon="6.10476">
        <ele>262.60000610352</ele>
        <time>2013-11-09T13:27:31Z</time>
      </trkpt>
      <trkpt lat="43.39296" lon="6.1049">
        <ele>262.60000610352</ele>
        <time>2013-11-09T13:27:36Z</time>
      </trkpt>
      <trkpt lat="43.39291" lon="6.10506">
        <ele>264.79998779297</ele>
        <time>2013-11-09T13:27:41Z</time>
      </trkpt>
      <trkpt lat="43.39289" lon="6.10512">
        <ele>264.79998779297</ele>
        <time>2013-11-09T13:27:43Z</time>
      </trkpt>
      <trkpt lat="43.39278" lon="6.10534">
        <ele>265.60000610352</ele>
        <time>2013-11-09T13:27:51Z</time>
      </trkpt>
      <trkpt lat="43.39275" lon="6.10539">
        <ele>266.60000610352</ele>
        <time>2013-11-09T13:27:53Z</time>
      </trkpt>
      <trkpt lat="43.39275" lon="6.10542">
        <ele>267</ele>
        <time>2013-11-09T13:27:54Z</time>
      </trkpt>
      <trkpt lat="43.39274" lon="6.10546">
        <ele>267</ele>
        <time>2013-11-09T13:27:56Z</time>
      </trkpt>
      <trkpt lat="43.3927" lon="6.10561">
        <ele>267</ele>
        <time>2013-11-09T13:28:01Z</time>
      </trkpt>
      <trkpt lat="43.39262" lon="6.10582">
        <ele>267</ele>
        <time>2013-11-09T13:28:07Z</time>
      </trkpt>
      <trkpt lat="43.39252" lon="6.10597">
        <ele>267</ele>
        <time>2013-11-09T13:28:12Z</time>
      </trkpt>
      <trkpt lat="43.3924" lon="6.10604">
        <ele>267</ele>
        <time>2013-11-09T13:28:17Z</time>
      </trkpt>
      <trkpt lat="43.39233" lon="6.10609">
        <ele>267</ele>
        <time>2013-11-09T13:28:20Z</time>
      </trkpt>
      <trkpt lat="43.3923" lon="6.10615">
        <ele>267</ele>
        <time>2013-11-09T13:28:22Z</time>
      </trkpt>
      <trkpt lat="43.39227" lon="6.10621">
        <ele>267</ele>
        <time>2013-11-09T13:28:24Z</time>
      </trkpt>
      <trkpt lat="43.39212" lon="6.10634">
        <ele>267</ele>
        <time>2013-11-09T13:28:31Z</time>
      </trkpt>
      <trkpt lat="43.39209" lon="6.10636">
        <ele>267</ele>
        <time>2013-11-09T13:28:32Z</time>
      </trkpt>
      <trkpt lat="43.39196" lon="6.10641">
        <ele>267</ele>
        <time>2013-11-09T13:28:37Z</time>
      </trkpt>
      <trkpt lat="43.39188" lon="6.10651">
        <ele>267</ele>
        <time>2013-11-09T13:28:42Z</time>
      </trkpt>
      <trkpt lat="43.39187" lon="6.10654">
        <ele>267</ele>
        <time>2013-11-09T13:28:43Z</time>
      </trkpt>
      <trkpt lat="43.39184" lon="6.10662">
        <ele>267</ele>
        <time>2013-11-09T13:28:48Z</time>
      </trkpt>
      <trkpt lat="43.39183" lon="6.10663">
        <ele>267</ele>
        <time>2013-11-09T13:28:49Z</time>
      </trkpt>
      <trkpt lat="43.39179" lon="6.10675">
        <ele>267</ele>
        <time>2013-11-09T13:28:55Z</time>
      </trkpt>
      <trkpt lat="43.39178" lon="6.10677">
        <ele>267</ele>
        <time>2013-11-09T13:28:56Z</time>
      </trkpt>
      <trkpt lat="43.39176" lon="6.1069">
        <ele>267</ele>
        <time>2013-11-09T13:29:03Z</time>
      </trkpt>
      <trkpt lat="43.39174" lon="6.10708">
        <ele>267</ele>
        <time>2013-11-09T13:29:10Z</time>
      </trkpt>
      <trkpt lat="43.3917" lon="6.10722">
        <ele>267</ele>
        <time>2013-11-09T13:29:15Z</time>
      </trkpt>
      <trkpt lat="43.39163" lon="6.10736">
        <ele>267</ele>
        <time>2013-11-09T13:29:21Z</time>
      </trkpt>
      <trkpt lat="43.39148" lon="6.10749">
        <ele>267.79998779297</ele>
        <time>2013-11-09T13:29:29Z</time>
      </trkpt>
      <trkpt lat="43.39145" lon="6.10751">
        <ele>268.20001220703</ele>
        <time>2013-11-09T13:29:30Z</time>
      </trkpt>
      <trkpt lat="43.3914" lon="6.10754">
        <ele>269.20001220703</ele>
        <time>2013-11-09T13:29:32Z</time>
      </trkpt>
      <trkpt lat="43.39138" lon="6.10755">
        <ele>269.20001220703</ele>
        <time>2013-11-09T13:29:33Z</time>
      </trkpt>
      <trkpt lat="43.39132" lon="6.10759">
        <ele>269.20001220703</ele>
        <time>2013-11-09T13:29:35Z</time>
      </trkpt>
      <trkpt lat="43.39123" lon="6.10766">
        <ele>269.20001220703</ele>
        <time>2013-11-09T13:29:39Z</time>
      </trkpt>
      <trkpt lat="43.39113" lon="6.10773">
        <ele>269.20001220703</ele>
        <time>2013-11-09T13:29:43Z</time>
      </trkpt>
      <trkpt lat="43.39102" lon="6.10783">
        <ele>270</ele>
        <time>2013-11-09T13:29:48Z</time>
      </trkpt>
      <trkpt lat="43.39095" lon="6.10791">
        <ele>271.20001220703</ele>
        <time>2013-11-09T13:29:51Z</time>
      </trkpt>
      <trkpt lat="43.39083" lon="6.10803">
        <ele>271.20001220703</ele>
        <time>2013-11-09T13:29:56Z</time>
      </trkpt>
      <trkpt lat="43.39064" lon="6.10817">
        <ele>271.20001220703</ele>
        <time>2013-11-09T13:30:02Z</time>
      </trkpt>
      <trkpt lat="43.39051" lon="6.10822">
        <ele>271.20001220703</ele>
        <time>2013-11-09T13:30:06Z</time>
      </trkpt>
      <trkpt lat="43.39041" lon="6.10827">
        <ele>271.20001220703</ele>
        <time>2013-11-09T13:30:10Z</time>
      </trkpt>
      <trkpt lat="43.3902" lon="6.10835">
        <ele>271.20001220703</ele>
        <time>2013-11-09T13:30:17Z</time>
      </trkpt>
      <trkpt lat="43.39001" lon="6.10844">
        <ele>271.20001220703</ele>
        <time>2013-11-09T13:30:23Z</time>
      </trkpt>
      <trkpt lat="43.38984" lon="6.10842">
        <ele>271.20001220703</ele>
        <time>2013-11-09T13:30:28Z</time>
      </trkpt>
      <trkpt lat="43.38961" lon="6.10834">
        <ele>271.20001220703</ele>
        <time>2013-11-09T13:30:35Z</time>
      </trkpt>
      <trkpt lat="43.38951" lon="6.10831">
        <ele>271.20001220703</ele>
        <time>2013-11-09T13:30:38Z</time>
      </trkpt>
      <trkpt lat="43.38936" lon="6.10824">
        <ele>271.20001220703</ele>
        <time>2013-11-09T13:30:43Z</time>
      </trkpt>
      <trkpt lat="43.38924" lon="6.10806">
        <ele>271.20001220703</ele>
        <time>2013-11-09T13:30:49Z</time>
      </trkpt>
      <trkpt lat="43.3892" lon="6.10788">
        <ele>271.20001220703</ele>
        <time>2013-11-09T13:30:54Z</time>
      </trkpt>
      <trkpt lat="43.38919" lon="6.10784">
        <ele>271.20001220703</ele>
        <time>2013-11-09T13:30:55Z</time>
      </trkpt>
      <trkpt lat="43.3891" lon="6.10769">
        <ele>271.60000610352</ele>
        <time>2013-11-09T13:31:00Z</time>
      </trkpt>
      <trkpt lat="43.38901" lon="6.10764">
        <ele>272.79998779297</ele>
        <time>2013-11-09T13:31:03Z</time>
      </trkpt>
      <trkpt lat="43.38898" lon="6.10763">
        <ele>273.20001220703</ele>
        <time>2013-11-09T13:31:04Z</time>
      </trkpt>
      <trkpt lat="43.38889" lon="6.1076">
        <ele>273.20001220703</ele>
        <time>2013-11-09T13:31:07Z</time>
      </trkpt>
      <trkpt lat="43.38869" lon="6.10757">
        <ele>273.20001220703</ele>
        <time>2013-11-09T13:31:14Z</time>
      </trkpt>
      <trkpt lat="43.3885" lon="6.10758">
        <ele>273.20001220703</ele>
        <time>2013-11-09T13:31:21Z</time>
      </trkpt>
      <trkpt lat="43.38826" lon="6.10758">
        <ele>275.20001220703</ele>
        <time>2013-11-09T13:31:29Z</time>
      </trkpt>
      <trkpt lat="43.38814" lon="6.10758">
        <ele>275.20001220703</ele>
        <time>2013-11-09T13:31:33Z</time>
      </trkpt>
      <trkpt lat="43.38796" lon="6.10759">
        <ele>275.20001220703</ele>
        <time>2013-11-09T13:31:39Z</time>
      </trkpt>
      <trkpt lat="43.38784" lon="6.1076">
        <ele>275.60000610352</ele>
        <time>2013-11-09T13:31:45Z</time>
      </trkpt>
      <trkpt lat="43.38778" lon="6.10757">
        <ele>277.20001220703</ele>
        <time>2013-11-09T13:31:49Z</time>
      </trkpt>
      <trkpt lat="43.38777" lon="6.10756">
        <ele>277.20001220703</ele>
        <time>2013-11-09T13:31:50Z</time>
      </trkpt>
      <trkpt lat="43.38776" lon="6.10757">
        <ele>277.20001220703</ele>
        <time>2013-11-09T13:31:51Z</time>
      </trkpt>
      <trkpt lat="43.38772" lon="6.10759">
        <ele>277.20001220703</ele>
        <time>2013-11-09T13:31:55Z</time>
      </trkpt>
      <trkpt lat="43.38773" lon="6.10759">
        <ele>277.20001220703</ele>
        <time>2013-11-09T13:32:02Z</time>
      </trkpt>
      <trkpt lat="43.38766" lon="6.10761">
        <ele>277.20001220703</ele>
        <time>2013-11-09T13:32:19Z</time>
      </trkpt>
      <trkpt lat="43.3876" lon="6.10765">
        <ele>277.20001220703</ele>
        <time>2013-11-09T13:32:23Z</time>
      </trkpt>
      <trkpt lat="43.38757" lon="6.10766">
        <ele>278</ele>
        <time>2013-11-09T13:32:25Z</time>
      </trkpt>
      <trkpt lat="43.38755" lon="6.10767">
        <ele>278.60000610352</ele>
        <time>2013-11-09T13:32:26Z</time>
      </trkpt>
      <trkpt lat="43.38753" lon="6.10768">
        <ele>279</ele>
        <time>2013-11-09T13:32:27Z</time>
      </trkpt>
      <trkpt lat="43.38749" lon="6.10768">
        <ele>279.39999389648</ele>
        <time>2013-11-09T13:32:28Z</time>
      </trkpt>
      <trkpt lat="43.38746" lon="6.1077">
        <ele>279.39999389648</ele>
        <time>2013-11-09T13:32:29Z</time>
      </trkpt>
      <trkpt lat="43.3874" lon="6.10774">
        <ele>279.39999389648</ele>
        <time>2013-11-09T13:32:32Z</time>
      </trkpt>
      <trkpt lat="43.38738" lon="6.10777">
        <ele>279.39999389648</ele>
        <time>2013-11-09T13:32:33Z</time>
      </trkpt>
      <trkpt lat="43.38733" lon="6.10793">
        <ele>279.39999389648</ele>
        <time>2013-11-09T13:32:37Z</time>
      </trkpt>
      <trkpt lat="43.3872" lon="6.10802">
        <ele>279.39999389648</ele>
        <time>2013-11-09T13:32:42Z</time>
      </trkpt>
      <trkpt lat="43.38704" lon="6.10812">
        <ele>281.20001220703</ele>
        <time>2013-11-09T13:32:48Z</time>
      </trkpt>
      <trkpt lat="43.38702" lon="6.10815">
        <ele>281.60000610352</ele>
        <time>2013-11-09T13:32:49Z</time>
      </trkpt>
      <trkpt lat="43.38695" lon="6.1083">
        <ele>281.60000610352</ele>
        <time>2013-11-09T13:32:54Z</time>
      </trkpt>
      <trkpt lat="43.38692" lon="6.1085">
        <ele>281.60000610352</ele>
        <time>2013-11-09T13:32:59Z</time>
      </trkpt>
      <trkpt lat="43.38686" lon="6.10878">
        <ele>281.60000610352</ele>
        <time>2013-11-09T13:33:05Z</time>
      </trkpt>
      <trkpt lat="43.38679" lon="6.109">
        <ele>281.60000610352</ele>
        <time>2013-11-09T13:33:10Z</time>
      </trkpt>
      <trkpt lat="43.38673" lon="6.10927">
        <ele>281.60000610352</ele>
        <time>2013-11-09T13:33:16Z</time>
      </trkpt>
      <trkpt lat="43.38667" lon="6.10956">
        <ele>281.60000610352</ele>
        <time>2013-11-09T13:33:23Z</time>
      </trkpt>
      <trkpt lat="43.38663" lon="6.10985">
        <ele>281.60000610352</ele>
        <time>2013-11-09T13:33:30Z</time>
      </trkpt>
      <trkpt lat="43.38662" lon="6.11">
        <ele>281.60000610352</ele>
        <time>2013-11-09T13:33:34Z</time>
      </trkpt>
      <trkpt lat="43.3866" lon="6.11002">
        <ele>281.60000610352</ele>
        <time>2013-11-09T13:33:35Z</time>
      </trkpt>
      <trkpt lat="43.38658" lon="6.11003">
        <ele>281.60000610352</ele>
        <time>2013-11-09T13:33:36Z</time>
      </trkpt>
      <trkpt lat="43.38654" lon="6.11005">
        <ele>281.60000610352</ele>
        <time>2013-11-09T13:33:40Z</time>
      </trkpt>
      <trkpt lat="43.38654" lon="6.11005">
        <ele>281.60000610352</ele>
        <time>2013-11-09T13:33:47Z</time>
      </trkpt>
      <trkpt lat="43.38652" lon="6.11004">
        <ele>282</ele>
        <time>2013-11-09T13:33:52Z</time>
      </trkpt>
      <trkpt lat="43.38652" lon="6.11004">
        <ele>283.60000610352</ele>
        <time>2013-11-09T13:33:55Z</time>
      </trkpt>
      <trkpt lat="43.38647" lon="6.11005">
        <ele>283.60000610352</ele>
        <time>2013-11-09T13:33:59Z</time>
      </trkpt>
      <trkpt lat="43.3864" lon="6.11009">
        <ele>283.60000610352</ele>
        <time>2013-11-09T13:34:05Z</time>
      </trkpt>
      <trkpt lat="43.38637" lon="6.11009">
        <ele>283.60000610352</ele>
        <time>2013-11-09T13:34:07Z</time>
      </trkpt>
      <trkpt lat="43.38634" lon="6.11007">
        <ele>283.60000610352</ele>
        <time>2013-11-09T13:34:10Z</time>
      </trkpt>
      <trkpt lat="43.38633" lon="6.11005">
        <ele>284.20001220703</ele>
        <time>2013-11-09T13:34:11Z</time>
      </trkpt>
      <trkpt lat="43.38628" lon="6.11">
        <ele>285.79998779297</ele>
        <time>2013-11-09T13:34:15Z</time>
      </trkpt>
      <trkpt lat="43.38625" lon="6.10999">
        <ele>285.79998779297</ele>
        <time>2013-11-09T13:34:17Z</time>
      </trkpt>
      <trkpt lat="43.38618" lon="6.10997">
        <ele>285.79998779297</ele>
        <time>2013-11-09T13:34:22Z</time>
      </trkpt>
      <trkpt lat="43.38608" lon="6.10991">
        <ele>285.79998779297</ele>
        <time>2013-11-09T13:34:28Z</time>
      </trkpt>
      <trkpt lat="43.38602" lon="6.10991">
        <ele>285.79998779297</ele>
        <time>2013-11-09T13:34:31Z</time>
      </trkpt>
      <trkpt lat="43.38598" lon="6.1099">
        <ele>285.79998779297</ele>
        <time>2013-11-09T13:34:33Z</time>
      </trkpt>
      <trkpt lat="43.38586" lon="6.10989">
        <ele>285.79998779297</ele>
        <time>2013-11-09T13:34:39Z</time>
      </trkpt>
      <trkpt lat="43.38571" lon="6.10989">
        <ele>285.79998779297</ele>
        <time>2013-11-09T13:34:44Z</time>
      </trkpt>
      <trkpt lat="43.38558" lon="6.10987">
        <ele>284.60000610352</ele>
        <time>2013-11-09T13:34:47Z</time>
      </trkpt>
      <trkpt lat="43.38551" lon="6.10983">
        <ele>283.79998779297</ele>
        <time>2013-11-09T13:34:49Z</time>
      </trkpt>
      <trkpt lat="43.38539" lon="6.10977">
        <ele>283.79998779297</ele>
        <time>2013-11-09T13:34:52Z</time>
      </trkpt>
      <trkpt lat="43.38535" lon="6.10976">
        <ele>283.39999389648</ele>
        <time>2013-11-09T13:34:53Z</time>
      </trkpt>
      <trkpt lat="43.38531" lon="6.10974">
        <ele>283</ele>
        <time>2013-11-09T13:34:54Z</time>
      </trkpt>
      <trkpt lat="43.38527" lon="6.10972">
        <ele>282.60000610352</ele>
        <time>2013-11-09T13:34:55Z</time>
      </trkpt>
      <trkpt lat="43.38523" lon="6.1097">
        <ele>282.20001220703</ele>
        <time>2013-11-09T13:34:56Z</time>
      </trkpt>
      <trkpt lat="43.38519" lon="6.10969">
        <ele>281.60000610352</ele>
        <time>2013-11-09T13:34:57Z</time>
      </trkpt>
      <trkpt lat="43.38509" lon="6.10968">
        <ele>281.20001220703</ele>
        <time>2013-11-09T13:34:59Z</time>
      </trkpt>
      <trkpt lat="43.38504" lon="6.10967">
        <ele>280.79998779297</ele>
        <time>2013-11-09T13:35:00Z</time>
      </trkpt>
      <trkpt lat="43.38494" lon="6.10964">
        <ele>279.79998779297</ele>
        <time>2013-11-09T13:35:02Z</time>
      </trkpt>
      <trkpt lat="43.38485" lon="6.10961">
        <ele>279.39999389648</ele>
        <time>2013-11-09T13:35:04Z</time>
      </trkpt>
      <trkpt lat="43.38482" lon="6.1096">
        <ele>279</ele>
        <time>2013-11-09T13:35:05Z</time>
      </trkpt>
      <trkpt lat="43.38478" lon="6.10959">
        <ele>278.60000610352</ele>
        <time>2013-11-09T13:35:06Z</time>
      </trkpt>
      <trkpt lat="43.38477" lon="6.10959">
        <ele>278.20001220703</ele>
        <time>2013-11-09T13:35:07Z</time>
      </trkpt>
      <trkpt lat="43.38476" lon="6.10959">
        <ele>277.39999389648</ele>
        <time>2013-11-09T13:35:08Z</time>
      </trkpt>
      <trkpt lat="43.38476" lon="6.10959">
        <ele>277.39999389648</ele>
        <time>2013-11-09T13:35:13Z</time>
      </trkpt>
      <trkpt lat="43.38476" lon="6.10959">
        <ele>277.39999389648</ele>
        <time>2013-11-09T13:35:24Z</time>
      </trkpt>
      <trkpt lat="43.38476" lon="6.10959">
        <ele>277.39999389648</ele>
        <time>2013-11-09T13:35:32Z</time>
      </trkpt>
      <trkpt lat="43.38475" lon="6.10959">
        <ele>277.39999389648</ele>
        <time>2013-11-09T13:35:34Z</time>
      </trkpt>
      <trkpt lat="43.38464" lon="6.10959">
        <ele>277.39999389648</ele>
        <time>2013-11-09T13:35:39Z</time>
      </trkpt>
      <trkpt lat="43.38441" lon="6.10956">
        <ele>277.39999389648</ele>
        <time>2013-11-09T13:35:45Z</time>
      </trkpt>
      <trkpt lat="43.38428" lon="6.10954">
        <ele>277.39999389648</ele>
        <time>2013-11-09T13:35:48Z</time>
      </trkpt>
      <trkpt lat="43.38419" lon="6.10951">
        <ele>277</ele>
        <time>2013-11-09T13:35:50Z</time>
      </trkpt>
      <trkpt lat="43.38409" lon="6.10949">
        <ele>276</ele>
        <time>2013-11-09T13:35:52Z</time>
      </trkpt>
      <trkpt lat="43.38404" lon="6.10948">
        <ele>275.60000610352</ele>
        <time>2013-11-09T13:35:53Z</time>
      </trkpt>
      <trkpt lat="43.38398" lon="6.10947">
        <ele>275.20001220703</ele>
        <time>2013-11-09T13:35:54Z</time>
      </trkpt>
      <trkpt lat="43.38387" lon="6.10944">
        <ele>275.20001220703</ele>
        <time>2013-11-09T13:35:56Z</time>
      </trkpt>
      <trkpt lat="43.3837" lon="6.1094">
        <ele>274.79998779297</ele>
        <time>2013-11-09T13:35:59Z</time>
      </trkpt>
      <trkpt lat="43.3836" lon="6.10938">
        <ele>274</ele>
        <time>2013-11-09T13:36:01Z</time>
      </trkpt>
      <trkpt lat="43.38355" lon="6.10937">
        <ele>273.60000610352</ele>
        <time>2013-11-09T13:36:02Z</time>
      </trkpt>
      <trkpt lat="43.38351" lon="6.10936">
        <ele>273.20001220703</ele>
        <time>2013-11-09T13:36:03Z</time>
      </trkpt>
      <trkpt lat="43.38332" lon="6.10932">
        <ele>273.20001220703</ele>
        <time>2013-11-09T13:36:07Z</time>
      </trkpt>
      <trkpt lat="43.38305" lon="6.10921">
        <ele>273.20001220703</ele>
        <time>2013-11-09T13:36:13Z</time>
      </trkpt>
      <trkpt lat="43.38268" lon="6.10911">
        <ele>273.20001220703</ele>
        <time>2013-11-09T13:36:21Z</time>
      </trkpt>
      <trkpt lat="43.38231" lon="6.109">
        <ele>273.20001220703</ele>
        <time>2013-11-09T13:36:29Z</time>
      </trkpt>
      <trkpt lat="43.38216" lon="6.10896">
        <ele>273.20001220703</ele>
        <time>2013-11-09T13:36:33Z</time>
      </trkpt>
      <trkpt lat="43.3821" lon="6.10894">
        <ele>273.20001220703</ele>
        <time>2013-11-09T13:36:35Z</time>
      </trkpt>
      <trkpt lat="43.38204" lon="6.10892">
        <ele>273.20001220703</ele>
        <time>2013-11-09T13:36:39Z</time>
      </trkpt>
      <trkpt lat="43.38202" lon="6.10891">
        <ele>273.20001220703</ele>
        <time>2013-11-09T13:36:40Z</time>
      </trkpt>
      <trkpt lat="43.382" lon="6.10892">
        <ele>273.20001220703</ele>
        <time>2013-11-09T13:36:42Z</time>
      </trkpt>
      <trkpt lat="43.38198" lon="6.10896">
        <ele>273.20001220703</ele>
        <time>2013-11-09T13:36:44Z</time>
      </trkpt>
      <trkpt lat="43.38198" lon="6.10902">
        <ele>273.20001220703</ele>
        <time>2013-11-09T13:36:46Z</time>
      </trkpt>
      <trkpt lat="43.38195" lon="6.10915">
        <ele>273.20001220703</ele>
        <time>2013-11-09T13:36:49Z</time>
      </trkpt>
      <trkpt lat="43.38193" lon="6.10928">
        <ele>273.20001220703</ele>
        <time>2013-11-09T13:36:52Z</time>
      </trkpt>
      <trkpt lat="43.3819" lon="6.10938">
        <ele>273.20001220703</ele>
        <time>2013-11-09T13:36:55Z</time>
      </trkpt>
      <trkpt lat="43.38184" lon="6.10957">
        <ele>273.20001220703</ele>
        <time>2013-11-09T13:37:00Z</time>
      </trkpt>
      <trkpt lat="43.38182" lon="6.10972">
        <ele>274.39999389648</ele>
        <time>2013-11-09T13:37:03Z</time>
      </trkpt>
      <trkpt lat="43.3818" lon="6.10981">
        <ele>275.39999389648</ele>
        <time>2013-11-09T13:37:05Z</time>
      </trkpt>
      <trkpt lat="43.38177" lon="6.10995">
        <ele>275.39999389648</ele>
        <time>2013-11-09T13:37:08Z</time>
      </trkpt>
      <trkpt lat="43.38175" lon="6.11004">
        <ele>275.39999389648</ele>
        <time>2013-11-09T13:37:10Z</time>
      </trkpt>
      <trkpt lat="43.38172" lon="6.11024">
        <ele>275.39999389648</ele>
        <time>2013-11-09T13:37:16Z</time>
      </trkpt>
      <trkpt lat="43.38168" lon="6.11044">
        <ele>275.79998779297</ele>
        <time>2013-11-09T13:37:22Z</time>
      </trkpt>
      <trkpt lat="43.38166" lon="6.11053">
        <ele>276.60000610352</ele>
        <time>2013-11-09T13:37:24Z</time>
      </trkpt>
      <trkpt lat="43.38164" lon="6.11061">
        <ele>277.39999389648</ele>
        <time>2013-11-09T13:37:26Z</time>
      </trkpt>
      <trkpt lat="43.38159" lon="6.11079">
        <ele>277.39999389648</ele>
        <time>2013-11-09T13:37:30Z</time>
      </trkpt>
      <trkpt lat="43.38152" lon="6.11099">
        <ele>277.79998779297</ele>
        <time>2013-11-09T13:37:35Z</time>
      </trkpt>
      <trkpt lat="43.38148" lon="6.11107">
        <ele>279</ele>
        <time>2013-11-09T13:37:37Z</time>
      </trkpt>
      <trkpt lat="43.38145" lon="6.1111">
        <ele>279.39999389648</ele>
        <time>2013-11-09T13:37:38Z</time>
      </trkpt>
      <trkpt lat="43.38128" lon="6.11136">
        <ele>279.39999389648</ele>
        <time>2013-11-09T13:37:46Z</time>
      </trkpt>
      <trkpt lat="43.38119" lon="6.11153">
        <ele>279.39999389648</ele>
        <time>2013-11-09T13:37:52Z</time>
      </trkpt>
      <trkpt lat="43.38121" lon="6.11186">
        <ele>279.79998779297</ele>
        <time>2013-11-09T13:38:01Z</time>
      </trkpt>
      <trkpt lat="43.38121" lon="6.11189">
        <ele>280.20001220703</ele>
        <time>2013-11-09T13:38:02Z</time>
      </trkpt>
      <trkpt lat="43.38119" lon="6.11199">
        <ele>281.60000610352</ele>
        <time>2013-11-09T13:38:05Z</time>
      </trkpt>
      <trkpt lat="43.3812" lon="6.11209">
        <ele>281.60000610352</ele>
        <time>2013-11-09T13:38:09Z</time>
      </trkpt>
      <trkpt lat="43.38119" lon="6.11228">
        <ele>281.60000610352</ele>
        <time>2013-11-09T13:38:14Z</time>
      </trkpt>
      <trkpt lat="43.38118" lon="6.11245">
        <ele>282</ele>
        <time>2013-11-09T13:38:18Z</time>
      </trkpt>
      <trkpt lat="43.38118" lon="6.11252">
        <ele>282.79998779297</ele>
        <time>2013-11-09T13:38:20Z</time>
      </trkpt>
      <trkpt lat="43.38118" lon="6.11259">
        <ele>283.60000610352</ele>
        <time>2013-11-09T13:38:22Z</time>
      </trkpt>
      <trkpt lat="43.38117" lon="6.11282">
        <ele>283.60000610352</ele>
        <time>2013-11-09T13:38:27Z</time>
      </trkpt>
      <trkpt lat="43.38116" lon="6.11298">
        <ele>284</ele>
        <time>2013-11-09T13:38:31Z</time>
      </trkpt>
      <trkpt lat="43.38116" lon="6.11304">
        <ele>284.79998779297</ele>
        <time>2013-11-09T13:38:33Z</time>
      </trkpt>
      <trkpt lat="43.38115" lon="6.1131">
        <ele>285.60000610352</ele>
        <time>2013-11-09T13:38:35Z</time>
      </trkpt>
      <trkpt lat="43.38113" lon="6.11321">
        <ele>285.60000610352</ele>
        <time>2013-11-09T13:38:39Z</time>
      </trkpt>
      <trkpt lat="43.38112" lon="6.11343">
        <ele>285.60000610352</ele>
        <time>2013-11-09T13:38:44Z</time>
      </trkpt>
      <trkpt lat="43.38113" lon="6.11362">
        <ele>286</ele>
        <time>2013-11-09T13:38:48Z</time>
      </trkpt>
      <trkpt lat="43.38113" lon="6.11366">
        <ele>286.39999389648</ele>
        <time>2013-11-09T13:38:49Z</time>
      </trkpt>
      <trkpt lat="43.38113" lon="6.1137">
        <ele>286.79998779297</ele>
        <time>2013-11-09T13:38:50Z</time>
      </trkpt>
      <trkpt lat="43.38112" lon="6.11374">
        <ele>287.60000610352</ele>
        <time>2013-11-09T13:38:51Z</time>
      </trkpt>
      <trkpt lat="43.38108" lon="6.114">
        <ele>287.60000610352</ele>
        <time>2013-11-09T13:38:58Z</time>
      </trkpt>
      <trkpt lat="43.38103" lon="6.11424">
        <ele>287.60000610352</ele>
        <time>2013-11-09T13:39:05Z</time>
      </trkpt>
      <trkpt lat="43.38098" lon="6.11445">
        <ele>287.60000610352</ele>
        <time>2013-11-09T13:39:12Z</time>
      </trkpt>
      <trkpt lat="43.3809" lon="6.11476">
        <ele>289.79998779297</ele>
        <time>2013-11-09T13:39:22Z</time>
      </trkpt>
      <trkpt lat="43.38088" lon="6.1149">
        <ele>289.79998779297</ele>
        <time>2013-11-09T13:39:26Z</time>
      </trkpt>
      <trkpt lat="43.38085" lon="6.11516">
        <ele>289.79998779297</ele>
        <time>2013-11-09T13:39:34Z</time>
      </trkpt>
      <trkpt lat="43.38085" lon="6.11531">
        <ele>290.20001220703</ele>
        <time>2013-11-09T13:39:39Z</time>
      </trkpt>
      <trkpt lat="43.38083" lon="6.11541">
        <ele>291.79998779297</ele>
        <time>2013-11-09T13:39:42Z</time>
      </trkpt>
      <trkpt lat="43.3808" lon="6.1158">
        <ele>291.79998779297</ele>
        <time>2013-11-09T13:39:53Z</time>
      </trkpt>
      <trkpt lat="43.3808" lon="6.11603">
        <ele>291.79998779297</ele>
        <time>2013-11-09T13:39:59Z</time>
      </trkpt>
      <trkpt lat="43.38081" lon="6.1163">
        <ele>291.79998779297</ele>
        <time>2013-11-09T13:40:06Z</time>
      </trkpt>
      <trkpt lat="43.38077" lon="6.11654">
        <ele>294</ele>
        <time>2013-11-09T13:40:13Z</time>
      </trkpt>
      <trkpt lat="43.38074" lon="6.11675">
        <ele>294</ele>
        <time>2013-11-09T13:40:19Z</time>
      </trkpt>
      <trkpt lat="43.38073" lon="6.11682">
        <ele>294.39999389648</ele>
        <time>2013-11-09T13:40:21Z</time>
      </trkpt>
      <trkpt lat="43.38072" lon="6.1169">
        <ele>295.20001220703</ele>
        <time>2013-11-09T13:40:23Z</time>
      </trkpt>
      <trkpt lat="43.38072" lon="6.11701">
        <ele>296.20001220703</ele>
        <time>2013-11-09T13:40:26Z</time>
      </trkpt>
      <trkpt lat="43.3807" lon="6.11716">
        <ele>298.39999389648</ele>
        <time>2013-11-09T13:40:30Z</time>
      </trkpt>
      <trkpt lat="43.38069" lon="6.11725">
        <ele>298.39999389648</ele>
        <time>2013-11-09T13:40:33Z</time>
      </trkpt>
      <trkpt lat="43.38068" lon="6.11749">
        <ele>298.39999389648</ele>
        <time>2013-11-09T13:40:40Z</time>
      </trkpt>
      <trkpt lat="43.3807" lon="6.11771">
        <ele>298.39999389648</ele>
        <time>2013-11-09T13:40:47Z</time>
      </trkpt>
      <trkpt lat="43.38076" lon="6.1179">
        <ele>298.39999389648</ele>
        <time>2013-11-09T13:40:54Z</time>
      </trkpt>
      <trkpt lat="43.38079" lon="6.11807">
        <ele>298.39999389648</ele>
        <time>2013-11-09T13:41:00Z</time>
      </trkpt>
      <trkpt lat="43.38079" lon="6.11816">
        <ele>299.60000610352</ele>
        <time>2013-11-09T13:41:03Z</time>
      </trkpt>
      <trkpt lat="43.38079" lon="6.11822">
        <ele>300.60000610352</ele>
        <time>2013-11-09T13:41:05Z</time>
      </trkpt>
      <trkpt lat="43.38078" lon="6.11829">
        <ele>300.60000610352</ele>
        <time>2013-11-09T13:41:07Z</time>
      </trkpt>
      <trkpt lat="43.38079" lon="6.11847">
        <ele>300.60000610352</ele>
        <time>2013-11-09T13:41:14Z</time>
      </trkpt>
      <trkpt lat="43.38079" lon="6.11858">
        <ele>301.79998779297</ele>
        <time>2013-11-09T13:41:18Z</time>
      </trkpt>
      <trkpt lat="43.38079" lon="6.1186">
        <ele>302.20001220703</ele>
        <time>2013-11-09T13:41:19Z</time>
      </trkpt>
      <trkpt lat="43.38078" lon="6.11862">
        <ele>302.60000610352</ele>
        <time>2013-11-09T13:41:20Z</time>
      </trkpt>
      <trkpt lat="43.38079" lon="6.11876">
        <ele>302.60000610352</ele>
        <time>2013-11-09T13:41:27Z</time>
      </trkpt>
      <trkpt lat="43.38079" lon="6.11877">
        <ele>302.60000610352</ele>
        <time>2013-11-09T13:41:32Z</time>
      </trkpt>
      <trkpt lat="43.38079" lon="6.11877">
        <ele>302.60000610352</ele>
        <time>2013-11-09T13:41:34Z</time>
      </trkpt>
      <trkpt lat="43.38078" lon="6.11882">
        <ele>302.60000610352</ele>
        <time>2013-11-09T13:41:40Z</time>
      </trkpt>
      <trkpt lat="43.38077" lon="6.11883">
        <ele>302.60000610352</ele>
        <time>2013-11-09T13:41:41Z</time>
      </trkpt>
      <trkpt lat="43.38078" lon="6.11891">
        <ele>302.60000610352</ele>
        <time>2013-11-09T13:41:45Z</time>
      </trkpt>
      <trkpt lat="43.38076" lon="6.11899">
        <ele>303</ele>
        <time>2013-11-09T13:41:48Z</time>
      </trkpt>
      <trkpt lat="43.38076" lon="6.11908">
        <ele>304.39999389648</ele>
        <time>2013-11-09T13:41:51Z</time>
      </trkpt>
      <trkpt lat="43.38076" lon="6.11912">
        <ele>304.79998779297</ele>
        <time>2013-11-09T13:41:53Z</time>
      </trkpt>
      <trkpt lat="43.38076" lon="6.11916">
        <ele>304.79998779297</ele>
        <time>2013-11-09T13:41:55Z</time>
      </trkpt>
      <trkpt lat="43.38075" lon="6.11927">
        <ele>304.79998779297</ele>
        <time>2013-11-09T13:42:00Z</time>
      </trkpt>
      <trkpt lat="43.38076" lon="6.11942">
        <ele>305.60000610352</ele>
        <time>2013-11-09T13:42:06Z</time>
      </trkpt>
      <trkpt lat="43.38076" lon="6.1196">
        <ele>307</ele>
        <time>2013-11-09T13:42:13Z</time>
      </trkpt>
      <trkpt lat="43.38076" lon="6.11969">
        <ele>308.39999389648</ele>
        <time>2013-11-09T13:42:17Z</time>
      </trkpt>
      <trkpt lat="43.38074" lon="6.11986">
        <ele>309.20001220703</ele>
        <time>2013-11-09T13:42:23Z</time>
      </trkpt>
      <trkpt lat="43.3807" lon="6.11998">
        <ele>311.20001220703</ele>
        <time>2013-11-09T13:42:29Z</time>
      </trkpt>
      <trkpt lat="43.38068" lon="6.12009">
        <ele>311.20001220703</ele>
        <time>2013-11-09T13:42:34Z</time>
      </trkpt>
      <trkpt lat="43.38067" lon="6.12023">
        <ele>311.60000610352</ele>
        <time>2013-11-09T13:42:40Z</time>
      </trkpt>
      <trkpt lat="43.38068" lon="6.12035">
        <ele>315.39999389648</ele>
        <time>2013-11-09T13:42:46Z</time>
      </trkpt>
      <trkpt lat="43.38066" lon="6.12039">
        <ele>315.39999389648</ele>
        <time>2013-11-09T13:42:49Z</time>
      </trkpt>
      <trkpt lat="43.38066" lon="6.12052">
        <ele>315.39999389648</ele>
        <time>2013-11-09T13:42:55Z</time>
      </trkpt>
      <trkpt lat="43.38063" lon="6.12062">
        <ele>315.39999389648</ele>
        <time>2013-11-09T13:43:01Z</time>
      </trkpt>
      <trkpt lat="43.38061" lon="6.12071">
        <ele>315.79998779297</ele>
        <time>2013-11-09T13:43:05Z</time>
      </trkpt>
      <trkpt lat="43.38059" lon="6.12079">
        <ele>317</ele>
        <time>2013-11-09T13:43:08Z</time>
      </trkpt>
      <trkpt lat="43.38059" lon="6.12084">
        <ele>317.39999389648</ele>
        <time>2013-11-09T13:43:10Z</time>
      </trkpt>
      <trkpt lat="43.38058" lon="6.12091">
        <ele>317.39999389648</ele>
        <time>2013-11-09T13:43:13Z</time>
      </trkpt>
      <trkpt lat="43.38058" lon="6.12101">
        <ele>317.39999389648</ele>
        <time>2013-11-09T13:43:18Z</time>
      </trkpt>
      <trkpt lat="43.38058" lon="6.12101">
        <ele>317.39999389648</ele>
        <time>2013-11-09T13:43:23Z</time>
      </trkpt>
      <trkpt lat="43.38058" lon="6.12101">
        <ele>317.39999389648</ele>
        <time>2013-11-09T13:43:31Z</time>
      </trkpt>
      <trkpt lat="43.38058" lon="6.12101">
        <ele>317.39999389648</ele>
        <time>2013-11-09T13:43:41Z</time>
      </trkpt>
      <trkpt lat="43.38057" lon="6.12105">
        <ele>317.39999389648</ele>
        <time>2013-11-09T13:43:44Z</time>
      </trkpt>
      <trkpt lat="43.38056" lon="6.12106">
        <ele>317.79998779297</ele>
        <time>2013-11-09T13:43:45Z</time>
      </trkpt>
      <trkpt lat="43.38055" lon="6.12108">
        <ele>318.79998779297</ele>
        <time>2013-11-09T13:43:46Z</time>
      </trkpt>
      <trkpt lat="43.38054" lon="6.1211">
        <ele>319.20001220703</ele>
        <time>2013-11-09T13:43:47Z</time>
      </trkpt>
      <trkpt lat="43.38052" lon="6.12115">
        <ele>319.79998779297</ele>
        <time>2013-11-09T13:43:49Z</time>
      </trkpt>
      <trkpt lat="43.38047" lon="6.12123">
        <ele>319.79998779297</ele>
        <time>2013-11-09T13:43:53Z</time>
      </trkpt>
      <trkpt lat="43.38046" lon="6.12127">
        <ele>319.79998779297</ele>
        <time>2013-11-09T13:43:55Z</time>
      </trkpt>
      <trkpt lat="43.3804" lon="6.12141">
        <ele>321.20001220703</ele>
        <time>2013-11-09T13:44:02Z</time>
      </trkpt>
      <trkpt lat="43.38038" lon="6.12147">
        <ele>322.20001220703</ele>
        <time>2013-11-09T13:44:04Z</time>
      </trkpt>
      <trkpt lat="43.38034" lon="6.12168">
        <ele>322.79998779297</ele>
        <time>2013-11-09T13:44:12Z</time>
      </trkpt>
      <trkpt lat="43.38034" lon="6.1217">
        <ele>323.20001220703</ele>
        <time>2013-11-09T13:44:13Z</time>
      </trkpt>
      <trkpt lat="43.38035" lon="6.12186">
        <ele>324.60000610352</ele>
        <time>2013-11-09T13:44:19Z</time>
      </trkpt>
      <trkpt lat="43.38034" lon="6.12197">
        <ele>324.60000610352</ele>
        <time>2013-11-09T13:44:24Z</time>
      </trkpt>
      <trkpt lat="43.38036" lon="6.12211">
        <ele>324.60000610352</ele>
        <time>2013-11-09T13:44:30Z</time>
      </trkpt>
      <trkpt lat="43.38041" lon="6.12229">
        <ele>324.60000610352</ele>
        <time>2013-11-09T13:44:36Z</time>
      </trkpt>
      <trkpt lat="43.38044" lon="6.12238">
        <ele>324.60000610352</ele>
        <time>2013-11-09T13:44:39Z</time>
      </trkpt>
      <trkpt lat="43.38046" lon="6.12244">
        <ele>324.60000610352</ele>
        <time>2013-11-09T13:44:41Z</time>
      </trkpt>
      <trkpt lat="43.38048" lon="6.12252">
        <ele>324.60000610352</ele>
        <time>2013-11-09T13:44:44Z</time>
      </trkpt>
      <trkpt lat="43.38049" lon="6.12259">
        <ele>325.60000610352</ele>
        <time>2013-11-09T13:44:47Z</time>
      </trkpt>
      <trkpt lat="43.3805" lon="6.12265">
        <ele>326.60000610352</ele>
        <time>2013-11-09T13:44:49Z</time>
      </trkpt>
      <trkpt lat="43.38049" lon="6.12283">
        <ele>327.20001220703</ele>
        <time>2013-11-09T13:44:56Z</time>
      </trkpt>
      <trkpt lat="43.38053" lon="6.12296">
        <ele>329.20001220703</ele>
        <time>2013-11-09T13:45:01Z</time>
      </trkpt>
      <trkpt lat="43.38052" lon="6.12299">
        <ele>329.20001220703</ele>
        <time>2013-11-09T13:45:02Z</time>
      </trkpt>
      <trkpt lat="43.38052" lon="6.12305">
        <ele>329.20001220703</ele>
        <time>2013-11-09T13:45:05Z</time>
      </trkpt>
      <trkpt lat="43.38052" lon="6.12317">
        <ele>329.20001220703</ele>
        <time>2013-11-09T13:45:10Z</time>
      </trkpt>
      <trkpt lat="43.38053" lon="6.1232">
        <ele>329.79998779297</ele>
        <time>2013-11-09T13:45:12Z</time>
      </trkpt>
      <trkpt lat="43.38053" lon="6.12321">
        <ele>330.20001220703</ele>
        <time>2013-11-09T13:45:13Z</time>
      </trkpt>
      <trkpt lat="43.38053" lon="6.12321">
        <ele>331.79998779297</ele>
        <time>2013-11-09T13:45:28Z</time>
      </trkpt>
      <trkpt lat="43.38053" lon="6.12321">
        <ele>331.79998779297</ele>
        <time>2013-11-09T13:45:39Z</time>
      </trkpt>
      <trkpt lat="43.38054" lon="6.12319">
        <ele>331.79998779297</ele>
        <time>2013-11-09T13:45:47Z</time>
      </trkpt>
      <trkpt lat="43.38054" lon="6.12318">
        <ele>331.79998779297</ele>
        <time>2013-11-09T13:45:53Z</time>
      </trkpt>
      <trkpt lat="43.38054" lon="6.12318">
        <ele>331.79998779297</ele>
        <time>2013-11-09T13:46:18Z</time>
      </trkpt>
      <trkpt lat="43.38054" lon="6.12318">
        <ele>331.79998779297</ele>
        <time>2013-11-09T13:46:38Z</time>
      </trkpt>
      <trkpt lat="43.38054" lon="6.12319">
        <ele>331.79998779297</ele>
        <time>2013-11-09T13:46:47Z</time>
      </trkpt>
      <trkpt lat="43.38054" lon="6.12319">
        <ele>331.79998779297</ele>
        <time>2013-11-09T13:46:55Z</time>
      </trkpt>
      <trkpt lat="43.38052" lon="6.12324">
        <ele>331.79998779297</ele>
        <time>2013-11-09T13:46:58Z</time>
      </trkpt>
      <trkpt lat="43.38051" lon="6.12328">
        <ele>331.79998779297</ele>
        <time>2013-11-09T13:47:00Z</time>
      </trkpt>
      <trkpt lat="43.38047" lon="6.12338">
        <ele>331.79998779297</ele>
        <time>2013-11-09T13:47:04Z</time>
      </trkpt>
      <trkpt lat="43.38048" lon="6.12342">
        <ele>331.79998779297</ele>
        <time>2013-11-09T13:47:06Z</time>
      </trkpt>
      <trkpt lat="43.38048" lon="6.1235">
        <ele>331.79998779297</ele>
        <time>2013-11-09T13:47:09Z</time>
      </trkpt>
      <trkpt lat="43.38047" lon="6.1236">
        <ele>331.79998779297</ele>
        <time>2013-11-09T13:47:13Z</time>
      </trkpt>
      <trkpt lat="43.3805" lon="6.12375">
        <ele>332.20001220703</ele>
        <time>2013-11-09T13:47:18Z</time>
      </trkpt>
      <trkpt lat="43.38052" lon="6.12381">
        <ele>333</ele>
        <time>2013-11-09T13:47:20Z</time>
      </trkpt>
      <trkpt lat="43.38055" lon="6.12386">
        <ele>333.79998779297</ele>
        <time>2013-11-09T13:47:22Z</time>
      </trkpt>
      <trkpt lat="43.38055" lon="6.12388">
        <ele>333.79998779297</ele>
        <time>2013-11-09T13:47:23Z</time>
      </trkpt>
      <trkpt lat="43.38057" lon="6.12406">
        <ele>335.39999389648</ele>
        <time>2013-11-09T13:47:29Z</time>
      </trkpt>
      <trkpt lat="43.38057" lon="6.12406">
        <ele>335.79998779297</ele>
        <time>2013-11-09T13:47:30Z</time>
      </trkpt>
      <trkpt lat="43.38058" lon="6.12412">
        <ele>336.79998779297</ele>
        <time>2013-11-09T13:47:33Z</time>
      </trkpt>
      <trkpt lat="43.38058" lon="6.12413">
        <ele>337.20001220703</ele>
        <time>2013-11-09T13:47:34Z</time>
      </trkpt>
      <trkpt lat="43.38058" lon="6.12415">
        <ele>337.60000610352</ele>
        <time>2013-11-09T13:47:35Z</time>
      </trkpt>
      <trkpt lat="43.38058" lon="6.12417">
        <ele>338</ele>
        <time>2013-11-09T13:47:36Z</time>
      </trkpt>
      <trkpt lat="43.3806" lon="6.12422">
        <ele>338</ele>
        <time>2013-11-09T13:47:38Z</time>
      </trkpt>
      <trkpt lat="43.38064" lon="6.12431">
        <ele>338.39999389648</ele>
        <time>2013-11-09T13:47:43Z</time>
      </trkpt>
      <trkpt lat="43.38064" lon="6.12433">
        <ele>339</ele>
        <time>2013-11-09T13:47:44Z</time>
      </trkpt>
      <trkpt lat="43.38063" lon="6.12438">
        <ele>340.20001220703</ele>
        <time>2013-11-09T13:47:47Z</time>
      </trkpt>
      <trkpt lat="43.38064" lon="6.12445">
        <ele>340.20001220703</ele>
        <time>2013-11-09T13:47:51Z</time>
      </trkpt>
      <trkpt lat="43.38065" lon="6.12453">
        <ele>340.20001220703</ele>
        <time>2013-11-09T13:47:57Z</time>
      </trkpt>
      <trkpt lat="43.38065" lon="6.12454">
        <ele>340.20001220703</ele>
        <time>2013-11-09T13:48:00Z</time>
      </trkpt>
      <trkpt lat="43.38065" lon="6.12454">
        <ele>340.20001220703</ele>
        <time>2013-11-09T13:48:16Z</time>
      </trkpt>
      <trkpt lat="43.38065" lon="6.12454">
        <ele>340.20001220703</ele>
        <time>2013-11-09T13:48:58Z</time>
      </trkpt>
      <trkpt lat="43.38065" lon="6.12454">
        <ele>340.20001220703</ele>
        <time>2013-11-09T13:49:14Z</time>
      </trkpt>
      <trkpt lat="43.38065" lon="6.12459">
        <ele>340.20001220703</ele>
        <time>2013-11-09T13:49:17Z</time>
      </trkpt>
      <trkpt lat="43.38064" lon="6.12461">
        <ele>340.20001220703</ele>
        <time>2013-11-09T13:49:18Z</time>
      </trkpt>
      <trkpt lat="43.38065" lon="6.12465">
        <ele>340.20001220703</ele>
        <time>2013-11-09T13:49:20Z</time>
      </trkpt>
      <trkpt lat="43.38063" lon="6.1247">
        <ele>340.20001220703</ele>
        <time>2013-11-09T13:49:23Z</time>
      </trkpt>
      <trkpt lat="43.38063" lon="6.12475">
        <ele>340.20001220703</ele>
        <time>2013-11-09T13:49:25Z</time>
      </trkpt>
      <trkpt lat="43.38064" lon="6.12486">
        <ele>341.39999389648</ele>
        <time>2013-11-09T13:49:29Z</time>
      </trkpt>
      <trkpt lat="43.38064" lon="6.12487">
        <ele>341.79998779297</ele>
        <time>2013-11-09T13:49:30Z</time>
      </trkpt>
      <trkpt lat="43.38063" lon="6.12497">
        <ele>342.20001220703</ele>
        <time>2013-11-09T13:49:35Z</time>
      </trkpt>
      <trkpt lat="43.3806" lon="6.12511">
        <ele>342.20001220703</ele>
        <time>2013-11-09T13:49:40Z</time>
      </trkpt>
      <trkpt lat="43.38062" lon="6.12525">
        <ele>344</ele>
        <time>2013-11-09T13:49:44Z</time>
      </trkpt>
      <trkpt lat="43.38062" lon="6.12528">
        <ele>344.39999389648</ele>
        <time>2013-11-09T13:49:45Z</time>
      </trkpt>
      <trkpt lat="43.38062" lon="6.12531">
        <ele>344.39999389648</ele>
        <time>2013-11-09T13:49:46Z</time>
      </trkpt>
      <trkpt lat="43.38061" lon="6.12546">
        <ele>344.79998779297</ele>
        <time>2013-11-09T13:49:52Z</time>
      </trkpt>
      <trkpt lat="43.38061" lon="6.12551">
        <ele>345.60000610352</ele>
        <time>2013-11-09T13:49:54Z</time>
      </trkpt>
      <trkpt lat="43.38056" lon="6.12578">
        <ele>347.60000610352</ele>
        <time>2013-11-09T13:50:05Z</time>
      </trkpt>
      <trkpt lat="43.38056" lon="6.1258">
        <ele>348</ele>
        <time>2013-11-09T13:50:06Z</time>
      </trkpt>
      <trkpt lat="43.38053" lon="6.12587">
        <ele>348.39999389648</ele>
        <time>2013-11-09T13:50:09Z</time>
      </trkpt>
      <trkpt lat="43.3805" lon="6.12601">
        <ele>348.79998779297</ele>
        <time>2013-11-09T13:50:15Z</time>
      </trkpt>
      <trkpt lat="43.38049" lon="6.12615">
        <ele>350.60000610352</ele>
        <time>2013-11-09T13:50:21Z</time>
      </trkpt>
      <trkpt lat="43.38046" lon="6.12625">
        <ele>350.60000610352</ele>
        <time>2013-11-09T13:50:26Z</time>
      </trkpt>
      <trkpt lat="43.38042" lon="6.12636">
        <ele>350.60000610352</ele>
        <time>2013-11-09T13:50:32Z</time>
      </trkpt>
      <trkpt lat="43.38039" lon="6.12652">
        <ele>351</ele>
        <time>2013-11-09T13:50:40Z</time>
      </trkpt>
      <trkpt lat="43.38039" lon="6.12657">
        <ele>351.79998779297</ele>
        <time>2013-11-09T13:50:42Z</time>
      </trkpt>
      <trkpt lat="43.38039" lon="6.1266">
        <ele>352.20001220703</ele>
        <time>2013-11-09T13:50:43Z</time>
      </trkpt>
      <trkpt lat="43.38038" lon="6.12663">
        <ele>352.60000610352</ele>
        <time>2013-11-09T13:50:44Z</time>
      </trkpt>
      <trkpt lat="43.38035" lon="6.12673">
        <ele>352.60000610352</ele>
        <time>2013-11-09T13:50:50Z</time>
      </trkpt>
      <trkpt lat="43.38035" lon="6.12676">
        <ele>353</ele>
        <time>2013-11-09T13:50:52Z</time>
      </trkpt>
      <trkpt lat="43.38035" lon="6.12676">
        <ele>353.39999389648</ele>
        <time>2013-11-09T13:50:53Z</time>
      </trkpt>
      <trkpt lat="43.38035" lon="6.12676">
        <ele>354</ele>
        <time>2013-11-09T13:50:54Z</time>
      </trkpt>
      <trkpt lat="43.38035" lon="6.12676">
        <ele>354.79998779297</ele>
        <time>2013-11-09T13:51:08Z</time>
      </trkpt>
      <trkpt lat="43.38035" lon="6.12676">
        <ele>354.79998779297</ele>
        <time>2013-11-09T13:51:33Z</time>
      </trkpt>
      <trkpt lat="43.38035" lon="6.12676">
        <ele>354.79998779297</ele>
        <time>2013-11-09T13:51:36Z</time>
      </trkpt>
      <trkpt lat="43.38033" lon="6.12678">
        <ele>354.79998779297</ele>
        <time>2013-11-09T13:51:47Z</time>
      </trkpt>
      <trkpt lat="43.38029" lon="6.12684">
        <ele>354.79998779297</ele>
        <time>2013-11-09T13:51:51Z</time>
      </trkpt>
      <trkpt lat="43.38026" lon="6.12691">
        <ele>354.79998779297</ele>
        <time>2013-11-09T13:51:55Z</time>
      </trkpt>
      <trkpt lat="43.38022" lon="6.12702">
        <ele>354.79998779297</ele>
        <time>2013-11-09T13:52:01Z</time>
      </trkpt>
      <trkpt lat="43.38019" lon="6.1271">
        <ele>355.20001220703</ele>
        <time>2013-11-09T13:52:05Z</time>
      </trkpt>
      <trkpt lat="43.38019" lon="6.12713">
        <ele>355.60000610352</ele>
        <time>2013-11-09T13:52:06Z</time>
      </trkpt>
      <trkpt lat="43.38018" lon="6.1272">
        <ele>356.79998779297</ele>
        <time>2013-11-09T13:52:09Z</time>
      </trkpt>
      <trkpt lat="43.38016" lon="6.12731">
        <ele>356.79998779297</ele>
        <time>2013-11-09T13:52:13Z</time>
      </trkpt>
      <trkpt lat="43.38013" lon="6.12745">
        <ele>356.79998779297</ele>
        <time>2013-11-09T13:52:19Z</time>
      </trkpt>
      <trkpt lat="43.3801" lon="6.12756">
        <ele>357.20001220703</ele>
        <time>2013-11-09T13:52:24Z</time>
      </trkpt>
      <trkpt lat="43.38009" lon="6.12764">
        <ele>358.39999389648</ele>
        <time>2013-11-09T13:52:27Z</time>
      </trkpt>
      <trkpt lat="43.38008" lon="6.12774">
        <ele>358.79998779297</ele>
        <time>2013-11-09T13:52:32Z</time>
      </trkpt>
      <trkpt lat="43.38007" lon="6.12776">
        <ele>358.79998779297</ele>
        <time>2013-11-09T13:52:33Z</time>
      </trkpt>
      <trkpt lat="43.38003" lon="6.12787">
        <ele>359.20001220703</ele>
        <time>2013-11-09T13:52:38Z</time>
      </trkpt>
      <trkpt lat="43.38002" lon="6.1279">
        <ele>359.60000610352</ele>
        <time>2013-11-09T13:52:39Z</time>
      </trkpt>
      <trkpt lat="43.38001" lon="6.12797">
        <ele>361</ele>
        <time>2013-11-09T13:52:42Z</time>
      </trkpt>
      <trkpt lat="43.37996" lon="6.12813">
        <ele>361</ele>
        <time>2013-11-09T13:52:50Z</time>
      </trkpt>
      <trkpt lat="43.37993" lon="6.12826">
        <ele>361</ele>
        <time>2013-11-09T13:52:56Z</time>
      </trkpt>
      <trkpt lat="43.37992" lon="6.12834">
        <ele>361.39999389648</ele>
        <time>2013-11-09T13:52:59Z</time>
      </trkpt>
      <trkpt lat="43.37991" lon="6.12838">
        <ele>362.20001220703</ele>
        <time>2013-11-09T13:53:01Z</time>
      </trkpt>
      <trkpt lat="43.3799" lon="6.12844">
        <ele>363</ele>
        <time>2013-11-09T13:53:03Z</time>
      </trkpt>
      <trkpt lat="43.37989" lon="6.12852">
        <ele>363</ele>
        <time>2013-11-09T13:53:07Z</time>
      </trkpt>
      <trkpt lat="43.37986" lon="6.12862">
        <ele>363</ele>
        <time>2013-11-09T13:53:12Z</time>
      </trkpt>
      <trkpt lat="43.37986" lon="6.12864">
        <ele>363.39999389648</ele>
        <time>2013-11-09T13:53:14Z</time>
      </trkpt>
      <trkpt lat="43.37986" lon="6.12867">
        <ele>363.79998779297</ele>
        <time>2013-11-09T13:53:15Z</time>
      </trkpt>
      <trkpt lat="43.37985" lon="6.12871">
        <ele>365</ele>
        <time>2013-11-09T13:53:18Z</time>
      </trkpt>
      <trkpt lat="43.37983" lon="6.12881">
        <ele>365</ele>
        <time>2013-11-09T13:53:24Z</time>
      </trkpt>
      <trkpt lat="43.37983" lon="6.12881">
        <ele>365</ele>
        <time>2013-11-09T13:53:25Z</time>
      </trkpt>
      <trkpt lat="43.37983" lon="6.12883">
        <ele>365</ele>
        <time>2013-11-09T13:53:34Z</time>
      </trkpt>
      <trkpt lat="43.37983" lon="6.12883">
        <ele>367</ele>
        <time>2013-11-09T13:53:39Z</time>
      </trkpt>
      <trkpt lat="43.37983" lon="6.12885">
        <ele>367</ele>
        <time>2013-11-09T13:53:42Z</time>
      </trkpt>
      <trkpt lat="43.37981" lon="6.12893">
        <ele>367</ele>
        <time>2013-11-09T13:53:47Z</time>
      </trkpt>
      <trkpt lat="43.37981" lon="6.12895">
        <ele>367</ele>
        <time>2013-11-09T13:53:48Z</time>
      </trkpt>
      <trkpt lat="43.3798" lon="6.12899">
        <ele>367</ele>
        <time>2013-11-09T13:53:51Z</time>
      </trkpt>
      <trkpt lat="43.37981" lon="6.12904">
        <ele>367</ele>
        <time>2013-11-09T13:53:54Z</time>
      </trkpt>
      <trkpt lat="43.37974" lon="6.12922">
        <ele>367.39999389648</ele>
        <time>2013-11-09T13:54:04Z</time>
      </trkpt>
      <trkpt lat="43.37972" lon="6.12929">
        <ele>368.60000610352</ele>
        <time>2013-11-09T13:54:07Z</time>
      </trkpt>
      <trkpt lat="43.3796" lon="6.12963">
        <ele>371.20001220703</ele>
        <time>2013-11-09T13:54:26Z</time>
      </trkpt>
      <trkpt lat="43.37959" lon="6.12971">
        <ele>371.20001220703</ele>
        <time>2013-11-09T13:54:31Z</time>
      </trkpt>
      <trkpt lat="43.37953" lon="6.12989">
        <ele>372</ele>
        <time>2013-11-09T13:54:39Z</time>
      </trkpt>
      <trkpt lat="43.37952" lon="6.12991">
        <ele>372.39999389648</ele>
        <time>2013-11-09T13:54:40Z</time>
      </trkpt>
      <trkpt lat="43.3795" lon="6.12995">
        <ele>373.39999389648</ele>
        <time>2013-11-09T13:54:42Z</time>
      </trkpt>
      <trkpt lat="43.37946" lon="6.13007">
        <ele>373.39999389648</ele>
        <time>2013-11-09T13:54:47Z</time>
      </trkpt>
      <trkpt lat="43.37937" lon="6.13022">
        <ele>375.39999389648</ele>
        <time>2013-11-09T13:54:57Z</time>
      </trkpt>
      <trkpt lat="43.37935" lon="6.13025">
        <ele>375.39999389648</ele>
        <time>2013-11-09T13:54:59Z</time>
      </trkpt>
      <trkpt lat="43.3793" lon="6.13034">
        <ele>375.39999389648</ele>
        <time>2013-11-09T13:55:05Z</time>
      </trkpt>
      <trkpt lat="43.37926" lon="6.1304">
        <ele>375.39999389648</ele>
        <time>2013-11-09T13:55:10Z</time>
      </trkpt>
      <trkpt lat="43.3792" lon="6.13048">
        <ele>375.39999389648</ele>
        <time>2013-11-09T13:55:16Z</time>
      </trkpt>
      <trkpt lat="43.37918" lon="6.13053">
        <ele>376.60000610352</ele>
        <time>2013-11-09T13:55:20Z</time>
      </trkpt>
      <trkpt lat="43.37917" lon="6.13055">
        <ele>377</ele>
        <time>2013-11-09T13:55:21Z</time>
      </trkpt>
      <trkpt lat="43.37916" lon="6.13057">
        <ele>377.39999389648</ele>
        <time>2013-11-09T13:55:22Z</time>
      </trkpt>
      <trkpt lat="43.37916" lon="6.13061">
        <ele>377.39999389648</ele>
        <time>2013-11-09T13:55:24Z</time>
      </trkpt>
      <trkpt lat="43.37914" lon="6.1307">
        <ele>377.39999389648</ele>
        <time>2013-11-09T13:55:28Z</time>
      </trkpt>
      <trkpt lat="43.37913" lon="6.13076">
        <ele>377.39999389648</ele>
        <time>2013-11-09T13:55:33Z</time>
      </trkpt>
      <trkpt lat="43.37913" lon="6.13077">
        <ele>377.39999389648</ele>
        <time>2013-11-09T13:55:41Z</time>
      </trkpt>
      <trkpt lat="43.37913" lon="6.13077">
        <ele>377.39999389648</ele>
        <time>2013-11-09T13:55:58Z</time>
      </trkpt>
      <trkpt lat="43.37913" lon="6.13077">
        <ele>377.39999389648</ele>
        <time>2013-11-09T13:56:34Z</time>
      </trkpt>
      <trkpt lat="43.37913" lon="6.13077">
        <ele>377.39999389648</ele>
        <time>2013-11-09T13:56:47Z</time>
      </trkpt>
      <trkpt lat="43.37914" lon="6.13078">
        <ele>377.39999389648</ele>
        <time>2013-11-09T13:56:53Z</time>
      </trkpt>
      <trkpt lat="43.37914" lon="6.13078">
        <ele>377.39999389648</ele>
        <time>2013-11-09T13:57:12Z</time>
      </trkpt>
      <trkpt lat="43.37914" lon="6.13078">
        <ele>377.39999389648</ele>
        <time>2013-11-09T13:57:25Z</time>
      </trkpt>
      <trkpt lat="43.37912" lon="6.13079">
        <ele>377.39999389648</ele>
        <time>2013-11-09T13:57:33Z</time>
      </trkpt>
      <trkpt lat="43.37911" lon="6.13081">
        <ele>377.39999389648</ele>
        <time>2013-11-09T13:57:35Z</time>
      </trkpt>
      <trkpt lat="43.37909" lon="6.13082">
        <ele>377.39999389648</ele>
        <time>2013-11-09T13:57:36Z</time>
      </trkpt>
      <trkpt lat="43.37904" lon="6.13082">
        <ele>377.39999389648</ele>
        <time>2013-11-09T13:57:38Z</time>
      </trkpt>
      <trkpt lat="43.37897" lon="6.13079">
        <ele>378</ele>
        <time>2013-11-09T13:57:41Z</time>
      </trkpt>
      <trkpt lat="43.37892" lon="6.13078">
        <ele>378.79998779297</ele>
        <time>2013-11-09T13:57:43Z</time>
      </trkpt>
      <trkpt lat="43.3789" lon="6.13078">
        <ele>379.60000610352</ele>
        <time>2013-11-09T13:57:44Z</time>
      </trkpt>
      <trkpt lat="43.37889" lon="6.13077">
        <ele>379.60000610352</ele>
        <time>2013-11-09T13:57:45Z</time>
      </trkpt>
      <trkpt lat="43.37886" lon="6.13074">
        <ele>379.60000610352</ele>
        <time>2013-11-09T13:57:47Z</time>
      </trkpt>
      <trkpt lat="43.37881" lon="6.1307">
        <ele>379.60000610352</ele>
        <time>2013-11-09T13:57:50Z</time>
      </trkpt>
      <trkpt lat="43.37878" lon="6.13067">
        <ele>379.60000610352</ele>
        <time>2013-11-09T13:57:52Z</time>
      </trkpt>
      <trkpt lat="43.37869" lon="6.13054">
        <ele>379.60000610352</ele>
        <time>2013-11-09T13:57:57Z</time>
      </trkpt>
      <trkpt lat="43.37861" lon="6.13047">
        <ele>379.60000610352</ele>
        <time>2013-11-09T13:58:00Z</time>
      </trkpt>
      <trkpt lat="43.37854" lon="6.13044">
        <ele>379.20001220703</ele>
        <time>2013-11-09T13:58:03Z</time>
      </trkpt>
      <trkpt lat="43.37852" lon="6.13043">
        <ele>378.60000610352</ele>
        <time>2013-11-09T13:58:04Z</time>
      </trkpt>
      <trkpt lat="43.3785" lon="6.13042">
        <ele>378.20001220703</ele>
        <time>2013-11-09T13:58:05Z</time>
      </trkpt>
      <trkpt lat="43.37845" lon="6.13036">
        <ele>377.20001220703</ele>
        <time>2013-11-09T13:58:07Z</time>
      </trkpt>
      <trkpt lat="43.3783" lon="6.13025">
        <ele>372.79998779297</ele>
        <time>2013-11-09T13:58:13Z</time>
      </trkpt>
      <trkpt lat="43.37828" lon="6.13024">
        <ele>372.20001220703</ele>
        <time>2013-11-09T13:58:14Z</time>
      </trkpt>
      <trkpt lat="43.37825" lon="6.13022">
        <ele>371.79998779297</ele>
        <time>2013-11-09T13:58:15Z</time>
      </trkpt>
      <trkpt lat="43.37824" lon="6.13021">
        <ele>371.20001220703</ele>
        <time>2013-11-09T13:58:16Z</time>
      </trkpt>
      <trkpt lat="43.3782" lon="6.1302">
        <ele>370.20001220703</ele>
        <time>2013-11-09T13:58:18Z</time>
      </trkpt>
      <trkpt lat="43.37817" lon="6.13019">
        <ele>369.20001220703</ele>
        <time>2013-11-09T13:58:20Z</time>
      </trkpt>
      <trkpt lat="43.37814" lon="6.13018">
        <ele>368.60000610352</ele>
        <time>2013-11-09T13:58:21Z</time>
      </trkpt>
      <trkpt lat="43.37813" lon="6.13017">
        <ele>368</ele>
        <time>2013-11-09T13:58:22Z</time>
      </trkpt>
      <trkpt lat="43.37811" lon="6.13017">
        <ele>367.39999389648</ele>
        <time>2013-11-09T13:58:23Z</time>
      </trkpt>
      <trkpt lat="43.37809" lon="6.13016">
        <ele>366.79998779297</ele>
        <time>2013-11-09T13:58:24Z</time>
      </trkpt>
      <trkpt lat="43.37807" lon="6.13015">
        <ele>365.60000610352</ele>
        <time>2013-11-09T13:58:26Z</time>
      </trkpt>
      <trkpt lat="43.37807" lon="6.13015">
        <ele>363.39999389648</ele>
        <time>2013-11-09T13:58:30Z</time>
      </trkpt>
      <trkpt lat="43.37807" lon="6.13014">
        <ele>363.39999389648</ele>
        <time>2013-11-09T13:58:34Z</time>
      </trkpt>
      <trkpt lat="43.37807" lon="6.13014">
        <ele>363.39999389648</ele>
        <time>2013-11-09T13:59:00Z</time>
      </trkpt>
      <trkpt lat="43.37807" lon="6.13014">
        <ele>363.39999389648</ele>
        <time>2013-11-09T13:59:14Z</time>
      </trkpt>
      <trkpt lat="43.37804" lon="6.13013">
        <ele>363.39999389648</ele>
        <time>2013-11-09T13:59:25Z</time>
      </trkpt>
      <trkpt lat="43.37803" lon="6.13012">
        <ele>363.39999389648</ele>
        <time>2013-11-09T13:59:26Z</time>
      </trkpt>
      <trkpt lat="43.37799" lon="6.13012">
        <ele>362.60000610352</ele>
        <time>2013-11-09T13:59:28Z</time>
      </trkpt>
      <trkpt lat="43.37797" lon="6.1301">
        <ele>362</ele>
        <time>2013-11-09T13:59:29Z</time>
      </trkpt>
      <trkpt lat="43.37795" lon="6.13008">
        <ele>361.39999389648</ele>
        <time>2013-11-09T13:59:30Z</time>
      </trkpt>
      <trkpt lat="43.37793" lon="6.13006">
        <ele>360.79998779297</ele>
        <time>2013-11-09T13:59:31Z</time>
      </trkpt>
      <trkpt lat="43.37791" lon="6.13004">
        <ele>360.39999389648</ele>
        <time>2013-11-09T13:59:32Z</time>
      </trkpt>
      <trkpt lat="43.37788" lon="6.13003">
        <ele>359.79998779297</ele>
        <time>2013-11-09T13:59:33Z</time>
      </trkpt>
      <trkpt lat="43.37785" lon="6.13003">
        <ele>359</ele>
        <time>2013-11-09T13:59:34Z</time>
      </trkpt>
      <trkpt lat="43.37783" lon="6.13002">
        <ele>358.39999389648</ele>
        <time>2013-11-09T13:59:35Z</time>
      </trkpt>
      <trkpt lat="43.37781" lon="6.13">
        <ele>357.79998779297</ele>
        <time>2013-11-09T13:59:36Z</time>
      </trkpt>
      <trkpt lat="43.3778" lon="6.12997">
        <ele>357.20001220703</ele>
        <time>2013-11-09T13:59:37Z</time>
      </trkpt>
      <trkpt lat="43.37778" lon="6.12994">
        <ele>356.60000610352</ele>
        <time>2013-11-09T13:59:38Z</time>
      </trkpt>
      <trkpt lat="43.37778" lon="6.12992">
        <ele>356.20001220703</ele>
        <time>2013-11-09T13:59:39Z</time>
      </trkpt>
      <trkpt lat="43.37777" lon="6.1299">
        <ele>355.60000610352</ele>
        <time>2013-11-09T13:59:40Z</time>
      </trkpt>
      <trkpt lat="43.37777" lon="6.12989">
        <ele>355.20001220703</ele>
        <time>2013-11-09T13:59:41Z</time>
      </trkpt>
      <trkpt lat="43.37775" lon="6.12987">
        <ele>354.20001220703</ele>
        <time>2013-11-09T13:59:43Z</time>
      </trkpt>
      <trkpt lat="43.37775" lon="6.12987">
        <ele>354.20001220703</ele>
        <time>2013-11-09T13:59:45Z</time>
      </trkpt>
      <trkpt lat="43.37775" lon="6.12987">
        <ele>354.20001220703</ele>
        <time>2013-11-09T13:59:53Z</time>
      </trkpt>
      <trkpt lat="43.37774" lon="6.12984">
        <ele>354.20001220703</ele>
        <time>2013-11-09T13:59:59Z</time>
      </trkpt>
      <trkpt lat="43.37773" lon="6.12984">
        <ele>354.20001220703</ele>
        <time>2013-11-09T14:00:06Z</time>
      </trkpt>
      <trkpt lat="43.37772" lon="6.12984">
        <ele>353.79998779297</ele>
        <time>2013-11-09T14:00:09Z</time>
      </trkpt>
      <trkpt lat="43.37771" lon="6.12984">
        <ele>353</ele>
        <time>2013-11-09T14:00:11Z</time>
      </trkpt>
      <trkpt lat="43.37771" lon="6.12982">
        <ele>352.20001220703</ele>
        <time>2013-11-09T14:00:23Z</time>
      </trkpt>
      <trkpt lat="43.37771" lon="6.12982">
        <ele>352.20001220703</ele>
        <time>2013-11-09T14:00:34Z</time>
      </trkpt>
      <trkpt lat="43.37771" lon="6.12982">
        <ele>352.20001220703</ele>
        <time>2013-11-09T14:00:41Z</time>
      </trkpt>
      <trkpt lat="43.37771" lon="6.12982">
        <ele>352.20001220703</ele>
        <time>2013-11-09T14:00:44Z</time>
      </trkpt>
      <trkpt lat="43.37771" lon="6.12982">
        <ele>352.20001220703</ele>
        <time>2013-11-09T14:00:48Z</time>
      </trkpt>
      <trkpt lat="43.3777" lon="6.12981">
        <ele>352.20001220703</ele>
        <time>2013-11-09T14:00:49Z</time>
      </trkpt>
      <trkpt lat="43.37761" lon="6.12983">
        <ele>351.79998779297</ele>
        <time>2013-11-09T14:00:54Z</time>
      </trkpt>
      <trkpt lat="43.37761" lon="6.12983">
        <ele>350.60000610352</ele>
        <time>2013-11-09T14:00:56Z</time>
      </trkpt>
      <trkpt lat="43.37761" lon="6.12983">
        <ele>349.60000610352</ele>
        <time>2013-11-09T14:00:58Z</time>
      </trkpt>
      <trkpt lat="43.37761" lon="6.12983">
        <ele>349.60000610352</ele>
        <time>2013-11-09T14:01:18Z</time>
      </trkpt>
      <trkpt lat="43.37761" lon="6.12983">
        <ele>349.60000610352</ele>
        <time>2013-11-09T14:01:30Z</time>
      </trkpt>
      <trkpt lat="43.3776" lon="6.12983">
        <ele>349.60000610352</ele>
        <time>2013-11-09T14:01:41Z</time>
      </trkpt>
      <trkpt lat="43.3776" lon="6.12983">
        <ele>349.60000610352</ele>
        <time>2013-11-09T14:01:44Z</time>
      </trkpt>
      <trkpt lat="43.37755" lon="6.12985">
        <ele>349.60000610352</ele>
        <time>2013-11-09T14:01:48Z</time>
      </trkpt>
      <trkpt lat="43.37753" lon="6.12984">
        <ele>349.60000610352</ele>
        <time>2013-11-09T14:01:50Z</time>
      </trkpt>
      <trkpt lat="43.37751" lon="6.12979">
        <ele>349.60000610352</ele>
        <time>2013-11-09T14:01:52Z</time>
      </trkpt>
      <trkpt lat="43.37751" lon="6.12978">
        <ele>349</ele>
        <time>2013-11-09T14:01:53Z</time>
      </trkpt>
      <trkpt lat="43.37751" lon="6.12978">
        <ele>348.60000610352</ele>
        <time>2013-11-09T14:01:54Z</time>
      </trkpt>
      <trkpt lat="43.37751" lon="6.12978">
        <ele>347.20001220703</ele>
        <time>2013-11-09T14:02:05Z</time>
      </trkpt>
      <trkpt lat="43.37751" lon="6.12978">
        <ele>347.20001220703</ele>
        <time>2013-11-09T14:02:09Z</time>
      </trkpt>
      <trkpt lat="43.37751" lon="6.12978">
        <ele>347.20001220703</ele>
        <time>2013-11-09T14:02:15Z</time>
      </trkpt>
      <trkpt lat="43.37747" lon="6.12977">
        <ele>346.60000610352</ele>
        <time>2013-11-09T14:02:19Z</time>
      </trkpt>
      <trkpt lat="43.37746" lon="6.12977">
        <ele>345.79998779297</ele>
        <time>2013-11-09T14:02:21Z</time>
      </trkpt>
      <trkpt lat="43.37746" lon="6.12977">
        <ele>345</ele>
        <time>2013-11-09T14:02:34Z</time>
      </trkpt>
      <trkpt lat="43.37746" lon="6.12977">
        <ele>345</ele>
        <time>2013-11-09T14:02:49Z</time>
      </trkpt>
      <trkpt lat="43.37741" lon="6.12976">
        <ele>345</ele>
        <time>2013-11-09T14:02:52Z</time>
      </trkpt>
      <trkpt lat="43.37737" lon="6.12978">
        <ele>345</ele>
        <time>2013-11-09T14:02:55Z</time>
      </trkpt>
      <trkpt lat="43.37732" lon="6.12979">
        <ele>344.39999389648</ele>
        <time>2013-11-09T14:02:57Z</time>
      </trkpt>
      <trkpt lat="43.3773" lon="6.12978">
        <ele>344</ele>
        <time>2013-11-09T14:02:58Z</time>
      </trkpt>
      <trkpt lat="43.37729" lon="6.12977">
        <ele>343.39999389648</ele>
        <time>2013-11-09T14:02:59Z</time>
      </trkpt>
      <trkpt lat="43.37728" lon="6.12976">
        <ele>343</ele>
        <time>2013-11-09T14:03:00Z</time>
      </trkpt>
      <trkpt lat="43.37727" lon="6.12976">
        <ele>342.39999389648</ele>
        <time>2013-11-09T14:03:01Z</time>
      </trkpt>
      <trkpt lat="43.37726" lon="6.12975">
        <ele>342</ele>
        <time>2013-11-09T14:03:02Z</time>
      </trkpt>
      <trkpt lat="43.37725" lon="6.12974">
        <ele>341.60000610352</ele>
        <time>2013-11-09T14:03:03Z</time>
      </trkpt>
      <trkpt lat="43.37724" lon="6.12973">
        <ele>341.20001220703</ele>
        <time>2013-11-09T14:03:04Z</time>
      </trkpt>
      <trkpt lat="43.37724" lon="6.12972">
        <ele>340.79998779297</ele>
        <time>2013-11-09T14:03:05Z</time>
      </trkpt>
      <trkpt lat="43.37724" lon="6.12972">
        <ele>340.20001220703</ele>
        <time>2013-11-09T14:03:07Z</time>
      </trkpt>
      <trkpt lat="43.37722" lon="6.12971">
        <ele>339.79998779297</ele>
        <time>2013-11-09T14:03:11Z</time>
      </trkpt>
      <trkpt lat="43.37722" lon="6.12971">
        <ele>338.20001220703</ele>
        <time>2013-11-09T14:03:29Z</time>
      </trkpt>
      <trkpt lat="43.37722" lon="6.12971">
        <ele>338.20001220703</ele>
        <time>2013-11-09T14:03:47Z</time>
      </trkpt>
      <trkpt lat="43.37722" lon="6.12971">
        <ele>338.20001220703</ele>
        <time>2013-11-09T14:03:51Z</time>
      </trkpt>
      <trkpt lat="43.37722" lon="6.12971">
        <ele>338.20001220703</ele>
        <time>2013-11-09T14:03:56Z</time>
      </trkpt>
      <trkpt lat="43.37722" lon="6.12971">
        <ele>338.20001220703</ele>
        <time>2013-11-09T14:04:20Z</time>
      </trkpt>
      <trkpt lat="43.37722" lon="6.12971">
        <ele>338.79998779297</ele>
        <time>2013-11-09T14:05:27Z</time>
      </trkpt>
      <trkpt lat="43.37722" lon="6.12971">
        <ele>337.79998779297</ele>
        <time>2013-11-09T14:05:39Z</time>
      </trkpt>
      <trkpt lat="43.37719" lon="6.12966">
        <ele>338.20001220703</ele>
        <time>2013-11-09T14:05:44Z</time>
      </trkpt>
      <trkpt lat="43.37719" lon="6.12965">
        <ele>338.79998779297</ele>
        <time>2013-11-09T14:05:45Z</time>
      </trkpt>
      <trkpt lat="43.37717" lon="6.12963">
        <ele>339.20001220703</ele>
        <time>2013-11-09T14:05:46Z</time>
      </trkpt>
      <trkpt lat="43.37715" lon="6.12959">
        <ele>339.60000610352</ele>
        <time>2013-11-09T14:05:47Z</time>
      </trkpt>
      <trkpt lat="43.37712" lon="6.12956">
        <ele>340</ele>
        <time>2013-11-09T14:05:48Z</time>
      </trkpt>
      <trkpt lat="43.37708" lon="6.12948">
        <ele>339.60000610352</ele>
        <time>2013-11-09T14:05:50Z</time>
      </trkpt>
      <trkpt lat="43.37707" lon="6.12945">
        <ele>339.20001220703</ele>
        <time>2013-11-09T14:05:51Z</time>
      </trkpt>
      <trkpt lat="43.37706" lon="6.12943">
        <ele>338.79998779297</ele>
        <time>2013-11-09T14:05:52Z</time>
      </trkpt>
      <trkpt lat="43.37706" lon="6.12941">
        <ele>338.20001220703</ele>
        <time>2013-11-09T14:05:53Z</time>
      </trkpt>
      <trkpt lat="43.37706" lon="6.1294">
        <ele>337.79998779297</ele>
        <time>2013-11-09T14:05:54Z</time>
      </trkpt>
      <trkpt lat="43.37706" lon="6.1294">
        <ele>337.79998779297</ele>
        <time>2013-11-09T14:05:57Z</time>
      </trkpt>
      <trkpt lat="43.37706" lon="6.1294">
        <ele>337.79998779297</ele>
        <time>2013-11-09T14:06:23Z</time>
      </trkpt>
      <trkpt lat="43.37706" lon="6.1294">
        <ele>337.79998779297</ele>
        <time>2013-11-09T14:06:35Z</time>
      </trkpt>
      <trkpt lat="43.37706" lon="6.1294">
        <ele>337.79998779297</ele>
        <time>2013-11-09T14:06:40Z</time>
      </trkpt>
      <trkpt lat="43.37706" lon="6.12939">
        <ele>337.79998779297</ele>
        <time>2013-11-09T14:06:48Z</time>
      </trkpt>
      <trkpt lat="43.37708" lon="6.12934">
        <ele>337.79998779297</ele>
        <time>2013-11-09T14:06:53Z</time>
      </trkpt>
      <trkpt lat="43.37706" lon="6.12927">
        <ele>337.79998779297</ele>
        <time>2013-11-09T14:06:56Z</time>
      </trkpt>
      <trkpt lat="43.37702" lon="6.12922">
        <ele>337.79998779297</ele>
        <time>2013-11-09T14:06:58Z</time>
      </trkpt>
      <trkpt lat="43.37698" lon="6.12922">
        <ele>337</ele>
        <time>2013-11-09T14:07:00Z</time>
      </trkpt>
      <trkpt lat="43.37695" lon="6.12923">
        <ele>336.20001220703</ele>
        <time>2013-11-09T14:07:02Z</time>
      </trkpt>
      <trkpt lat="43.37693" lon="6.12925">
        <ele>335.79998779297</ele>
        <time>2013-11-09T14:07:03Z</time>
      </trkpt>
      <trkpt lat="43.37684" lon="6.12944">
        <ele>335.79998779297</ele>
        <time>2013-11-09T14:07:12Z</time>
      </trkpt>
      <trkpt lat="43.37677" lon="6.12958">
        <ele>335.79998779297</ele>
        <time>2013-11-09T14:07:18Z</time>
      </trkpt>
      <trkpt lat="43.37677" lon="6.12979">
        <ele>335.79998779297</ele>
        <time>2013-11-09T14:07:25Z</time>
      </trkpt>
      <trkpt lat="43.37676" lon="6.12981">
        <ele>335.79998779297</ele>
        <time>2013-11-09T14:07:27Z</time>
      </trkpt>
      <trkpt lat="43.37675" lon="6.12982">
        <ele>335.79998779297</ele>
        <time>2013-11-09T14:07:28Z</time>
      </trkpt>
      <trkpt lat="43.37666" lon="6.12981">
        <ele>335.79998779297</ele>
        <time>2013-11-09T14:07:33Z</time>
      </trkpt>
      <trkpt lat="43.37664" lon="6.12989">
        <ele>335.79998779297</ele>
        <time>2013-11-09T14:07:37Z</time>
      </trkpt>
      <trkpt lat="43.37666" lon="6.12993">
        <ele>335.79998779297</ele>
        <time>2013-11-09T14:07:39Z</time>
      </trkpt>
      <trkpt lat="43.37669" lon="6.13002">
        <ele>335.79998779297</ele>
        <time>2013-11-09T14:07:42Z</time>
      </trkpt>
      <trkpt lat="43.37668" lon="6.13007">
        <ele>335.79998779297</ele>
        <time>2013-11-09T14:07:44Z</time>
      </trkpt>
      <trkpt lat="43.37667" lon="6.13012">
        <ele>335.79998779297</ele>
        <time>2013-11-09T14:07:46Z</time>
      </trkpt>
      <trkpt lat="43.37669" lon="6.1302">
        <ele>335.79998779297</ele>
        <time>2013-11-09T14:07:48Z</time>
      </trkpt>
      <trkpt lat="43.37663" lon="6.13041">
        <ele>335.79998779297</ele>
        <time>2013-11-09T14:07:55Z</time>
      </trkpt>
      <trkpt lat="43.37651" lon="6.1306">
        <ele>338</ele>
        <time>2013-11-09T14:08:04Z</time>
      </trkpt>
      <trkpt lat="43.37646" lon="6.13068">
        <ele>338</ele>
        <time>2013-11-09T14:08:08Z</time>
      </trkpt>
      <trkpt lat="43.37636" lon="6.13084">
        <ele>338</ele>
        <time>2013-11-09T14:08:16Z</time>
      </trkpt>
      <trkpt lat="43.37627" lon="6.13098">
        <ele>338</ele>
        <time>2013-11-09T14:08:24Z</time>
      </trkpt>
      <trkpt lat="43.37621" lon="6.13106">
        <ele>339.20001220703</ele>
        <time>2013-11-09T14:08:28Z</time>
      </trkpt>
      <trkpt lat="43.37618" lon="6.1311">
        <ele>340</ele>
        <time>2013-11-09T14:08:30Z</time>
      </trkpt>
      <trkpt lat="43.37617" lon="6.13112">
        <ele>340</ele>
        <time>2013-11-09T14:08:31Z</time>
      </trkpt>
      <trkpt lat="43.37608" lon="6.13128">
        <ele>340</ele>
        <time>2013-11-09T14:08:38Z</time>
      </trkpt>
      <trkpt lat="43.37602" lon="6.13141">
        <ele>340</ele>
        <time>2013-11-09T14:08:43Z</time>
      </trkpt>
      <trkpt lat="43.376" lon="6.13147">
        <ele>340.79998779297</ele>
        <time>2013-11-09T14:08:45Z</time>
      </trkpt>
      <trkpt lat="43.37596" lon="6.13156">
        <ele>342</ele>
        <time>2013-11-09T14:08:48Z</time>
      </trkpt>
      <trkpt lat="43.3759" lon="6.13167">
        <ele>342</ele>
        <time>2013-11-09T14:08:52Z</time>
      </trkpt>
      <trkpt lat="43.37578" lon="6.13209">
        <ele>343.39999389648</ele>
        <time>2013-11-09T14:09:06Z</time>
      </trkpt>
      <trkpt lat="43.37577" lon="6.13215">
        <ele>344.39999389648</ele>
        <time>2013-11-09T14:09:08Z</time>
      </trkpt>
      <trkpt lat="43.37575" lon="6.13227">
        <ele>344.39999389648</ele>
        <time>2013-11-09T14:09:12Z</time>
      </trkpt>
      <trkpt lat="43.37574" lon="6.1325">
        <ele>344.39999389648</ele>
        <time>2013-11-09T14:09:19Z</time>
      </trkpt>
      <trkpt lat="43.37573" lon="6.13266">
        <ele>344.79998779297</ele>
        <time>2013-11-09T14:09:24Z</time>
      </trkpt>
      <trkpt lat="43.37573" lon="6.13276">
        <ele>346</ele>
        <time>2013-11-09T14:09:27Z</time>
      </trkpt>
      <trkpt lat="43.37571" lon="6.13296">
        <ele>346.39999389648</ele>
        <time>2013-11-09T14:09:33Z</time>
      </trkpt>
      <trkpt lat="43.37571" lon="6.13314">
        <ele>346.39999389648</ele>
        <time>2013-11-09T14:09:40Z</time>
      </trkpt>
      <trkpt lat="43.37571" lon="6.13325">
        <ele>347.39999389648</ele>
        <time>2013-11-09T14:09:44Z</time>
      </trkpt>
      <trkpt lat="43.37569" lon="6.13331">
        <ele>348.60000610352</ele>
        <time>2013-11-09T14:09:47Z</time>
      </trkpt>
      <trkpt lat="43.37568" lon="6.13332">
        <ele>348.60000610352</ele>
        <time>2013-11-09T14:09:48Z</time>
      </trkpt>
      <trkpt lat="43.3756" lon="6.13341">
        <ele>348.60000610352</ele>
        <time>2013-11-09T14:09:53Z</time>
      </trkpt>
      <trkpt lat="43.37555" lon="6.13344">
        <ele>348.60000610352</ele>
        <time>2013-11-09T14:09:56Z</time>
      </trkpt>
      <trkpt lat="43.37552" lon="6.13346">
        <ele>348.60000610352</ele>
        <time>2013-11-09T14:09:58Z</time>
      </trkpt>
      <trkpt lat="43.3755" lon="6.1335">
        <ele>348.60000610352</ele>
        <time>2013-11-09T14:10:00Z</time>
      </trkpt>
      <trkpt lat="43.37538" lon="6.13373">
        <ele>348.60000610352</ele>
        <time>2013-11-09T14:10:10Z</time>
      </trkpt>
      <trkpt lat="43.37537" lon="6.13375">
        <ele>348.60000610352</ele>
        <time>2013-11-09T14:10:11Z</time>
      </trkpt>
      <trkpt lat="43.37535" lon="6.1338">
        <ele>348.60000610352</ele>
        <time>2013-11-09T14:10:13Z</time>
      </trkpt>
      <trkpt lat="43.37533" lon="6.13395">
        <ele>348.60000610352</ele>
        <time>2013-11-09T14:10:19Z</time>
      </trkpt>
      <trkpt lat="43.3753" lon="6.13409">
        <ele>348.60000610352</ele>
        <time>2013-11-09T14:10:24Z</time>
      </trkpt>
      <trkpt lat="43.37528" lon="6.13415">
        <ele>348.60000610352</ele>
        <time>2013-11-09T14:10:27Z</time>
      </trkpt>
      <trkpt lat="43.37528" lon="6.13419">
        <ele>349</ele>
        <time>2013-11-09T14:10:29Z</time>
      </trkpt>
      <trkpt lat="43.37527" lon="6.1342">
        <ele>349.39999389648</ele>
        <time>2013-11-09T14:10:30Z</time>
      </trkpt>
      <trkpt lat="43.37526" lon="6.13422">
        <ele>350.20001220703</ele>
        <time>2013-11-09T14:10:31Z</time>
      </trkpt>
      <trkpt lat="43.37525" lon="6.13423">
        <ele>350.79998779297</ele>
        <time>2013-11-09T14:10:32Z</time>
      </trkpt>
      <trkpt lat="43.37525" lon="6.13425">
        <ele>350.79998779297</ele>
        <time>2013-11-09T14:10:33Z</time>
      </trkpt>
      <trkpt lat="43.37524" lon="6.13426">
        <ele>350.79998779297</ele>
        <time>2013-11-09T14:10:38Z</time>
      </trkpt>
      <trkpt lat="43.37524" lon="6.13426">
        <ele>350.79998779297</ele>
        <time>2013-11-09T14:10:45Z</time>
      </trkpt>
      <trkpt lat="43.37525" lon="6.13426">
        <ele>350.79998779297</ele>
        <time>2013-11-09T14:10:52Z</time>
      </trkpt>
      <trkpt lat="43.37525" lon="6.13426">
        <ele>350.79998779297</ele>
        <time>2013-11-09T14:11:06Z</time>
      </trkpt>
      <trkpt lat="43.37525" lon="6.13426">
        <ele>350.79998779297</ele>
        <time>2013-11-09T14:11:27Z</time>
      </trkpt>
      <trkpt lat="43.37524" lon="6.13426">
        <ele>350.79998779297</ele>
        <time>2013-11-09T14:11:39Z</time>
      </trkpt>
      <trkpt lat="43.37523" lon="6.1343">
        <ele>350.79998779297</ele>
        <time>2013-11-09T14:11:44Z</time>
      </trkpt>
      <trkpt lat="43.37521" lon="6.13438">
        <ele>350.79998779297</ele>
        <time>2013-11-09T14:11:47Z</time>
      </trkpt>
      <trkpt lat="43.37522" lon="6.13447">
        <ele>350.79998779297</ele>
        <time>2013-11-09T14:11:50Z</time>
      </trkpt>
      <trkpt lat="43.37522" lon="6.1345">
        <ele>350.79998779297</ele>
        <time>2013-11-09T14:11:51Z</time>
      </trkpt>
      <trkpt lat="43.37524" lon="6.13465">
        <ele>350.79998779297</ele>
        <time>2013-11-09T14:11:57Z</time>
      </trkpt>
      <trkpt lat="43.37524" lon="6.13473">
        <ele>350.79998779297</ele>
        <time>2013-11-09T14:12:02Z</time>
      </trkpt>
      <trkpt lat="43.37524" lon="6.13483">
        <ele>351.20001220703</ele>
        <time>2013-11-09T14:12:08Z</time>
      </trkpt>
      <trkpt lat="43.37524" lon="6.13487">
        <ele>352</ele>
        <time>2013-11-09T14:12:10Z</time>
      </trkpt>
      <trkpt lat="43.37527" lon="6.135">
        <ele>353</ele>
        <time>2013-11-09T14:12:15Z</time>
      </trkpt>
      <trkpt lat="43.37529" lon="6.13515">
        <ele>353</ele>
        <time>2013-11-09T14:12:22Z</time>
      </trkpt>
      <trkpt lat="43.37531" lon="6.13534">
        <ele>353</ele>
        <time>2013-11-09T14:12:29Z</time>
      </trkpt>
      <trkpt lat="43.37531" lon="6.13552">
        <ele>353</ele>
        <time>2013-11-09T14:12:36Z</time>
      </trkpt>
      <trkpt lat="43.37532" lon="6.13562">
        <ele>353.39999389648</ele>
        <time>2013-11-09T14:12:41Z</time>
      </trkpt>
      <trkpt lat="43.37534" lon="6.13567">
        <ele>354.60000610352</ele>
        <time>2013-11-09T14:12:44Z</time>
      </trkpt>
      <trkpt lat="43.37535" lon="6.13573">
        <ele>355</ele>
        <time>2013-11-09T14:12:47Z</time>
      </trkpt>
      <trkpt lat="43.37541" lon="6.13595">
        <ele>355</ele>
        <time>2013-11-09T14:12:56Z</time>
      </trkpt>
      <trkpt lat="43.37545" lon="6.13609">
        <ele>355.79998779297</ele>
        <time>2013-11-09T14:13:02Z</time>
      </trkpt>
      <trkpt lat="43.37547" lon="6.13617">
        <ele>357</ele>
        <time>2013-11-09T14:13:05Z</time>
      </trkpt>
      <trkpt lat="43.37555" lon="6.13642">
        <ele>357</ele>
        <time>2013-11-09T14:13:16Z</time>
      </trkpt>
      <trkpt lat="43.37557" lon="6.13677">
        <ele>359.20001220703</ele>
        <time>2013-11-09T14:13:29Z</time>
      </trkpt>
      <trkpt lat="43.37559" lon="6.13697">
        <ele>359.20001220703</ele>
        <time>2013-11-09T14:13:36Z</time>
      </trkpt>
      <trkpt lat="43.37563" lon="6.13721">
        <ele>361.39999389648</ele>
        <time>2013-11-09T14:13:46Z</time>
      </trkpt>
      <trkpt lat="43.37567" lon="6.13746">
        <ele>361.39999389648</ele>
        <time>2013-11-09T14:13:56Z</time>
      </trkpt>
      <trkpt lat="43.37569" lon="6.13761">
        <ele>361.79998779297</ele>
        <time>2013-11-09T14:14:02Z</time>
      </trkpt>
      <trkpt lat="43.37569" lon="6.13769">
        <ele>363</ele>
        <time>2013-11-09T14:14:05Z</time>
      </trkpt>
      <trkpt lat="43.37571" lon="6.13777">
        <ele>363.39999389648</ele>
        <time>2013-11-09T14:14:08Z</time>
      </trkpt>
      <trkpt lat="43.37571" lon="6.13795">
        <ele>363.39999389648</ele>
        <time>2013-11-09T14:14:15Z</time>
      </trkpt>
      <trkpt lat="43.37572" lon="6.138">
        <ele>364.20001220703</ele>
        <time>2013-11-09T14:14:17Z</time>
      </trkpt>
      <trkpt lat="43.37571" lon="6.13804">
        <ele>364.60000610352</ele>
        <time>2013-11-09T14:14:18Z</time>
      </trkpt>
      <trkpt lat="43.37571" lon="6.13813">
        <ele>365.39999389648</ele>
        <time>2013-11-09T14:14:21Z</time>
      </trkpt>
      <trkpt lat="43.37569" lon="6.13831">
        <ele>365.39999389648</ele>
        <time>2013-11-09T14:14:27Z</time>
      </trkpt>
      <trkpt lat="43.37564" lon="6.13871">
        <ele>365.39999389648</ele>
        <time>2013-11-09T14:14:41Z</time>
      </trkpt>
      <trkpt lat="43.37563" lon="6.13888">
        <ele>365.39999389648</ele>
        <time>2013-11-09T14:14:47Z</time>
      </trkpt>
      <trkpt lat="43.37563" lon="6.13896">
        <ele>365.39999389648</ele>
        <time>2013-11-09T14:14:50Z</time>
      </trkpt>
      <trkpt lat="43.37561" lon="6.13901">
        <ele>365.39999389648</ele>
        <time>2013-11-09T14:14:52Z</time>
      </trkpt>
      <trkpt lat="43.37559" lon="6.13909">
        <ele>365.39999389648</ele>
        <time>2013-11-09T14:14:56Z</time>
      </trkpt>
      <trkpt lat="43.37559" lon="6.1391">
        <ele>365.39999389648</ele>
        <time>2013-11-09T14:14:58Z</time>
      </trkpt>
      <trkpt lat="43.37559" lon="6.1391">
        <ele>365.39999389648</ele>
        <time>2013-11-09T14:15:21Z</time>
      </trkpt>
      <trkpt lat="43.37559" lon="6.1391">
        <ele>365.39999389648</ele>
        <time>2013-11-09T14:15:45Z</time>
      </trkpt>
      <trkpt lat="43.37559" lon="6.1391">
        <ele>365.39999389648</ele>
        <time>2013-11-09T14:15:51Z</time>
      </trkpt>
      <trkpt lat="43.37559" lon="6.1391">
        <ele>365.39999389648</ele>
        <time>2013-11-09T14:16:17Z</time>
      </trkpt>
      <trkpt lat="43.37559" lon="6.1391">
        <ele>367.20001220703</ele>
        <time>2013-11-09T14:16:34Z</time>
      </trkpt>
      <trkpt lat="43.37559" lon="6.1391">
        <ele>367.60000610352</ele>
        <time>2013-11-09T14:16:49Z</time>
      </trkpt>
      <trkpt lat="43.37558" lon="6.13913">
        <ele>367.60000610352</ele>
        <time>2013-11-09T14:16:54Z</time>
      </trkpt>
      <trkpt lat="43.37556" lon="6.13916">
        <ele>367.60000610352</ele>
        <time>2013-11-09T14:16:56Z</time>
      </trkpt>
      <trkpt lat="43.37553" lon="6.1393">
        <ele>367.60000610352</ele>
        <time>2013-11-09T14:17:01Z</time>
      </trkpt>
      <trkpt lat="43.3755" lon="6.13946">
        <ele>367.60000610352</ele>
        <time>2013-11-09T14:17:06Z</time>
      </trkpt>
      <trkpt lat="43.37543" lon="6.13962">
        <ele>367.60000610352</ele>
        <time>2013-11-09T14:17:11Z</time>
      </trkpt>
      <trkpt lat="43.3754" lon="6.13971">
        <ele>367.60000610352</ele>
        <time>2013-11-09T14:17:15Z</time>
      </trkpt>
      <trkpt lat="43.37538" lon="6.1398">
        <ele>367.60000610352</ele>
        <time>2013-11-09T14:17:18Z</time>
      </trkpt>
      <trkpt lat="43.37537" lon="6.13982">
        <ele>367.60000610352</ele>
        <time>2013-11-09T14:17:19Z</time>
      </trkpt>
      <trkpt lat="43.37537" lon="6.13998">
        <ele>368</ele>
        <time>2013-11-09T14:17:24Z</time>
      </trkpt>
      <trkpt lat="43.37537" lon="6.14004">
        <ele>369.20001220703</ele>
        <time>2013-11-09T14:17:26Z</time>
      </trkpt>
      <trkpt lat="43.37538" lon="6.14007">
        <ele>369.60000610352</ele>
        <time>2013-11-09T14:17:27Z</time>
      </trkpt>
      <trkpt lat="43.37536" lon="6.14011">
        <ele>369.60000610352</ele>
        <time>2013-11-09T14:17:29Z</time>
      </trkpt>
      <trkpt lat="43.37534" lon="6.14017">
        <ele>369.60000610352</ele>
        <time>2013-11-09T14:17:32Z</time>
      </trkpt>
      <trkpt lat="43.37534" lon="6.1402">
        <ele>369.60000610352</ele>
        <time>2013-11-09T14:17:34Z</time>
      </trkpt>
      <trkpt lat="43.3753" lon="6.14034">
        <ele>369.60000610352</ele>
        <time>2013-11-09T14:17:39Z</time>
      </trkpt>
      <trkpt lat="43.37522" lon="6.14046">
        <ele>370.20001220703</ele>
        <time>2013-11-09T14:17:45Z</time>
      </trkpt>
      <trkpt lat="43.37521" lon="6.14049">
        <ele>370.60000610352</ele>
        <time>2013-11-09T14:17:46Z</time>
      </trkpt>
      <trkpt lat="43.3752" lon="6.14056">
        <ele>372</ele>
        <time>2013-11-09T14:17:49Z</time>
      </trkpt>
      <trkpt lat="43.37518" lon="6.14072">
        <ele>372</ele>
        <time>2013-11-09T14:17:57Z</time>
      </trkpt>
      <trkpt lat="43.37517" lon="6.14083">
        <ele>372</ele>
        <time>2013-11-09T14:18:04Z</time>
      </trkpt>
      <trkpt lat="43.37516" lon="6.14095">
        <ele>372</ele>
        <time>2013-11-09T14:18:11Z</time>
      </trkpt>
      <trkpt lat="43.37514" lon="6.14104">
        <ele>372.39999389648</ele>
        <time>2013-11-09T14:18:17Z</time>
      </trkpt>
      <trkpt lat="43.37511" lon="6.14109">
        <ele>373.60000610352</ele>
        <time>2013-11-09T14:18:20Z</time>
      </trkpt>
      <trkpt lat="43.37506" lon="6.14116">
        <ele>374</ele>
        <time>2013-11-09T14:18:25Z</time>
      </trkpt>
      <trkpt lat="43.37501" lon="6.14128">
        <ele>374</ele>
        <time>2013-11-09T14:18:31Z</time>
      </trkpt>
      <trkpt lat="43.37492" lon="6.14137">
        <ele>374.39999389648</ele>
        <time>2013-11-09T14:18:38Z</time>
      </trkpt>
      <trkpt lat="43.3749" lon="6.14138">
        <ele>375.39999389648</ele>
        <time>2013-11-09T14:18:39Z</time>
      </trkpt>
      <trkpt lat="43.37489" lon="6.1414">
        <ele>375.79998779297</ele>
        <time>2013-11-09T14:18:40Z</time>
      </trkpt>
      <trkpt lat="43.37483" lon="6.14151">
        <ele>376.20001220703</ele>
        <time>2013-11-09T14:18:45Z</time>
      </trkpt>
      <trkpt lat="43.3748" lon="6.14155">
        <ele>376.20001220703</ele>
        <time>2013-11-09T14:18:47Z</time>
      </trkpt>
      <trkpt lat="43.37477" lon="6.1416">
        <ele>377.39999389648</ele>
        <time>2013-11-09T14:18:50Z</time>
      </trkpt>
      <trkpt lat="43.37461" lon="6.14164">
        <ele>378.39999389648</ele>
        <time>2013-11-09T14:18:59Z</time>
      </trkpt>
      <trkpt lat="43.37453" lon="6.14168">
        <ele>378.79998779297</ele>
        <time>2013-11-09T14:19:04Z</time>
      </trkpt>
      <trkpt lat="43.37449" lon="6.14171">
        <ele>380</ele>
        <time>2013-11-09T14:19:07Z</time>
      </trkpt>
      <trkpt lat="43.37437" lon="6.14178">
        <ele>380.79998779297</ele>
        <time>2013-11-09T14:19:15Z</time>
      </trkpt>
      <trkpt lat="43.3743" lon="6.14182">
        <ele>382.39999389648</ele>
        <time>2013-11-09T14:19:19Z</time>
      </trkpt>
      <trkpt lat="43.37425" lon="6.14186">
        <ele>382.79998779297</ele>
        <time>2013-11-09T14:19:23Z</time>
      </trkpt>
      <trkpt lat="43.37424" lon="6.14187">
        <ele>383.39999389648</ele>
        <time>2013-11-09T14:19:24Z</time>
      </trkpt>
      <trkpt lat="43.37418" lon="6.14187">
        <ele>384.79998779297</ele>
        <time>2013-11-09T14:19:28Z</time>
      </trkpt>
      <trkpt lat="43.37414" lon="6.14189">
        <ele>384.79998779297</ele>
        <time>2013-11-09T14:19:31Z</time>
      </trkpt>
      <trkpt lat="43.37411" lon="6.14192">
        <ele>386</ele>
        <time>2013-11-09T14:19:34Z</time>
      </trkpt>
      <trkpt lat="43.37408" lon="6.14194">
        <ele>387</ele>
        <time>2013-11-09T14:19:36Z</time>
      </trkpt>
      <trkpt lat="43.37405" lon="6.14197">
        <ele>387</ele>
        <time>2013-11-09T14:19:39Z</time>
      </trkpt>
      <trkpt lat="43.37402" lon="6.14198">
        <ele>387</ele>
        <time>2013-11-09T14:19:42Z</time>
      </trkpt>
      <trkpt lat="43.374" lon="6.14197">
        <ele>387</ele>
        <time>2013-11-09T14:19:44Z</time>
      </trkpt>
      <trkpt lat="43.374" lon="6.14197">
        <ele>387.39999389648</ele>
        <time>2013-11-09T14:20:02Z</time>
      </trkpt>
      <trkpt lat="43.374" lon="6.14197">
        <ele>389</ele>
        <time>2013-11-09T14:20:44Z</time>
      </trkpt>
      <trkpt lat="43.374" lon="6.14197">
        <ele>389</ele>
        <time>2013-11-09T14:21:01Z</time>
      </trkpt>
      <trkpt lat="43.37399" lon="6.14196">
        <ele>389</ele>
        <time>2013-11-09T14:21:02Z</time>
      </trkpt>
      <trkpt lat="43.37397" lon="6.14196">
        <ele>389</ele>
        <time>2013-11-09T14:21:03Z</time>
      </trkpt>
      <trkpt lat="43.37395" lon="6.14197">
        <ele>389</ele>
        <time>2013-11-09T14:21:04Z</time>
      </trkpt>
      <trkpt lat="43.37394" lon="6.14196">
        <ele>389</ele>
        <time>2013-11-09T14:21:05Z</time>
      </trkpt>
      <trkpt lat="43.37392" lon="6.14196">
        <ele>389</ele>
        <time>2013-11-09T14:21:06Z</time>
      </trkpt>
      <trkpt lat="43.37381" lon="6.14196">
        <ele>389</ele>
        <time>2013-11-09T14:21:11Z</time>
      </trkpt>
      <trkpt lat="43.37378" lon="6.14198">
        <ele>389</ele>
        <time>2013-11-09T14:21:12Z</time>
      </trkpt>
      <trkpt lat="43.37371" lon="6.14206">
        <ele>389</ele>
        <time>2013-11-09T14:21:15Z</time>
      </trkpt>
      <trkpt lat="43.37369" lon="6.14209">
        <ele>389</ele>
        <time>2013-11-09T14:21:16Z</time>
      </trkpt>
      <trkpt lat="43.37366" lon="6.14214">
        <ele>389</ele>
        <time>2013-11-09T14:21:18Z</time>
      </trkpt>
      <trkpt lat="43.37363" lon="6.14221">
        <ele>389.39999389648</ele>
        <time>2013-11-09T14:21:20Z</time>
      </trkpt>
      <trkpt lat="43.37362" lon="6.14228">
        <ele>390.20001220703</ele>
        <time>2013-11-09T14:21:22Z</time>
      </trkpt>
      <trkpt lat="43.3736" lon="6.14234">
        <ele>391</ele>
        <time>2013-11-09T14:21:24Z</time>
      </trkpt>
      <trkpt lat="43.37357" lon="6.1424">
        <ele>391</ele>
        <time>2013-11-09T14:21:28Z</time>
      </trkpt>
      <trkpt lat="43.37354" lon="6.14243">
        <ele>391</ele>
        <time>2013-11-09T14:21:31Z</time>
      </trkpt>
      <trkpt lat="43.37354" lon="6.14244">
        <ele>391</ele>
        <time>2013-11-09T14:21:34Z</time>
      </trkpt>
      <trkpt lat="43.37354" lon="6.14244">
        <ele>391</ele>
        <time>2013-11-09T14:21:55Z</time>
      </trkpt>
      <trkpt lat="43.37354" lon="6.14244">
        <ele>391</ele>
        <time>2013-11-09T14:22:13Z</time>
      </trkpt>
      <trkpt lat="43.37354" lon="6.14244">
        <ele>391</ele>
        <time>2013-11-09T14:22:30Z</time>
      </trkpt>
      <trkpt lat="43.37354" lon="6.14244">
        <ele>391</ele>
        <time>2013-11-09T14:22:42Z</time>
      </trkpt>
      <trkpt lat="43.37354" lon="6.14244">
        <ele>391</ele>
        <time>2013-11-09T14:22:48Z</time>
      </trkpt>
      <trkpt lat="43.37354" lon="6.14244">
        <ele>391</ele>
        <time>2013-11-09T14:22:58Z</time>
      </trkpt>
      <trkpt lat="43.37352" lon="6.14246">
        <ele>391</ele>
        <time>2013-11-09T14:23:09Z</time>
      </trkpt>
      <trkpt lat="43.37348" lon="6.14248">
        <ele>391</ele>
        <time>2013-11-09T14:23:11Z</time>
      </trkpt>
      <trkpt lat="43.37342" lon="6.14254">
        <ele>391</ele>
        <time>2013-11-09T14:23:14Z</time>
      </trkpt>
      <trkpt lat="43.37331" lon="6.14262">
        <ele>391</ele>
        <time>2013-11-09T14:23:18Z</time>
      </trkpt>
      <trkpt lat="43.37327" lon="6.14264">
        <ele>390.60000610352</ele>
        <time>2013-11-09T14:23:19Z</time>
      </trkpt>
      <trkpt lat="43.3732" lon="6.14273">
        <ele>389.60000610352</ele>
        <time>2013-11-09T14:23:21Z</time>
      </trkpt>
      <trkpt lat="43.37317" lon="6.14276">
        <ele>389</ele>
        <time>2013-11-09T14:23:22Z</time>
      </trkpt>
      <trkpt lat="43.37311" lon="6.14282">
        <ele>387.60000610352</ele>
        <time>2013-11-09T14:23:24Z</time>
      </trkpt>
      <trkpt lat="43.37307" lon="6.14285">
        <ele>387</ele>
        <time>2013-11-09T14:23:25Z</time>
      </trkpt>
      <trkpt lat="43.37301" lon="6.14287">
        <ele>386.39999389648</ele>
        <time>2013-11-09T14:23:26Z</time>
      </trkpt>
      <trkpt lat="43.37295" lon="6.14289">
        <ele>385.79998779297</ele>
        <time>2013-11-09T14:23:27Z</time>
      </trkpt>
      <trkpt lat="43.3729" lon="6.14291">
        <ele>384.79998779297</ele>
        <time>2013-11-09T14:23:28Z</time>
      </trkpt>
      <trkpt lat="43.37285" lon="6.14294">
        <ele>384</ele>
        <time>2013-11-09T14:23:29Z</time>
      </trkpt>
      <trkpt lat="43.37281" lon="6.14299">
        <ele>383.20001220703</ele>
        <time>2013-11-09T14:23:30Z</time>
      </trkpt>
      <trkpt lat="43.37276" lon="6.14303">
        <ele>382.39999389648</ele>
        <time>2013-11-09T14:23:31Z</time>
      </trkpt>
      <trkpt lat="43.37271" lon="6.14308">
        <ele>381.79998779297</ele>
        <time>2013-11-09T14:23:32Z</time>
      </trkpt>
      <trkpt lat="43.37265" lon="6.14313">
        <ele>381</ele>
        <time>2013-11-09T14:23:33Z</time>
      </trkpt>
      <trkpt lat="43.37259" lon="6.14317">
        <ele>380.20001220703</ele>
        <time>2013-11-09T14:23:34Z</time>
      </trkpt>
      <trkpt lat="43.37257" lon="6.14323">
        <ele>378.79998779297</ele>
        <time>2013-11-09T14:23:35Z</time>
      </trkpt>
      <trkpt lat="43.37255" lon="6.14329">
        <ele>378.20001220703</ele>
        <time>2013-11-09T14:23:36Z</time>
      </trkpt>
      <trkpt lat="43.37254" lon="6.14333">
        <ele>377.39999389648</ele>
        <time>2013-11-09T14:23:37Z</time>
      </trkpt>
      <trkpt lat="43.37254" lon="6.14335">
        <ele>376.79998779297</ele>
        <time>2013-11-09T14:23:38Z</time>
      </trkpt>
      <trkpt lat="43.37255" lon="6.14335">
        <ele>376.79998779297</ele>
        <time>2013-11-09T14:23:39Z</time>
      </trkpt>
      <trkpt lat="43.37255" lon="6.14336">
        <ele>376.79998779297</ele>
        <time>2013-11-09T14:23:45Z</time>
      </trkpt>
      <trkpt lat="43.37255" lon="6.14336">
        <ele>376.79998779297</ele>
        <time>2013-11-09T14:23:51Z</time>
      </trkpt>
      <trkpt lat="43.37255" lon="6.14336">
        <ele>376.79998779297</ele>
        <time>2013-11-09T14:23:55Z</time>
      </trkpt>
      <trkpt lat="43.37256" lon="6.14337">
        <ele>376.79998779297</ele>
        <time>2013-11-09T14:23:57Z</time>
      </trkpt>
      <trkpt lat="43.3726" lon="6.14346">
        <ele>376.79998779297</ele>
        <time>2013-11-09T14:24:00Z</time>
      </trkpt>
      <trkpt lat="43.37263" lon="6.1436">
        <ele>376.79998779297</ele>
        <time>2013-11-09T14:24:05Z</time>
      </trkpt>
      <trkpt lat="43.37262" lon="6.14372">
        <ele>376.79998779297</ele>
        <time>2013-11-09T14:24:10Z</time>
      </trkpt>
      <trkpt lat="43.37262" lon="6.1438">
        <ele>376.79998779297</ele>
        <time>2013-11-09T14:24:13Z</time>
      </trkpt>
      <trkpt lat="43.37264" lon="6.14386">
        <ele>376.79998779297</ele>
        <time>2013-11-09T14:24:15Z</time>
      </trkpt>
      <trkpt lat="43.37268" lon="6.14394">
        <ele>377.60000610352</ele>
        <time>2013-11-09T14:24:18Z</time>
      </trkpt>
      <trkpt lat="43.37268" lon="6.14399">
        <ele>378.60000610352</ele>
        <time>2013-11-09T14:24:20Z</time>
      </trkpt>
      <trkpt lat="43.37269" lon="6.14412">
        <ele>379</ele>
        <time>2013-11-09T14:24:24Z</time>
      </trkpt>
      <trkpt lat="43.37272" lon="6.1442">
        <ele>379</ele>
        <time>2013-11-09T14:24:27Z</time>
      </trkpt>
      <trkpt lat="43.37278" lon="6.14427">
        <ele>379.39999389648</ele>
        <time>2013-11-09T14:24:31Z</time>
      </trkpt>
      <trkpt lat="43.37284" lon="6.14436">
        <ele>381.20001220703</ele>
        <time>2013-11-09T14:24:35Z</time>
      </trkpt>
      <trkpt lat="43.37287" lon="6.14445">
        <ele>381.20001220703</ele>
        <time>2013-11-09T14:24:39Z</time>
      </trkpt>
      <trkpt lat="43.37293" lon="6.14476">
        <ele>383.20001220703</ele>
        <time>2013-11-09T14:24:52Z</time>
      </trkpt>
      <trkpt lat="43.37295" lon="6.14492">
        <ele>383.20001220703</ele>
        <time>2013-11-09T14:24:59Z</time>
      </trkpt>
      <trkpt lat="43.37296" lon="6.14497">
        <ele>383.20001220703</ele>
        <time>2013-11-09T14:25:02Z</time>
      </trkpt>
      <trkpt lat="43.37298" lon="6.14507">
        <ele>384</ele>
        <time>2013-11-09T14:25:07Z</time>
      </trkpt>
      <trkpt lat="43.373" lon="6.14514">
        <ele>385.79998779297</ele>
        <time>2013-11-09T14:25:11Z</time>
      </trkpt>
      <trkpt lat="43.37307" lon="6.14536">
        <ele>387.39999389648</ele>
        <time>2013-11-09T14:25:22Z</time>
      </trkpt>
      <trkpt lat="43.3731" lon="6.14547">
        <ele>387.39999389648</ele>
        <time>2013-11-09T14:25:27Z</time>
      </trkpt>
      <trkpt lat="43.37312" lon="6.14559">
        <ele>387.39999389648</ele>
        <time>2013-11-09T14:25:33Z</time>
      </trkpt>
      <trkpt lat="43.37313" lon="6.14563">
        <ele>388.20001220703</ele>
        <time>2013-11-09T14:25:35Z</time>
      </trkpt>
      <trkpt lat="43.37316" lon="6.14572">
        <ele>389.60000610352</ele>
        <time>2013-11-09T14:25:40Z</time>
      </trkpt>
      <trkpt lat="43.37318" lon="6.14582">
        <ele>390.39999389648</ele>
        <time>2013-11-09T14:25:44Z</time>
      </trkpt>
      <trkpt lat="43.3732" lon="6.14589">
        <ele>391.60000610352</ele>
        <time>2013-11-09T14:25:47Z</time>
      </trkpt>
      <trkpt lat="43.37322" lon="6.146">
        <ele>391.60000610352</ele>
        <time>2013-11-09T14:25:53Z</time>
      </trkpt>
      <trkpt lat="43.37325" lon="6.1461">
        <ele>392.79998779297</ele>
        <time>2013-11-09T14:25:58Z</time>
      </trkpt>
      <trkpt lat="43.37331" lon="6.14629">
        <ele>394</ele>
        <time>2013-11-09T14:26:08Z</time>
      </trkpt>
      <trkpt lat="43.37331" lon="6.14631">
        <ele>394.39999389648</ele>
        <time>2013-11-09T14:26:09Z</time>
      </trkpt>
      <trkpt lat="43.37331" lon="6.14639">
        <ele>395.79998779297</ele>
        <time>2013-11-09T14:26:13Z</time>
      </trkpt>
      <trkpt lat="43.37332" lon="6.14653">
        <ele>395.79998779297</ele>
        <time>2013-11-09T14:26:20Z</time>
      </trkpt>
      <trkpt lat="43.37332" lon="6.14657">
        <ele>396.60000610352</ele>
        <time>2013-11-09T14:26:22Z</time>
      </trkpt>
      <trkpt lat="43.37334" lon="6.14662">
        <ele>397.79998779297</ele>
        <time>2013-11-09T14:26:25Z</time>
      </trkpt>
      <trkpt lat="43.37338" lon="6.14678">
        <ele>397.79998779297</ele>
        <time>2013-11-09T14:26:33Z</time>
      </trkpt>
      <trkpt lat="43.37341" lon="6.14689">
        <ele>400</ele>
        <time>2013-11-09T14:26:39Z</time>
      </trkpt>
      <trkpt lat="43.37347" lon="6.14708">
        <ele>400.39999389648</ele>
        <time>2013-11-09T14:26:50Z</time>
      </trkpt>
      <trkpt lat="43.37348" lon="6.14719">
        <ele>402</ele>
        <time>2013-11-09T14:26:57Z</time>
      </trkpt>
      <trkpt lat="43.3735" lon="6.14723">
        <ele>402</ele>
        <time>2013-11-09T14:26:59Z</time>
      </trkpt>
      <trkpt lat="43.3735" lon="6.14726">
        <ele>402</ele>
        <time>2013-11-09T14:27:01Z</time>
      </trkpt>
      <trkpt lat="43.3735" lon="6.14736">
        <ele>402.39999389648</ele>
        <time>2013-11-09T14:27:07Z</time>
      </trkpt>
      <trkpt lat="43.37352" lon="6.14739">
        <ele>402.79998779297</ele>
        <time>2013-11-09T14:27:08Z</time>
      </trkpt>
      <trkpt lat="43.37352" lon="6.14744">
        <ele>403.60000610352</ele>
        <time>2013-11-09T14:27:10Z</time>
      </trkpt>
      <trkpt lat="43.37352" lon="6.14747">
        <ele>404</ele>
        <time>2013-11-09T14:27:11Z</time>
      </trkpt>
      <trkpt lat="43.37354" lon="6.1475">
        <ele>404.60000610352</ele>
        <time>2013-11-09T14:27:13Z</time>
      </trkpt>
      <trkpt lat="43.37355" lon="6.14755">
        <ele>405.39999389648</ele>
        <time>2013-11-09T14:27:15Z</time>
      </trkpt>
      <trkpt lat="43.37357" lon="6.14758">
        <ele>406.39999389648</ele>
        <time>2013-11-09T14:27:17Z</time>
      </trkpt>
      <trkpt lat="43.37358" lon="6.14766">
        <ele>406.79998779297</ele>
        <time>2013-11-09T14:27:23Z</time>
      </trkpt>
      <trkpt lat="43.3736" lon="6.14773">
        <ele>408.39999389648</ele>
        <time>2013-11-09T14:27:27Z</time>
      </trkpt>
      <trkpt lat="43.37363" lon="6.14785">
        <ele>408.39999389648</ele>
        <time>2013-11-09T14:27:34Z</time>
      </trkpt>
      <trkpt lat="43.37363" lon="6.14793">
        <ele>408.79998779297</ele>
        <time>2013-11-09T14:27:39Z</time>
      </trkpt>
      <trkpt lat="43.37363" lon="6.14795">
        <ele>409.20001220703</ele>
        <time>2013-11-09T14:27:40Z</time>
      </trkpt>
      <trkpt lat="43.37362" lon="6.14797">
        <ele>410.20001220703</ele>
        <time>2013-11-09T14:27:41Z</time>
      </trkpt>
      <trkpt lat="43.37362" lon="6.14798">
        <ele>410.60000610352</ele>
        <time>2013-11-09T14:27:42Z</time>
      </trkpt>
      <trkpt lat="43.37362" lon="6.14811">
        <ele>410.60000610352</ele>
        <time>2013-11-09T14:27:48Z</time>
      </trkpt>
      <trkpt lat="43.37365" lon="6.14824">
        <ele>411</ele>
        <time>2013-11-09T14:27:52Z</time>
      </trkpt>
      <trkpt lat="43.37365" lon="6.14827">
        <ele>411.39999389648</ele>
        <time>2013-11-09T14:27:53Z</time>
      </trkpt>
      <trkpt lat="43.37366" lon="6.1483">
        <ele>412</ele>
        <time>2013-11-09T14:27:54Z</time>
      </trkpt>
      <trkpt lat="43.37367" lon="6.14835">
        <ele>412.79998779297</ele>
        <time>2013-11-09T14:27:56Z</time>
      </trkpt>
      <trkpt lat="43.37367" lon="6.14844">
        <ele>413.20001220703</ele>
        <time>2013-11-09T14:27:59Z</time>
      </trkpt>
      <trkpt lat="43.37368" lon="6.1485">
        <ele>414</ele>
        <time>2013-11-09T14:28:01Z</time>
      </trkpt>
      <trkpt lat="43.37369" lon="6.14852">
        <ele>414.39999389648</ele>
        <time>2013-11-09T14:28:02Z</time>
      </trkpt>
      <trkpt lat="43.37369" lon="6.14853">
        <ele>414.79998779297</ele>
        <time>2013-11-09T14:28:03Z</time>
      </trkpt>
      <trkpt lat="43.37369" lon="6.14856">
        <ele>415.39999389648</ele>
        <time>2013-11-09T14:28:05Z</time>
      </trkpt>
      <trkpt lat="43.37369" lon="6.14857">
        <ele>416.20001220703</ele>
        <time>2013-11-09T14:28:06Z</time>
      </trkpt>
      <trkpt lat="43.37369" lon="6.14858">
        <ele>416.60000610352</ele>
        <time>2013-11-09T14:28:07Z</time>
      </trkpt>
      <trkpt lat="43.37369" lon="6.14859">
        <ele>417</ele>
        <time>2013-11-09T14:28:08Z</time>
      </trkpt>
      <trkpt lat="43.3737" lon="6.14859">
        <ele>417</ele>
        <time>2013-11-09T14:28:13Z</time>
      </trkpt>
      <trkpt lat="43.3737" lon="6.14859">
        <ele>417</ele>
        <time>2013-11-09T14:28:30Z</time>
      </trkpt>
      <trkpt lat="43.37369" lon="6.1486">
        <ele>417</ele>
        <time>2013-11-09T14:29:28Z</time>
      </trkpt>
      <trkpt lat="43.37369" lon="6.1486">
        <ele>417</ele>
        <time>2013-11-09T14:29:44Z</time>
      </trkpt>
      <trkpt lat="43.37369" lon="6.1486">
        <ele>417</ele>
        <time>2013-11-09T14:32:31Z</time>
      </trkpt>
      <trkpt lat="43.37369" lon="6.1486">
        <ele>417</ele>
        <time>2013-11-09T14:32:42Z</time>
      </trkpt>
      <trkpt lat="43.37369" lon="6.14862">
        <ele>417</ele>
        <time>2013-11-09T14:32:48Z</time>
      </trkpt>
      <trkpt lat="43.3737" lon="6.14873">
        <ele>417</ele>
        <time>2013-11-09T14:32:53Z</time>
      </trkpt>
      <trkpt lat="43.3737" lon="6.14878">
        <ele>417</ele>
        <time>2013-11-09T14:32:56Z</time>
      </trkpt>
      <trkpt lat="43.37369" lon="6.1488">
        <ele>417</ele>
        <time>2013-11-09T14:32:58Z</time>
      </trkpt>
      <trkpt lat="43.37369" lon="6.1488">
        <ele>417</ele>
        <time>2013-11-09T14:33:03Z</time>
      </trkpt>
      <trkpt lat="43.37369" lon="6.1488">
        <ele>417</ele>
        <time>2013-11-09T14:33:08Z</time>
      </trkpt>
      <trkpt lat="43.37371" lon="6.14883">
        <ele>417</ele>
        <time>2013-11-09T14:33:14Z</time>
      </trkpt>
      <trkpt lat="43.37371" lon="6.14886">
        <ele>417</ele>
        <time>2013-11-09T14:33:15Z</time>
      </trkpt>
      <trkpt lat="43.37376" lon="6.14895">
        <ele>417</ele>
        <time>2013-11-09T14:33:18Z</time>
      </trkpt>
      <trkpt lat="43.37382" lon="6.14905">
        <ele>416.60000610352</ele>
        <time>2013-11-09T14:33:21Z</time>
      </trkpt>
      <trkpt lat="43.37383" lon="6.14909">
        <ele>416</ele>
        <time>2013-11-09T14:33:22Z</time>
      </trkpt>
      <trkpt lat="43.37383" lon="6.14918">
        <ele>414.60000610352</ele>
        <time>2013-11-09T14:33:25Z</time>
      </trkpt>
      <trkpt lat="43.37385" lon="6.14931">
        <ele>413.60000610352</ele>
        <time>2013-11-09T14:33:28Z</time>
      </trkpt>
      <trkpt lat="43.37385" lon="6.14937">
        <ele>413.20001220703</ele>
        <time>2013-11-09T14:33:29Z</time>
      </trkpt>
      <trkpt lat="43.37387" lon="6.14944">
        <ele>412.60000610352</ele>
        <time>2013-11-09T14:33:30Z</time>
      </trkpt>
      <trkpt lat="43.37388" lon="6.14949">
        <ele>412.20001220703</ele>
        <time>2013-11-09T14:33:31Z</time>
      </trkpt>
      <trkpt lat="43.3739" lon="6.14956">
        <ele>411.60000610352</ele>
        <time>2013-11-09T14:33:32Z</time>
      </trkpt>
      <trkpt lat="43.37392" lon="6.14962">
        <ele>411.20001220703</ele>
        <time>2013-11-09T14:33:33Z</time>
      </trkpt>
      <trkpt lat="43.37394" lon="6.14969">
        <ele>410.60000610352</ele>
        <time>2013-11-09T14:33:34Z</time>
      </trkpt>
      <trkpt lat="43.37398" lon="6.14975">
        <ele>410.20001220703</ele>
        <time>2013-11-09T14:33:35Z</time>
      </trkpt>
      <trkpt lat="43.37401" lon="6.14981">
        <ele>409.60000610352</ele>
        <time>2013-11-09T14:33:36Z</time>
      </trkpt>
      <trkpt lat="43.37405" lon="6.14985">
        <ele>409</ele>
        <time>2013-11-09T14:33:37Z</time>
      </trkpt>
      <trkpt lat="43.37409" lon="6.14989">
        <ele>408.39999389648</ele>
        <time>2013-11-09T14:33:38Z</time>
      </trkpt>
      <trkpt lat="43.37413" lon="6.14992">
        <ele>407.79998779297</ele>
        <time>2013-11-09T14:33:39Z</time>
      </trkpt>
      <trkpt lat="43.37418" lon="6.14994">
        <ele>407.20001220703</ele>
        <time>2013-11-09T14:33:40Z</time>
      </trkpt>
      <trkpt lat="43.37427" lon="6.14999">
        <ele>406.39999389648</ele>
        <time>2013-11-09T14:33:42Z</time>
      </trkpt>
      <trkpt lat="43.37437" lon="6.1501">
        <ele>405.20001220703</ele>
        <time>2013-11-09T14:33:45Z</time>
      </trkpt>
      <trkpt lat="43.37455" lon="6.15028">
        <ele>405.20001220703</ele>
        <time>2013-11-09T14:33:51Z</time>
      </trkpt>
      <trkpt lat="43.37458" lon="6.1503">
        <ele>404.39999389648</ele>
        <time>2013-11-09T14:33:52Z</time>
      </trkpt>
      <trkpt lat="43.37462" lon="6.15031">
        <ele>404</ele>
        <time>2013-11-09T14:33:53Z</time>
      </trkpt>
      <trkpt lat="43.37466" lon="6.15032">
        <ele>403.60000610352</ele>
        <time>2013-11-09T14:33:54Z</time>
      </trkpt>
      <trkpt lat="43.3747" lon="6.15032">
        <ele>403.20001220703</ele>
        <time>2013-11-09T14:33:55Z</time>
      </trkpt>
      <trkpt lat="43.37474" lon="6.15033">
        <ele>403.20001220703</ele>
        <time>2013-11-09T14:33:56Z</time>
      </trkpt>
      <trkpt lat="43.37481" lon="6.15036">
        <ele>403.20001220703</ele>
        <time>2013-11-09T14:33:58Z</time>
      </trkpt>
      <trkpt lat="43.37487" lon="6.15041">
        <ele>403.20001220703</ele>
        <time>2013-11-09T14:34:00Z</time>
      </trkpt>
      <trkpt lat="43.37492" lon="6.15042">
        <ele>402.60000610352</ele>
        <time>2013-11-09T14:34:01Z</time>
      </trkpt>
      <trkpt lat="43.37496" lon="6.15043">
        <ele>402.20001220703</ele>
        <time>2013-11-09T14:34:02Z</time>
      </trkpt>
      <trkpt lat="43.37501" lon="6.15044">
        <ele>401.60000610352</ele>
        <time>2013-11-09T14:34:03Z</time>
      </trkpt>
      <trkpt lat="43.37506" lon="6.15045">
        <ele>401</ele>
        <time>2013-11-09T14:34:04Z</time>
      </trkpt>
      <trkpt lat="43.37512" lon="6.15048">
        <ele>400.39999389648</ele>
        <time>2013-11-09T14:34:05Z</time>
      </trkpt>
      <trkpt lat="43.37517" lon="6.15049">
        <ele>399.79998779297</ele>
        <time>2013-11-09T14:34:06Z</time>
      </trkpt>
      <trkpt lat="43.37522" lon="6.1505">
        <ele>399.20001220703</ele>
        <time>2013-11-09T14:34:07Z</time>
      </trkpt>
      <trkpt lat="43.37525" lon="6.1505">
        <ele>398.60000610352</ele>
        <time>2013-11-09T14:34:08Z</time>
      </trkpt>
      <trkpt lat="43.37528" lon="6.15051">
        <ele>398</ele>
        <time>2013-11-09T14:34:09Z</time>
      </trkpt>
      <trkpt lat="43.3753" lon="6.15051">
        <ele>397.39999389648</ele>
        <time>2013-11-09T14:34:10Z</time>
      </trkpt>
      <trkpt lat="43.3753" lon="6.15051">
        <ele>396.79998779297</ele>
        <time>2013-11-09T14:34:11Z</time>
      </trkpt>
      <trkpt lat="43.3753" lon="6.15051">
        <ele>396.20001220703</ele>
        <time>2013-11-09T14:34:16Z</time>
      </trkpt>
      <trkpt lat="43.37531" lon="6.15051">
        <ele>396.20001220703</ele>
        <time>2013-11-09T14:34:18Z</time>
      </trkpt>
      <trkpt lat="43.37532" lon="6.15051">
        <ele>396.20001220703</ele>
        <time>2013-11-09T14:34:21Z</time>
      </trkpt>
      <trkpt lat="43.37539" lon="6.15053">
        <ele>396.20001220703</ele>
        <time>2013-11-09T14:34:24Z</time>
      </trkpt>
      <trkpt lat="43.37543" lon="6.15054">
        <ele>396.20001220703</ele>
        <time>2013-11-09T14:34:25Z</time>
      </trkpt>
      <trkpt lat="43.37556" lon="6.15058">
        <ele>396.20001220703</ele>
        <time>2013-11-09T14:34:29Z</time>
      </trkpt>
      <trkpt lat="43.37564" lon="6.15062">
        <ele>395.79998779297</ele>
        <time>2013-11-09T14:34:32Z</time>
      </trkpt>
      <trkpt lat="43.37567" lon="6.15065">
        <ele>395.39999389648</ele>
        <time>2013-11-09T14:34:33Z</time>
      </trkpt>
      <trkpt lat="43.37569" lon="6.15068">
        <ele>395</ele>
        <time>2013-11-09T14:34:34Z</time>
      </trkpt>
      <trkpt lat="43.37579" lon="6.15079">
        <ele>393.20001220703</ele>
        <time>2013-11-09T14:34:38Z</time>
      </trkpt>
      <trkpt lat="43.37586" lon="6.15084">
        <ele>390.79998779297</ele>
        <time>2013-11-09T14:34:42Z</time>
      </trkpt>
      <trkpt lat="43.3759" lon="6.15088">
        <ele>389.79998779297</ele>
        <time>2013-11-09T14:34:44Z</time>
      </trkpt>
      <trkpt lat="43.37592" lon="6.1509">
        <ele>389.39999389648</ele>
        <time>2013-11-09T14:34:45Z</time>
      </trkpt>
      <trkpt lat="43.37594" lon="6.15092">
        <ele>388.79998779297</ele>
        <time>2013-11-09T14:34:46Z</time>
      </trkpt>
      <trkpt lat="43.37596" lon="6.15094">
        <ele>388.20001220703</ele>
        <time>2013-11-09T14:34:47Z</time>
      </trkpt>
      <trkpt lat="43.37602" lon="6.15099">
        <ele>386.60000610352</ele>
        <time>2013-11-09T14:34:50Z</time>
      </trkpt>
      <trkpt lat="43.37604" lon="6.15101">
        <ele>386</ele>
        <time>2013-11-09T14:34:51Z</time>
      </trkpt>
      <trkpt lat="43.37606" lon="6.15105">
        <ele>385.39999389648</ele>
        <time>2013-11-09T14:34:52Z</time>
      </trkpt>
      <trkpt lat="43.37608" lon="6.15108">
        <ele>384.79998779297</ele>
        <time>2013-11-09T14:34:53Z</time>
      </trkpt>
      <trkpt lat="43.37611" lon="6.15112">
        <ele>384.20001220703</ele>
        <time>2013-11-09T14:34:54Z</time>
      </trkpt>
      <trkpt lat="43.37615" lon="6.1512">
        <ele>383</ele>
        <time>2013-11-09T14:34:56Z</time>
      </trkpt>
      <trkpt lat="43.37619" lon="6.15128">
        <ele>381.60000610352</ele>
        <time>2013-11-09T14:34:58Z</time>
      </trkpt>
      <trkpt lat="43.37621" lon="6.15131">
        <ele>380.79998779297</ele>
        <time>2013-11-09T14:34:59Z</time>
      </trkpt>
      <trkpt lat="43.37623" lon="6.15134">
        <ele>380</ele>
        <time>2013-11-09T14:35:00Z</time>
      </trkpt>
      <trkpt lat="43.37624" lon="6.15137">
        <ele>379.20001220703</ele>
        <time>2013-11-09T14:35:01Z</time>
      </trkpt>
      <trkpt lat="43.37626" lon="6.15139">
        <ele>378.39999389648</ele>
        <time>2013-11-09T14:35:02Z</time>
      </trkpt>
      <trkpt lat="43.37627" lon="6.15141">
        <ele>377.60000610352</ele>
        <time>2013-11-09T14:35:03Z</time>
      </trkpt>
      <trkpt lat="43.37628" lon="6.15143">
        <ele>376.79998779297</ele>
        <time>2013-11-09T14:35:04Z</time>
      </trkpt>
      <trkpt lat="43.37629" lon="6.15144">
        <ele>375.39999389648</ele>
        <time>2013-11-09T14:35:05Z</time>
      </trkpt>
      <trkpt lat="43.3763" lon="6.15145">
        <ele>375</ele>
        <time>2013-11-09T14:35:06Z</time>
      </trkpt>
      <trkpt lat="43.37632" lon="6.15146">
        <ele>374.39999389648</ele>
        <time>2013-11-09T14:35:07Z</time>
      </trkpt>
      <trkpt lat="43.37632" lon="6.15146">
        <ele>374</ele>
        <time>2013-11-09T14:35:08Z</time>
      </trkpt>
      <trkpt lat="43.37634" lon="6.15147">
        <ele>373.60000610352</ele>
        <time>2013-11-09T14:35:09Z</time>
      </trkpt>
      <trkpt lat="43.37634" lon="6.15147">
        <ele>373</ele>
        <time>2013-11-09T14:35:10Z</time>
      </trkpt>
      <trkpt lat="43.37634" lon="6.15147">
        <ele>373</ele>
        <time>2013-11-09T14:35:12Z</time>
      </trkpt>
      <trkpt lat="43.37634" lon="6.15151">
        <ele>373</ele>
        <time>2013-11-09T14:35:20Z</time>
      </trkpt>
      <trkpt lat="43.37637" lon="6.1516">
        <ele>372.60000610352</ele>
        <time>2013-11-09T14:35:24Z</time>
      </trkpt>
      <trkpt lat="43.37639" lon="6.15162">
        <ele>372.20001220703</ele>
        <time>2013-11-09T14:35:25Z</time>
      </trkpt>
      <trkpt lat="43.3764" lon="6.15164">
        <ele>371.79998779297</ele>
        <time>2013-11-09T14:35:26Z</time>
      </trkpt>
      <trkpt lat="43.37643" lon="6.15165">
        <ele>371.20001220703</ele>
        <time>2013-11-09T14:35:27Z</time>
      </trkpt>
      <trkpt lat="43.37645" lon="6.15167">
        <ele>370.60000610352</ele>
        <time>2013-11-09T14:35:28Z</time>
      </trkpt>
      <trkpt lat="43.37646" lon="6.15171">
        <ele>370.20001220703</ele>
        <time>2013-11-09T14:35:29Z</time>
      </trkpt>
      <trkpt lat="43.37647" lon="6.15175">
        <ele>369</ele>
        <time>2013-11-09T14:35:30Z</time>
      </trkpt>
      <trkpt lat="43.37648" lon="6.15178">
        <ele>368.39999389648</ele>
        <time>2013-11-09T14:35:31Z</time>
      </trkpt>
      <trkpt lat="43.37649" lon="6.15181">
        <ele>367.79998779297</ele>
        <time>2013-11-09T14:35:32Z</time>
      </trkpt>
      <trkpt lat="43.3765" lon="6.15184">
        <ele>367.20001220703</ele>
        <time>2013-11-09T14:35:33Z</time>
      </trkpt>
      <trkpt lat="43.37651" lon="6.15185">
        <ele>366.39999389648</ele>
        <time>2013-11-09T14:35:34Z</time>
      </trkpt>
      <trkpt lat="43.37651" lon="6.15185">
        <ele>365.79998779297</ele>
        <time>2013-11-09T14:35:35Z</time>
      </trkpt>
      <trkpt lat="43.37651" lon="6.15185">
        <ele>365.20001220703</ele>
        <time>2013-11-09T14:35:36Z</time>
      </trkpt>
      <trkpt lat="43.3765" lon="6.15186">
        <ele>364.60000610352</ele>
        <time>2013-11-09T14:35:37Z</time>
      </trkpt>
      <trkpt lat="43.3765" lon="6.15186">
        <ele>363.79998779297</ele>
        <time>2013-11-09T14:35:38Z</time>
      </trkpt>
      <trkpt lat="43.3765" lon="6.15186">
        <ele>363.79998779297</ele>
        <time>2013-11-09T14:35:42Z</time>
      </trkpt>
      <trkpt lat="43.3765" lon="6.15186">
        <ele>363.79998779297</ele>
        <time>2013-11-09T14:35:45Z</time>
      </trkpt>
      <trkpt lat="43.37651" lon="6.15187">
        <ele>363.79998779297</ele>
        <time>2013-11-09T14:35:58Z</time>
      </trkpt>
      <trkpt lat="43.37656" lon="6.15195">
        <ele>363.79998779297</ele>
        <time>2013-11-09T14:36:02Z</time>
      </trkpt>
      <trkpt lat="43.37658" lon="6.15198">
        <ele>363.79998779297</ele>
        <time>2013-11-09T14:36:03Z</time>
      </trkpt>
      <trkpt lat="43.37665" lon="6.15208">
        <ele>363</ele>
        <time>2013-11-09T14:36:06Z</time>
      </trkpt>
      <trkpt lat="43.37667" lon="6.1521">
        <ele>362.60000610352</ele>
        <time>2013-11-09T14:36:07Z</time>
      </trkpt>
      <trkpt lat="43.37671" lon="6.15215">
        <ele>361.79998779297</ele>
        <time>2013-11-09T14:36:09Z</time>
      </trkpt>
      <trkpt lat="43.37673" lon="6.15217">
        <ele>361.39999389648</ele>
        <time>2013-11-09T14:36:10Z</time>
      </trkpt>
      <trkpt lat="43.37676" lon="6.15219">
        <ele>360.60000610352</ele>
        <time>2013-11-09T14:36:12Z</time>
      </trkpt>
      <trkpt lat="43.37679" lon="6.1522">
        <ele>360.20001220703</ele>
        <time>2013-11-09T14:36:13Z</time>
      </trkpt>
      <trkpt lat="43.37681" lon="6.15222">
        <ele>359.79998779297</ele>
        <time>2013-11-09T14:36:14Z</time>
      </trkpt>
      <trkpt lat="43.37688" lon="6.1523">
        <ele>359</ele>
        <time>2013-11-09T14:36:16Z</time>
      </trkpt>
      <trkpt lat="43.37697" lon="6.15242">
        <ele>357.79998779297</ele>
        <time>2013-11-09T14:36:19Z</time>
      </trkpt>
      <trkpt lat="43.37701" lon="6.15245">
        <ele>357.39999389648</ele>
        <time>2013-11-09T14:36:20Z</time>
      </trkpt>
      <trkpt lat="43.37704" lon="6.15248">
        <ele>356.79998779297</ele>
        <time>2013-11-09T14:36:21Z</time>
      </trkpt>
      <trkpt lat="43.37709" lon="6.1525">
        <ele>356.39999389648</ele>
        <time>2013-11-09T14:36:22Z</time>
      </trkpt>
      <trkpt lat="43.37714" lon="6.1525">
        <ele>356</ele>
        <time>2013-11-09T14:36:23Z</time>
      </trkpt>
      <trkpt lat="43.37719" lon="6.15252">
        <ele>355.60000610352</ele>
        <time>2013-11-09T14:36:24Z</time>
      </trkpt>
      <trkpt lat="43.37722" lon="6.15255">
        <ele>355.60000610352</ele>
        <time>2013-11-09T14:36:25Z</time>
      </trkpt>
      <trkpt lat="43.37725" lon="6.15259">
        <ele>355.20001220703</ele>
        <time>2013-11-09T14:36:26Z</time>
      </trkpt>
      <trkpt lat="43.37729" lon="6.15265">
        <ele>354.60000610352</ele>
        <time>2013-11-09T14:36:27Z</time>
      </trkpt>
      <trkpt lat="43.37732" lon="6.1527">
        <ele>354</ele>
        <time>2013-11-09T14:36:28Z</time>
      </trkpt>
      <trkpt lat="43.37734" lon="6.15273">
        <ele>353.20001220703</ele>
        <time>2013-11-09T14:36:29Z</time>
      </trkpt>
      <trkpt lat="43.37736" lon="6.15275">
        <ele>351.79998779297</ele>
        <time>2013-11-09T14:36:31Z</time>
      </trkpt>
      <trkpt lat="43.37736" lon="6.15275">
        <ele>351</ele>
        <time>2013-11-09T14:36:32Z</time>
      </trkpt>
      <trkpt lat="43.37736" lon="6.15276">
        <ele>351</ele>
        <time>2013-11-09T14:36:33Z</time>
      </trkpt>
      <trkpt lat="43.37737" lon="6.15278">
        <ele>351</ele>
        <time>2013-11-09T14:36:39Z</time>
      </trkpt>
      <trkpt lat="43.37737" lon="6.15278">
        <ele>351</ele>
        <time>2013-11-09T14:36:45Z</time>
      </trkpt>
      <trkpt lat="43.37736" lon="6.15279">
        <ele>351</ele>
        <time>2013-11-09T14:36:49Z</time>
      </trkpt>
      <trkpt lat="43.37735" lon="6.15282">
        <ele>351</ele>
        <time>2013-11-09T14:36:51Z</time>
      </trkpt>
      <trkpt lat="43.37733" lon="6.15285">
        <ele>351</ele>
        <time>2013-11-09T14:36:53Z</time>
      </trkpt>
      <trkpt lat="43.37729" lon="6.15292">
        <ele>351</ele>
        <time>2013-11-09T14:36:56Z</time>
      </trkpt>
      <trkpt lat="43.37728" lon="6.15294">
        <ele>351</ele>
        <time>2013-11-09T14:36:57Z</time>
      </trkpt>
      <trkpt lat="43.37725" lon="6.15302">
        <ele>351</ele>
        <time>2013-11-09T14:37:00Z</time>
      </trkpt>
      <trkpt lat="43.37722" lon="6.15308">
        <ele>351</ele>
        <time>2013-11-09T14:37:02Z</time>
      </trkpt>
      <trkpt lat="43.37721" lon="6.15311">
        <ele>351</ele>
        <time>2013-11-09T14:37:03Z</time>
      </trkpt>
      <trkpt lat="43.37719" lon="6.15316">
        <ele>351</ele>
        <time>2013-11-09T14:37:05Z</time>
      </trkpt>
      <trkpt lat="43.37717" lon="6.15325">
        <ele>351</ele>
        <time>2013-11-09T14:37:08Z</time>
      </trkpt>
      <trkpt lat="43.37713" lon="6.1534">
        <ele>352.20001220703</ele>
        <time>2013-11-09T14:37:14Z</time>
      </trkpt>
      <trkpt lat="43.37707" lon="6.15355">
        <ele>353</ele>
        <time>2013-11-09T14:37:20Z</time>
      </trkpt>
      <trkpt lat="43.377" lon="6.15373">
        <ele>355.20001220703</ele>
        <time>2013-11-09T14:37:28Z</time>
      </trkpt>
      <trkpt lat="43.37696" lon="6.15381">
        <ele>355.20001220703</ele>
        <time>2013-11-09T14:37:32Z</time>
      </trkpt>
      <trkpt lat="43.37688" lon="6.15394">
        <ele>357.20001220703</ele>
        <time>2013-11-09T14:37:40Z</time>
      </trkpt>
      <trkpt lat="43.37681" lon="6.15406">
        <ele>358.39999389648</ele>
        <time>2013-11-09T14:37:48Z</time>
      </trkpt>
      <trkpt lat="43.37678" lon="6.15413">
        <ele>359.20001220703</ele>
        <time>2013-11-09T14:37:53Z</time>
      </trkpt>
      <trkpt lat="43.37676" lon="6.15417">
        <ele>359.20001220703</ele>
        <time>2013-11-09T14:37:56Z</time>
      </trkpt>
      <trkpt lat="43.37676" lon="6.1542">
        <ele>359.20001220703</ele>
        <time>2013-11-09T14:37:58Z</time>
      </trkpt>
      <trkpt lat="43.37677" lon="6.15423">
        <ele>359.20001220703</ele>
        <time>2013-11-09T14:38:00Z</time>
      </trkpt>
      <trkpt lat="43.37675" lon="6.15428">
        <ele>359.60000610352</ele>
        <time>2013-11-09T14:38:05Z</time>
      </trkpt>
      <trkpt lat="43.37674" lon="6.15428">
        <ele>360</ele>
        <time>2013-11-09T14:38:06Z</time>
      </trkpt>
      <trkpt lat="43.37674" lon="6.15429">
        <ele>360.39999389648</ele>
        <time>2013-11-09T14:38:07Z</time>
      </trkpt>
      <trkpt lat="43.37674" lon="6.15429">
        <ele>361.20001220703</ele>
        <time>2013-11-09T14:38:19Z</time>
      </trkpt>
      <trkpt lat="43.37674" lon="6.15429">
        <ele>361.20001220703</ele>
        <time>2013-11-09T14:38:43Z</time>
      </trkpt>
      <trkpt lat="43.37674" lon="6.15429">
        <ele>361.20001220703</ele>
        <time>2013-11-09T14:38:50Z</time>
      </trkpt>
      <trkpt lat="43.37674" lon="6.15429">
        <ele>361.20001220703</ele>
        <time>2013-11-09T14:38:53Z</time>
      </trkpt>
      <trkpt lat="43.37672" lon="6.15432">
        <ele>361.20001220703</ele>
        <time>2013-11-09T14:38:55Z</time>
      </trkpt>
      <trkpt lat="43.37672" lon="6.15434">
        <ele>361.20001220703</ele>
        <time>2013-11-09T14:38:56Z</time>
      </trkpt>
      <trkpt lat="43.37671" lon="6.1544">
        <ele>361.20001220703</ele>
        <time>2013-11-09T14:39:00Z</time>
      </trkpt>
      <trkpt lat="43.37671" lon="6.15444">
        <ele>361.20001220703</ele>
        <time>2013-11-09T14:39:02Z</time>
      </trkpt>
      <trkpt lat="43.37671" lon="6.15449">
        <ele>361.20001220703</ele>
        <time>2013-11-09T14:39:05Z</time>
      </trkpt>
      <trkpt lat="43.37671" lon="6.15454">
        <ele>362.20001220703</ele>
        <time>2013-11-09T14:39:08Z</time>
      </trkpt>
      <trkpt lat="43.37671" lon="6.15458">
        <ele>363</ele>
        <time>2013-11-09T14:39:10Z</time>
      </trkpt>
      <trkpt lat="43.37667" lon="6.15469">
        <ele>364.20001220703</ele>
        <time>2013-11-09T14:39:17Z</time>
      </trkpt>
      <trkpt lat="43.37667" lon="6.15485">
        <ele>366.20001220703</ele>
        <time>2013-11-09T14:39:24Z</time>
      </trkpt>
      <trkpt lat="43.37668" lon="6.15489">
        <ele>367.20001220703</ele>
        <time>2013-11-09T14:39:26Z</time>
      </trkpt>
      <trkpt lat="43.37667" lon="6.15497">
        <ele>367.60000610352</ele>
        <time>2013-11-09T14:39:29Z</time>
      </trkpt>
      <trkpt lat="43.37667" lon="6.1551">
        <ele>369.60000610352</ele>
        <time>2013-11-09T14:39:35Z</time>
      </trkpt>
      <trkpt lat="43.37667" lon="6.15518">
        <ele>370.79998779297</ele>
        <time>2013-11-09T14:39:39Z</time>
      </trkpt>
      <trkpt lat="43.37667" lon="6.1552">
        <ele>371.20001220703</ele>
        <time>2013-11-09T14:39:40Z</time>
      </trkpt>
      <trkpt lat="43.37666" lon="6.15522">
        <ele>371.60000610352</ele>
        <time>2013-11-09T14:39:41Z</time>
      </trkpt>
      <trkpt lat="43.37666" lon="6.15526">
        <ele>371.60000610352</ele>
        <time>2013-11-09T14:39:43Z</time>
      </trkpt>
      <trkpt lat="43.37662" lon="6.15535">
        <ele>372</ele>
        <time>2013-11-09T14:39:49Z</time>
      </trkpt>
      <trkpt lat="43.37661" lon="6.15537">
        <ele>372.79998779297</ele>
        <time>2013-11-09T14:39:51Z</time>
      </trkpt>
      <trkpt lat="43.37661" lon="6.15537">
        <ele>373.79998779297</ele>
        <time>2013-11-09T14:40:08Z</time>
      </trkpt>
      <trkpt lat="43.37661" lon="6.15537">
        <ele>373.79998779297</ele>
        <time>2013-11-09T14:40:34Z</time>
      </trkpt>
      <trkpt lat="43.37661" lon="6.15537">
        <ele>373.79998779297</ele>
        <time>2013-11-09T14:40:41Z</time>
      </trkpt>
      <trkpt lat="43.37661" lon="6.15537">
        <ele>373.79998779297</ele>
        <time>2013-11-09T14:40:57Z</time>
      </trkpt>
      <trkpt lat="43.3766" lon="6.15537">
        <ele>373.79998779297</ele>
        <time>2013-11-09T14:41:20Z</time>
      </trkpt>
      <trkpt lat="43.3766" lon="6.15537">
        <ele>373.79998779297</ele>
        <time>2013-11-09T14:41:37Z</time>
      </trkpt>
      <trkpt lat="43.3766" lon="6.15537">
        <ele>373.79998779297</ele>
        <time>2013-11-09T14:42:04Z</time>
      </trkpt>
      <trkpt lat="43.3766" lon="6.15537">
        <ele>373.79998779297</ele>
        <time>2013-11-09T14:42:14Z</time>
      </trkpt>
      <trkpt lat="43.37658" lon="6.15539">
        <ele>373.79998779297</ele>
        <time>2013-11-09T14:42:22Z</time>
      </trkpt>
      <trkpt lat="43.37654" lon="6.15549">
        <ele>373.79998779297</ele>
        <time>2013-11-09T14:42:27Z</time>
      </trkpt>
      <trkpt lat="43.37653" lon="6.15552">
        <ele>373.79998779297</ele>
        <time>2013-11-09T14:42:28Z</time>
      </trkpt>
      <trkpt lat="43.37651" lon="6.15561">
        <ele>373.79998779297</ele>
        <time>2013-11-09T14:42:31Z</time>
      </trkpt>
      <trkpt lat="43.3765" lon="6.15574">
        <ele>373.79998779297</ele>
        <time>2013-11-09T14:42:34Z</time>
      </trkpt>
      <trkpt lat="43.37649" lon="6.15578">
        <ele>373.20001220703</ele>
        <time>2013-11-09T14:42:35Z</time>
      </trkpt>
      <trkpt lat="43.37648" lon="6.15582">
        <ele>372.60000610352</ele>
        <time>2013-11-09T14:42:36Z</time>
      </trkpt>
      <trkpt lat="43.37647" lon="6.15587">
        <ele>372</ele>
        <time>2013-11-09T14:42:37Z</time>
      </trkpt>
      <trkpt lat="43.37647" lon="6.15594">
        <ele>371.20001220703</ele>
        <time>2013-11-09T14:42:38Z</time>
      </trkpt>
      <trkpt lat="43.37647" lon="6.15601">
        <ele>370.20001220703</ele>
        <time>2013-11-09T14:42:39Z</time>
      </trkpt>
      <trkpt lat="43.37646" lon="6.15614">
        <ele>368</ele>
        <time>2013-11-09T14:42:41Z</time>
      </trkpt>
      <trkpt lat="43.37646" lon="6.15619">
        <ele>367</ele>
        <time>2013-11-09T14:42:42Z</time>
      </trkpt>
      <trkpt lat="43.37646" lon="6.15625">
        <ele>364.79998779297</ele>
        <time>2013-11-09T14:42:44Z</time>
      </trkpt>
      <trkpt lat="43.37644" lon="6.1563">
        <ele>364.79998779297</ele>
        <time>2013-11-09T14:42:47Z</time>
      </trkpt>
      <trkpt lat="43.37643" lon="6.15636">
        <ele>364.79998779297</ele>
        <time>2013-11-09T14:42:50Z</time>
      </trkpt>
      <trkpt lat="43.37642" lon="6.15639">
        <ele>364.79998779297</ele>
        <time>2013-11-09T14:42:51Z</time>
      </trkpt>
      <trkpt lat="43.37642" lon="6.15644">
        <ele>364.79998779297</ele>
        <time>2013-11-09T14:42:52Z</time>
      </trkpt>
      <trkpt lat="43.37639" lon="6.15653">
        <ele>364.79998779297</ele>
        <time>2013-11-09T14:42:54Z</time>
      </trkpt>
      <trkpt lat="43.37638" lon="6.15658">
        <ele>364.79998779297</ele>
        <time>2013-11-09T14:42:55Z</time>
      </trkpt>
      <trkpt lat="43.37629" lon="6.15678">
        <ele>364.79998779297</ele>
        <time>2013-11-09T14:43:00Z</time>
      </trkpt>
      <trkpt lat="43.37617" lon="6.15692">
        <ele>364.79998779297</ele>
        <time>2013-11-09T14:43:05Z</time>
      </trkpt>
      <trkpt lat="43.37609" lon="6.15706">
        <ele>364.39999389648</ele>
        <time>2013-11-09T14:43:08Z</time>
      </trkpt>
      <trkpt lat="43.37599" lon="6.15719">
        <ele>363</ele>
        <time>2013-11-09T14:43:11Z</time>
      </trkpt>
      <trkpt lat="43.37596" lon="6.15723">
        <ele>362.39999389648</ele>
        <time>2013-11-09T14:43:12Z</time>
      </trkpt>
      <trkpt lat="43.37594" lon="6.15727">
        <ele>361.79998779297</ele>
        <time>2013-11-09T14:43:13Z</time>
      </trkpt>
      <trkpt lat="43.37593" lon="6.15731">
        <ele>361.20001220703</ele>
        <time>2013-11-09T14:43:14Z</time>
      </trkpt>
      <trkpt lat="43.37591" lon="6.15735">
        <ele>360.60000610352</ele>
        <time>2013-11-09T14:43:15Z</time>
      </trkpt>
      <trkpt lat="43.37587" lon="6.15739">
        <ele>360</ele>
        <time>2013-11-09T14:43:16Z</time>
      </trkpt>
      <trkpt lat="43.37579" lon="6.15746">
        <ele>357.79998779297</ele>
        <time>2013-11-09T14:43:18Z</time>
      </trkpt>
      <trkpt lat="43.37575" lon="6.15749">
        <ele>357.20001220703</ele>
        <time>2013-11-09T14:43:19Z</time>
      </trkpt>
      <trkpt lat="43.37571" lon="6.15751">
        <ele>356.39999389648</ele>
        <time>2013-11-09T14:43:20Z</time>
      </trkpt>
      <trkpt lat="43.37568" lon="6.15752">
        <ele>355.60000610352</ele>
        <time>2013-11-09T14:43:21Z</time>
      </trkpt>
      <trkpt lat="43.37566" lon="6.15754">
        <ele>355</ele>
        <time>2013-11-09T14:43:22Z</time>
      </trkpt>
      <trkpt lat="43.37566" lon="6.15754">
        <ele>354.20001220703</ele>
        <time>2013-11-09T14:43:23Z</time>
      </trkpt>
      <trkpt lat="43.37566" lon="6.15755">
        <ele>353.60000610352</ele>
        <time>2013-11-09T14:43:24Z</time>
      </trkpt>
      <trkpt lat="43.37566" lon="6.15755">
        <ele>351.39999389648</ele>
        <time>2013-11-09T14:43:28Z</time>
      </trkpt>
      <trkpt lat="43.37566" lon="6.15756">
        <ele>351.39999389648</ele>
        <time>2013-11-09T14:43:34Z</time>
      </trkpt>
      <trkpt lat="43.37566" lon="6.15756">
        <ele>351.39999389648</ele>
        <time>2013-11-09T14:43:40Z</time>
      </trkpt>
      <trkpt lat="43.37568" lon="6.15756">
        <ele>351.39999389648</ele>
        <time>2013-11-09T14:43:44Z</time>
      </trkpt>
      <trkpt lat="43.3758" lon="6.15754">
        <ele>351.39999389648</ele>
        <time>2013-11-09T14:43:50Z</time>
      </trkpt>
      <trkpt lat="43.37585" lon="6.15758">
        <ele>351</ele>
        <time>2013-11-09T14:43:52Z</time>
      </trkpt>
      <trkpt lat="43.3759" lon="6.1576">
        <ele>350.39999389648</ele>
        <time>2013-11-09T14:43:53Z</time>
      </trkpt>
      <trkpt lat="43.37594" lon="6.15761">
        <ele>349.79998779297</ele>
        <time>2013-11-09T14:43:54Z</time>
      </trkpt>
      <trkpt lat="43.37598" lon="6.15764">
        <ele>349</ele>
        <time>2013-11-09T14:43:55Z</time>
      </trkpt>
      <trkpt lat="43.37602" lon="6.15767">
        <ele>348.20001220703</ele>
        <time>2013-11-09T14:43:56Z</time>
      </trkpt>
      <trkpt lat="43.37606" lon="6.15771">
        <ele>347.39999389648</ele>
        <time>2013-11-09T14:43:57Z</time>
      </trkpt>
      <trkpt lat="43.37611" lon="6.15773">
        <ele>346.39999389648</ele>
        <time>2013-11-09T14:43:58Z</time>
      </trkpt>
      <trkpt lat="43.37616" lon="6.15775">
        <ele>345.60000610352</ele>
        <time>2013-11-09T14:43:59Z</time>
      </trkpt>
      <trkpt lat="43.37621" lon="6.15777">
        <ele>344.60000610352</ele>
        <time>2013-11-09T14:44:00Z</time>
      </trkpt>
      <trkpt lat="43.37626" lon="6.15781">
        <ele>343.79998779297</ele>
        <time>2013-11-09T14:44:01Z</time>
      </trkpt>
      <trkpt lat="43.37631" lon="6.15784">
        <ele>342.79998779297</ele>
        <time>2013-11-09T14:44:02Z</time>
      </trkpt>
      <trkpt lat="43.37635" lon="6.15786">
        <ele>342</ele>
        <time>2013-11-09T14:44:03Z</time>
      </trkpt>
      <trkpt lat="43.37638" lon="6.15787">
        <ele>341.20001220703</ele>
        <time>2013-11-09T14:44:04Z</time>
      </trkpt>
      <trkpt lat="43.3764" lon="6.15789">
        <ele>340.39999389648</ele>
        <time>2013-11-09T14:44:05Z</time>
      </trkpt>
      <trkpt lat="43.37642" lon="6.15791">
        <ele>339.60000610352</ele>
        <time>2013-11-09T14:44:06Z</time>
      </trkpt>
      <trkpt lat="43.37643" lon="6.15793">
        <ele>338.79998779297</ele>
        <time>2013-11-09T14:44:07Z</time>
      </trkpt>
      <trkpt lat="43.37642" lon="6.15794">
        <ele>337.39999389648</ele>
        <time>2013-11-09T14:44:08Z</time>
      </trkpt>
      <trkpt lat="43.37641" lon="6.15795">
        <ele>336.60000610352</ele>
        <time>2013-11-09T14:44:09Z</time>
      </trkpt>
      <trkpt lat="43.37639" lon="6.15794">
        <ele>336.60000610352</ele>
        <time>2013-11-09T14:44:13Z</time>
      </trkpt>
      <trkpt lat="43.37639" lon="6.15794">
        <ele>336.60000610352</ele>
        <time>2013-11-09T14:44:25Z</time>
      </trkpt>
      <trkpt lat="43.37639" lon="6.15793">
        <ele>336.60000610352</ele>
        <time>2013-11-09T14:44:32Z</time>
      </trkpt>
      <trkpt lat="43.37639" lon="6.15793">
        <ele>336.60000610352</ele>
        <time>2013-11-09T14:44:47Z</time>
      </trkpt>
      <trkpt lat="43.37639" lon="6.15793">
        <ele>336.60000610352</ele>
        <time>2013-11-09T14:45:04Z</time>
      </trkpt>
      <trkpt lat="43.37638" lon="6.15793">
        <ele>336.60000610352</ele>
        <time>2013-11-09T14:45:05Z</time>
      </trkpt>
      <trkpt lat="43.37637" lon="6.15793">
        <ele>336.60000610352</ele>
        <time>2013-11-09T14:45:06Z</time>
      </trkpt>
      <trkpt lat="43.37634" lon="6.15794">
        <ele>336.60000610352</ele>
        <time>2013-11-09T14:45:08Z</time>
      </trkpt>
      <trkpt lat="43.37628" lon="6.15794">
        <ele>336.60000610352</ele>
        <time>2013-11-09T14:45:12Z</time>
      </trkpt>
      <trkpt lat="43.37625" lon="6.15793">
        <ele>336.60000610352</ele>
        <time>2013-11-09T14:45:14Z</time>
      </trkpt>
      <trkpt lat="43.37619" lon="6.15791">
        <ele>336.60000610352</ele>
        <time>2013-11-09T14:45:18Z</time>
      </trkpt>
      <trkpt lat="43.3761" lon="6.15787">
        <ele>336.60000610352</ele>
        <time>2013-11-09T14:45:23Z</time>
      </trkpt>
      <trkpt lat="43.37602" lon="6.15788">
        <ele>337</ele>
        <time>2013-11-09T14:45:27Z</time>
      </trkpt>
      <trkpt lat="43.37598" lon="6.15789">
        <ele>337.79998779297</ele>
        <time>2013-11-09T14:45:29Z</time>
      </trkpt>
      <trkpt lat="43.37593" lon="6.15795">
        <ele>338.60000610352</ele>
        <time>2013-11-09T14:45:33Z</time>
      </trkpt>
      <trkpt lat="43.37591" lon="6.158">
        <ele>338.60000610352</ele>
        <time>2013-11-09T14:45:36Z</time>
      </trkpt>
      <trkpt lat="43.3759" lon="6.15806">
        <ele>338.60000610352</ele>
        <time>2013-11-09T14:45:40Z</time>
      </trkpt>
      <trkpt lat="43.37591" lon="6.15811">
        <ele>338.60000610352</ele>
        <time>2013-11-09T14:45:42Z</time>
      </trkpt>
      <trkpt lat="43.37593" lon="6.15816">
        <ele>339.39999389648</ele>
        <time>2013-11-09T14:45:44Z</time>
      </trkpt>
      <trkpt lat="43.37595" lon="6.15825">
        <ele>340.79998779297</ele>
        <time>2013-11-09T14:45:48Z</time>
      </trkpt>
      <trkpt lat="43.37595" lon="6.15842">
        <ele>340.79998779297</ele>
        <time>2013-11-09T14:45:55Z</time>
      </trkpt>
      <trkpt lat="43.37593" lon="6.15856">
        <ele>340.79998779297</ele>
        <time>2013-11-09T14:46:01Z</time>
      </trkpt>
      <trkpt lat="43.37581" lon="6.15881">
        <ele>342.79998779297</ele>
        <time>2013-11-09T14:46:12Z</time>
      </trkpt>
      <trkpt lat="43.37576" lon="6.15897">
        <ele>343.20001220703</ele>
        <time>2013-11-09T14:46:18Z</time>
      </trkpt>
      <trkpt lat="43.37574" lon="6.15908">
        <ele>344.79998779297</ele>
        <time>2013-11-09T14:46:22Z</time>
      </trkpt>
      <trkpt lat="43.3757" lon="6.1592">
        <ele>344.79998779297</ele>
        <time>2013-11-09T14:46:28Z</time>
      </trkpt>
      <trkpt lat="43.37563" lon="6.15928">
        <ele>344.79998779297</ele>
        <time>2013-11-09T14:46:33Z</time>
      </trkpt>
      <trkpt lat="43.37558" lon="6.15935">
        <ele>344.79998779297</ele>
        <time>2013-11-09T14:46:37Z</time>
      </trkpt>
      <trkpt lat="43.37557" lon="6.15938">
        <ele>345.20001220703</ele>
        <time>2013-11-09T14:46:39Z</time>
      </trkpt>
      <trkpt lat="43.37556" lon="6.15939">
        <ele>345.60000610352</ele>
        <time>2013-11-09T14:46:40Z</time>
      </trkpt>
      <trkpt lat="43.37556" lon="6.15939">
        <ele>346</ele>
        <time>2013-11-09T14:46:41Z</time>
      </trkpt>
      <trkpt lat="43.37556" lon="6.15939">
        <ele>346.79998779297</ele>
        <time>2013-11-09T14:46:55Z</time>
      </trkpt>
      <trkpt lat="43.37556" lon="6.15939">
        <ele>346.79998779297</ele>
        <time>2013-11-09T14:47:14Z</time>
      </trkpt>
      <trkpt lat="43.37556" lon="6.1594">
        <ele>346.79998779297</ele>
        <time>2013-11-09T14:47:21Z</time>
      </trkpt>
      <trkpt lat="43.37556" lon="6.1594">
        <ele>346.79998779297</ele>
        <time>2013-11-09T14:47:25Z</time>
      </trkpt>
      <trkpt lat="43.37554" lon="6.15942">
        <ele>346.79998779297</ele>
        <time>2013-11-09T14:47:32Z</time>
      </trkpt>
      <trkpt lat="43.37548" lon="6.15948">
        <ele>346.79998779297</ele>
        <time>2013-11-09T14:47:37Z</time>
      </trkpt>
      <trkpt lat="43.37542" lon="6.15955">
        <ele>347.20001220703</ele>
        <time>2013-11-09T14:47:41Z</time>
      </trkpt>
      <trkpt lat="43.3754" lon="6.15958">
        <ele>348</ele>
        <time>2013-11-09T14:47:43Z</time>
      </trkpt>
      <trkpt lat="43.37533" lon="6.15967">
        <ele>348.79998779297</ele>
        <time>2013-11-09T14:47:48Z</time>
      </trkpt>
      <trkpt lat="43.3753" lon="6.1597">
        <ele>348.79998779297</ele>
        <time>2013-11-09T14:47:50Z</time>
      </trkpt>
      <trkpt lat="43.37518" lon="6.15983">
        <ele>348.79998779297</ele>
        <time>2013-11-09T14:47:56Z</time>
      </trkpt>
      <trkpt lat="43.37515" lon="6.15987">
        <ele>349.20001220703</ele>
        <time>2013-11-09T14:47:58Z</time>
      </trkpt>
      <trkpt lat="43.37512" lon="6.15992">
        <ele>350</ele>
        <time>2013-11-09T14:48:00Z</time>
      </trkpt>
      <trkpt lat="43.37509" lon="6.15995">
        <ele>350.79998779297</ele>
        <time>2013-11-09T14:48:02Z</time>
      </trkpt>
      <trkpt lat="43.37498" lon="6.16006">
        <ele>352.20001220703</ele>
        <time>2013-11-09T14:48:09Z</time>
      </trkpt>
      <trkpt lat="43.37491" lon="6.16015">
        <ele>353</ele>
        <time>2013-11-09T14:48:14Z</time>
      </trkpt>
      <trkpt lat="43.37482" lon="6.16023">
        <ele>353</ele>
        <time>2013-11-09T14:48:20Z</time>
      </trkpt>
      <trkpt lat="43.37476" lon="6.16026">
        <ele>353.39999389648</ele>
        <time>2013-11-09T14:48:23Z</time>
      </trkpt>
      <trkpt lat="43.37473" lon="6.16031">
        <ele>354.60000610352</ele>
        <time>2013-11-09T14:48:26Z</time>
      </trkpt>
      <trkpt lat="43.37471" lon="6.16032">
        <ele>355</ele>
        <time>2013-11-09T14:48:27Z</time>
      </trkpt>
      <trkpt lat="43.37468" lon="6.16038">
        <ele>355</ele>
        <time>2013-11-09T14:48:30Z</time>
      </trkpt>
      <trkpt lat="43.37466" lon="6.1604">
        <ele>355</ele>
        <time>2013-11-09T14:48:31Z</time>
      </trkpt>
      <trkpt lat="43.3746" lon="6.16043">
        <ele>355</ele>
        <time>2013-11-09T14:48:35Z</time>
      </trkpt>
      <trkpt lat="43.37457" lon="6.16044">
        <ele>355</ele>
        <time>2013-11-09T14:48:40Z</time>
      </trkpt>
      <trkpt lat="43.37457" lon="6.16044">
        <ele>355</ele>
        <time>2013-11-09T14:49:04Z</time>
      </trkpt>
      <trkpt lat="43.37457" lon="6.16044">
        <ele>355</ele>
        <time>2013-11-09T14:49:39Z</time>
      </trkpt>
      <trkpt lat="43.37455" lon="6.16044">
        <ele>355</ele>
        <time>2013-11-09T14:49:50Z</time>
      </trkpt>
      <trkpt lat="43.37445" lon="6.16042">
        <ele>355</ele>
        <time>2013-11-09T14:49:54Z</time>
      </trkpt>
      <trkpt lat="43.37442" lon="6.16041">
        <ele>355</ele>
        <time>2013-11-09T14:49:55Z</time>
      </trkpt>
      <trkpt lat="43.3743" lon="6.16041">
        <ele>355.39999389648</ele>
        <time>2013-11-09T14:49:59Z</time>
      </trkpt>
      <trkpt lat="43.37427" lon="6.1604">
        <ele>356</ele>
        <time>2013-11-09T14:50:00Z</time>
      </trkpt>
      <trkpt lat="43.37425" lon="6.1604">
        <ele>356.39999389648</ele>
        <time>2013-11-09T14:50:01Z</time>
      </trkpt>
      <trkpt lat="43.37423" lon="6.16039">
        <ele>356.79998779297</ele>
        <time>2013-11-09T14:50:02Z</time>
      </trkpt>
      <trkpt lat="43.37414" lon="6.16038">
        <ele>357.20001220703</ele>
        <time>2013-11-09T14:50:06Z</time>
      </trkpt>
      <trkpt lat="43.37412" lon="6.16038">
        <ele>357.20001220703</ele>
        <time>2013-11-09T14:50:07Z</time>
      </trkpt>
      <trkpt lat="43.37404" lon="6.16037">
        <ele>357.20001220703</ele>
        <time>2013-11-09T14:50:11Z</time>
      </trkpt>
      <trkpt lat="43.37381" lon="6.16037">
        <ele>359.20001220703</ele>
        <time>2013-11-09T14:50:19Z</time>
      </trkpt>
      <trkpt lat="43.37369" lon="6.16035">
        <ele>359.20001220703</ele>
        <time>2013-11-09T14:50:23Z</time>
      </trkpt>
      <trkpt lat="43.37366" lon="6.16034">
        <ele>359.20001220703</ele>
        <time>2013-11-09T14:50:24Z</time>
      </trkpt>
      <trkpt lat="43.37354" lon="6.16033">
        <ele>359.20001220703</ele>
        <time>2013-11-09T14:50:28Z</time>
      </trkpt>
      <trkpt lat="43.37351" lon="6.16033">
        <ele>359.79998779297</ele>
        <time>2013-11-09T14:50:29Z</time>
      </trkpt>
      <trkpt lat="43.3734" lon="6.16034">
        <ele>361.39999389648</ele>
        <time>2013-11-09T14:50:33Z</time>
      </trkpt>
      <trkpt lat="43.37329" lon="6.16036">
        <ele>361.39999389648</ele>
        <time>2013-11-09T14:50:37Z</time>
      </trkpt>
      <trkpt lat="43.37308" lon="6.16041">
        <ele>362.60000610352</ele>
        <time>2013-11-09T14:50:45Z</time>
      </trkpt>
      <trkpt lat="43.37301" lon="6.16044">
        <ele>363.39999389648</ele>
        <time>2013-11-09T14:50:48Z</time>
      </trkpt>
      <trkpt lat="43.37274" lon="6.16043">
        <ele>363.39999389648</ele>
        <time>2013-11-09T14:50:59Z</time>
      </trkpt>
      <trkpt lat="43.37265" lon="6.1604">
        <ele>365.20001220703</ele>
        <time>2013-11-09T14:51:03Z</time>
      </trkpt>
      <trkpt lat="43.37251" lon="6.16037">
        <ele>365.60000610352</ele>
        <time>2013-11-09T14:51:10Z</time>
      </trkpt>
      <trkpt lat="43.37245" lon="6.16035">
        <ele>365.60000610352</ele>
        <time>2013-11-09T14:51:14Z</time>
      </trkpt>
      <trkpt lat="43.37238" lon="6.1603">
        <ele>367.79998779297</ele>
        <time>2013-11-09T14:51:19Z</time>
      </trkpt>
      <trkpt lat="43.3723" lon="6.16027">
        <ele>367.79998779297</ele>
        <time>2013-11-09T14:51:25Z</time>
      </trkpt>
      <trkpt lat="43.37211" lon="6.16016">
        <ele>369.79998779297</ele>
        <time>2013-11-09T14:51:37Z</time>
      </trkpt>
      <trkpt lat="43.37195" lon="6.16006">
        <ele>369.79998779297</ele>
        <time>2013-11-09T14:51:49Z</time>
      </trkpt>
      <trkpt lat="43.37186" lon="6.16003">
        <ele>371.60000610352</ele>
        <time>2013-11-09T14:51:54Z</time>
      </trkpt>
      <trkpt lat="43.37179" lon="6.15998">
        <ele>372</ele>
        <time>2013-11-09T14:51:59Z</time>
      </trkpt>
      <trkpt lat="43.3717" lon="6.15988">
        <ele>372</ele>
        <time>2013-11-09T14:52:06Z</time>
      </trkpt>
      <trkpt lat="43.37166" lon="6.15978">
        <ele>372.39999389648</ele>
        <time>2013-11-09T14:52:11Z</time>
      </trkpt>
      <trkpt lat="43.37156" lon="6.15956">
        <ele>374</ele>
        <time>2013-11-09T14:52:23Z</time>
      </trkpt>
      <trkpt lat="43.37151" lon="6.15945">
        <ele>376</ele>
        <time>2013-11-09T14:52:29Z</time>
      </trkpt>
      <trkpt lat="43.37145" lon="6.15931">
        <ele>376</ele>
        <time>2013-11-09T14:52:36Z</time>
      </trkpt>
      <trkpt lat="43.37144" lon="6.1592">
        <ele>376</ele>
        <time>2013-11-09T14:52:41Z</time>
      </trkpt>
      <trkpt lat="43.37143" lon="6.15913">
        <ele>376.39999389648</ele>
        <time>2013-11-09T14:52:46Z</time>
      </trkpt>
      <trkpt lat="43.37141" lon="6.15905">
        <ele>378</ele>
        <time>2013-11-09T14:52:50Z</time>
      </trkpt>
      <trkpt lat="43.37136" lon="6.15889">
        <ele>378</ele>
        <time>2013-11-09T14:52:58Z</time>
      </trkpt>
      <trkpt lat="43.3713" lon="6.1588">
        <ele>378</ele>
        <time>2013-11-09T14:53:04Z</time>
      </trkpt>
      <trkpt lat="43.37128" lon="6.15879">
        <ele>378</ele>
        <time>2013-11-09T14:53:05Z</time>
      </trkpt>
      <trkpt lat="43.37127" lon="6.15878">
        <ele>378.39999389648</ele>
        <time>2013-11-09T14:53:06Z</time>
      </trkpt>
      <trkpt lat="43.37124" lon="6.15877">
        <ele>379.39999389648</ele>
        <time>2013-11-09T14:53:08Z</time>
      </trkpt>
      <trkpt lat="43.37121" lon="6.15876">
        <ele>380.20001220703</ele>
        <time>2013-11-09T14:53:10Z</time>
      </trkpt>
      <trkpt lat="43.3712" lon="6.15876">
        <ele>380.20001220703</ele>
        <time>2013-11-09T14:53:11Z</time>
      </trkpt>
      <trkpt lat="43.37115" lon="6.15879">
        <ele>380.20001220703</ele>
        <time>2013-11-09T14:53:16Z</time>
      </trkpt>
      <trkpt lat="43.37115" lon="6.15879">
        <ele>380.20001220703</ele>
        <time>2013-11-09T14:53:23Z</time>
      </trkpt>
      <trkpt lat="43.37115" lon="6.15879">
        <ele>380.20001220703</ele>
        <time>2013-11-09T14:53:46Z</time>
      </trkpt>
      <trkpt lat="43.37114" lon="6.1588">
        <ele>380.20001220703</ele>
        <time>2013-11-09T14:54:46Z</time>
      </trkpt>
      <trkpt lat="43.37114" lon="6.15881">
        <ele>380.20001220703</ele>
        <time>2013-11-09T14:54:48Z</time>
      </trkpt>
      <trkpt lat="43.37114" lon="6.15881">
        <ele>380.20001220703</ele>
        <time>2013-11-09T14:54:54Z</time>
      </trkpt>
      <trkpt lat="43.37114" lon="6.15881">
        <ele>380.20001220703</ele>
        <time>2013-11-09T14:55:02Z</time>
      </trkpt>
      <trkpt lat="43.37113" lon="6.15883">
        <ele>380.20001220703</ele>
        <time>2013-11-09T14:55:09Z</time>
      </trkpt>
      <trkpt lat="43.37109" lon="6.15889">
        <ele>380.20001220703</ele>
        <time>2013-11-09T14:55:13Z</time>
      </trkpt>
      <trkpt lat="43.37107" lon="6.15892">
        <ele>380.20001220703</ele>
        <time>2013-11-09T14:55:15Z</time>
      </trkpt>
      <trkpt lat="43.37104" lon="6.15905">
        <ele>380.20001220703</ele>
        <time>2013-11-09T14:55:21Z</time>
      </trkpt>
      <trkpt lat="43.37093" lon="6.15914">
        <ele>380.20001220703</ele>
        <time>2013-11-09T14:55:26Z</time>
      </trkpt>
      <trkpt lat="43.37083" lon="6.15919">
        <ele>380.20001220703</ele>
        <time>2013-11-09T14:55:30Z</time>
      </trkpt>
      <trkpt lat="43.3708" lon="6.15921">
        <ele>380.20001220703</ele>
        <time>2013-11-09T14:55:31Z</time>
      </trkpt>
      <trkpt lat="43.37074" lon="6.15924">
        <ele>380.60000610352</ele>
        <time>2013-11-09T14:55:33Z</time>
      </trkpt>
      <trkpt lat="43.37069" lon="6.15926">
        <ele>381.39999389648</ele>
        <time>2013-11-09T14:55:35Z</time>
      </trkpt>
      <trkpt lat="43.37067" lon="6.15927">
        <ele>381.79998779297</ele>
        <time>2013-11-09T14:55:36Z</time>
      </trkpt>
      <trkpt lat="43.37064" lon="6.15927">
        <ele>382.20001220703</ele>
        <time>2013-11-09T14:55:37Z</time>
      </trkpt>
      <trkpt lat="43.3706" lon="6.15927">
        <ele>382.20001220703</ele>
        <time>2013-11-09T14:55:39Z</time>
      </trkpt>
      <trkpt lat="43.37056" lon="6.15926">
        <ele>382.20001220703</ele>
        <time>2013-11-09T14:55:41Z</time>
      </trkpt>
      <trkpt lat="43.37051" lon="6.15923">
        <ele>382.60000610352</ele>
        <time>2013-11-09T14:55:44Z</time>
      </trkpt>
      <trkpt lat="43.3705" lon="6.15921">
        <ele>383</ele>
        <time>2013-11-09T14:55:45Z</time>
      </trkpt>
      <trkpt lat="43.37048" lon="6.1592">
        <ele>383.39999389648</ele>
        <time>2013-11-09T14:55:46Z</time>
      </trkpt>
      <trkpt lat="43.37046" lon="6.15919">
        <ele>383.79998779297</ele>
        <time>2013-11-09T14:55:47Z</time>
      </trkpt>
      <trkpt lat="43.37037" lon="6.15907">
        <ele>384.20001220703</ele>
        <time>2013-11-09T14:55:53Z</time>
      </trkpt>
      <trkpt lat="43.37028" lon="6.15893">
        <ele>384.20001220703</ele>
        <time>2013-11-09T14:55:59Z</time>
      </trkpt>
      <trkpt lat="43.37024" lon="6.15887">
        <ele>385</ele>
        <time>2013-11-09T14:56:02Z</time>
      </trkpt>
      <trkpt lat="43.37008" lon="6.15871">
        <ele>386.20001220703</ele>
        <time>2013-11-09T14:56:12Z</time>
      </trkpt>
      <trkpt lat="43.3699" lon="6.15865">
        <ele>387.20001220703</ele>
        <time>2013-11-09T14:56:21Z</time>
      </trkpt>
      <trkpt lat="43.36987" lon="6.15864">
        <ele>388</ele>
        <time>2013-11-09T14:56:23Z</time>
      </trkpt>
      <trkpt lat="43.36983" lon="6.15863">
        <ele>388.39999389648</ele>
        <time>2013-11-09T14:56:25Z</time>
      </trkpt>
      <trkpt lat="43.36963" lon="6.15854">
        <ele>388.39999389648</ele>
        <time>2013-11-09T14:56:38Z</time>
      </trkpt>
      <trkpt lat="43.36954" lon="6.15847">
        <ele>390.60000610352</ele>
        <time>2013-11-09T14:56:45Z</time>
      </trkpt>
      <trkpt lat="43.36946" lon="6.1584">
        <ele>390.60000610352</ele>
        <time>2013-11-09T14:56:51Z</time>
      </trkpt>
      <trkpt lat="43.36944" lon="6.15838">
        <ele>391</ele>
        <time>2013-11-09T14:56:53Z</time>
      </trkpt>
      <trkpt lat="43.3694" lon="6.15837">
        <ele>391.79998779297</ele>
        <time>2013-11-09T14:56:55Z</time>
      </trkpt>
      <trkpt lat="43.36938" lon="6.15836">
        <ele>392.60000610352</ele>
        <time>2013-11-09T14:56:57Z</time>
      </trkpt>
      <trkpt lat="43.3693" lon="6.15834">
        <ele>392.60000610352</ele>
        <time>2013-11-09T14:57:02Z</time>
      </trkpt>
      <trkpt lat="43.36925" lon="6.15838">
        <ele>392.60000610352</ele>
        <time>2013-11-09T14:57:07Z</time>
      </trkpt>
      <trkpt lat="43.36921" lon="6.15848">
        <ele>392.60000610352</ele>
        <time>2013-11-09T14:57:13Z</time>
      </trkpt>
      <trkpt lat="43.36923" lon="6.1586">
        <ele>392.60000610352</ele>
        <time>2013-11-09T14:57:19Z</time>
      </trkpt>
      <trkpt lat="43.36924" lon="6.15873">
        <ele>392.60000610352</ele>
        <time>2013-11-09T14:57:25Z</time>
      </trkpt>
      <trkpt lat="43.3693" lon="6.15898">
        <ele>393.39999389648</ele>
        <time>2013-11-09T14:57:37Z</time>
      </trkpt>
      <trkpt lat="43.36932" lon="6.15905">
        <ele>394.60000610352</ele>
        <time>2013-11-09T14:57:40Z</time>
      </trkpt>
      <trkpt lat="43.36934" lon="6.15913">
        <ele>394.60000610352</ele>
        <time>2013-11-09T14:57:44Z</time>
      </trkpt>
      <trkpt lat="43.36937" lon="6.15925">
        <ele>394.60000610352</ele>
        <time>2013-11-09T14:57:50Z</time>
      </trkpt>
      <trkpt lat="43.36938" lon="6.15931">
        <ele>395</ele>
        <time>2013-11-09T14:57:53Z</time>
      </trkpt>
      <trkpt lat="43.36938" lon="6.15937">
        <ele>396.20001220703</ele>
        <time>2013-11-09T14:57:56Z</time>
      </trkpt>
      <trkpt lat="43.36937" lon="6.15946">
        <ele>396.60000610352</ele>
        <time>2013-11-09T14:58:01Z</time>
      </trkpt>
      <trkpt lat="43.36934" lon="6.15956">
        <ele>396.60000610352</ele>
        <time>2013-11-09T14:58:08Z</time>
      </trkpt>
      <trkpt lat="43.36934" lon="6.15959">
        <ele>396.60000610352</ele>
        <time>2013-11-09T14:58:13Z</time>
      </trkpt>
      <trkpt lat="43.36934" lon="6.15959">
        <ele>396.60000610352</ele>
        <time>2013-11-09T14:58:31Z</time>
      </trkpt>
      <trkpt lat="43.36934" lon="6.15959">
        <ele>398.79998779297</ele>
        <time>2013-11-09T14:58:49Z</time>
      </trkpt>
      <trkpt lat="43.36934" lon="6.15959">
        <ele>398.79998779297</ele>
        <time>2013-11-09T14:58:52Z</time>
      </trkpt>
      <trkpt lat="43.36934" lon="6.15959">
        <ele>398.79998779297</ele>
        <time>2013-11-09T14:59:11Z</time>
      </trkpt>
      <trkpt lat="43.36934" lon="6.15959">
        <ele>398.79998779297</ele>
        <time>2013-11-09T14:59:34Z</time>
      </trkpt>
      <trkpt lat="43.36934" lon="6.15959">
        <ele>398.79998779297</ele>
        <time>2013-11-09T14:59:40Z</time>
      </trkpt>
      <trkpt lat="43.36932" lon="6.15961">
        <ele>398.79998779297</ele>
        <time>2013-11-09T14:59:41Z</time>
      </trkpt>
      <trkpt lat="43.36931" lon="6.15967">
        <ele>398.79998779297</ele>
        <time>2013-11-09T14:59:44Z</time>
      </trkpt>
      <trkpt lat="43.3693" lon="6.15971">
        <ele>398.79998779297</ele>
        <time>2013-11-09T14:59:46Z</time>
      </trkpt>
      <trkpt lat="43.36927" lon="6.15979">
        <ele>398.79998779297</ele>
        <time>2013-11-09T14:59:50Z</time>
      </trkpt>
      <trkpt lat="43.36926" lon="6.15981">
        <ele>398.79998779297</ele>
        <time>2013-11-09T14:59:51Z</time>
      </trkpt>
      <trkpt lat="43.3692" lon="6.15996">
        <ele>398.79998779297</ele>
        <time>2013-11-09T14:59:57Z</time>
      </trkpt>
      <trkpt lat="43.36918" lon="6.16003">
        <ele>398.79998779297</ele>
        <time>2013-11-09T15:00:00Z</time>
      </trkpt>
      <trkpt lat="43.36913" lon="6.16012">
        <ele>399.60000610352</ele>
        <time>2013-11-09T15:00:04Z</time>
      </trkpt>
      <trkpt lat="43.36909" lon="6.16022">
        <ele>400.79998779297</ele>
        <time>2013-11-09T15:00:08Z</time>
      </trkpt>
      <trkpt lat="43.36904" lon="6.16035">
        <ele>400.79998779297</ele>
        <time>2013-11-09T15:00:13Z</time>
      </trkpt>
      <trkpt lat="43.36898" lon="6.16053">
        <ele>400.79998779297</ele>
        <time>2013-11-09T15:00:20Z</time>
      </trkpt>
      <trkpt lat="43.36896" lon="6.16065">
        <ele>403</ele>
        <time>2013-11-09T15:00:25Z</time>
      </trkpt>
      <trkpt lat="43.36893" lon="6.16075">
        <ele>403</ele>
        <time>2013-11-09T15:00:29Z</time>
      </trkpt>
      <trkpt lat="43.36889" lon="6.1609">
        <ele>404.20001220703</ele>
        <time>2013-11-09T15:00:35Z</time>
      </trkpt>
      <trkpt lat="43.36887" lon="6.16095">
        <ele>405</ele>
        <time>2013-11-09T15:00:37Z</time>
      </trkpt>
      <trkpt lat="43.36883" lon="6.16112">
        <ele>405</ele>
        <time>2013-11-09T15:00:44Z</time>
      </trkpt>
      <trkpt lat="43.36881" lon="6.16121">
        <ele>405.79998779297</ele>
        <time>2013-11-09T15:00:48Z</time>
      </trkpt>
      <trkpt lat="43.3688" lon="6.16126">
        <ele>406.60000610352</ele>
        <time>2013-11-09T15:00:50Z</time>
      </trkpt>
      <trkpt lat="43.36873" lon="6.16153">
        <ele>407.79998779297</ele>
        <time>2013-11-09T15:01:01Z</time>
      </trkpt>
      <trkpt lat="43.36872" lon="6.16162">
        <ele>409.20001220703</ele>
        <time>2013-11-09T15:01:04Z</time>
      </trkpt>
      <trkpt lat="43.36868" lon="6.16171">
        <ele>409.20001220703</ele>
        <time>2013-11-09T15:01:08Z</time>
      </trkpt>
      <trkpt lat="43.3686" lon="6.16184">
        <ele>409.20001220703</ele>
        <time>2013-11-09T15:01:15Z</time>
      </trkpt>
      <trkpt lat="43.36858" lon="6.16185">
        <ele>409.60000610352</ele>
        <time>2013-11-09T15:01:16Z</time>
      </trkpt>
      <trkpt lat="43.36857" lon="6.16186">
        <ele>410</ele>
        <time>2013-11-09T15:01:17Z</time>
      </trkpt>
      <trkpt lat="43.36857" lon="6.16187">
        <ele>410.39999389648</ele>
        <time>2013-11-09T15:01:18Z</time>
      </trkpt>
      <trkpt lat="43.36857" lon="6.16187">
        <ele>410.79998779297</ele>
        <time>2013-11-09T15:01:19Z</time>
      </trkpt>
      <trkpt lat="43.36857" lon="6.16188">
        <ele>411.20001220703</ele>
        <time>2013-11-09T15:01:20Z</time>
      </trkpt>
      <trkpt lat="43.36857" lon="6.16188">
        <ele>411.20001220703</ele>
        <time>2013-11-09T15:01:23Z</time>
      </trkpt>
      <trkpt lat="43.36855" lon="6.16188">
        <ele>411.20001220703</ele>
        <time>2013-11-09T15:01:25Z</time>
      </trkpt>
      <trkpt lat="43.36854" lon="6.16188">
        <ele>411.20001220703</ele>
        <time>2013-11-09T15:01:26Z</time>
      </trkpt>
      <trkpt lat="43.36848" lon="6.16188">
        <ele>411.20001220703</ele>
        <time>2013-11-09T15:01:31Z</time>
      </trkpt>
      <trkpt lat="43.36841" lon="6.16189">
        <ele>411.20001220703</ele>
        <time>2013-11-09T15:01:35Z</time>
      </trkpt>
      <trkpt lat="43.36837" lon="6.16188">
        <ele>411.20001220703</ele>
        <time>2013-11-09T15:01:37Z</time>
      </trkpt>
      <trkpt lat="43.36834" lon="6.16185">
        <ele>411.20001220703</ele>
        <time>2013-11-09T15:01:40Z</time>
      </trkpt>
      <trkpt lat="43.36832" lon="6.16183">
        <ele>411.20001220703</ele>
        <time>2013-11-09T15:01:42Z</time>
      </trkpt>
      <trkpt lat="43.36832" lon="6.16182">
        <ele>411.20001220703</ele>
        <time>2013-11-09T15:01:43Z</time>
      </trkpt>
      <trkpt lat="43.36831" lon="6.1618">
        <ele>411.20001220703</ele>
        <time>2013-11-09T15:01:47Z</time>
      </trkpt>
      <trkpt lat="43.36831" lon="6.1618">
        <ele>411.20001220703</ele>
        <time>2013-11-09T15:02:05Z</time>
      </trkpt>
      <trkpt lat="43.36831" lon="6.1618">
        <ele>411.20001220703</ele>
        <time>2013-11-09T15:02:42Z</time>
      </trkpt>
      <trkpt lat="43.36831" lon="6.1618">
        <ele>411.20001220703</ele>
        <time>2013-11-09T15:02:53Z</time>
      </trkpt>
      <trkpt lat="43.36831" lon="6.1618">
        <ele>411.20001220703</ele>
        <time>2013-11-09T15:02:59Z</time>
      </trkpt>
      <trkpt lat="43.36831" lon="6.1618">
        <ele>411.20001220703</ele>
        <time>2013-11-09T15:03:26Z</time>
      </trkpt>
      <trkpt lat="43.36831" lon="6.1618">
        <ele>411.20001220703</ele>
        <time>2013-11-09T15:03:32Z</time>
      </trkpt>
      <trkpt lat="43.36832" lon="6.16179">
        <ele>411.20001220703</ele>
        <time>2013-11-09T15:03:38Z</time>
      </trkpt>
      <trkpt lat="43.36832" lon="6.16179">
        <ele>411.20001220703</ele>
        <time>2013-11-09T15:03:51Z</time>
      </trkpt>
      <trkpt lat="43.36832" lon="6.16179">
        <ele>411.20001220703</ele>
        <time>2013-11-09T15:04:05Z</time>
      </trkpt>
      <trkpt lat="43.36832" lon="6.16178">
        <ele>411.20001220703</ele>
        <time>2013-11-09T15:04:14Z</time>
      </trkpt>
      <trkpt lat="43.36832" lon="6.16178">
        <ele>411.20001220703</ele>
        <time>2013-11-09T15:04:32Z</time>
      </trkpt>
      <trkpt lat="43.36832" lon="6.16178">
        <ele>411.20001220703</ele>
        <time>2013-11-09T15:04:46Z</time>
      </trkpt>
      <trkpt lat="43.36832" lon="6.16177">
        <ele>411.20001220703</ele>
        <time>2013-11-09T15:04:49Z</time>
      </trkpt>
      <trkpt lat="43.36832" lon="6.16177">
        <ele>411.20001220703</ele>
        <time>2013-11-09T15:05:07Z</time>
      </trkpt>
      <trkpt lat="43.36832" lon="6.16177">
        <ele>411.20001220703</ele>
        <time>2013-11-09T15:05:47Z</time>
      </trkpt>
      <trkpt lat="43.36832" lon="6.16177">
        <ele>411.20001220703</ele>
        <time>2013-11-09T15:06:04Z</time>
      </trkpt>
      <trkpt lat="43.36832" lon="6.16177">
        <ele>411.20001220703</ele>
        <time>2013-11-09T15:06:06Z</time>
      </trkpt>
      <trkpt lat="43.36832" lon="6.16175">
        <ele>411.20001220703</ele>
        <time>2013-11-09T15:06:13Z</time>
      </trkpt>
      <trkpt lat="43.36829" lon="6.16166">
        <ele>411.20001220703</ele>
        <time>2013-11-09T15:06:17Z</time>
      </trkpt>
      <trkpt lat="43.36827" lon="6.16162">
        <ele>411.20001220703</ele>
        <time>2013-11-09T15:06:19Z</time>
      </trkpt>
      <trkpt lat="43.36823" lon="6.16142">
        <ele>411.20001220703</ele>
        <time>2013-11-09T15:06:25Z</time>
      </trkpt>
      <trkpt lat="43.36823" lon="6.16138">
        <ele>411.60000610352</ele>
        <time>2013-11-09T15:06:26Z</time>
      </trkpt>
      <trkpt lat="43.36823" lon="6.16135">
        <ele>412</ele>
        <time>2013-11-09T15:06:27Z</time>
      </trkpt>
      <trkpt lat="43.36823" lon="6.16128">
        <ele>413</ele>
        <time>2013-11-09T15:06:29Z</time>
      </trkpt>
      <trkpt lat="43.36822" lon="6.16124">
        <ele>413.39999389648</ele>
        <time>2013-11-09T15:06:30Z</time>
      </trkpt>
      <trkpt lat="43.36822" lon="6.16115">
        <ele>413.39999389648</ele>
        <time>2013-11-09T15:06:32Z</time>
      </trkpt>
      <trkpt lat="43.36823" lon="6.1609">
        <ele>413.39999389648</ele>
        <time>2013-11-09T15:06:38Z</time>
      </trkpt>
      <trkpt lat="43.36825" lon="6.16064">
        <ele>413.39999389648</ele>
        <time>2013-11-09T15:06:45Z</time>
      </trkpt>
      <trkpt lat="43.36824" lon="6.16037">
        <ele>413.39999389648</ele>
        <time>2013-11-09T15:06:51Z</time>
      </trkpt>
      <trkpt lat="43.36823" lon="6.16011">
        <ele>413.39999389648</ele>
        <time>2013-11-09T15:06:57Z</time>
      </trkpt>
      <trkpt lat="43.36821" lon="6.15979">
        <ele>413.39999389648</ele>
        <time>2013-11-09T15:07:04Z</time>
      </trkpt>
      <trkpt lat="43.36818" lon="6.15953">
        <ele>413.39999389648</ele>
        <time>2013-11-09T15:07:10Z</time>
      </trkpt>
      <trkpt lat="43.36815" lon="6.15928">
        <ele>413.39999389648</ele>
        <time>2013-11-09T15:07:16Z</time>
      </trkpt>
      <trkpt lat="43.36813" lon="6.15902">
        <ele>413.39999389648</ele>
        <time>2013-11-09T15:07:22Z</time>
      </trkpt>
      <trkpt lat="43.36811" lon="6.15877">
        <ele>413.39999389648</ele>
        <time>2013-11-09T15:07:28Z</time>
      </trkpt>
      <trkpt lat="43.36808" lon="6.1585">
        <ele>413.39999389648</ele>
        <time>2013-11-09T15:07:34Z</time>
      </trkpt>
      <trkpt lat="43.36804" lon="6.15824">
        <ele>413.39999389648</ele>
        <time>2013-11-09T15:07:40Z</time>
      </trkpt>
      <trkpt lat="43.36796" lon="6.15803">
        <ele>413.39999389648</ele>
        <time>2013-11-09T15:07:45Z</time>
      </trkpt>
      <trkpt lat="43.36787" lon="6.15784">
        <ele>413.39999389648</ele>
        <time>2013-11-09T15:07:50Z</time>
      </trkpt>
      <trkpt lat="43.36772" lon="6.1578">
        <ele>413.39999389648</ele>
        <time>2013-11-09T15:07:54Z</time>
      </trkpt>
      <trkpt lat="43.36766" lon="6.15792">
        <ele>413.39999389648</ele>
        <time>2013-11-09T15:07:57Z</time>
      </trkpt>
      <trkpt lat="43.36757" lon="6.15814">
        <ele>413.39999389648</ele>
        <time>2013-11-09T15:08:03Z</time>
      </trkpt>
      <trkpt lat="43.3675" lon="6.15825">
        <ele>413.79998779297</ele>
        <time>2013-11-09T15:08:07Z</time>
      </trkpt>
      <trkpt lat="43.36746" lon="6.15831">
        <ele>414.60000610352</ele>
        <time>2013-11-09T15:08:09Z</time>
      </trkpt>
      <trkpt lat="43.36742" lon="6.15837">
        <ele>415.39999389648</ele>
        <time>2013-11-09T15:08:11Z</time>
      </trkpt>
      <trkpt lat="43.36738" lon="6.15843">
        <ele>415.39999389648</ele>
        <time>2013-11-09T15:08:13Z</time>
      </trkpt>
      <trkpt lat="43.36722" lon="6.15865">
        <ele>415.39999389648</ele>
        <time>2013-11-09T15:08:21Z</time>
      </trkpt>
      <trkpt lat="43.36718" lon="6.15872">
        <ele>415.39999389648</ele>
        <time>2013-11-09T15:08:27Z</time>
      </trkpt>
      <trkpt lat="43.36718" lon="6.15872">
        <ele>415.39999389648</ele>
        <time>2013-11-09T15:08:31Z</time>
      </trkpt>
      <trkpt lat="43.36716" lon="6.15873">
        <ele>415.39999389648</ele>
        <time>2013-11-09T15:08:35Z</time>
      </trkpt>
      <trkpt lat="43.36709" lon="6.15881">
        <ele>415.39999389648</ele>
        <time>2013-11-09T15:08:40Z</time>
      </trkpt>
      <trkpt lat="43.36704" lon="6.15879">
        <ele>415.39999389648</ele>
        <time>2013-11-09T15:08:42Z</time>
      </trkpt>
      <trkpt lat="43.367" lon="6.15877">
        <ele>415.79998779297</ele>
        <time>2013-11-09T15:08:45Z</time>
      </trkpt>
      <trkpt lat="43.36697" lon="6.15876">
        <ele>417</ele>
        <time>2013-11-09T15:08:48Z</time>
      </trkpt>
      <trkpt lat="43.36697" lon="6.15875">
        <ele>417.60000610352</ele>
        <time>2013-11-09T15:08:49Z</time>
      </trkpt>
      <trkpt lat="43.36693" lon="6.15871">
        <ele>417.60000610352</ele>
        <time>2013-11-09T15:08:53Z</time>
      </trkpt>
      <trkpt lat="43.36691" lon="6.15867">
        <ele>418</ele>
        <time>2013-11-09T15:08:55Z</time>
      </trkpt>
      <trkpt lat="43.3669" lon="6.15866">
        <ele>418.39999389648</ele>
        <time>2013-11-09T15:08:56Z</time>
      </trkpt>
      <trkpt lat="43.36686" lon="6.15856">
        <ele>419.60000610352</ele>
        <time>2013-11-09T15:09:00Z</time>
      </trkpt>
      <trkpt lat="43.36678" lon="6.15838">
        <ele>419.60000610352</ele>
        <time>2013-11-09T15:09:07Z</time>
      </trkpt>
      <trkpt lat="43.36672" lon="6.15818">
        <ele>420</ele>
        <time>2013-11-09T15:09:14Z</time>
      </trkpt>
      <trkpt lat="43.3667" lon="6.15812">
        <ele>421.39999389648</ele>
        <time>2013-11-09T15:09:16Z</time>
      </trkpt>
      <trkpt lat="43.36667" lon="6.15808">
        <ele>422</ele>
        <time>2013-11-09T15:09:18Z</time>
      </trkpt>
      <trkpt lat="43.36657" lon="6.15792">
        <ele>422</ele>
        <time>2013-11-09T15:09:25Z</time>
      </trkpt>
      <trkpt lat="43.36648" lon="6.15782">
        <ele>423.20001220703</ele>
        <time>2013-11-09T15:09:32Z</time>
      </trkpt>
      <trkpt lat="43.36646" lon="6.1578">
        <ele>424</ele>
        <time>2013-11-09T15:09:34Z</time>
      </trkpt>
      <trkpt lat="43.36641" lon="6.15775">
        <ele>424</ele>
        <time>2013-11-09T15:09:38Z</time>
      </trkpt>
      <trkpt lat="43.36629" lon="6.15765">
        <ele>426.20001220703</ele>
        <time>2013-11-09T15:09:47Z</time>
      </trkpt>
      <trkpt lat="43.36624" lon="6.15759">
        <ele>426.20001220703</ele>
        <time>2013-11-09T15:09:52Z</time>
      </trkpt>
      <trkpt lat="43.3662" lon="6.15755">
        <ele>427.39999389648</ele>
        <time>2013-11-09T15:09:55Z</time>
      </trkpt>
      <trkpt lat="43.36618" lon="6.15754">
        <ele>428.39999389648</ele>
        <time>2013-11-09T15:09:57Z</time>
      </trkpt>
      <trkpt lat="43.36614" lon="6.15752">
        <ele>428.39999389648</ele>
        <time>2013-11-09T15:10:00Z</time>
      </trkpt>
      <trkpt lat="43.36609" lon="6.15748">
        <ele>428.39999389648</ele>
        <time>2013-11-09T15:10:04Z</time>
      </trkpt>
      <trkpt lat="43.366" lon="6.15744">
        <ele>428.79998779297</ele>
        <time>2013-11-09T15:10:09Z</time>
      </trkpt>
      <trkpt lat="43.36597" lon="6.15739">
        <ele>430.20001220703</ele>
        <time>2013-11-09T15:10:12Z</time>
      </trkpt>
      <trkpt lat="43.36596" lon="6.15738">
        <ele>430.60000610352</ele>
        <time>2013-11-09T15:10:13Z</time>
      </trkpt>
      <trkpt lat="43.36585" lon="6.15732">
        <ele>431.79998779297</ele>
        <time>2013-11-09T15:10:21Z</time>
      </trkpt>
      <trkpt lat="43.36583" lon="6.1573">
        <ele>432.60000610352</ele>
        <time>2013-11-09T15:10:23Z</time>
      </trkpt>
      <trkpt lat="43.36575" lon="6.15723">
        <ele>432.60000610352</ele>
        <time>2013-11-09T15:10:30Z</time>
      </trkpt>
      <trkpt lat="43.36576" lon="6.15723">
        <ele>432.60000610352</ele>
        <time>2013-11-09T15:10:33Z</time>
      </trkpt>
      <trkpt lat="43.36576" lon="6.15723">
        <ele>432.60000610352</ele>
        <time>2013-11-09T15:10:49Z</time>
      </trkpt>
      <trkpt lat="43.36576" lon="6.15723">
        <ele>434.60000610352</ele>
        <time>2013-11-09T15:11:07Z</time>
      </trkpt>
      <trkpt lat="43.36576" lon="6.15722">
        <ele>434.60000610352</ele>
        <time>2013-11-09T15:11:11Z</time>
      </trkpt>
      <trkpt lat="43.36576" lon="6.15722">
        <ele>434.60000610352</ele>
        <time>2013-11-09T15:11:19Z</time>
      </trkpt>
      <trkpt lat="43.36575" lon="6.15718">
        <ele>434.60000610352</ele>
        <time>2013-11-09T15:11:24Z</time>
      </trkpt>
      <trkpt lat="43.36573" lon="6.15714">
        <ele>434.60000610352</ele>
        <time>2013-11-09T15:11:26Z</time>
      </trkpt>
      <trkpt lat="43.3657" lon="6.15708">
        <ele>434.60000610352</ele>
        <time>2013-11-09T15:11:30Z</time>
      </trkpt>
      <trkpt lat="43.36567" lon="6.15703">
        <ele>434.60000610352</ele>
        <time>2013-11-09T15:11:32Z</time>
      </trkpt>
      <trkpt lat="43.36562" lon="6.15691">
        <ele>434.60000610352</ele>
        <time>2013-11-09T15:11:36Z</time>
      </trkpt>
      <trkpt lat="43.3656" lon="6.15684">
        <ele>434.60000610352</ele>
        <time>2013-11-09T15:11:38Z</time>
      </trkpt>
      <trkpt lat="43.3656" lon="6.1567">
        <ele>434.60000610352</ele>
        <time>2013-11-09T15:11:42Z</time>
      </trkpt>
      <trkpt lat="43.3656" lon="6.15666">
        <ele>434.60000610352</ele>
        <time>2013-11-09T15:11:43Z</time>
      </trkpt>
      <trkpt lat="43.3656" lon="6.15663">
        <ele>434.60000610352</ele>
        <time>2013-11-09T15:11:44Z</time>
      </trkpt>
      <trkpt lat="43.36561" lon="6.15661">
        <ele>434.60000610352</ele>
        <time>2013-11-09T15:11:45Z</time>
      </trkpt>
      <trkpt lat="43.3656" lon="6.15658">
        <ele>434.60000610352</ele>
        <time>2013-11-09T15:11:46Z</time>
      </trkpt>
      <trkpt lat="43.3656" lon="6.15656">
        <ele>434.60000610352</ele>
        <time>2013-11-09T15:11:47Z</time>
      </trkpt>
      <trkpt lat="43.36559" lon="6.15649">
        <ele>434.60000610352</ele>
        <time>2013-11-09T15:11:50Z</time>
      </trkpt>
      <trkpt lat="43.36558" lon="6.15642">
        <ele>434.60000610352</ele>
        <time>2013-11-09T15:11:54Z</time>
      </trkpt>
      <trkpt lat="43.36558" lon="6.1564">
        <ele>435</ele>
        <time>2013-11-09T15:11:56Z</time>
      </trkpt>
      <trkpt lat="43.36558" lon="6.1564">
        <ele>436.60000610352</ele>
        <time>2013-11-09T15:12:00Z</time>
      </trkpt>
      <trkpt lat="43.36558" lon="6.1564">
        <ele>436.60000610352</ele>
        <time>2013-11-09T15:12:06Z</time>
      </trkpt>
      <trkpt lat="43.36557" lon="6.15637">
        <ele>436.60000610352</ele>
        <time>2013-11-09T15:12:08Z</time>
      </trkpt>
      <trkpt lat="43.36554" lon="6.15624">
        <ele>436.60000610352</ele>
        <time>2013-11-09T15:12:13Z</time>
      </trkpt>
      <trkpt lat="43.36551" lon="6.15603">
        <ele>436.60000610352</ele>
        <time>2013-11-09T15:12:20Z</time>
      </trkpt>
      <trkpt lat="43.36549" lon="6.15595">
        <ele>436.60000610352</ele>
        <time>2013-11-09T15:12:22Z</time>
      </trkpt>
      <trkpt lat="43.36546" lon="6.15582">
        <ele>436.60000610352</ele>
        <time>2013-11-09T15:12:25Z</time>
      </trkpt>
      <trkpt lat="43.36545" lon="6.15576">
        <ele>436.60000610352</ele>
        <time>2013-11-09T15:12:26Z</time>
      </trkpt>
      <trkpt lat="43.36539" lon="6.15542">
        <ele>436.20001220703</ele>
        <time>2013-11-09T15:12:32Z</time>
      </trkpt>
      <trkpt lat="43.36538" lon="6.15536">
        <ele>435.79998779297</ele>
        <time>2013-11-09T15:12:33Z</time>
      </trkpt>
      <trkpt lat="43.36537" lon="6.15531">
        <ele>435.39999389648</ele>
        <time>2013-11-09T15:12:34Z</time>
      </trkpt>
      <trkpt lat="43.36536" lon="6.15525">
        <ele>435</ele>
        <time>2013-11-09T15:12:35Z</time>
      </trkpt>
      <trkpt lat="43.36535" lon="6.15521">
        <ele>434.60000610352</ele>
        <time>2013-11-09T15:12:36Z</time>
      </trkpt>
      <trkpt lat="43.36538" lon="6.15504">
        <ele>433.39999389648</ele>
        <time>2013-11-09T15:12:41Z</time>
      </trkpt>
      <trkpt lat="43.36539" lon="6.15496">
        <ele>432.39999389648</ele>
        <time>2013-11-09T15:12:44Z</time>
      </trkpt>
      <trkpt lat="43.36538" lon="6.1549">
        <ele>433</ele>
        <time>2013-11-09T15:12:46Z</time>
      </trkpt>
      <trkpt lat="43.36537" lon="6.15485">
        <ele>433.79998779297</ele>
        <time>2013-11-09T15:12:48Z</time>
      </trkpt>
      <trkpt lat="43.36535" lon="6.15477">
        <ele>434.60000610352</ele>
        <time>2013-11-09T15:12:50Z</time>
      </trkpt>
      <trkpt lat="43.36534" lon="6.15466">
        <ele>434.60000610352</ele>
        <time>2013-11-09T15:12:53Z</time>
      </trkpt>
      <trkpt lat="43.36532" lon="6.1546">
        <ele>434.20001220703</ele>
        <time>2013-11-09T15:12:55Z</time>
      </trkpt>
      <trkpt lat="43.3653" lon="6.15454">
        <ele>432.79998779297</ele>
        <time>2013-11-09T15:12:57Z</time>
      </trkpt>
      <trkpt lat="43.36523" lon="6.15445">
        <ele>432.39999389648</ele>
        <time>2013-11-09T15:13:00Z</time>
      </trkpt>
      <trkpt lat="43.3652" lon="6.15439">
        <ele>432</ele>
        <time>2013-11-09T15:13:02Z</time>
      </trkpt>
      <trkpt lat="43.36514" lon="6.1543">
        <ele>430.79998779297</ele>
        <time>2013-11-09T15:13:05Z</time>
      </trkpt>
      <trkpt lat="43.36513" lon="6.15425">
        <ele>430.20001220703</ele>
        <time>2013-11-09T15:13:06Z</time>
      </trkpt>
      <trkpt lat="43.3651" lon="6.15408">
        <ele>430.20001220703</ele>
        <time>2013-11-09T15:13:11Z</time>
      </trkpt>
      <trkpt lat="43.36506" lon="6.15384">
        <ele>430.20001220703</ele>
        <time>2013-11-09T15:13:19Z</time>
      </trkpt>
      <trkpt lat="43.36504" lon="6.15375">
        <ele>430.20001220703</ele>
        <time>2013-11-09T15:13:23Z</time>
      </trkpt>
      <trkpt lat="43.36501" lon="6.15367">
        <ele>430.20001220703</ele>
        <time>2013-11-09T15:13:26Z</time>
      </trkpt>
      <trkpt lat="43.36495" lon="6.15353">
        <ele>430.20001220703</ele>
        <time>2013-11-09T15:13:32Z</time>
      </trkpt>
      <trkpt lat="43.3649" lon="6.15343">
        <ele>430.20001220703</ele>
        <time>2013-11-09T15:13:38Z</time>
      </trkpt>
      <trkpt lat="43.36489" lon="6.1534">
        <ele>430.20001220703</ele>
        <time>2013-11-09T15:13:40Z</time>
      </trkpt>
      <trkpt lat="43.36483" lon="6.15338">
        <ele>431.20001220703</ele>
        <time>2013-11-09T15:13:44Z</time>
      </trkpt>
      <trkpt lat="43.36483" lon="6.15337">
        <ele>432</ele>
        <time>2013-11-09T15:13:45Z</time>
      </trkpt>
      <trkpt lat="43.36482" lon="6.15337">
        <ele>432.39999389648</ele>
        <time>2013-11-09T15:13:46Z</time>
      </trkpt>
      <trkpt lat="43.36482" lon="6.15336">
        <ele>432.39999389648</ele>
        <time>2013-11-09T15:13:49Z</time>
      </trkpt>
      <trkpt lat="43.36482" lon="6.15336">
        <ele>432.39999389648</ele>
        <time>2013-11-09T15:14:10Z</time>
      </trkpt>
      <trkpt lat="43.36482" lon="6.15336">
        <ele>432.39999389648</ele>
        <time>2013-11-09T15:14:21Z</time>
      </trkpt>
      <trkpt lat="43.36482" lon="6.15336">
        <ele>432.39999389648</ele>
        <time>2013-11-09T15:14:30Z</time>
      </trkpt>
      <trkpt lat="43.36482" lon="6.15336">
        <ele>432.39999389648</ele>
        <time>2013-11-09T15:14:34Z</time>
      </trkpt>
      <trkpt lat="43.36482" lon="6.15335">
        <ele>432.39999389648</ele>
        <time>2013-11-09T15:14:36Z</time>
      </trkpt>
      <trkpt lat="43.36481" lon="6.15333">
        <ele>432.39999389648</ele>
        <time>2013-11-09T15:14:38Z</time>
      </trkpt>
      <trkpt lat="43.3648" lon="6.15329">
        <ele>432.39999389648</ele>
        <time>2013-11-09T15:14:40Z</time>
      </trkpt>
      <trkpt lat="43.3648" lon="6.15321">
        <ele>432.39999389648</ele>
        <time>2013-11-09T15:14:43Z</time>
      </trkpt>
      <trkpt lat="43.36481" lon="6.15317">
        <ele>432.39999389648</ele>
        <time>2013-11-09T15:14:44Z</time>
      </trkpt>
      <trkpt lat="43.36485" lon="6.15303">
        <ele>432.39999389648</ele>
        <time>2013-11-09T15:14:48Z</time>
      </trkpt>
      <trkpt lat="43.36486" lon="6.15299">
        <ele>432</ele>
        <time>2013-11-09T15:14:49Z</time>
      </trkpt>
      <trkpt lat="43.36488" lon="6.15294">
        <ele>431.39999389648</ele>
        <time>2013-11-09T15:14:50Z</time>
      </trkpt>
      <trkpt lat="43.36489" lon="6.15289">
        <ele>431</ele>
        <time>2013-11-09T15:14:51Z</time>
      </trkpt>
      <trkpt lat="43.36494" lon="6.1528">
        <ele>430.20001220703</ele>
        <time>2013-11-09T15:14:53Z</time>
      </trkpt>
      <trkpt lat="43.36502" lon="6.15264">
        <ele>430.20001220703</ele>
        <time>2013-11-09T15:14:58Z</time>
      </trkpt>
      <trkpt lat="43.36515" lon="6.15246">
        <ele>430.20001220703</ele>
        <time>2013-11-09T15:15:04Z</time>
      </trkpt>
      <trkpt lat="43.36528" lon="6.15235">
        <ele>430.20001220703</ele>
        <time>2013-11-09T15:15:08Z</time>
      </trkpt>
      <trkpt lat="43.36532" lon="6.15232">
        <ele>429.79998779297</ele>
        <time>2013-11-09T15:15:09Z</time>
      </trkpt>
      <trkpt lat="43.36536" lon="6.15229">
        <ele>429.20001220703</ele>
        <time>2013-11-09T15:15:10Z</time>
      </trkpt>
      <trkpt lat="43.36544" lon="6.15222">
        <ele>428.20001220703</ele>
        <time>2013-11-09T15:15:12Z</time>
      </trkpt>
      <trkpt lat="43.36548" lon="6.15219">
        <ele>427.79998779297</ele>
        <time>2013-11-09T15:15:13Z</time>
      </trkpt>
      <trkpt lat="43.36552" lon="6.15215">
        <ele>427.79998779297</ele>
        <time>2013-11-09T15:15:14Z</time>
      </trkpt>
      <trkpt lat="43.36557" lon="6.15208">
        <ele>427.39999389648</ele>
        <time>2013-11-09T15:15:16Z</time>
      </trkpt>
      <trkpt lat="43.3656" lon="6.15203">
        <ele>426.79998779297</ele>
        <time>2013-11-09T15:15:17Z</time>
      </trkpt>
      <trkpt lat="43.36565" lon="6.15195">
        <ele>426</ele>
        <time>2013-11-09T15:15:19Z</time>
      </trkpt>
      <trkpt lat="43.36567" lon="6.15193">
        <ele>425.39999389648</ele>
        <time>2013-11-09T15:15:20Z</time>
      </trkpt>
      <trkpt lat="43.3657" lon="6.15192">
        <ele>425</ele>
        <time>2013-11-09T15:15:21Z</time>
      </trkpt>
      <trkpt lat="43.36573" lon="6.15194">
        <ele>424.39999389648</ele>
        <time>2013-11-09T15:15:22Z</time>
      </trkpt>
      <trkpt lat="43.36582" lon="6.15197">
        <ele>423.39999389648</ele>
        <time>2013-11-09T15:15:25Z</time>
      </trkpt>
      <trkpt lat="43.36584" lon="6.15197">
        <ele>423</ele>
        <time>2013-11-09T15:15:26Z</time>
      </trkpt>
      <trkpt lat="43.36588" lon="6.15196">
        <ele>422.60000610352</ele>
        <time>2013-11-09T15:15:27Z</time>
      </trkpt>
      <trkpt lat="43.36591" lon="6.15195">
        <ele>422</ele>
        <time>2013-11-09T15:15:28Z</time>
      </trkpt>
      <trkpt lat="43.36597" lon="6.15195">
        <ele>421.20001220703</ele>
        <time>2013-11-09T15:15:30Z</time>
      </trkpt>
      <trkpt lat="43.36601" lon="6.15194">
        <ele>421.20001220703</ele>
        <time>2013-11-09T15:15:32Z</time>
      </trkpt>
      <trkpt lat="43.36616" lon="6.15188">
        <ele>421.20001220703</ele>
        <time>2013-11-09T15:15:38Z</time>
      </trkpt>
      <trkpt lat="43.3662" lon="6.15187">
        <ele>421.20001220703</ele>
        <time>2013-11-09T15:15:40Z</time>
      </trkpt>
      <trkpt lat="43.36626" lon="6.15185">
        <ele>421.20001220703</ele>
        <time>2013-11-09T15:15:43Z</time>
      </trkpt>
      <trkpt lat="43.36636" lon="6.15184">
        <ele>421.20001220703</ele>
        <time>2013-11-09T15:15:48Z</time>
      </trkpt>
      <trkpt lat="43.36646" lon="6.15183">
        <ele>423.39999389648</ele>
        <time>2013-11-09T15:15:53Z</time>
      </trkpt>
      <trkpt lat="43.36653" lon="6.15181">
        <ele>423.39999389648</ele>
        <time>2013-11-09T15:15:57Z</time>
      </trkpt>
      <trkpt lat="43.36665" lon="6.15176">
        <ele>425.39999389648</ele>
        <time>2013-11-09T15:16:05Z</time>
      </trkpt>
      <trkpt lat="43.36666" lon="6.15177">
        <ele>425.39999389648</ele>
        <time>2013-11-09T15:16:07Z</time>
      </trkpt>
      <trkpt lat="43.36669" lon="6.15179">
        <ele>425.39999389648</ele>
        <time>2013-11-09T15:16:09Z</time>
      </trkpt>
      <trkpt lat="43.36673" lon="6.1518">
        <ele>425.39999389648</ele>
        <time>2013-11-09T15:16:12Z</time>
      </trkpt>
      <trkpt lat="43.36678" lon="6.15181">
        <ele>425.39999389648</ele>
        <time>2013-11-09T15:16:16Z</time>
      </trkpt>
      <trkpt lat="43.36689" lon="6.15181">
        <ele>425.39999389648</ele>
        <time>2013-11-09T15:16:24Z</time>
      </trkpt>
      <trkpt lat="43.36695" lon="6.15182">
        <ele>425.79998779297</ele>
        <time>2013-11-09T15:16:28Z</time>
      </trkpt>
      <trkpt lat="43.36699" lon="6.15184">
        <ele>427</ele>
        <time>2013-11-09T15:16:31Z</time>
      </trkpt>
      <trkpt lat="43.36712" lon="6.15184">
        <ele>427.39999389648</ele>
        <time>2013-11-09T15:16:39Z</time>
      </trkpt>
      <trkpt lat="43.36718" lon="6.15189">
        <ele>427.39999389648</ele>
        <time>2013-11-09T15:16:43Z</time>
      </trkpt>
      <trkpt lat="43.36721" lon="6.1519">
        <ele>428</ele>
        <time>2013-11-09T15:16:45Z</time>
      </trkpt>
      <trkpt lat="43.36727" lon="6.15195">
        <ele>429.60000610352</ele>
        <time>2013-11-09T15:16:49Z</time>
      </trkpt>
      <trkpt lat="43.3673" lon="6.15196">
        <ele>429.60000610352</ele>
        <time>2013-11-09T15:16:51Z</time>
      </trkpt>
      <trkpt lat="43.36736" lon="6.15204">
        <ele>429.60000610352</ele>
        <time>2013-11-09T15:16:57Z</time>
      </trkpt>
      <trkpt lat="43.36741" lon="6.15212">
        <ele>430.39999389648</ele>
        <time>2013-11-09T15:17:02Z</time>
      </trkpt>
      <trkpt lat="43.36743" lon="6.15217">
        <ele>431.60000610352</ele>
        <time>2013-11-09T15:17:05Z</time>
      </trkpt>
      <trkpt lat="43.36749" lon="6.15224">
        <ele>431.60000610352</ele>
        <time>2013-11-09T15:17:11Z</time>
      </trkpt>
      <trkpt lat="43.36755" lon="6.15229">
        <ele>433</ele>
        <time>2013-11-09T15:17:16Z</time>
      </trkpt>
      <trkpt lat="43.36758" lon="6.15232">
        <ele>433.79998779297</ele>
        <time>2013-11-09T15:17:18Z</time>
      </trkpt>
      <trkpt lat="43.36763" lon="6.15234">
        <ele>434.20001220703</ele>
        <time>2013-11-09T15:17:21Z</time>
      </trkpt>
      <trkpt lat="43.36765" lon="6.15234">
        <ele>434.60000610352</ele>
        <time>2013-11-09T15:17:22Z</time>
      </trkpt>
      <trkpt lat="43.36766" lon="6.15233">
        <ele>435</ele>
        <time>2013-11-09T15:17:23Z</time>
      </trkpt>
      <trkpt lat="43.36768" lon="6.15232">
        <ele>435.39999389648</ele>
        <time>2013-11-09T15:17:24Z</time>
      </trkpt>
      <trkpt lat="43.36769" lon="6.15231">
        <ele>435.79998779297</ele>
        <time>2013-11-09T15:17:25Z</time>
      </trkpt>
      <trkpt lat="43.36769" lon="6.1523">
        <ele>435.79998779297</ele>
        <time>2013-11-09T15:17:26Z</time>
      </trkpt>
      <trkpt lat="43.36769" lon="6.1523">
        <ele>435.79998779297</ele>
        <time>2013-11-09T15:17:34Z</time>
      </trkpt>
      <trkpt lat="43.36769" lon="6.1523">
        <ele>435.79998779297</ele>
        <time>2013-11-09T15:17:50Z</time>
      </trkpt>
      <trkpt lat="43.36769" lon="6.1523">
        <ele>435.79998779297</ele>
        <time>2013-11-09T15:18:18Z</time>
      </trkpt>
      <trkpt lat="43.36769" lon="6.1523">
        <ele>435.79998779297</ele>
        <time>2013-11-09T15:18:34Z</time>
      </trkpt>
      <trkpt lat="43.36769" lon="6.1523">
        <ele>435.79998779297</ele>
        <time>2013-11-09T15:18:38Z</time>
      </trkpt>
      <trkpt lat="43.36769" lon="6.1523">
        <ele>435.79998779297</ele>
        <time>2013-11-09T15:18:55Z</time>
      </trkpt>
      <trkpt lat="43.3677" lon="6.15229">
        <ele>435.79998779297</ele>
        <time>2013-11-09T15:19:20Z</time>
      </trkpt>
      <trkpt lat="43.3677" lon="6.15229">
        <ele>435.79998779297</ele>
        <time>2013-11-09T15:19:39Z</time>
      </trkpt>
      <trkpt lat="43.3677" lon="6.15229">
        <ele>435.79998779297</ele>
        <time>2013-11-09T15:19:50Z</time>
      </trkpt>
      <trkpt lat="43.36771" lon="6.15228">
        <ele>435.79998779297</ele>
        <time>2013-11-09T15:19:54Z</time>
      </trkpt>
      <trkpt lat="43.36771" lon="6.15227">
        <ele>435.79998779297</ele>
        <time>2013-11-09T15:19:55Z</time>
      </trkpt>
      <trkpt lat="43.36771" lon="6.15224">
        <ele>435.79998779297</ele>
        <time>2013-11-09T15:19:57Z</time>
      </trkpt>
      <trkpt lat="43.36771" lon="6.15219">
        <ele>435.79998779297</ele>
        <time>2013-11-09T15:19:59Z</time>
      </trkpt>
      <trkpt lat="43.36771" lon="6.15213">
        <ele>435.79998779297</ele>
        <time>2013-11-09T15:20:01Z</time>
      </trkpt>
      <trkpt lat="43.36775" lon="6.15201">
        <ele>435.79998779297</ele>
        <time>2013-11-09T15:20:05Z</time>
      </trkpt>
      <trkpt lat="43.36781" lon="6.15192">
        <ele>435.79998779297</ele>
        <time>2013-11-09T15:20:09Z</time>
      </trkpt>
      <trkpt lat="43.36786" lon="6.15189">
        <ele>435.79998779297</ele>
        <time>2013-11-09T15:20:12Z</time>
      </trkpt>
      <trkpt lat="43.36795" lon="6.15186">
        <ele>436.20001220703</ele>
        <time>2013-11-09T15:20:17Z</time>
      </trkpt>
      <trkpt lat="43.36798" lon="6.15185">
        <ele>437.60000610352</ele>
        <time>2013-11-09T15:20:19Z</time>
      </trkpt>
      <trkpt lat="43.36801" lon="6.15183">
        <ele>438.20001220703</ele>
        <time>2013-11-09T15:20:21Z</time>
      </trkpt>
      <trkpt lat="43.36806" lon="6.15181">
        <ele>438.20001220703</ele>
        <time>2013-11-09T15:20:24Z</time>
      </trkpt>
      <trkpt lat="43.3681" lon="6.1518">
        <ele>439.60000610352</ele>
        <time>2013-11-09T15:20:27Z</time>
      </trkpt>
      <trkpt lat="43.36813" lon="6.1518">
        <ele>440.39999389648</ele>
        <time>2013-11-09T15:20:29Z</time>
      </trkpt>
      <trkpt lat="43.36819" lon="6.15177">
        <ele>440.39999389648</ele>
        <time>2013-11-09T15:20:33Z</time>
      </trkpt>
      <trkpt lat="43.36823" lon="6.15177">
        <ele>440.79998779297</ele>
        <time>2013-11-09T15:20:35Z</time>
      </trkpt>
      <trkpt lat="43.36824" lon="6.15177">
        <ele>441.20001220703</ele>
        <time>2013-11-09T15:20:36Z</time>
      </trkpt>
      <trkpt lat="43.36824" lon="6.15177">
        <ele>441.60000610352</ele>
        <time>2013-11-09T15:20:37Z</time>
      </trkpt>
      <trkpt lat="43.36824" lon="6.15177">
        <ele>442.20001220703</ele>
        <time>2013-11-09T15:20:38Z</time>
      </trkpt>
      <trkpt lat="43.36824" lon="6.15177">
        <ele>442.60000610352</ele>
        <time>2013-11-09T15:20:39Z</time>
      </trkpt>
      <trkpt lat="43.36824" lon="6.15177">
        <ele>442.60000610352</ele>
        <time>2013-11-09T15:20:41Z</time>
      </trkpt>
      <trkpt lat="43.36826" lon="6.15178">
        <ele>442.60000610352</ele>
        <time>2013-11-09T15:20:46Z</time>
      </trkpt>
      <trkpt lat="43.36834" lon="6.15182">
        <ele>443.79998779297</ele>
        <time>2013-11-09T15:20:52Z</time>
      </trkpt>
      <trkpt lat="43.36836" lon="6.15183">
        <ele>444.20001220703</ele>
        <time>2013-11-09T15:20:53Z</time>
      </trkpt>
      <trkpt lat="43.36837" lon="6.15182">
        <ele>444.60000610352</ele>
        <time>2013-11-09T15:20:54Z</time>
      </trkpt>
      <trkpt lat="43.36839" lon="6.15181">
        <ele>444.60000610352</ele>
        <time>2013-11-09T15:20:55Z</time>
      </trkpt>
      <trkpt lat="43.36842" lon="6.1518">
        <ele>445.39999389648</ele>
        <time>2013-11-09T15:20:57Z</time>
      </trkpt>
      <trkpt lat="43.36843" lon="6.1518">
        <ele>446</ele>
        <time>2013-11-09T15:20:58Z</time>
      </trkpt>
      <trkpt lat="43.36845" lon="6.1518">
        <ele>446.39999389648</ele>
        <time>2013-11-09T15:20:59Z</time>
      </trkpt>
      <trkpt lat="43.36846" lon="6.1518">
        <ele>446.79998779297</ele>
        <time>2013-11-09T15:21:00Z</time>
      </trkpt>
      <trkpt lat="43.36849" lon="6.15182">
        <ele>446.79998779297</ele>
        <time>2013-11-09T15:21:04Z</time>
      </trkpt>
      <trkpt lat="43.36849" lon="6.15182">
        <ele>447.20001220703</ele>
        <time>2013-11-09T15:21:22Z</time>
      </trkpt>
      <trkpt lat="43.36849" lon="6.15182">
        <ele>448.79998779297</ele>
        <time>2013-11-09T15:21:42Z</time>
      </trkpt>
      <trkpt lat="43.36849" lon="6.15181">
        <ele>448.79998779297</ele>
        <time>2013-11-09T15:21:44Z</time>
      </trkpt>
      <trkpt lat="43.36849" lon="6.15181">
        <ele>448.79998779297</ele>
        <time>2013-11-09T15:21:58Z</time>
      </trkpt>
      <trkpt lat="43.36849" lon="6.15181">
        <ele>448.79998779297</ele>
        <time>2013-11-09T15:22:22Z</time>
      </trkpt>
      <trkpt lat="43.36849" lon="6.15181">
        <ele>448.79998779297</ele>
        <time>2013-11-09T15:22:27Z</time>
      </trkpt>
      <trkpt lat="43.36849" lon="6.15181">
        <ele>448.79998779297</ele>
        <time>2013-11-09T15:22:48Z</time>
      </trkpt>
      <trkpt lat="43.36849" lon="6.15181">
        <ele>448.79998779297</ele>
        <time>2013-11-09T15:23:22Z</time>
      </trkpt>
      <trkpt lat="43.36849" lon="6.15181">
        <ele>448.79998779297</ele>
        <time>2013-11-09T15:23:38Z</time>
      </trkpt>
      <trkpt lat="43.36852" lon="6.15184">
        <ele>448.79998779297</ele>
        <time>2013-11-09T15:23:43Z</time>
      </trkpt>
      <trkpt lat="43.36853" lon="6.15184">
        <ele>448.79998779297</ele>
        <time>2013-11-09T15:23:44Z</time>
      </trkpt>
      <trkpt lat="43.36856" lon="6.15185">
        <ele>448.79998779297</ele>
        <time>2013-11-09T15:23:47Z</time>
      </trkpt>
      <trkpt lat="43.36856" lon="6.15185">
        <ele>448.79998779297</ele>
        <time>2013-11-09T15:23:51Z</time>
      </trkpt>
      <trkpt lat="43.36857" lon="6.15185">
        <ele>448.79998779297</ele>
        <time>2013-11-09T15:24:00Z</time>
      </trkpt>
      <trkpt lat="43.36864" lon="6.15185">
        <ele>448.79998779297</ele>
        <time>2013-11-09T15:24:04Z</time>
      </trkpt>
      <trkpt lat="43.36871" lon="6.15187">
        <ele>448.79998779297</ele>
        <time>2013-11-09T15:24:07Z</time>
      </trkpt>
      <trkpt lat="43.36877" lon="6.15192">
        <ele>448.79998779297</ele>
        <time>2013-11-09T15:24:10Z</time>
      </trkpt>
      <trkpt lat="43.36881" lon="6.15195">
        <ele>448.79998779297</ele>
        <time>2013-11-09T15:24:12Z</time>
      </trkpt>
      <trkpt lat="43.36885" lon="6.15197">
        <ele>448.79998779297</ele>
        <time>2013-11-09T15:24:15Z</time>
      </trkpt>
      <trkpt lat="43.36885" lon="6.15197">
        <ele>448.79998779297</ele>
        <time>2013-11-09T15:24:16Z</time>
      </trkpt>
      <trkpt lat="43.36893" lon="6.15203">
        <ele>448.79998779297</ele>
        <time>2013-11-09T15:24:22Z</time>
      </trkpt>
      <trkpt lat="43.36903" lon="6.15212">
        <ele>448.79998779297</ele>
        <time>2013-11-09T15:24:26Z</time>
      </trkpt>
      <trkpt lat="43.36907" lon="6.15212">
        <ele>448.79998779297</ele>
        <time>2013-11-09T15:24:27Z</time>
      </trkpt>
      <trkpt lat="43.36915" lon="6.15211">
        <ele>448</ele>
        <time>2013-11-09T15:24:29Z</time>
      </trkpt>
      <trkpt lat="43.36925" lon="6.15207">
        <ele>446.60000610352</ele>
        <time>2013-11-09T15:24:32Z</time>
      </trkpt>
      <trkpt lat="43.36927" lon="6.15206">
        <ele>446</ele>
        <time>2013-11-09T15:24:33Z</time>
      </trkpt>
      <trkpt lat="43.3693" lon="6.15207">
        <ele>445.39999389648</ele>
        <time>2013-11-09T15:24:34Z</time>
      </trkpt>
      <trkpt lat="43.36943" lon="6.15207">
        <ele>443.79998779297</ele>
        <time>2013-11-09T15:24:38Z</time>
      </trkpt>
      <trkpt lat="43.36953" lon="6.15201">
        <ele>442.60000610352</ele>
        <time>2013-11-09T15:24:41Z</time>
      </trkpt>
      <trkpt lat="43.36957" lon="6.15198">
        <ele>442</ele>
        <time>2013-11-09T15:24:42Z</time>
      </trkpt>
      <trkpt lat="43.36969" lon="6.15186">
        <ele>441.60000610352</ele>
        <time>2013-11-09T15:24:45Z</time>
      </trkpt>
      <trkpt lat="43.36973" lon="6.15181">
        <ele>441.20001220703</ele>
        <time>2013-11-09T15:24:46Z</time>
      </trkpt>
      <trkpt lat="43.36975" lon="6.15176">
        <ele>440.79998779297</ele>
        <time>2013-11-09T15:24:47Z</time>
      </trkpt>
      <trkpt lat="43.36977" lon="6.15171">
        <ele>440.39999389648</ele>
        <time>2013-11-09T15:24:48Z</time>
      </trkpt>
      <trkpt lat="43.36979" lon="6.15165">
        <ele>440</ele>
        <time>2013-11-09T15:24:49Z</time>
      </trkpt>
      <trkpt lat="43.36981" lon="6.15151">
        <ele>440</ele>
        <time>2013-11-09T15:24:52Z</time>
      </trkpt>
      <trkpt lat="43.36983" lon="6.15138">
        <ele>440</ele>
        <time>2013-11-09T15:24:56Z</time>
      </trkpt>
      <trkpt lat="43.36979" lon="6.15133">
        <ele>438.79998779297</ele>
        <time>2013-11-09T15:24:59Z</time>
      </trkpt>
      <trkpt lat="43.36979" lon="6.1513">
        <ele>438.39999389648</ele>
        <time>2013-11-09T15:25:00Z</time>
      </trkpt>
      <trkpt lat="43.36979" lon="6.15118">
        <ele>438</ele>
        <time>2013-11-09T15:25:05Z</time>
      </trkpt>
      <trkpt lat="43.3698" lon="6.15116">
        <ele>438</ele>
        <time>2013-11-09T15:25:08Z</time>
      </trkpt>
      <trkpt lat="43.36981" lon="6.15114">
        <ele>438</ele>
        <time>2013-11-09T15:25:09Z</time>
      </trkpt>
      <trkpt lat="43.36985" lon="6.15111">
        <ele>438</ele>
        <time>2013-11-09T15:25:12Z</time>
      </trkpt>
      <trkpt lat="43.36988" lon="6.15105">
        <ele>438</ele>
        <time>2013-11-09T15:25:15Z</time>
      </trkpt>
      <trkpt lat="43.3699" lon="6.15102">
        <ele>437.20001220703</ele>
        <time>2013-11-09T15:25:16Z</time>
      </trkpt>
      <trkpt lat="43.3699" lon="6.15098">
        <ele>436.79998779297</ele>
        <time>2013-11-09T15:25:17Z</time>
      </trkpt>
      <trkpt lat="43.36987" lon="6.15075">
        <ele>436</ele>
        <time>2013-11-09T15:25:25Z</time>
      </trkpt>
      <trkpt lat="43.36986" lon="6.15071">
        <ele>436</ele>
        <time>2013-11-09T15:25:26Z</time>
      </trkpt>
      <trkpt lat="43.36987" lon="6.15056">
        <ele>436</ele>
        <time>2013-11-09T15:25:30Z</time>
      </trkpt>
      <trkpt lat="43.36988" lon="6.15048">
        <ele>436</ele>
        <time>2013-11-09T15:25:32Z</time>
      </trkpt>
      <trkpt lat="43.36992" lon="6.15041">
        <ele>436</ele>
        <time>2013-11-09T15:25:34Z</time>
      </trkpt>
      <trkpt lat="43.37" lon="6.15027">
        <ele>435.60000610352</ele>
        <time>2013-11-09T15:25:37Z</time>
      </trkpt>
      <trkpt lat="43.37006" lon="6.15009">
        <ele>433</ele>
        <time>2013-11-09T15:25:40Z</time>
      </trkpt>
      <trkpt lat="43.37007" lon="6.15005">
        <ele>432.20001220703</ele>
        <time>2013-11-09T15:25:41Z</time>
      </trkpt>
      <trkpt lat="43.3701" lon="6.14991">
        <ele>430</ele>
        <time>2013-11-09T15:25:44Z</time>
      </trkpt>
      <trkpt lat="43.37011" lon="6.14986">
        <ele>429.39999389648</ele>
        <time>2013-11-09T15:25:45Z</time>
      </trkpt>
      <trkpt lat="43.37012" lon="6.14983">
        <ele>428.79998779297</ele>
        <time>2013-11-09T15:25:46Z</time>
      </trkpt>
      <trkpt lat="43.37013" lon="6.14978">
        <ele>427.39999389648</ele>
        <time>2013-11-09T15:25:48Z</time>
      </trkpt>
      <trkpt lat="43.37015" lon="6.14974">
        <ele>426.79998779297</ele>
        <time>2013-11-09T15:25:49Z</time>
      </trkpt>
      <trkpt lat="43.37017" lon="6.14963">
        <ele>425.60000610352</ele>
        <time>2013-11-09T15:25:51Z</time>
      </trkpt>
      <trkpt lat="43.3702" lon="6.1495">
        <ele>424</ele>
        <time>2013-11-09T15:25:54Z</time>
      </trkpt>
      <trkpt lat="43.3702" lon="6.14941">
        <ele>422.79998779297</ele>
        <time>2013-11-09T15:25:56Z</time>
      </trkpt>
      <trkpt lat="43.3702" lon="6.14937">
        <ele>422.20001220703</ele>
        <time>2013-11-09T15:25:57Z</time>
      </trkpt>
      <trkpt lat="43.37022" lon="6.14929">
        <ele>421</ele>
        <time>2013-11-09T15:25:59Z</time>
      </trkpt>
      <trkpt lat="43.37023" lon="6.14925">
        <ele>420.60000610352</ele>
        <time>2013-11-09T15:26:00Z</time>
      </trkpt>
      <trkpt lat="43.37027" lon="6.14914">
        <ele>418.39999389648</ele>
        <time>2013-11-09T15:26:04Z</time>
      </trkpt>
      <trkpt lat="43.37027" lon="6.14912">
        <ele>417.39999389648</ele>
        <time>2013-11-09T15:26:05Z</time>
      </trkpt>
      <trkpt lat="43.37028" lon="6.14906">
        <ele>415.79998779297</ele>
        <time>2013-11-09T15:26:08Z</time>
      </trkpt>
      <trkpt lat="43.37029" lon="6.14905">
        <ele>415.39999389648</ele>
        <time>2013-11-09T15:26:09Z</time>
      </trkpt>
      <trkpt lat="43.37029" lon="6.14905">
        <ele>414</ele>
        <time>2013-11-09T15:26:23Z</time>
      </trkpt>
      <trkpt lat="43.37029" lon="6.14905">
        <ele>412.39999389648</ele>
        <time>2013-11-09T15:26:42Z</time>
      </trkpt>
      <trkpt lat="43.37029" lon="6.14903">
        <ele>412.39999389648</ele>
        <time>2013-11-09T15:26:45Z</time>
      </trkpt>
      <trkpt lat="43.37029" lon="6.14896">
        <ele>412.39999389648</ele>
        <time>2013-11-09T15:26:48Z</time>
      </trkpt>
      <trkpt lat="43.37029" lon="6.14895">
        <ele>412.39999389648</ele>
        <time>2013-11-09T15:26:50Z</time>
      </trkpt>
      <trkpt lat="43.37029" lon="6.14895">
        <ele>412</ele>
        <time>2013-11-09T15:26:52Z</time>
      </trkpt>
      <trkpt lat="43.37029" lon="6.14895">
        <ele>411.60000610352</ele>
        <time>2013-11-09T15:26:53Z</time>
      </trkpt>
      <trkpt lat="43.37029" lon="6.1489">
        <ele>410.39999389648</ele>
        <time>2013-11-09T15:26:55Z</time>
      </trkpt>
      <trkpt lat="43.3703" lon="6.14887">
        <ele>410.39999389648</ele>
        <time>2013-11-09T15:26:56Z</time>
      </trkpt>
      <trkpt lat="43.37032" lon="6.14878">
        <ele>409.79998779297</ele>
        <time>2013-11-09T15:26:59Z</time>
      </trkpt>
      <trkpt lat="43.37032" lon="6.14874">
        <ele>408.79998779297</ele>
        <time>2013-11-09T15:27:01Z</time>
      </trkpt>
      <trkpt lat="43.37032" lon="6.14871">
        <ele>408.39999389648</ele>
        <time>2013-11-09T15:27:02Z</time>
      </trkpt>
      <trkpt lat="43.37032" lon="6.14868">
        <ele>407.79998779297</ele>
        <time>2013-11-09T15:27:03Z</time>
      </trkpt>
      <trkpt lat="43.37031" lon="6.14861">
        <ele>407</ele>
        <time>2013-11-09T15:27:05Z</time>
      </trkpt>
      <trkpt lat="43.37031" lon="6.14854">
        <ele>406</ele>
        <time>2013-11-09T15:27:07Z</time>
      </trkpt>
      <trkpt lat="43.37031" lon="6.14849">
        <ele>405.60000610352</ele>
        <time>2013-11-09T15:27:08Z</time>
      </trkpt>
      <trkpt lat="43.37033" lon="6.14841">
        <ele>405</ele>
        <time>2013-11-09T15:27:10Z</time>
      </trkpt>
      <trkpt lat="43.37042" lon="6.14818">
        <ele>402.20001220703</ele>
        <time>2013-11-09T15:27:15Z</time>
      </trkpt>
      <trkpt lat="43.37044" lon="6.14811">
        <ele>401</ele>
        <time>2013-11-09T15:27:17Z</time>
      </trkpt>
      <trkpt lat="43.37044" lon="6.14808">
        <ele>400.39999389648</ele>
        <time>2013-11-09T15:27:18Z</time>
      </trkpt>
      <trkpt lat="43.37045" lon="6.14799">
        <ele>399.20001220703</ele>
        <time>2013-11-09T15:27:20Z</time>
      </trkpt>
      <trkpt lat="43.37047" lon="6.14789">
        <ele>398.39999389648</ele>
        <time>2013-11-09T15:27:22Z</time>
      </trkpt>
      <trkpt lat="43.37051" lon="6.14766">
        <ele>396.39999389648</ele>
        <time>2013-11-09T15:27:26Z</time>
      </trkpt>
      <trkpt lat="43.37053" lon="6.1476">
        <ele>396</ele>
        <time>2013-11-09T15:27:27Z</time>
      </trkpt>
      <trkpt lat="43.37054" lon="6.14749">
        <ele>395.20001220703</ele>
        <time>2013-11-09T15:27:29Z</time>
      </trkpt>
      <trkpt lat="43.37055" lon="6.14738">
        <ele>394.39999389648</ele>
        <time>2013-11-09T15:27:31Z</time>
      </trkpt>
      <trkpt lat="43.37056" lon="6.14725">
        <ele>393.60000610352</ele>
        <time>2013-11-09T15:27:33Z</time>
      </trkpt>
      <trkpt lat="43.37058" lon="6.14721">
        <ele>393.20001220703</ele>
        <time>2013-11-09T15:27:34Z</time>
      </trkpt>
      <trkpt lat="43.37062" lon="6.14711">
        <ele>392.20001220703</ele>
        <time>2013-11-09T15:27:36Z</time>
      </trkpt>
      <trkpt lat="43.37061" lon="6.14695">
        <ele>390.79998779297</ele>
        <time>2013-11-09T15:27:39Z</time>
      </trkpt>
      <trkpt lat="43.37059" lon="6.14682">
        <ele>389.79998779297</ele>
        <time>2013-11-09T15:27:41Z</time>
      </trkpt>
      <trkpt lat="43.3706" lon="6.14675">
        <ele>389.39999389648</ele>
        <time>2013-11-09T15:27:42Z</time>
      </trkpt>
      <trkpt lat="43.37059" lon="6.14661">
        <ele>387.79998779297</ele>
        <time>2013-11-09T15:27:45Z</time>
      </trkpt>
      <trkpt lat="43.37055" lon="6.14639">
        <ele>387.79998779297</ele>
        <time>2013-11-09T15:27:49Z</time>
      </trkpt>
      <trkpt lat="43.37049" lon="6.14609">
        <ele>386.39999389648</ele>
        <time>2013-11-09T15:27:54Z</time>
      </trkpt>
      <trkpt lat="43.37049" lon="6.14603">
        <ele>385.79998779297</ele>
        <time>2013-11-09T15:27:55Z</time>
      </trkpt>
      <trkpt lat="43.37049" lon="6.14596">
        <ele>385.39999389648</ele>
        <time>2013-11-09T15:27:56Z</time>
      </trkpt>
      <trkpt lat="43.37052" lon="6.14583">
        <ele>385</ele>
        <time>2013-11-09T15:27:58Z</time>
      </trkpt>
      <trkpt lat="43.37055" lon="6.14572">
        <ele>384.20001220703</ele>
        <time>2013-11-09T15:28:00Z</time>
      </trkpt>
      <trkpt lat="43.37059" lon="6.1456">
        <ele>383.39999389648</ele>
        <time>2013-11-09T15:28:02Z</time>
      </trkpt>
      <trkpt lat="43.37064" lon="6.14552">
        <ele>383.39999389648</ele>
        <time>2013-11-09T15:28:04Z</time>
      </trkpt>
      <trkpt lat="43.37067" lon="6.14531">
        <ele>382.39999389648</ele>
        <time>2013-11-09T15:28:08Z</time>
      </trkpt>
      <trkpt lat="43.37068" lon="6.14526">
        <ele>382</ele>
        <time>2013-11-09T15:28:09Z</time>
      </trkpt>
      <trkpt lat="43.37069" lon="6.14522">
        <ele>381.60000610352</ele>
        <time>2013-11-09T15:28:10Z</time>
      </trkpt>
      <trkpt lat="43.3707" lon="6.14515">
        <ele>381.20001220703</ele>
        <time>2013-11-09T15:28:11Z</time>
      </trkpt>
      <trkpt lat="43.3707" lon="6.1451">
        <ele>381.20001220703</ele>
        <time>2013-11-09T15:28:12Z</time>
      </trkpt>
      <trkpt lat="43.3707" lon="6.14506">
        <ele>381.20001220703</ele>
        <time>2013-11-09T15:28:13Z</time>
      </trkpt>
      <trkpt lat="43.37067" lon="6.145">
        <ele>380.20001220703</ele>
        <time>2013-11-09T15:28:15Z</time>
      </trkpt>
      <trkpt lat="43.37066" lon="6.14495">
        <ele>379.79998779297</ele>
        <time>2013-11-09T15:28:16Z</time>
      </trkpt>
      <trkpt lat="43.37065" lon="6.1449">
        <ele>379.39999389648</ele>
        <time>2013-11-09T15:28:17Z</time>
      </trkpt>
      <trkpt lat="43.37063" lon="6.14478">
        <ele>378.79998779297</ele>
        <time>2013-11-09T15:28:19Z</time>
      </trkpt>
      <trkpt lat="43.37063" lon="6.14472">
        <ele>378.39999389648</ele>
        <time>2013-11-09T15:28:20Z</time>
      </trkpt>
      <trkpt lat="43.37063" lon="6.14451">
        <ele>377.20001220703</ele>
        <time>2013-11-09T15:28:23Z</time>
      </trkpt>
      <trkpt lat="43.37064" lon="6.14444">
        <ele>376.79998779297</ele>
        <time>2013-11-09T15:28:24Z</time>
      </trkpt>
      <trkpt lat="43.37064" lon="6.14438">
        <ele>376.20001220703</ele>
        <time>2013-11-09T15:28:25Z</time>
      </trkpt>
      <trkpt lat="43.37065" lon="6.14432">
        <ele>375.79998779297</ele>
        <time>2013-11-09T15:28:26Z</time>
      </trkpt>
      <trkpt lat="43.37066" lon="6.14426">
        <ele>375.39999389648</ele>
        <time>2013-11-09T15:28:27Z</time>
      </trkpt>
      <trkpt lat="43.37067" lon="6.1442">
        <ele>375</ele>
        <time>2013-11-09T15:28:28Z</time>
      </trkpt>
      <trkpt lat="43.37069" lon="6.14415">
        <ele>374.39999389648</ele>
        <time>2013-11-09T15:28:29Z</time>
      </trkpt>
      <trkpt lat="43.37074" lon="6.14409">
        <ele>374.39999389648</ele>
        <time>2013-11-09T15:28:31Z</time>
      </trkpt>
      <trkpt lat="43.37081" lon="6.14403">
        <ele>374</ele>
        <time>2013-11-09T15:28:33Z</time>
      </trkpt>
      <trkpt lat="43.37088" lon="6.14401">
        <ele>373.20001220703</ele>
        <time>2013-11-09T15:28:35Z</time>
      </trkpt>
      <trkpt lat="43.37091" lon="6.144">
        <ele>372.79998779297</ele>
        <time>2013-11-09T15:28:36Z</time>
      </trkpt>
      <trkpt lat="43.37092" lon="6.14397">
        <ele>372.20001220703</ele>
        <time>2013-11-09T15:28:37Z</time>
      </trkpt>
      <trkpt lat="43.37089" lon="6.14388">
        <ele>371.79998779297</ele>
        <time>2013-11-09T15:28:39Z</time>
      </trkpt>
      <trkpt lat="43.37088" lon="6.14383">
        <ele>371.39999389648</ele>
        <time>2013-11-09T15:28:40Z</time>
      </trkpt>
      <trkpt lat="43.37088" lon="6.14377">
        <ele>371</ele>
        <time>2013-11-09T15:28:41Z</time>
      </trkpt>
      <trkpt lat="43.37088" lon="6.14372">
        <ele>370.60000610352</ele>
        <time>2013-11-09T15:28:42Z</time>
      </trkpt>
      <trkpt lat="43.37088" lon="6.14366">
        <ele>370</ele>
        <time>2013-11-09T15:28:43Z</time>
      </trkpt>
      <trkpt lat="43.37089" lon="6.14356">
        <ele>369.20001220703</ele>
        <time>2013-11-09T15:28:45Z</time>
      </trkpt>
      <trkpt lat="43.3709" lon="6.14352">
        <ele>368.79998779297</ele>
        <time>2013-11-09T15:28:46Z</time>
      </trkpt>
      <trkpt lat="43.3709" lon="6.14349">
        <ele>368.39999389648</ele>
        <time>2013-11-09T15:28:47Z</time>
      </trkpt>
      <trkpt lat="43.3709" lon="6.14347">
        <ele>368</ele>
        <time>2013-11-09T15:28:48Z</time>
      </trkpt>
      <trkpt lat="43.3709" lon="6.14346">
        <ele>368</ele>
        <time>2013-11-09T15:28:51Z</time>
      </trkpt>
      <trkpt lat="43.3709" lon="6.14346">
        <ele>366.79998779297</ele>
        <time>2013-11-09T15:29:10Z</time>
      </trkpt>
      <trkpt lat="43.3709" lon="6.14346">
        <ele>366</ele>
        <time>2013-11-09T15:29:31Z</time>
      </trkpt>
      <trkpt lat="43.3709" lon="6.14346">
        <ele>366</ele>
        <time>2013-11-09T15:29:35Z</time>
      </trkpt>
      <trkpt lat="43.37088" lon="6.1434">
        <ele>366</ele>
        <time>2013-11-09T15:29:44Z</time>
      </trkpt>
      <trkpt lat="43.37087" lon="6.14331">
        <ele>366</ele>
        <time>2013-11-09T15:29:47Z</time>
      </trkpt>
      <trkpt lat="43.37086" lon="6.14318">
        <ele>366</ele>
        <time>2013-11-09T15:29:50Z</time>
      </trkpt>
      <trkpt lat="43.37085" lon="6.14313">
        <ele>365.60000610352</ele>
        <time>2013-11-09T15:29:51Z</time>
      </trkpt>
      <trkpt lat="43.37083" lon="6.14308">
        <ele>365.20001220703</ele>
        <time>2013-11-09T15:29:52Z</time>
      </trkpt>
      <trkpt lat="43.3708" lon="6.14303">
        <ele>364.79998779297</ele>
        <time>2013-11-09T15:29:53Z</time>
      </trkpt>
      <trkpt lat="43.37078" lon="6.14297">
        <ele>364.39999389648</ele>
        <time>2013-11-09T15:29:54Z</time>
      </trkpt>
      <trkpt lat="43.37076" lon="6.14291">
        <ele>364</ele>
        <time>2013-11-09T15:29:55Z</time>
      </trkpt>
      <trkpt lat="43.37072" lon="6.14279">
        <ele>364</ele>
        <time>2013-11-09T15:29:57Z</time>
      </trkpt>
      <trkpt lat="43.3707" lon="6.14266">
        <ele>364</ele>
        <time>2013-11-09T15:29:59Z</time>
      </trkpt>
      <trkpt lat="43.37065" lon="6.14233">
        <ele>364</ele>
        <time>2013-11-09T15:30:04Z</time>
      </trkpt>
      <trkpt lat="43.37062" lon="6.1422">
        <ele>364</ele>
        <time>2013-11-09T15:30:06Z</time>
      </trkpt>
      <trkpt lat="43.37055" lon="6.14204">
        <ele>363.60000610352</ele>
        <time>2013-11-09T15:30:09Z</time>
      </trkpt>
      <trkpt lat="43.37053" lon="6.14199">
        <ele>363.20001220703</ele>
        <time>2013-11-09T15:30:10Z</time>
      </trkpt>
      <trkpt lat="43.37048" lon="6.1419">
        <ele>362</ele>
        <time>2013-11-09T15:30:12Z</time>
      </trkpt>
      <trkpt lat="43.37041" lon="6.14179">
        <ele>362</ele>
        <time>2013-11-09T15:30:15Z</time>
      </trkpt>
      <trkpt lat="43.37035" lon="6.14167">
        <ele>362</ele>
        <time>2013-11-09T15:30:17Z</time>
      </trkpt>
      <trkpt lat="43.37026" lon="6.14143">
        <ele>361.60000610352</ele>
        <time>2013-11-09T15:30:21Z</time>
      </trkpt>
      <trkpt lat="43.37024" lon="6.14137">
        <ele>361.20001220703</ele>
        <time>2013-11-09T15:30:22Z</time>
      </trkpt>
      <trkpt lat="43.3702" lon="6.14132">
        <ele>360.79998779297</ele>
        <time>2013-11-09T15:30:23Z</time>
      </trkpt>
      <trkpt lat="43.37016" lon="6.14126">
        <ele>360.39999389648</ele>
        <time>2013-11-09T15:30:24Z</time>
      </trkpt>
      <trkpt lat="43.37012" lon="6.14121">
        <ele>359.79998779297</ele>
        <time>2013-11-09T15:30:25Z</time>
      </trkpt>
      <trkpt lat="43.37008" lon="6.14116">
        <ele>359.79998779297</ele>
        <time>2013-11-09T15:30:26Z</time>
      </trkpt>
      <trkpt lat="43.37004" lon="6.14111">
        <ele>359.39999389648</ele>
        <time>2013-11-09T15:30:27Z</time>
      </trkpt>
      <trkpt lat="43.37" lon="6.14106">
        <ele>359</ele>
        <time>2013-11-09T15:30:28Z</time>
      </trkpt>
      <trkpt lat="43.36995" lon="6.14102">
        <ele>358.39999389648</ele>
        <time>2013-11-09T15:30:29Z</time>
      </trkpt>
      <trkpt lat="43.36989" lon="6.141">
        <ele>358</ele>
        <time>2013-11-09T15:30:30Z</time>
      </trkpt>
      <trkpt lat="43.36983" lon="6.14098">
        <ele>357.39999389648</ele>
        <time>2013-11-09T15:30:31Z</time>
      </trkpt>
      <trkpt lat="43.36963" lon="6.141">
        <ele>357.39999389648</ele>
        <time>2013-11-09T15:30:35Z</time>
      </trkpt>
      <trkpt lat="43.36958" lon="6.14102">
        <ele>357.39999389648</ele>
        <time>2013-11-09T15:30:36Z</time>
      </trkpt>
      <trkpt lat="43.36954" lon="6.14105">
        <ele>357.39999389648</ele>
        <time>2013-11-09T15:30:37Z</time>
      </trkpt>
      <trkpt lat="43.36943" lon="6.14115">
        <ele>357.39999389648</ele>
        <time>2013-11-09T15:30:41Z</time>
      </trkpt>
      <trkpt lat="43.36937" lon="6.14118">
        <ele>357.39999389648</ele>
        <time>2013-11-09T15:30:43Z</time>
      </trkpt>
      <trkpt lat="43.36932" lon="6.14117">
        <ele>357.79998779297</ele>
        <time>2013-11-09T15:30:45Z</time>
      </trkpt>
      <trkpt lat="43.36929" lon="6.14116">
        <ele>358.20001220703</ele>
        <time>2013-11-09T15:30:46Z</time>
      </trkpt>
      <trkpt lat="43.36924" lon="6.14113">
        <ele>359</ele>
        <time>2013-11-09T15:30:48Z</time>
      </trkpt>
      <trkpt lat="43.36921" lon="6.14111">
        <ele>359.39999389648</ele>
        <time>2013-11-09T15:30:49Z</time>
      </trkpt>
      <trkpt lat="43.36919" lon="6.14111">
        <ele>359.39999389648</ele>
        <time>2013-11-09T15:30:50Z</time>
      </trkpt>
      <trkpt lat="43.36917" lon="6.14112">
        <ele>359.39999389648</ele>
        <time>2013-11-09T15:30:51Z</time>
      </trkpt>
      <trkpt lat="43.36903" lon="6.14119">
        <ele>359.39999389648</ele>
        <time>2013-11-09T15:30:56Z</time>
      </trkpt>
      <trkpt lat="43.36891" lon="6.14119">
        <ele>359.39999389648</ele>
        <time>2013-11-09T15:31:00Z</time>
      </trkpt>
      <trkpt lat="43.3688" lon="6.14093">
        <ele>359</ele>
        <time>2013-11-09T15:31:06Z</time>
      </trkpt>
      <trkpt lat="43.36878" lon="6.14082">
        <ele>358.20001220703</ele>
        <time>2013-11-09T15:31:08Z</time>
      </trkpt>
      <trkpt lat="43.36877" lon="6.14075">
        <ele>357.79998779297</ele>
        <time>2013-11-09T15:31:09Z</time>
      </trkpt>
      <trkpt lat="43.36876" lon="6.14069">
        <ele>357.39999389648</ele>
        <time>2013-11-09T15:31:10Z</time>
      </trkpt>
      <trkpt lat="43.36873" lon="6.14055">
        <ele>357</ele>
        <time>2013-11-09T15:31:12Z</time>
      </trkpt>
      <trkpt lat="43.36871" lon="6.14048">
        <ele>356.39999389648</ele>
        <time>2013-11-09T15:31:13Z</time>
      </trkpt>
      <trkpt lat="43.36869" lon="6.1404">
        <ele>356</ele>
        <time>2013-11-09T15:31:14Z</time>
      </trkpt>
      <trkpt lat="43.36866" lon="6.14032">
        <ele>355.60000610352</ele>
        <time>2013-11-09T15:31:15Z</time>
      </trkpt>
      <trkpt lat="43.36864" lon="6.14015">
        <ele>354.39999389648</ele>
        <time>2013-11-09T15:31:17Z</time>
      </trkpt>
      <trkpt lat="43.36864" lon="6.13999">
        <ele>353.20001220703</ele>
        <time>2013-11-09T15:31:19Z</time>
      </trkpt>
      <trkpt lat="43.36863" lon="6.13992">
        <ele>352.39999389648</ele>
        <time>2013-11-09T15:31:20Z</time>
      </trkpt>
      <trkpt lat="43.36863" lon="6.13988">
        <ele>351.79998779297</ele>
        <time>2013-11-09T15:31:21Z</time>
      </trkpt>
      <trkpt lat="43.36862" lon="6.13986">
        <ele>351.20001220703</ele>
        <time>2013-11-09T15:31:22Z</time>
      </trkpt>
      <trkpt lat="43.3686" lon="6.13983">
        <ele>350</ele>
        <time>2013-11-09T15:31:24Z</time>
      </trkpt>
      <trkpt lat="43.36858" lon="6.13981">
        <ele>349.39999389648</ele>
        <time>2013-11-09T15:31:25Z</time>
      </trkpt>
      <trkpt lat="43.36856" lon="6.13979">
        <ele>348.39999389648</ele>
        <time>2013-11-09T15:31:26Z</time>
      </trkpt>
      <trkpt lat="43.36854" lon="6.13977">
        <ele>348.39999389648</ele>
        <time>2013-11-09T15:31:27Z</time>
      </trkpt>
      <trkpt lat="43.36837" lon="6.13962">
        <ele>348.39999389648</ele>
        <time>2013-11-09T15:31:34Z</time>
      </trkpt>
      <trkpt lat="43.36828" lon="6.13959">
        <ele>348.39999389648</ele>
        <time>2013-11-09T15:31:38Z</time>
      </trkpt>
      <trkpt lat="43.36825" lon="6.13968">
        <ele>348.39999389648</ele>
        <time>2013-11-09T15:31:42Z</time>
      </trkpt>
      <trkpt lat="43.36823" lon="6.13976">
        <ele>348.39999389648</ele>
        <time>2013-11-09T15:31:45Z</time>
      </trkpt>
      <trkpt lat="43.3682" lon="6.1398">
        <ele>348.39999389648</ele>
        <time>2013-11-09T15:31:47Z</time>
      </trkpt>
      <trkpt lat="43.36819" lon="6.13981">
        <ele>348.39999389648</ele>
        <time>2013-11-09T15:31:48Z</time>
      </trkpt>
      <trkpt lat="43.36799" lon="6.13991">
        <ele>349.60000610352</ele>
        <time>2013-11-09T15:31:57Z</time>
      </trkpt>
      <trkpt lat="43.36795" lon="6.13993">
        <ele>350.39999389648</ele>
        <time>2013-11-09T15:31:59Z</time>
      </trkpt>
      <trkpt lat="43.36781" lon="6.14002">
        <ele>350.39999389648</ele>
        <time>2013-11-09T15:32:05Z</time>
      </trkpt>
      <trkpt lat="43.36774" lon="6.1401">
        <ele>350.79998779297</ele>
        <time>2013-11-09T15:32:09Z</time>
      </trkpt>
      <trkpt lat="43.36772" lon="6.14012">
        <ele>351.20001220703</ele>
        <time>2013-11-09T15:32:10Z</time>
      </trkpt>
      <trkpt lat="43.36771" lon="6.14013">
        <ele>351.79998779297</ele>
        <time>2013-11-09T15:32:11Z</time>
      </trkpt>
      <trkpt lat="43.36769" lon="6.14015">
        <ele>352.20001220703</ele>
        <time>2013-11-09T15:32:12Z</time>
      </trkpt>
      <trkpt lat="43.36764" lon="6.14016">
        <ele>353.39999389648</ele>
        <time>2013-11-09T15:32:15Z</time>
      </trkpt>
      <trkpt lat="43.36762" lon="6.14017">
        <ele>353.79998779297</ele>
        <time>2013-11-09T15:32:16Z</time>
      </trkpt>
      <trkpt lat="43.3676" lon="6.14019">
        <ele>354.60000610352</ele>
        <time>2013-11-09T15:32:18Z</time>
      </trkpt>
      <trkpt lat="43.36756" lon="6.14019">
        <ele>354.60000610352</ele>
        <time>2013-11-09T15:32:21Z</time>
      </trkpt>
      <trkpt lat="43.36754" lon="6.14019">
        <ele>354.60000610352</ele>
        <time>2013-11-09T15:32:26Z</time>
      </trkpt>
      <trkpt lat="43.36754" lon="6.14019">
        <ele>354.60000610352</ele>
        <time>2013-11-09T15:32:36Z</time>
      </trkpt>
      <trkpt lat="43.36754" lon="6.14019">
        <ele>354.60000610352</ele>
        <time>2013-11-09T15:32:46Z</time>
      </trkpt>
      <trkpt lat="43.36752" lon="6.14019">
        <ele>354.60000610352</ele>
        <time>2013-11-09T15:32:48Z</time>
      </trkpt>
      <trkpt lat="43.36746" lon="6.14016">
        <ele>354.60000610352</ele>
        <time>2013-11-09T15:32:51Z</time>
      </trkpt>
      <trkpt lat="43.36732" lon="6.14006">
        <ele>354.60000610352</ele>
        <time>2013-11-09T15:32:57Z</time>
      </trkpt>
      <trkpt lat="43.36726" lon="6.14004">
        <ele>354.60000610352</ele>
        <time>2013-11-09T15:33:00Z</time>
      </trkpt>
      <trkpt lat="43.36723" lon="6.14004">
        <ele>354.60000610352</ele>
        <time>2013-11-09T15:33:02Z</time>
      </trkpt>
      <trkpt lat="43.36718" lon="6.14004">
        <ele>354.60000610352</ele>
        <time>2013-11-09T15:33:06Z</time>
      </trkpt>
      <trkpt lat="43.36717" lon="6.14005">
        <ele>354.60000610352</ele>
        <time>2013-11-09T15:33:07Z</time>
      </trkpt>
      <trkpt lat="43.3671" lon="6.14008">
        <ele>354.60000610352</ele>
        <time>2013-11-09T15:33:10Z</time>
      </trkpt>
      <trkpt lat="43.36708" lon="6.14011">
        <ele>354.60000610352</ele>
        <time>2013-11-09T15:33:11Z</time>
      </trkpt>
      <trkpt lat="43.36696" lon="6.1403">
        <ele>354.60000610352</ele>
        <time>2013-11-09T15:33:17Z</time>
      </trkpt>
      <trkpt lat="43.36681" lon="6.14042">
        <ele>354.60000610352</ele>
        <time>2013-11-09T15:33:23Z</time>
      </trkpt>
      <trkpt lat="43.36677" lon="6.14049">
        <ele>354.60000610352</ele>
        <time>2013-11-09T15:33:25Z</time>
      </trkpt>
      <trkpt lat="43.36674" lon="6.14057">
        <ele>354.60000610352</ele>
        <time>2013-11-09T15:33:27Z</time>
      </trkpt>
      <trkpt lat="43.36666" lon="6.14082">
        <ele>354.60000610352</ele>
        <time>2013-11-09T15:33:33Z</time>
      </trkpt>
      <trkpt lat="43.36665" lon="6.14096">
        <ele>354.60000610352</ele>
        <time>2013-11-09T15:33:37Z</time>
      </trkpt>
      <trkpt lat="43.36665" lon="6.14107">
        <ele>355.79998779297</ele>
        <time>2013-11-09T15:33:40Z</time>
      </trkpt>
      <trkpt lat="43.36665" lon="6.14111">
        <ele>356.20001220703</ele>
        <time>2013-11-09T15:33:41Z</time>
      </trkpt>
      <trkpt lat="43.36665" lon="6.14122">
        <ele>356.60000610352</ele>
        <time>2013-11-09T15:33:44Z</time>
      </trkpt>
      <trkpt lat="43.36664" lon="6.14144">
        <ele>356.60000610352</ele>
        <time>2013-11-09T15:33:50Z</time>
      </trkpt>
      <trkpt lat="43.36665" lon="6.14158">
        <ele>358</ele>
        <time>2013-11-09T15:33:54Z</time>
      </trkpt>
      <trkpt lat="43.36668" lon="6.14172">
        <ele>358.79998779297</ele>
        <time>2013-11-09T15:34:01Z</time>
      </trkpt>
      <trkpt lat="43.3667" lon="6.14177">
        <ele>359.60000610352</ele>
        <time>2013-11-09T15:34:03Z</time>
      </trkpt>
      <trkpt lat="43.36672" lon="6.14184">
        <ele>360.79998779297</ele>
        <time>2013-11-09T15:34:06Z</time>
      </trkpt>
      <trkpt lat="43.36673" lon="6.14189">
        <ele>360.79998779297</ele>
        <time>2013-11-09T15:34:08Z</time>
      </trkpt>
      <trkpt lat="43.36679" lon="6.14228">
        <ele>360.79998779297</ele>
        <time>2013-11-09T15:34:22Z</time>
      </trkpt>
      <trkpt lat="43.36679" lon="6.1425">
        <ele>361.60000610352</ele>
        <time>2013-11-09T15:34:29Z</time>
      </trkpt>
      <trkpt lat="43.36679" lon="6.14259">
        <ele>362.79998779297</ele>
        <time>2013-11-09T15:34:32Z</time>
      </trkpt>
      <trkpt lat="43.36678" lon="6.14286">
        <ele>362.79998779297</ele>
        <time>2013-11-09T15:34:42Z</time>
      </trkpt>
      <trkpt lat="43.36678" lon="6.14291">
        <ele>363.60000610352</ele>
        <time>2013-11-09T15:34:44Z</time>
      </trkpt>
      <trkpt lat="43.36677" lon="6.14297">
        <ele>364.79998779297</ele>
        <time>2013-11-09T15:34:46Z</time>
      </trkpt>
      <trkpt lat="43.36674" lon="6.14318">
        <ele>364.79998779297</ele>
        <time>2013-11-09T15:34:54Z</time>
      </trkpt>
      <trkpt lat="43.3667" lon="6.14331">
        <ele>364.79998779297</ele>
        <time>2013-11-09T15:34:59Z</time>
      </trkpt>
      <trkpt lat="43.36667" lon="6.14339">
        <ele>364.79998779297</ele>
        <time>2013-11-09T15:35:03Z</time>
      </trkpt>
      <trkpt lat="43.36663" lon="6.14345">
        <ele>364.79998779297</ele>
        <time>2013-11-09T15:35:06Z</time>
      </trkpt>
      <trkpt lat="43.36658" lon="6.14356">
        <ele>364.79998779297</ele>
        <time>2013-11-09T15:35:11Z</time>
      </trkpt>
      <trkpt lat="43.36653" lon="6.14366">
        <ele>367</ele>
        <time>2013-11-09T15:35:17Z</time>
      </trkpt>
      <trkpt lat="43.36647" lon="6.14375">
        <ele>367</ele>
        <time>2013-11-09T15:35:22Z</time>
      </trkpt>
      <trkpt lat="43.36629" lon="6.14394">
        <ele>368.20001220703</ele>
        <time>2013-11-09T15:35:35Z</time>
      </trkpt>
      <trkpt lat="43.36618" lon="6.14409">
        <ele>369</ele>
        <time>2013-11-09T15:35:44Z</time>
      </trkpt>
      <trkpt lat="43.36606" lon="6.14429">
        <ele>370.39999389648</ele>
        <time>2013-11-09T15:35:54Z</time>
      </trkpt>
      <trkpt lat="43.36605" lon="6.14431">
        <ele>370.79998779297</ele>
        <time>2013-11-09T15:35:55Z</time>
      </trkpt>
      <trkpt lat="43.36601" lon="6.14444">
        <ele>371.20001220703</ele>
        <time>2013-11-09T15:36:00Z</time>
      </trkpt>
      <trkpt lat="43.36598" lon="6.14455">
        <ele>371.20001220703</ele>
        <time>2013-11-09T15:36:05Z</time>
      </trkpt>
      <trkpt lat="43.36595" lon="6.14457">
        <ele>371.20001220703</ele>
        <time>2013-11-09T15:36:07Z</time>
      </trkpt>
      <trkpt lat="43.36589" lon="6.14457">
        <ele>371.20001220703</ele>
        <time>2013-11-09T15:36:10Z</time>
      </trkpt>
      <trkpt lat="43.36585" lon="6.1445">
        <ele>371.20001220703</ele>
        <time>2013-11-09T15:36:13Z</time>
      </trkpt>
      <trkpt lat="43.36584" lon="6.14446">
        <ele>371.20001220703</ele>
        <time>2013-11-09T15:36:15Z</time>
      </trkpt>
      <trkpt lat="43.36583" lon="6.1444">
        <ele>371.20001220703</ele>
        <time>2013-11-09T15:36:18Z</time>
      </trkpt>
      <trkpt lat="43.36583" lon="6.14434">
        <ele>371.60000610352</ele>
        <time>2013-11-09T15:36:21Z</time>
      </trkpt>
      <trkpt lat="43.36582" lon="6.1443">
        <ele>372.39999389648</ele>
        <time>2013-11-09T15:36:23Z</time>
      </trkpt>
      <trkpt lat="43.36581" lon="6.14417">
        <ele>373.20001220703</ele>
        <time>2013-11-09T15:36:30Z</time>
      </trkpt>
      <trkpt lat="43.3658" lon="6.14408">
        <ele>373.20001220703</ele>
        <time>2013-11-09T15:36:34Z</time>
      </trkpt>
      <trkpt lat="43.36578" lon="6.14404">
        <ele>373.60000610352</ele>
        <time>2013-11-09T15:36:36Z</time>
      </trkpt>
      <trkpt lat="43.36575" lon="6.14399">
        <ele>374.79998779297</ele>
        <time>2013-11-09T15:36:39Z</time>
      </trkpt>
      <trkpt lat="43.36574" lon="6.14398">
        <ele>375.20001220703</ele>
        <time>2013-11-09T15:36:40Z</time>
      </trkpt>
      <trkpt lat="43.36574" lon="6.14396">
        <ele>375.20001220703</ele>
        <time>2013-11-09T15:36:41Z</time>
      </trkpt>
      <trkpt lat="43.36572" lon="6.14395">
        <ele>375.20001220703</ele>
        <time>2013-11-09T15:36:48Z</time>
      </trkpt>
      <trkpt lat="43.36572" lon="6.14395">
        <ele>375.20001220703</ele>
        <time>2013-11-09T15:36:49Z</time>
      </trkpt>
      <trkpt lat="43.36572" lon="6.14395">
        <ele>375.60000610352</ele>
        <time>2013-11-09T15:36:51Z</time>
      </trkpt>
      <trkpt lat="43.36565" lon="6.14393">
        <ele>377.20001220703</ele>
        <time>2013-11-09T15:36:55Z</time>
      </trkpt>
      <trkpt lat="43.36558" lon="6.14389">
        <ele>377.79998779297</ele>
        <time>2013-11-09T15:37:00Z</time>
      </trkpt>
      <trkpt lat="43.36556" lon="6.14389">
        <ele>378.20001220703</ele>
        <time>2013-11-09T15:37:01Z</time>
      </trkpt>
      <trkpt lat="43.36553" lon="6.14388">
        <ele>379</ele>
        <time>2013-11-09T15:37:03Z</time>
      </trkpt>
      <trkpt lat="43.36544" lon="6.14384">
        <ele>380.39999389648</ele>
        <time>2013-11-09T15:37:10Z</time>
      </trkpt>
      <trkpt lat="43.3654" lon="6.14383">
        <ele>381.60000610352</ele>
        <time>2013-11-09T15:37:13Z</time>
      </trkpt>
      <trkpt lat="43.36535" lon="6.1438">
        <ele>381.60000610352</ele>
        <time>2013-11-09T15:37:18Z</time>
      </trkpt>
      <trkpt lat="43.36534" lon="6.1438">
        <ele>382</ele>
        <time>2013-11-09T15:37:20Z</time>
      </trkpt>
      <trkpt lat="43.36534" lon="6.1438">
        <ele>383.79998779297</ele>
        <time>2013-11-09T15:37:33Z</time>
      </trkpt>
      <trkpt lat="43.36534" lon="6.1438">
        <ele>383.79998779297</ele>
        <time>2013-11-09T15:37:59Z</time>
      </trkpt>
      <trkpt lat="43.36533" lon="6.14379">
        <ele>383.79998779297</ele>
        <time>2013-11-09T15:38:03Z</time>
      </trkpt>
      <trkpt lat="43.36532" lon="6.14378">
        <ele>383.79998779297</ele>
        <time>2013-11-09T15:38:06Z</time>
      </trkpt>
      <trkpt lat="43.36531" lon="6.14377">
        <ele>383.79998779297</ele>
        <time>2013-11-09T15:38:09Z</time>
      </trkpt>
      <trkpt lat="43.36531" lon="6.14377">
        <ele>383.79998779297</ele>
        <time>2013-11-09T15:38:30Z</time>
      </trkpt>
      <trkpt lat="43.36531" lon="6.14377">
        <ele>383.79998779297</ele>
        <time>2013-11-09T15:39:06Z</time>
      </trkpt>
      <trkpt lat="43.36531" lon="6.14377">
        <ele>383.79998779297</ele>
        <time>2013-11-09T15:39:16Z</time>
      </trkpt>
      <trkpt lat="43.36531" lon="6.14376">
        <ele>383.79998779297</ele>
        <time>2013-11-09T15:39:28Z</time>
      </trkpt>
      <trkpt lat="43.36531" lon="6.14376">
        <ele>383.79998779297</ele>
        <time>2013-11-09T15:39:34Z</time>
      </trkpt>
      <trkpt lat="43.36531" lon="6.14376">
        <ele>383.79998779297</ele>
        <time>2013-11-09T15:39:44Z</time>
      </trkpt>
      <trkpt lat="43.36528" lon="6.14369">
        <ele>383.79998779297</ele>
        <time>2013-11-09T15:39:48Z</time>
      </trkpt>
      <trkpt lat="43.36527" lon="6.14366">
        <ele>383.79998779297</ele>
        <time>2013-11-09T15:39:49Z</time>
      </trkpt>
      <trkpt lat="43.36522" lon="6.14348">
        <ele>383.79998779297</ele>
        <time>2013-11-09T15:39:54Z</time>
      </trkpt>
      <trkpt lat="43.36522" lon="6.14344">
        <ele>383.79998779297</ele>
        <time>2013-11-09T15:39:55Z</time>
      </trkpt>
      <trkpt lat="43.36525" lon="6.14323">
        <ele>383.79998779297</ele>
        <time>2013-11-09T15:40:00Z</time>
      </trkpt>
      <trkpt lat="43.36529" lon="6.14315">
        <ele>383.79998779297</ele>
        <time>2013-11-09T15:40:02Z</time>
      </trkpt>
      <trkpt lat="43.36536" lon="6.14302">
        <ele>383.79998779297</ele>
        <time>2013-11-09T15:40:05Z</time>
      </trkpt>
      <trkpt lat="43.36538" lon="6.14297">
        <ele>383.79998779297</ele>
        <time>2013-11-09T15:40:06Z</time>
      </trkpt>
      <trkpt lat="43.36543" lon="6.14278">
        <ele>383.79998779297</ele>
        <time>2013-11-09T15:40:09Z</time>
      </trkpt>
      <trkpt lat="43.36545" lon="6.14271">
        <ele>383.39999389648</ele>
        <time>2013-11-09T15:40:10Z</time>
      </trkpt>
      <trkpt lat="43.36546" lon="6.14264">
        <ele>382.79998779297</ele>
        <time>2013-11-09T15:40:11Z</time>
      </trkpt>
      <trkpt lat="43.36547" lon="6.14257">
        <ele>382.39999389648</ele>
        <time>2013-11-09T15:40:12Z</time>
      </trkpt>
      <trkpt lat="43.3655" lon="6.14241">
        <ele>381.60000610352</ele>
        <time>2013-11-09T15:40:14Z</time>
      </trkpt>
      <trkpt lat="43.36551" lon="6.14219">
        <ele>381.20001220703</ele>
        <time>2013-11-09T15:40:17Z</time>
      </trkpt>
      <trkpt lat="43.36551" lon="6.14212">
        <ele>380.79998779297</ele>
        <time>2013-11-09T15:40:18Z</time>
      </trkpt>
      <trkpt lat="43.36552" lon="6.14197">
        <ele>379.79998779297</ele>
        <time>2013-11-09T15:40:20Z</time>
      </trkpt>
      <trkpt lat="43.3655" lon="6.14173">
        <ele>379.39999389648</ele>
        <time>2013-11-09T15:40:23Z</time>
      </trkpt>
      <trkpt lat="43.36548" lon="6.14157">
        <ele>379</ele>
        <time>2013-11-09T15:40:25Z</time>
      </trkpt>
      <trkpt lat="43.36547" lon="6.14149">
        <ele>378.60000610352</ele>
        <time>2013-11-09T15:40:26Z</time>
      </trkpt>
      <trkpt lat="43.36544" lon="6.14126">
        <ele>377.39999389648</ele>
        <time>2013-11-09T15:40:29Z</time>
      </trkpt>
      <trkpt lat="43.3654" lon="6.14109">
        <ele>377</ele>
        <time>2013-11-09T15:40:31Z</time>
      </trkpt>
      <trkpt lat="43.36538" lon="6.14101">
        <ele>376.60000610352</ele>
        <time>2013-11-09T15:40:32Z</time>
      </trkpt>
      <trkpt lat="43.36533" lon="6.14084">
        <ele>375.79998779297</ele>
        <time>2013-11-09T15:40:34Z</time>
      </trkpt>
      <trkpt lat="43.36531" lon="6.14075">
        <ele>375.39999389648</ele>
        <time>2013-11-09T15:40:35Z</time>
      </trkpt>
      <trkpt lat="43.36526" lon="6.14055">
        <ele>374.79998779297</ele>
        <time>2013-11-09T15:40:37Z</time>
      </trkpt>
      <trkpt lat="43.36525" lon="6.14045">
        <ele>374.39999389648</ele>
        <time>2013-11-09T15:40:38Z</time>
      </trkpt>
      <trkpt lat="43.36526" lon="6.14035">
        <ele>374</ele>
        <time>2013-11-09T15:40:39Z</time>
      </trkpt>
      <trkpt lat="43.36526" lon="6.14026">
        <ele>373.60000610352</ele>
        <time>2013-11-09T15:40:40Z</time>
      </trkpt>
      <trkpt lat="43.36527" lon="6.14017">
        <ele>373.20001220703</ele>
        <time>2013-11-09T15:40:41Z</time>
      </trkpt>
      <trkpt lat="43.3653" lon="6.13984">
        <ele>373.20001220703</ele>
        <time>2013-11-09T15:40:45Z</time>
      </trkpt>
      <trkpt lat="43.36528" lon="6.13975">
        <ele>373.20001220703</ele>
        <time>2013-11-09T15:40:46Z</time>
      </trkpt>
      <trkpt lat="43.36525" lon="6.13944">
        <ele>373.20001220703</ele>
        <time>2013-11-09T15:40:50Z</time>
      </trkpt>
      <trkpt lat="43.36525" lon="6.13936">
        <ele>373.20001220703</ele>
        <time>2013-11-09T15:40:51Z</time>
      </trkpt>
      <trkpt lat="43.36525" lon="6.13929">
        <ele>372.79998779297</ele>
        <time>2013-11-09T15:40:52Z</time>
      </trkpt>
      <trkpt lat="43.36526" lon="6.1392">
        <ele>372.20001220703</ele>
        <time>2013-11-09T15:40:53Z</time>
      </trkpt>
      <trkpt lat="43.36527" lon="6.13903">
        <ele>371.39999389648</ele>
        <time>2013-11-09T15:40:55Z</time>
      </trkpt>
      <trkpt lat="43.36531" lon="6.13877">
        <ele>370.60000610352</ele>
        <time>2013-11-09T15:40:58Z</time>
      </trkpt>
      <trkpt lat="43.36534" lon="6.1383">
        <ele>368.39999389648</ele>
        <time>2013-11-09T15:41:03Z</time>
      </trkpt>
      <trkpt lat="43.36539" lon="6.13802">
        <ele>367</ele>
        <time>2013-11-09T15:41:06Z</time>
      </trkpt>
      <trkpt lat="43.36545" lon="6.13773">
        <ele>366.60000610352</ele>
        <time>2013-11-09T15:41:09Z</time>
      </trkpt>
      <trkpt lat="43.36546" lon="6.13762">
        <ele>366.60000610352</ele>
        <time>2013-11-09T15:41:10Z</time>
      </trkpt>
      <trkpt lat="43.36547" lon="6.13752">
        <ele>366.20001220703</ele>
        <time>2013-11-09T15:41:11Z</time>
      </trkpt>
      <trkpt lat="43.36549" lon="6.13742">
        <ele>365.60000610352</ele>
        <time>2013-11-09T15:41:12Z</time>
      </trkpt>
      <trkpt lat="43.36557" lon="6.13689">
        <ele>363</ele>
        <time>2013-11-09T15:41:17Z</time>
      </trkpt>
      <trkpt lat="43.36561" lon="6.13669">
        <ele>361.79998779297</ele>
        <time>2013-11-09T15:41:19Z</time>
      </trkpt>
      <trkpt lat="43.36563" lon="6.1366">
        <ele>361</ele>
        <time>2013-11-09T15:41:20Z</time>
      </trkpt>
      <trkpt lat="43.36565" lon="6.13641">
        <ele>360</ele>
        <time>2013-11-09T15:41:22Z</time>
      </trkpt>
      <trkpt lat="43.36567" lon="6.13631">
        <ele>359.39999389648</ele>
        <time>2013-11-09T15:41:23Z</time>
      </trkpt>
      <trkpt lat="43.36568" lon="6.13621">
        <ele>358.79998779297</ele>
        <time>2013-11-09T15:41:24Z</time>
      </trkpt>
      <trkpt lat="43.36572" lon="6.13611">
        <ele>358.20001220703</ele>
        <time>2013-11-09T15:41:25Z</time>
      </trkpt>
      <trkpt lat="43.36575" lon="6.13601">
        <ele>357.60000610352</ele>
        <time>2013-11-09T15:41:26Z</time>
      </trkpt>
      <trkpt lat="43.36578" lon="6.13592">
        <ele>357</ele>
        <time>2013-11-09T15:41:27Z</time>
      </trkpt>
      <trkpt lat="43.3658" lon="6.13584">
        <ele>356.60000610352</ele>
        <time>2013-11-09T15:41:28Z</time>
      </trkpt>
      <trkpt lat="43.36584" lon="6.13566">
        <ele>355.79998779297</ele>
        <time>2013-11-09T15:41:30Z</time>
      </trkpt>
      <trkpt lat="43.36586" lon="6.13558">
        <ele>355.39999389648</ele>
        <time>2013-11-09T15:41:31Z</time>
      </trkpt>
      <trkpt lat="43.36589" lon="6.13545">
        <ele>355</ele>
        <time>2013-11-09T15:41:33Z</time>
      </trkpt>
      <trkpt lat="43.3659" lon="6.13544">
        <ele>354.39999389648</ele>
        <time>2013-11-09T15:41:34Z</time>
      </trkpt>
      <trkpt lat="43.3659" lon="6.13539">
        <ele>353.39999389648</ele>
        <time>2013-11-09T15:41:36Z</time>
      </trkpt>
      <trkpt lat="43.3659" lon="6.13536">
        <ele>353</ele>
        <time>2013-11-09T15:41:37Z</time>
      </trkpt>
      <trkpt lat="43.36589" lon="6.1353">
        <ele>353</ele>
        <time>2013-11-09T15:41:39Z</time>
      </trkpt>
      <trkpt lat="43.36589" lon="6.13517">
        <ele>352.60000610352</ele>
        <time>2013-11-09T15:41:42Z</time>
      </trkpt>
      <trkpt lat="43.36588" lon="6.13504">
        <ele>350.79998779297</ele>
        <time>2013-11-09T15:41:46Z</time>
      </trkpt>
      <trkpt lat="43.36588" lon="6.13503">
        <ele>350.79998779297</ele>
        <time>2013-11-09T15:41:47Z</time>
      </trkpt>
      <trkpt lat="43.36588" lon="6.13497">
        <ele>350.79998779297</ele>
        <time>2013-11-09T15:41:50Z</time>
      </trkpt>
      <trkpt lat="43.36587" lon="6.13491">
        <ele>350.79998779297</ele>
        <time>2013-11-09T15:41:53Z</time>
      </trkpt>
      <trkpt lat="43.36587" lon="6.1349">
        <ele>350.39999389648</ele>
        <time>2013-11-09T15:41:54Z</time>
      </trkpt>
      <trkpt lat="43.36587" lon="6.13488">
        <ele>350</ele>
        <time>2013-11-09T15:41:55Z</time>
      </trkpt>
      <trkpt lat="43.36586" lon="6.13484">
        <ele>349.20001220703</ele>
        <time>2013-11-09T15:41:57Z</time>
      </trkpt>
      <trkpt lat="43.36587" lon="6.13481">
        <ele>348.79998779297</ele>
        <time>2013-11-09T15:41:59Z</time>
      </trkpt>
      <trkpt lat="43.36585" lon="6.13467">
        <ele>348.79998779297</ele>
        <time>2013-11-09T15:42:04Z</time>
      </trkpt>
      <trkpt lat="43.36584" lon="6.13465">
        <ele>348.39999389648</ele>
        <time>2013-11-09T15:42:05Z</time>
      </trkpt>
      <trkpt lat="43.36585" lon="6.13463">
        <ele>348</ele>
        <time>2013-11-09T15:42:06Z</time>
      </trkpt>
      <trkpt lat="43.36585" lon="6.13462">
        <ele>347.60000610352</ele>
        <time>2013-11-09T15:42:07Z</time>
      </trkpt>
      <trkpt lat="43.36585" lon="6.1346">
        <ele>347</ele>
        <time>2013-11-09T15:42:08Z</time>
      </trkpt>
      <trkpt lat="43.36585" lon="6.13459">
        <ele>346.60000610352</ele>
        <time>2013-11-09T15:42:09Z</time>
      </trkpt>
      <trkpt lat="43.36586" lon="6.13458">
        <ele>346.60000610352</ele>
        <time>2013-11-09T15:42:14Z</time>
      </trkpt>
      <trkpt lat="43.36585" lon="6.13456">
        <ele>346.60000610352</ele>
        <time>2013-11-09T15:42:18Z</time>
      </trkpt>
      <trkpt lat="43.36585" lon="6.13456">
        <ele>346.60000610352</ele>
        <time>2013-11-09T15:42:21Z</time>
      </trkpt>
      <trkpt lat="43.36586" lon="6.13455">
        <ele>346.60000610352</ele>
        <time>2013-11-09T15:42:27Z</time>
      </trkpt>
      <trkpt lat="43.36586" lon="6.13455">
        <ele>346.60000610352</ele>
        <time>2013-11-09T15:42:33Z</time>
      </trkpt>
      <trkpt lat="43.36584" lon="6.13453">
        <ele>346.60000610352</ele>
        <time>2013-11-09T15:42:42Z</time>
      </trkpt>
      <trkpt lat="43.36581" lon="6.13448">
        <ele>345.39999389648</ele>
        <time>2013-11-09T15:42:46Z</time>
      </trkpt>
      <trkpt lat="43.36581" lon="6.13448">
        <ele>344.60000610352</ele>
        <time>2013-11-09T15:42:49Z</time>
      </trkpt>
      <trkpt lat="43.3658" lon="6.13444">
        <ele>344.60000610352</ele>
        <time>2013-11-09T15:43:00Z</time>
      </trkpt>
      <trkpt lat="43.36578" lon="6.13439">
        <ele>344.60000610352</ele>
        <time>2013-11-09T15:43:03Z</time>
      </trkpt>
      <trkpt lat="43.36576" lon="6.13433">
        <ele>344.60000610352</ele>
        <time>2013-11-09T15:43:05Z</time>
      </trkpt>
      <trkpt lat="43.36573" lon="6.13422">
        <ele>344.20001220703</ele>
        <time>2013-11-09T15:43:08Z</time>
      </trkpt>
      <trkpt lat="43.36572" lon="6.13418">
        <ele>343.79998779297</ele>
        <time>2013-11-09T15:43:09Z</time>
      </trkpt>
      <trkpt lat="43.36569" lon="6.13414">
        <ele>343.39999389648</ele>
        <time>2013-11-09T15:43:10Z</time>
      </trkpt>
      <trkpt lat="43.36567" lon="6.1341">
        <ele>343</ele>
        <time>2013-11-09T15:43:11Z</time>
      </trkpt>
      <trkpt lat="43.36564" lon="6.13405">
        <ele>342.39999389648</ele>
        <time>2013-11-09T15:43:12Z</time>
      </trkpt>
      <trkpt lat="43.36562" lon="6.13398">
        <ele>342.39999389648</ele>
        <time>2013-11-09T15:43:13Z</time>
      </trkpt>
      <trkpt lat="43.36559" lon="6.13385">
        <ele>342.39999389648</ele>
        <time>2013-11-09T15:43:15Z</time>
      </trkpt>
      <trkpt lat="43.36559" lon="6.13372">
        <ele>342</ele>
        <time>2013-11-09T15:43:17Z</time>
      </trkpt>
      <trkpt lat="43.36559" lon="6.13365">
        <ele>341.60000610352</ele>
        <time>2013-11-09T15:43:18Z</time>
      </trkpt>
      <trkpt lat="43.36557" lon="6.13359">
        <ele>341.20001220703</ele>
        <time>2013-11-09T15:43:19Z</time>
      </trkpt>
      <trkpt lat="43.36556" lon="6.13353">
        <ele>340.79998779297</ele>
        <time>2013-11-09T15:43:20Z</time>
      </trkpt>
      <trkpt lat="43.36555" lon="6.13348">
        <ele>340.39999389648</ele>
        <time>2013-11-09T15:43:21Z</time>
      </trkpt>
      <trkpt lat="43.36557" lon="6.13336">
        <ele>340.39999389648</ele>
        <time>2013-11-09T15:43:23Z</time>
      </trkpt>
      <trkpt lat="43.36562" lon="6.13313">
        <ele>340.39999389648</ele>
        <time>2013-11-09T15:43:27Z</time>
      </trkpt>
      <trkpt lat="43.36561" lon="6.13303">
        <ele>340.39999389648</ele>
        <time>2013-11-09T15:43:29Z</time>
      </trkpt>
      <trkpt lat="43.36562" lon="6.13296">
        <ele>339.39999389648</ele>
        <time>2013-11-09T15:43:31Z</time>
      </trkpt>
      <trkpt lat="43.3656" lon="6.1329">
        <ele>338.60000610352</ele>
        <time>2013-11-09T15:43:33Z</time>
      </trkpt>
      <trkpt lat="43.36559" lon="6.13286">
        <ele>338.20001220703</ele>
        <time>2013-11-09T15:43:34Z</time>
      </trkpt>
      <trkpt lat="43.36559" lon="6.13281">
        <ele>338.20001220703</ele>
        <time>2013-11-09T15:43:35Z</time>
      </trkpt>
      <trkpt lat="43.3656" lon="6.1327">
        <ele>338.20001220703</ele>
        <time>2013-11-09T15:43:37Z</time>
      </trkpt>
      <trkpt lat="43.36561" lon="6.1326">
        <ele>338.20001220703</ele>
        <time>2013-11-09T15:43:39Z</time>
      </trkpt>
      <trkpt lat="43.36563" lon="6.13244">
        <ele>338.20001220703</ele>
        <time>2013-11-09T15:43:42Z</time>
      </trkpt>
      <trkpt lat="43.36565" lon="6.13231">
        <ele>337.79998779297</ele>
        <time>2013-11-09T15:43:44Z</time>
      </trkpt>
      <trkpt lat="43.36565" lon="6.13225">
        <ele>337.39999389648</ele>
        <time>2013-11-09T15:43:45Z</time>
      </trkpt>
      <trkpt lat="43.36565" lon="6.13219">
        <ele>336.79998779297</ele>
        <time>2013-11-09T15:43:46Z</time>
      </trkpt>
      <trkpt lat="43.36565" lon="6.13212">
        <ele>336.39999389648</ele>
        <time>2013-11-09T15:43:47Z</time>
      </trkpt>
      <trkpt lat="43.36565" lon="6.13207">
        <ele>336</ele>
        <time>2013-11-09T15:43:48Z</time>
      </trkpt>
      <trkpt lat="43.36564" lon="6.13193">
        <ele>335.60000610352</ele>
        <time>2013-11-09T15:43:51Z</time>
      </trkpt>
      <trkpt lat="43.36564" lon="6.13188">
        <ele>335.20001220703</ele>
        <time>2013-11-09T15:43:52Z</time>
      </trkpt>
      <trkpt lat="43.36563" lon="6.13181">
        <ele>334.39999389648</ele>
        <time>2013-11-09T15:43:54Z</time>
      </trkpt>
      <trkpt lat="43.36563" lon="6.13178">
        <ele>334</ele>
        <time>2013-11-09T15:43:55Z</time>
      </trkpt>
      <trkpt lat="43.36562" lon="6.1316">
        <ele>334</ele>
        <time>2013-11-09T15:44:00Z</time>
      </trkpt>
      <trkpt lat="43.3656" lon="6.1313">
        <ele>332</ele>
        <time>2013-11-09T15:44:05Z</time>
      </trkpt>
      <trkpt lat="43.36559" lon="6.13117">
        <ele>332</ele>
        <time>2013-11-09T15:44:07Z</time>
      </trkpt>
      <trkpt lat="43.3656" lon="6.13108">
        <ele>332</ele>
        <time>2013-11-09T15:44:09Z</time>
      </trkpt>
      <trkpt lat="43.36562" lon="6.13089">
        <ele>332</ele>
        <time>2013-11-09T15:44:14Z</time>
      </trkpt>
      <trkpt lat="43.36561" lon="6.13086">
        <ele>331.60000610352</ele>
        <time>2013-11-09T15:44:15Z</time>
      </trkpt>
      <trkpt lat="43.36561" lon="6.13085">
        <ele>331.20001220703</ele>
        <time>2013-11-09T15:44:16Z</time>
      </trkpt>
      <trkpt lat="43.36561" lon="6.13084">
        <ele>330.79998779297</ele>
        <time>2013-11-09T15:44:17Z</time>
      </trkpt>
      <trkpt lat="43.36561" lon="6.13084">
        <ele>329.79998779297</ele>
        <time>2013-11-09T15:44:27Z</time>
      </trkpt>
      <trkpt lat="43.36561" lon="6.13084">
        <ele>329.79998779297</ele>
        <time>2013-11-09T15:44:28Z</time>
      </trkpt>
      <trkpt lat="43.36561" lon="6.13084">
        <ele>329.79998779297</ele>
        <time>2013-11-09T15:44:32Z</time>
      </trkpt>
      <trkpt lat="43.36561" lon="6.13084">
        <ele>329.79998779297</ele>
        <time>2013-11-09T15:44:34Z</time>
      </trkpt>
      <trkpt lat="43.36561" lon="6.13084">
        <ele>329.79998779297</ele>
        <time>2013-11-09T15:44:37Z</time>
      </trkpt>
      <trkpt lat="43.36562" lon="6.13091">
        <ele>329.79998779297</ele>
        <time>2013-11-09T15:44:40Z</time>
      </trkpt>
      <trkpt lat="43.3656" lon="6.131">
        <ele>329.79998779297</ele>
        <time>2013-11-09T15:44:43Z</time>
      </trkpt>
      <trkpt lat="43.3656" lon="6.13106">
        <ele>329.79998779297</ele>
        <time>2013-11-09T15:44:45Z</time>
      </trkpt>
      <trkpt lat="43.36561" lon="6.13118">
        <ele>329.79998779297</ele>
        <time>2013-11-09T15:44:48Z</time>
      </trkpt>
      <trkpt lat="43.36562" lon="6.13125">
        <ele>329.79998779297</ele>
        <time>2013-11-09T15:44:50Z</time>
      </trkpt>
      <trkpt lat="43.36562" lon="6.13129">
        <ele>329.79998779297</ele>
        <time>2013-11-09T15:44:51Z</time>
      </trkpt>
      <trkpt lat="43.36562" lon="6.13137">
        <ele>330.20001220703</ele>
        <time>2013-11-09T15:44:53Z</time>
      </trkpt>
      <trkpt lat="43.36562" lon="6.13145">
        <ele>331</ele>
        <time>2013-11-09T15:44:55Z</time>
      </trkpt>
      <trkpt lat="43.36562" lon="6.13147">
        <ele>331.39999389648</ele>
        <time>2013-11-09T15:44:56Z</time>
      </trkpt>
      <trkpt lat="43.36562" lon="6.1315">
        <ele>332</ele>
        <time>2013-11-09T15:44:57Z</time>
      </trkpt>
      <trkpt lat="43.36561" lon="6.13152">
        <ele>332</ele>
        <time>2013-11-09T15:44:58Z</time>
      </trkpt>
      <trkpt lat="43.36561" lon="6.13154">
        <ele>332</ele>
        <time>2013-11-09T15:45:03Z</time>
      </trkpt>
      <trkpt lat="43.36562" lon="6.13155">
        <ele>332</ele>
        <time>2013-11-09T15:45:09Z</time>
      </trkpt>
      <trkpt lat="43.36562" lon="6.13152">
        <ele>332</ele>
        <time>2013-11-09T15:45:13Z</time>
      </trkpt>
      <trkpt lat="43.36563" lon="6.13149">
        <ele>332</ele>
        <time>2013-11-09T15:45:15Z</time>
      </trkpt>
      <trkpt lat="43.36562" lon="6.13134">
        <ele>332</ele>
        <time>2013-11-09T15:45:19Z</time>
      </trkpt>
      <trkpt lat="43.3656" lon="6.1311">
        <ele>332</ele>
        <time>2013-11-09T15:45:25Z</time>
      </trkpt>
      <trkpt lat="43.36562" lon="6.13082">
        <ele>331.39999389648</ele>
        <time>2013-11-09T15:45:31Z</time>
      </trkpt>
      <trkpt lat="43.36564" lon="6.13079">
        <ele>330.60000610352</ele>
        <time>2013-11-09T15:45:33Z</time>
      </trkpt>
      <trkpt lat="43.36566" lon="6.13076">
        <ele>330.20001220703</ele>
        <time>2013-11-09T15:45:34Z</time>
      </trkpt>
      <trkpt lat="43.36574" lon="6.13056">
        <ele>329.79998779297</ele>
        <time>2013-11-09T15:45:39Z</time>
      </trkpt>
      <trkpt lat="43.36573" lon="6.13037">
        <ele>329.79998779297</ele>
        <time>2013-11-09T15:45:43Z</time>
      </trkpt>
      <trkpt lat="43.36574" lon="6.13032">
        <ele>329.79998779297</ele>
        <time>2013-11-09T15:45:44Z</time>
      </trkpt>
      <trkpt lat="43.36578" lon="6.13024">
        <ele>329.39999389648</ele>
        <time>2013-11-09T15:45:46Z</time>
      </trkpt>
      <trkpt lat="43.36584" lon="6.13015">
        <ele>328.20001220703</ele>
        <time>2013-11-09T15:45:49Z</time>
      </trkpt>
      <trkpt lat="43.36586" lon="6.13011">
        <ele>327.79998779297</ele>
        <time>2013-11-09T15:45:50Z</time>
      </trkpt>
      <trkpt lat="43.36591" lon="6.13006">
        <ele>327.79998779297</ele>
        <time>2013-11-09T15:45:52Z</time>
      </trkpt>
      <trkpt lat="43.36599" lon="6.12987">
        <ele>327.79998779297</ele>
        <time>2013-11-09T15:45:57Z</time>
      </trkpt>
      <trkpt lat="43.36603" lon="6.12962">
        <ele>327.79998779297</ele>
        <time>2013-11-09T15:46:03Z</time>
      </trkpt>
      <trkpt lat="43.36605" lon="6.12953">
        <ele>327.79998779297</ele>
        <time>2013-11-09T15:46:05Z</time>
      </trkpt>
      <trkpt lat="43.3661" lon="6.12935">
        <ele>327.79998779297</ele>
        <time>2013-11-09T15:46:09Z</time>
      </trkpt>
      <trkpt lat="43.36613" lon="6.12927">
        <ele>327.39999389648</ele>
        <time>2013-11-09T15:46:11Z</time>
      </trkpt>
      <trkpt lat="43.36615" lon="6.12922">
        <ele>327</ele>
        <time>2013-11-09T15:46:12Z</time>
      </trkpt>
      <trkpt lat="43.36617" lon="6.12915">
        <ele>326.20001220703</ele>
        <time>2013-11-09T15:46:14Z</time>
      </trkpt>
      <trkpt lat="43.36618" lon="6.1291">
        <ele>325.79998779297</ele>
        <time>2013-11-09T15:46:15Z</time>
      </trkpt>
      <trkpt lat="43.3662" lon="6.12897">
        <ele>325.79998779297</ele>
        <time>2013-11-09T15:46:19Z</time>
      </trkpt>
      <trkpt lat="43.3662" lon="6.12894">
        <ele>325.79998779297</ele>
        <time>2013-11-09T15:46:20Z</time>
      </trkpt>
      <trkpt lat="43.36623" lon="6.12882">
        <ele>325.79998779297</ele>
        <time>2013-11-09T15:46:24Z</time>
      </trkpt>
      <trkpt lat="43.36627" lon="6.1287">
        <ele>325.79998779297</ele>
        <time>2013-11-09T15:46:29Z</time>
      </trkpt>
      <trkpt lat="43.36628" lon="6.12868">
        <ele>325.79998779297</ele>
        <time>2013-11-09T15:46:30Z</time>
      </trkpt>
      <trkpt lat="43.36628" lon="6.12868">
        <ele>325.79998779297</ele>
        <time>2013-11-09T15:46:36Z</time>
      </trkpt>
      <trkpt lat="43.36628" lon="6.12868">
        <ele>325.79998779297</ele>
        <time>2013-11-09T15:46:39Z</time>
      </trkpt>
      <trkpt lat="43.36628" lon="6.12867">
        <ele>325.79998779297</ele>
        <time>2013-11-09T15:46:48Z</time>
      </trkpt>
      <trkpt lat="43.36628" lon="6.12865">
        <ele>325.79998779297</ele>
        <time>2013-11-09T15:46:49Z</time>
      </trkpt>
      <trkpt lat="43.36631" lon="6.1286">
        <ele>325.79998779297</ele>
        <time>2013-11-09T15:46:52Z</time>
      </trkpt>
      <trkpt lat="43.36632" lon="6.12858">
        <ele>325.79998779297</ele>
        <time>2013-11-09T15:46:53Z</time>
      </trkpt>
      <trkpt lat="43.36636" lon="6.12851">
        <ele>325.79998779297</ele>
        <time>2013-11-09T15:46:56Z</time>
      </trkpt>
      <trkpt lat="43.36637" lon="6.12849">
        <ele>325.79998779297</ele>
        <time>2013-11-09T15:46:57Z</time>
      </trkpt>
      <trkpt lat="43.36639" lon="6.12849">
        <ele>325.20001220703</ele>
        <time>2013-11-09T15:46:58Z</time>
      </trkpt>
      <trkpt lat="43.36639" lon="6.12848">
        <ele>324.79998779297</ele>
        <time>2013-11-09T15:46:59Z</time>
      </trkpt>
      <trkpt lat="43.36639" lon="6.12848">
        <ele>323.60000610352</ele>
        <time>2013-11-09T15:47:02Z</time>
      </trkpt>
      <trkpt lat="43.36639" lon="6.12848">
        <ele>323.60000610352</ele>
        <time>2013-11-09T15:47:07Z</time>
      </trkpt>
      <trkpt lat="43.36639" lon="6.12848">
        <ele>323.60000610352</ele>
        <time>2013-11-09T15:47:10Z</time>
      </trkpt>
      <trkpt lat="43.36642" lon="6.12845">
        <ele>323.60000610352</ele>
        <time>2013-11-09T15:47:15Z</time>
      </trkpt>
      <trkpt lat="43.36643" lon="6.12844">
        <ele>323.60000610352</ele>
        <time>2013-11-09T15:47:16Z</time>
      </trkpt>
      <trkpt lat="43.36647" lon="6.12841">
        <ele>323.60000610352</ele>
        <time>2013-11-09T15:47:19Z</time>
      </trkpt>
      <trkpt lat="43.36651" lon="6.1284">
        <ele>323.60000610352</ele>
        <time>2013-11-09T15:47:21Z</time>
      </trkpt>
      <trkpt lat="43.36655" lon="6.12837">
        <ele>323.20001220703</ele>
        <time>2013-11-09T15:47:24Z</time>
      </trkpt>
      <trkpt lat="43.36659" lon="6.12833">
        <ele>321.79998779297</ele>
        <time>2013-11-09T15:47:27Z</time>
      </trkpt>
      <trkpt lat="43.3666" lon="6.12831">
        <ele>321.39999389648</ele>
        <time>2013-11-09T15:47:28Z</time>
      </trkpt>
      <trkpt lat="43.36661" lon="6.12827">
        <ele>321.39999389648</ele>
        <time>2013-11-09T15:47:29Z</time>
      </trkpt>
      <trkpt lat="43.36662" lon="6.12814">
        <ele>321.39999389648</ele>
        <time>2013-11-09T15:47:33Z</time>
      </trkpt>
      <trkpt lat="43.36663" lon="6.12811">
        <ele>321.39999389648</ele>
        <time>2013-11-09T15:47:34Z</time>
      </trkpt>
      <trkpt lat="43.3667" lon="6.128">
        <ele>321.39999389648</ele>
        <time>2013-11-09T15:47:38Z</time>
      </trkpt>
      <trkpt lat="43.36678" lon="6.12785">
        <ele>321.39999389648</ele>
        <time>2013-11-09T15:47:42Z</time>
      </trkpt>
      <trkpt lat="43.3668" lon="6.12781">
        <ele>321.39999389648</ele>
        <time>2013-11-09T15:47:43Z</time>
      </trkpt>
      <trkpt lat="43.36689" lon="6.12753">
        <ele>321</ele>
        <time>2013-11-09T15:47:49Z</time>
      </trkpt>
      <trkpt lat="43.36691" lon="6.12742">
        <ele>320.20001220703</ele>
        <time>2013-11-09T15:47:51Z</time>
      </trkpt>
      <trkpt lat="43.36693" lon="6.12732">
        <ele>319.39999389648</ele>
        <time>2013-11-09T15:47:53Z</time>
      </trkpt>
      <trkpt lat="43.36704" lon="6.12709">
        <ele>319.39999389648</ele>
        <time>2013-11-09T15:47:58Z</time>
      </trkpt>
      <trkpt lat="43.36709" lon="6.12688">
        <ele>319.39999389648</ele>
        <time>2013-11-09T15:48:02Z</time>
      </trkpt>
      <trkpt lat="43.3671" lon="6.12682">
        <ele>319.39999389648</ele>
        <time>2013-11-09T15:48:03Z</time>
      </trkpt>
      <trkpt lat="43.36711" lon="6.12659">
        <ele>317.79998779297</ele>
        <time>2013-11-09T15:48:08Z</time>
      </trkpt>
      <trkpt lat="43.36712" lon="6.12654">
        <ele>317.39999389648</ele>
        <time>2013-11-09T15:48:09Z</time>
      </trkpt>
      <trkpt lat="43.36717" lon="6.1263">
        <ele>317.39999389648</ele>
        <time>2013-11-09T15:48:14Z</time>
      </trkpt>
      <trkpt lat="43.3673" lon="6.12605">
        <ele>317.39999389648</ele>
        <time>2013-11-09T15:48:20Z</time>
      </trkpt>
      <trkpt lat="43.36735" lon="6.12596">
        <ele>316.20001220703</ele>
        <time>2013-11-09T15:48:22Z</time>
      </trkpt>
      <trkpt lat="43.36738" lon="6.12586">
        <ele>315.39999389648</ele>
        <time>2013-11-09T15:48:24Z</time>
      </trkpt>
      <trkpt lat="43.36747" lon="6.12574">
        <ele>315.39999389648</ele>
        <time>2013-11-09T15:48:27Z</time>
      </trkpt>
      <trkpt lat="43.3675" lon="6.1257">
        <ele>315.39999389648</ele>
        <time>2013-11-09T15:48:28Z</time>
      </trkpt>
      <trkpt lat="43.36762" lon="6.12559">
        <ele>315</ele>
        <time>2013-11-09T15:48:31Z</time>
      </trkpt>
      <trkpt lat="43.36766" lon="6.12554">
        <ele>314.60000610352</ele>
        <time>2013-11-09T15:48:32Z</time>
      </trkpt>
      <trkpt lat="43.36773" lon="6.12547">
        <ele>313.60000610352</ele>
        <time>2013-11-09T15:48:34Z</time>
      </trkpt>
      <trkpt lat="43.36777" lon="6.12544">
        <ele>313.20001220703</ele>
        <time>2013-11-09T15:48:35Z</time>
      </trkpt>
      <trkpt lat="43.3678" lon="6.1254">
        <ele>313.20001220703</ele>
        <time>2013-11-09T15:48:36Z</time>
      </trkpt>
      <trkpt lat="43.3679" lon="6.12522">
        <ele>313.20001220703</ele>
        <time>2013-11-09T15:48:40Z</time>
      </trkpt>
      <trkpt lat="43.36793" lon="6.12519">
        <ele>313.20001220703</ele>
        <time>2013-11-09T15:48:42Z</time>
      </trkpt>
      <trkpt lat="43.36795" lon="6.12519">
        <ele>313.20001220703</ele>
        <time>2013-11-09T15:48:43Z</time>
      </trkpt>
      <trkpt lat="43.36802" lon="6.1252">
        <ele>313.20001220703</ele>
        <time>2013-11-09T15:48:46Z</time>
      </trkpt>
      <trkpt lat="43.36806" lon="6.12519">
        <ele>313.20001220703</ele>
        <time>2013-11-09T15:48:48Z</time>
      </trkpt>
      <trkpt lat="43.36821" lon="6.12517">
        <ele>313.20001220703</ele>
        <time>2013-11-09T15:48:53Z</time>
      </trkpt>
      <trkpt lat="43.36834" lon="6.12523">
        <ele>313.20001220703</ele>
        <time>2013-11-09T15:48:57Z</time>
      </trkpt>
      <trkpt lat="43.36843" lon="6.12528">
        <ele>313.20001220703</ele>
        <time>2013-11-09T15:49:00Z</time>
      </trkpt>
      <trkpt lat="43.36849" lon="6.12528">
        <ele>313.20001220703</ele>
        <time>2013-11-09T15:49:02Z</time>
      </trkpt>
      <trkpt lat="43.3686" lon="6.1252">
        <ele>313.20001220703</ele>
        <time>2013-11-09T15:49:06Z</time>
      </trkpt>
      <trkpt lat="43.36865" lon="6.1251">
        <ele>312.39999389648</ele>
        <time>2013-11-09T15:49:11Z</time>
      </trkpt>
      <trkpt lat="43.36865" lon="6.1251">
        <ele>312</ele>
        <time>2013-11-09T15:49:12Z</time>
      </trkpt>
      <trkpt lat="43.36865" lon="6.1251">
        <ele>311</ele>
        <time>2013-11-09T15:49:34Z</time>
      </trkpt>
      <trkpt lat="43.36865" lon="6.1251">
        <ele>311</ele>
        <time>2013-11-09T15:49:50Z</time>
      </trkpt>
      <trkpt lat="43.36865" lon="6.1251">
        <ele>311</ele>
        <time>2013-11-09T15:49:54Z</time>
      </trkpt>
      <trkpt lat="43.36867" lon="6.12508">
        <ele>311</ele>
        <time>2013-11-09T15:49:59Z</time>
      </trkpt>
      <trkpt lat="43.36867" lon="6.12507">
        <ele>311</ele>
        <time>2013-11-09T15:50:00Z</time>
      </trkpt>
      <trkpt lat="43.36868" lon="6.12507">
        <ele>311</ele>
        <time>2013-11-09T15:50:06Z</time>
      </trkpt>
      <trkpt lat="43.36868" lon="6.12507">
        <ele>311</ele>
        <time>2013-11-09T15:50:19Z</time>
      </trkpt>
      <trkpt lat="43.36868" lon="6.12506">
        <ele>311</ele>
        <time>2013-11-09T15:50:27Z</time>
      </trkpt>
      <trkpt lat="43.36868" lon="6.12506">
        <ele>311</ele>
        <time>2013-11-09T15:50:38Z</time>
      </trkpt>
      <trkpt lat="43.36869" lon="6.12509">
        <ele>311</ele>
        <time>2013-11-09T15:50:40Z</time>
      </trkpt>
      <trkpt lat="43.36869" lon="6.12514">
        <ele>311</ele>
        <time>2013-11-09T15:50:42Z</time>
      </trkpt>
      <trkpt lat="43.36869" lon="6.12522">
        <ele>311</ele>
        <time>2013-11-09T15:50:45Z</time>
      </trkpt>
      <trkpt lat="43.36872" lon="6.1253">
        <ele>311</ele>
        <time>2013-11-09T15:50:47Z</time>
      </trkpt>
      <trkpt lat="43.36882" lon="6.12558">
        <ele>311</ele>
        <time>2013-11-09T15:50:54Z</time>
      </trkpt>
      <trkpt lat="43.36886" lon="6.12581">
        <ele>311</ele>
        <time>2013-11-09T15:51:00Z</time>
      </trkpt>
      <trkpt lat="43.3689" lon="6.12596">
        <ele>311</ele>
        <time>2013-11-09T15:51:05Z</time>
      </trkpt>
      <trkpt lat="43.36893" lon="6.1261">
        <ele>311</ele>
        <time>2013-11-09T15:51:10Z</time>
      </trkpt>
      <trkpt lat="43.36896" lon="6.1262">
        <ele>311.60000610352</ele>
        <time>2013-11-09T15:51:13Z</time>
      </trkpt>
      <trkpt lat="43.369" lon="6.12633">
        <ele>313.20001220703</ele>
        <time>2013-11-09T15:51:17Z</time>
      </trkpt>
      <trkpt lat="43.36903" lon="6.12651">
        <ele>313.20001220703</ele>
        <time>2013-11-09T15:51:23Z</time>
      </trkpt>
      <trkpt lat="43.36909" lon="6.12672">
        <ele>313.20001220703</ele>
        <time>2013-11-09T15:51:29Z</time>
      </trkpt>
      <trkpt lat="43.36917" lon="6.127">
        <ele>313.20001220703</ele>
        <time>2013-11-09T15:51:36Z</time>
      </trkpt>
      <trkpt lat="43.36923" lon="6.12726">
        <ele>313.20001220703</ele>
        <time>2013-11-09T15:51:42Z</time>
      </trkpt>
      <trkpt lat="43.36928" lon="6.12739">
        <ele>313.20001220703</ele>
        <time>2013-11-09T15:51:46Z</time>
      </trkpt>
      <trkpt lat="43.36933" lon="6.12752">
        <ele>313.20001220703</ele>
        <time>2013-11-09T15:51:50Z</time>
      </trkpt>
      <trkpt lat="43.36941" lon="6.12759">
        <ele>313.20001220703</ele>
        <time>2013-11-09T15:51:53Z</time>
      </trkpt>
      <trkpt lat="43.36947" lon="6.12757">
        <ele>313.20001220703</ele>
        <time>2013-11-09T15:51:55Z</time>
      </trkpt>
      <trkpt lat="43.36952" lon="6.1275">
        <ele>313.20001220703</ele>
        <time>2013-11-09T15:51:57Z</time>
      </trkpt>
      <trkpt lat="43.36956" lon="6.12744">
        <ele>313.20001220703</ele>
        <time>2013-11-09T15:51:59Z</time>
      </trkpt>
      <trkpt lat="43.36967" lon="6.12717">
        <ele>313.20001220703</ele>
        <time>2013-11-09T15:52:07Z</time>
      </trkpt>
      <trkpt lat="43.36972" lon="6.12704">
        <ele>313.20001220703</ele>
        <time>2013-11-09T15:52:13Z</time>
      </trkpt>
      <trkpt lat="43.36973" lon="6.12704">
        <ele>313.20001220703</ele>
        <time>2013-11-09T15:52:17Z</time>
      </trkpt>
      <trkpt lat="43.36976" lon="6.12699">
        <ele>313.20001220703</ele>
        <time>2013-11-09T15:52:19Z</time>
      </trkpt>
      <trkpt lat="43.36982" lon="6.12684">
        <ele>313.20001220703</ele>
        <time>2013-11-09T15:52:25Z</time>
      </trkpt>
      <trkpt lat="43.36983" lon="6.12681">
        <ele>313.20001220703</ele>
        <time>2013-11-09T15:52:30Z</time>
      </trkpt>
      <trkpt lat="43.36987" lon="6.12676">
        <ele>313.20001220703</ele>
        <time>2013-11-09T15:52:35Z</time>
      </trkpt>
      <trkpt lat="43.36992" lon="6.12666">
        <ele>313.20001220703</ele>
        <time>2013-11-09T15:52:38Z</time>
      </trkpt>
      <trkpt lat="43.36994" lon="6.12662">
        <ele>313.20001220703</ele>
        <time>2013-11-09T15:52:39Z</time>
      </trkpt>
      <trkpt lat="43.37007" lon="6.12634">
        <ele>313.20001220703</ele>
        <time>2013-11-09T15:52:45Z</time>
      </trkpt>
      <trkpt lat="43.37025" lon="6.12597">
        <ele>313.20001220703</ele>
        <time>2013-11-09T15:52:52Z</time>
      </trkpt>
      <trkpt lat="43.37033" lon="6.12582">
        <ele>312.79998779297</ele>
        <time>2013-11-09T15:52:55Z</time>
      </trkpt>
      <trkpt lat="43.37035" lon="6.12577">
        <ele>312.39999389648</ele>
        <time>2013-11-09T15:52:56Z</time>
      </trkpt>
      <trkpt lat="43.37038" lon="6.12572">
        <ele>312</ele>
        <time>2013-11-09T15:52:57Z</time>
      </trkpt>
      <trkpt lat="43.37046" lon="6.12563">
        <ele>311.20001220703</ele>
        <time>2013-11-09T15:52:59Z</time>
      </trkpt>
      <trkpt lat="43.37059" lon="6.12548">
        <ele>311.20001220703</ele>
        <time>2013-11-09T15:53:03Z</time>
      </trkpt>
      <trkpt lat="43.37071" lon="6.12537">
        <ele>311.20001220703</ele>
        <time>2013-11-09T15:53:06Z</time>
      </trkpt>
      <trkpt lat="43.37087" lon="6.12524">
        <ele>309.60000610352</ele>
        <time>2013-11-09T15:53:10Z</time>
      </trkpt>
      <trkpt lat="43.37101" lon="6.12509">
        <ele>309</ele>
        <time>2013-11-09T15:53:14Z</time>
      </trkpt>
      <trkpt lat="43.37118" lon="6.12481">
        <ele>309</ele>
        <time>2013-11-09T15:53:20Z</time>
      </trkpt>
      <trkpt lat="43.37133" lon="6.12445">
        <ele>309</ele>
        <time>2013-11-09T15:53:27Z</time>
      </trkpt>
      <trkpt lat="43.37156" lon="6.124">
        <ele>309</ele>
        <time>2013-11-09T15:53:37Z</time>
      </trkpt>
      <trkpt lat="43.37173" lon="6.12375">
        <ele>309</ele>
        <time>2013-11-09T15:53:44Z</time>
      </trkpt>
      <trkpt lat="43.37182" lon="6.12363">
        <ele>309</ele>
        <time>2013-11-09T15:53:49Z</time>
      </trkpt>
      <trkpt lat="43.37191" lon="6.12351">
        <ele>309</ele>
        <time>2013-11-09T15:53:54Z</time>
      </trkpt>
      <trkpt lat="43.37199" lon="6.12339">
        <ele>309</ele>
        <time>2013-11-09T15:53:59Z</time>
      </trkpt>
      <trkpt lat="43.37208" lon="6.12323">
        <ele>310.79998779297</ele>
        <time>2013-11-09T15:54:05Z</time>
      </trkpt>
      <trkpt lat="43.37215" lon="6.12308">
        <ele>311.20001220703</ele>
        <time>2013-11-09T15:54:10Z</time>
      </trkpt>
      <trkpt lat="43.3722" lon="6.12295">
        <ele>311.79998779297</ele>
        <time>2013-11-09T15:54:15Z</time>
      </trkpt>
      <trkpt lat="43.37225" lon="6.12285">
        <ele>313.39999389648</ele>
        <time>2013-11-09T15:54:19Z</time>
      </trkpt>
      <trkpt lat="43.37229" lon="6.12271">
        <ele>313.39999389648</ele>
        <time>2013-11-09T15:54:25Z</time>
      </trkpt>
      <trkpt lat="43.37234" lon="6.12258">
        <ele>313.79998779297</ele>
        <time>2013-11-09T15:54:31Z</time>
      </trkpt>
      <trkpt lat="43.37239" lon="6.12241">
        <ele>315.39999389648</ele>
        <time>2013-11-09T15:54:38Z</time>
      </trkpt>
      <trkpt lat="43.37248" lon="6.12219">
        <ele>316.39999389648</ele>
        <time>2013-11-09T15:54:48Z</time>
      </trkpt>
      <trkpt lat="43.37251" lon="6.12212">
        <ele>317.60000610352</ele>
        <time>2013-11-09T15:54:51Z</time>
      </trkpt>
      <trkpt lat="43.37259" lon="6.12197">
        <ele>317.60000610352</ele>
        <time>2013-11-09T15:54:58Z</time>
      </trkpt>
      <trkpt lat="43.3726" lon="6.12195">
        <ele>318</ele>
        <time>2013-11-09T15:54:59Z</time>
      </trkpt>
      <trkpt lat="43.37262" lon="6.12191">
        <ele>318.79998779297</ele>
        <time>2013-11-09T15:55:01Z</time>
      </trkpt>
      <trkpt lat="43.37265" lon="6.12187">
        <ele>319.60000610352</ele>
        <time>2013-11-09T15:55:03Z</time>
      </trkpt>
      <trkpt lat="43.37268" lon="6.12181">
        <ele>319.60000610352</ele>
        <time>2013-11-09T15:55:06Z</time>
      </trkpt>
      <trkpt lat="43.37271" lon="6.12174">
        <ele>319.60000610352</ele>
        <time>2013-11-09T15:55:12Z</time>
      </trkpt>
      <trkpt lat="43.37271" lon="6.12174">
        <ele>319.60000610352</ele>
        <time>2013-11-09T15:55:30Z</time>
      </trkpt>
      <trkpt lat="43.37271" lon="6.12174">
        <ele>319.60000610352</ele>
        <time>2013-11-09T15:55:55Z</time>
      </trkpt>
      <trkpt lat="43.37271" lon="6.12174">
        <ele>319.60000610352</ele>
        <time>2013-11-09T15:56:06Z</time>
      </trkpt>
      <trkpt lat="43.37274" lon="6.12168">
        <ele>319.60000610352</ele>
        <time>2013-11-09T15:56:12Z</time>
      </trkpt>
      <trkpt lat="43.37277" lon="6.12165">
        <ele>320</ele>
        <time>2013-11-09T15:56:14Z</time>
      </trkpt>
      <trkpt lat="43.37281" lon="6.12159">
        <ele>321.20001220703</ele>
        <time>2013-11-09T15:56:17Z</time>
      </trkpt>
      <trkpt lat="43.37284" lon="6.12154">
        <ele>321.60000610352</ele>
        <time>2013-11-09T15:56:21Z</time>
      </trkpt>
      <trkpt lat="43.37286" lon="6.12153">
        <ele>322</ele>
        <time>2013-11-09T15:56:22Z</time>
      </trkpt>
      <trkpt lat="43.37289" lon="6.12148">
        <ele>323.20001220703</ele>
        <time>2013-11-09T15:56:25Z</time>
      </trkpt>
      <trkpt lat="43.37294" lon="6.12146">
        <ele>323.60000610352</ele>
        <time>2013-11-09T15:56:28Z</time>
      </trkpt>
      <trkpt lat="43.37304" lon="6.12138">
        <ele>325.79998779297</ele>
        <time>2013-11-09T15:56:36Z</time>
      </trkpt>
      <trkpt lat="43.3731" lon="6.12134">
        <ele>326.20001220703</ele>
        <time>2013-11-09T15:56:41Z</time>
      </trkpt>
      <trkpt lat="43.37316" lon="6.1213">
        <ele>328</ele>
        <time>2013-11-09T15:56:45Z</time>
      </trkpt>
      <trkpt lat="43.3732" lon="6.12129">
        <ele>328</ele>
        <time>2013-11-09T15:56:48Z</time>
      </trkpt>
      <trkpt lat="43.37328" lon="6.12122">
        <ele>328</ele>
        <time>2013-11-09T15:56:55Z</time>
      </trkpt>
      <trkpt lat="43.3733" lon="6.12122">
        <ele>328</ele>
        <time>2013-11-09T15:56:57Z</time>
      </trkpt>
      <trkpt lat="43.37335" lon="6.12116">
        <ele>330</ele>
        <time>2013-11-09T15:57:03Z</time>
      </trkpt>
      <trkpt lat="43.37336" lon="6.12116">
        <ele>330</ele>
        <time>2013-11-09T15:57:04Z</time>
      </trkpt>
      <trkpt lat="43.37345" lon="6.12112">
        <ele>330</ele>
        <time>2013-11-09T15:57:13Z</time>
      </trkpt>
      <trkpt lat="43.37349" lon="6.12108">
        <ele>330.39999389648</ele>
        <time>2013-11-09T15:57:16Z</time>
      </trkpt>
      <trkpt lat="43.37352" lon="6.12104">
        <ele>332</ele>
        <time>2013-11-09T15:57:20Z</time>
      </trkpt>
      <trkpt lat="43.3736" lon="6.121">
        <ele>332</ele>
        <time>2013-11-09T15:57:27Z</time>
      </trkpt>
      <trkpt lat="43.37365" lon="6.12097">
        <ele>332.39999389648</ele>
        <time>2013-11-09T15:57:31Z</time>
      </trkpt>
      <trkpt lat="43.37367" lon="6.12097">
        <ele>333.20001220703</ele>
        <time>2013-11-09T15:57:33Z</time>
      </trkpt>
      <trkpt lat="43.3737" lon="6.12095">
        <ele>334</ele>
        <time>2013-11-09T15:57:35Z</time>
      </trkpt>
      <trkpt lat="43.37377" lon="6.12092">
        <ele>334</ele>
        <time>2013-11-09T15:57:41Z</time>
      </trkpt>
      <trkpt lat="43.37378" lon="6.12093">
        <ele>334</ele>
        <time>2013-11-09T15:57:42Z</time>
      </trkpt>
      <trkpt lat="43.37387" lon="6.12091">
        <ele>334</ele>
        <time>2013-11-09T15:57:51Z</time>
      </trkpt>
      <trkpt lat="43.37394" lon="6.1209">
        <ele>334.39999389648</ele>
        <time>2013-11-09T15:57:57Z</time>
      </trkpt>
      <trkpt lat="43.37397" lon="6.1209">
        <ele>336</ele>
        <time>2013-11-09T15:58:01Z</time>
      </trkpt>
      <trkpt lat="43.374" lon="6.1209">
        <ele>336</ele>
        <time>2013-11-09T15:58:04Z</time>
      </trkpt>
      <trkpt lat="43.37409" lon="6.12088">
        <ele>336</ele>
        <time>2013-11-09T15:58:12Z</time>
      </trkpt>
      <trkpt lat="43.37411" lon="6.12087">
        <ele>336</ele>
        <time>2013-11-09T15:58:18Z</time>
      </trkpt>
      <trkpt lat="43.37411" lon="6.12087">
        <ele>336</ele>
        <time>2013-11-09T15:58:30Z</time>
      </trkpt>
      <trkpt lat="43.37412" lon="6.12086">
        <ele>336</ele>
        <time>2013-11-09T15:58:39Z</time>
      </trkpt>
      <trkpt lat="43.37414" lon="6.12086">
        <ele>336</ele>
        <time>2013-11-09T15:58:42Z</time>
      </trkpt>
      <trkpt lat="43.37417" lon="6.12087">
        <ele>336</ele>
        <time>2013-11-09T15:58:44Z</time>
      </trkpt>
      <trkpt lat="43.37422" lon="6.12086">
        <ele>337.20001220703</ele>
        <time>2013-11-09T15:58:47Z</time>
      </trkpt>
      <trkpt lat="43.37422" lon="6.12086">
        <ele>338</ele>
        <time>2013-11-09T15:58:49Z</time>
      </trkpt>
      <trkpt lat="43.37423" lon="6.12087">
        <ele>338</ele>
        <time>2013-11-09T15:58:55Z</time>
      </trkpt>
      <trkpt lat="43.37423" lon="6.12087">
        <ele>338</ele>
        <time>2013-11-09T15:59:11Z</time>
      </trkpt>
      <trkpt lat="43.37423" lon="6.12087">
        <ele>338</ele>
        <time>2013-11-09T16:00:14Z</time>
      </trkpt>
      <trkpt lat="43.37423" lon="6.12087">
        <ele>338</ele>
        <time>2013-11-09T16:00:32Z</time>
      </trkpt>
      <trkpt lat="43.37422" lon="6.12087">
        <ele>338</ele>
        <time>2013-11-09T16:00:36Z</time>
      </trkpt>
      <trkpt lat="43.37424" lon="6.12086">
        <ele>338</ele>
        <time>2013-11-09T16:00:38Z</time>
      </trkpt>
      <trkpt lat="43.37425" lon="6.12086">
        <ele>338</ele>
        <time>2013-11-09T16:00:42Z</time>
      </trkpt>
      <trkpt lat="43.37425" lon="6.12086">
        <ele>338</ele>
        <time>2013-11-09T16:00:55Z</time>
      </trkpt>
      <trkpt lat="43.37425" lon="6.12086">
        <ele>338</ele>
        <time>2013-11-09T16:01:05Z</time>
      </trkpt>
      <trkpt lat="43.37428" lon="6.12084">
        <ele>338</ele>
        <time>2013-11-09T16:01:09Z</time>
      </trkpt>
      <trkpt lat="43.37429" lon="6.12084">
        <ele>338</ele>
        <time>2013-11-09T16:01:10Z</time>
      </trkpt>
      <trkpt lat="43.37431" lon="6.12083">
        <ele>338</ele>
        <time>2013-11-09T16:01:12Z</time>
      </trkpt>
      <trkpt lat="43.37434" lon="6.12084">
        <ele>338</ele>
        <time>2013-11-09T16:01:16Z</time>
      </trkpt>
      <trkpt lat="43.37439" lon="6.12085">
        <ele>338</ele>
        <time>2013-11-09T16:01:19Z</time>
      </trkpt>
      <trkpt lat="43.3744" lon="6.12085">
        <ele>338</ele>
        <time>2013-11-09T16:01:20Z</time>
      </trkpt>
      <trkpt lat="43.37447" lon="6.12086">
        <ele>338</ele>
        <time>2013-11-09T16:01:22Z</time>
      </trkpt>
      <trkpt lat="43.37466" lon="6.1208">
        <ele>337.60000610352</ele>
        <time>2013-11-09T16:01:26Z</time>
      </trkpt>
      <trkpt lat="43.3747" lon="6.12077">
        <ele>337.20001220703</ele>
        <time>2013-11-09T16:01:27Z</time>
      </trkpt>
      <trkpt lat="43.37474" lon="6.12073">
        <ele>336.79998779297</ele>
        <time>2013-11-09T16:01:28Z</time>
      </trkpt>
      <trkpt lat="43.37479" lon="6.12068">
        <ele>336.39999389648</ele>
        <time>2013-11-09T16:01:29Z</time>
      </trkpt>
      <trkpt lat="43.37484" lon="6.12064">
        <ele>335.79998779297</ele>
        <time>2013-11-09T16:01:30Z</time>
      </trkpt>
      <trkpt lat="43.37489" lon="6.12059">
        <ele>335.20001220703</ele>
        <time>2013-11-09T16:01:31Z</time>
      </trkpt>
      <trkpt lat="43.37494" lon="6.12054">
        <ele>333.79998779297</ele>
        <time>2013-11-09T16:01:32Z</time>
      </trkpt>
      <trkpt lat="43.375" lon="6.12049">
        <ele>333</ele>
        <time>2013-11-09T16:01:33Z</time>
      </trkpt>
      <trkpt lat="43.37505" lon="6.12043">
        <ele>332.20001220703</ele>
        <time>2013-11-09T16:01:34Z</time>
      </trkpt>
      <trkpt lat="43.3751" lon="6.12038">
        <ele>331.20001220703</ele>
        <time>2013-11-09T16:01:35Z</time>
      </trkpt>
      <trkpt lat="43.37516" lon="6.12032">
        <ele>330.39999389648</ele>
        <time>2013-11-09T16:01:36Z</time>
      </trkpt>
      <trkpt lat="43.37522" lon="6.12026">
        <ele>329.39999389648</ele>
        <time>2013-11-09T16:01:37Z</time>
      </trkpt>
      <trkpt lat="43.37527" lon="6.1202">
        <ele>328.39999389648</ele>
        <time>2013-11-09T16:01:38Z</time>
      </trkpt>
      <trkpt lat="43.37533" lon="6.12013">
        <ele>327.60000610352</ele>
        <time>2013-11-09T16:01:39Z</time>
      </trkpt>
      <trkpt lat="43.37539" lon="6.12006">
        <ele>326.60000610352</ele>
        <time>2013-11-09T16:01:40Z</time>
      </trkpt>
      <trkpt lat="43.37551" lon="6.11992">
        <ele>324.39999389648</ele>
        <time>2013-11-09T16:01:42Z</time>
      </trkpt>
      <trkpt lat="43.37564" lon="6.11981">
        <ele>322.39999389648</ele>
        <time>2013-11-09T16:01:44Z</time>
      </trkpt>
      <trkpt lat="43.37571" lon="6.11976">
        <ele>321.39999389648</ele>
        <time>2013-11-09T16:01:45Z</time>
      </trkpt>
      <trkpt lat="43.37582" lon="6.11968">
        <ele>319.39999389648</ele>
        <time>2013-11-09T16:01:47Z</time>
      </trkpt>
      <trkpt lat="43.37587" lon="6.11963">
        <ele>318.39999389648</ele>
        <time>2013-11-09T16:01:48Z</time>
      </trkpt>
      <trkpt lat="43.37592" lon="6.11958">
        <ele>317.60000610352</ele>
        <time>2013-11-09T16:01:49Z</time>
      </trkpt>
      <trkpt lat="43.37601" lon="6.11945">
        <ele>316</ele>
        <time>2013-11-09T16:01:51Z</time>
      </trkpt>
      <trkpt lat="43.3761" lon="6.1193">
        <ele>314.39999389648</ele>
        <time>2013-11-09T16:01:53Z</time>
      </trkpt>
      <trkpt lat="43.37616" lon="6.11922">
        <ele>313.60000610352</ele>
        <time>2013-11-09T16:01:54Z</time>
      </trkpt>
      <trkpt lat="43.37621" lon="6.11914">
        <ele>312.79998779297</ele>
        <time>2013-11-09T16:01:55Z</time>
      </trkpt>
      <trkpt lat="43.37628" lon="6.11906">
        <ele>312</ele>
        <time>2013-11-09T16:01:56Z</time>
      </trkpt>
      <trkpt lat="43.37634" lon="6.11897">
        <ele>310.20001220703</ele>
        <time>2013-11-09T16:01:57Z</time>
      </trkpt>
      <trkpt lat="43.37654" lon="6.11867">
        <ele>307.39999389648</ele>
        <time>2013-11-09T16:02:00Z</time>
      </trkpt>
      <trkpt lat="43.37666" lon="6.1185">
        <ele>305.60000610352</ele>
        <time>2013-11-09T16:02:02Z</time>
      </trkpt>
      <trkpt lat="43.37671" lon="6.11843">
        <ele>304.79998779297</ele>
        <time>2013-11-09T16:02:03Z</time>
      </trkpt>
      <trkpt lat="43.37675" lon="6.11836">
        <ele>304.20001220703</ele>
        <time>2013-11-09T16:02:04Z</time>
      </trkpt>
      <trkpt lat="43.37678" lon="6.11829">
        <ele>303.39999389648</ele>
        <time>2013-11-09T16:02:05Z</time>
      </trkpt>
      <trkpt lat="43.37686" lon="6.11802">
        <ele>301.20001220703</ele>
        <time>2013-11-09T16:02:08Z</time>
      </trkpt>
      <trkpt lat="43.3769" lon="6.11793">
        <ele>300.39999389648</ele>
        <time>2013-11-09T16:02:09Z</time>
      </trkpt>
      <trkpt lat="43.37694" lon="6.11784">
        <ele>299.60000610352</ele>
        <time>2013-11-09T16:02:10Z</time>
      </trkpt>
      <trkpt lat="43.37698" lon="6.11774">
        <ele>298.79998779297</ele>
        <time>2013-11-09T16:02:11Z</time>
      </trkpt>
      <trkpt lat="43.37702" lon="6.11765">
        <ele>298.20001220703</ele>
        <time>2013-11-09T16:02:12Z</time>
      </trkpt>
      <trkpt lat="43.37717" lon="6.11738">
        <ele>296.39999389648</ele>
        <time>2013-11-09T16:02:15Z</time>
      </trkpt>
      <trkpt lat="43.37721" lon="6.1173">
        <ele>295.79998779297</ele>
        <time>2013-11-09T16:02:16Z</time>
      </trkpt>
      <trkpt lat="43.37725" lon="6.11722">
        <ele>295.79998779297</ele>
        <time>2013-11-09T16:02:17Z</time>
      </trkpt>
      <trkpt lat="43.37734" lon="6.11705">
        <ele>295.20001220703</ele>
        <time>2013-11-09T16:02:19Z</time>
      </trkpt>
      <trkpt lat="43.37742" lon="6.11688">
        <ele>294.20001220703</ele>
        <time>2013-11-09T16:02:21Z</time>
      </trkpt>
      <trkpt lat="43.3775" lon="6.11671">
        <ele>293.20001220703</ele>
        <time>2013-11-09T16:02:23Z</time>
      </trkpt>
      <trkpt lat="43.37761" lon="6.11647">
        <ele>292.79998779297</ele>
        <time>2013-11-09T16:02:26Z</time>
      </trkpt>
      <trkpt lat="43.37779" lon="6.11617">
        <ele>291</ele>
        <time>2013-11-09T16:02:30Z</time>
      </trkpt>
      <trkpt lat="43.37785" lon="6.1161">
        <ele>290.39999389648</ele>
        <time>2013-11-09T16:02:31Z</time>
      </trkpt>
      <trkpt lat="43.37815" lon="6.11571">
        <ele>288.79998779297</ele>
        <time>2013-11-09T16:02:37Z</time>
      </trkpt>
      <trkpt lat="43.37823" lon="6.11556">
        <ele>288.39999389648</ele>
        <time>2013-11-09T16:02:39Z</time>
      </trkpt>
      <trkpt lat="43.37837" lon="6.11521">
        <ele>286.79998779297</ele>
        <time>2013-11-09T16:02:43Z</time>
      </trkpt>
      <trkpt lat="43.37847" lon="6.11497">
        <ele>285.60000610352</ele>
        <time>2013-11-09T16:02:46Z</time>
      </trkpt>
      <trkpt lat="43.37854" lon="6.11484">
        <ele>284.79998779297</ele>
        <time>2013-11-09T16:02:48Z</time>
      </trkpt>
      <trkpt lat="43.37859" lon="6.1148">
        <ele>284.39999389648</ele>
        <time>2013-11-09T16:02:49Z</time>
      </trkpt>
      <trkpt lat="43.37865" lon="6.11477">
        <ele>284</ele>
        <time>2013-11-09T16:02:50Z</time>
      </trkpt>
      <trkpt lat="43.37876" lon="6.11474">
        <ele>283.20001220703</ele>
        <time>2013-11-09T16:02:52Z</time>
      </trkpt>
      <trkpt lat="43.37882" lon="6.11472">
        <ele>282.79998779297</ele>
        <time>2013-11-09T16:02:53Z</time>
      </trkpt>
      <trkpt lat="43.37887" lon="6.11469">
        <ele>282.79998779297</ele>
        <time>2013-11-09T16:02:54Z</time>
      </trkpt>
      <trkpt lat="43.37896" lon="6.11463">
        <ele>282.79998779297</ele>
        <time>2013-11-09T16:02:56Z</time>
      </trkpt>
      <trkpt lat="43.37905" lon="6.11456">
        <ele>282.79998779297</ele>
        <time>2013-11-09T16:02:58Z</time>
      </trkpt>
      <trkpt lat="43.37909" lon="6.11452">
        <ele>282.79998779297</ele>
        <time>2013-11-09T16:02:59Z</time>
      </trkpt>
      <trkpt lat="43.37921" lon="6.11438">
        <ele>282.79998779297</ele>
        <time>2013-11-09T16:03:02Z</time>
      </trkpt>
      <trkpt lat="43.37931" lon="6.11423">
        <ele>282.79998779297</ele>
        <time>2013-11-09T16:03:05Z</time>
      </trkpt>
      <trkpt lat="43.37947" lon="6.11401">
        <ele>282.79998779297</ele>
        <time>2013-11-09T16:03:09Z</time>
      </trkpt>
      <trkpt lat="43.37956" lon="6.1139">
        <ele>282.79998779297</ele>
        <time>2013-11-09T16:03:11Z</time>
      </trkpt>
      <trkpt lat="43.37982" lon="6.11358">
        <ele>282.79998779297</ele>
        <time>2013-11-09T16:03:17Z</time>
      </trkpt>
      <trkpt lat="43.37989" lon="6.11348">
        <ele>282.79998779297</ele>
        <time>2013-11-09T16:03:19Z</time>
      </trkpt>
      <trkpt lat="43.37998" lon="6.11332">
        <ele>282.79998779297</ele>
        <time>2013-11-09T16:03:22Z</time>
      </trkpt>
      <trkpt lat="43.38014" lon="6.11296">
        <ele>282.79998779297</ele>
        <time>2013-11-09T16:03:28Z</time>
      </trkpt>
      <trkpt lat="43.38034" lon="6.11252">
        <ele>282.79998779297</ele>
        <time>2013-11-09T16:03:35Z</time>
      </trkpt>
      <trkpt lat="43.38048" lon="6.11223">
        <ele>282.79998779297</ele>
        <time>2013-11-09T16:03:40Z</time>
      </trkpt>
      <trkpt lat="43.38051" lon="6.11218">
        <ele>282.79998779297</ele>
        <time>2013-11-09T16:03:41Z</time>
      </trkpt>
      <trkpt lat="43.38066" lon="6.112">
        <ele>282.79998779297</ele>
        <time>2013-11-09T16:03:45Z</time>
      </trkpt>
      <trkpt lat="43.38098" lon="6.11165">
        <ele>282.39999389648</ele>
        <time>2013-11-09T16:03:52Z</time>
      </trkpt>
      <trkpt lat="43.3812" lon="6.11141">
        <ele>280.60000610352</ele>
        <time>2013-11-09T16:03:56Z</time>
      </trkpt>
      <trkpt lat="43.38126" lon="6.11135">
        <ele>280.20001220703</ele>
        <time>2013-11-09T16:03:57Z</time>
      </trkpt>
      <trkpt lat="43.38131" lon="6.11129">
        <ele>279.60000610352</ele>
        <time>2013-11-09T16:03:58Z</time>
      </trkpt>
      <trkpt lat="43.38137" lon="6.11123">
        <ele>279.20001220703</ele>
        <time>2013-11-09T16:03:59Z</time>
      </trkpt>
      <trkpt lat="43.38147" lon="6.11107">
        <ele>278.39999389648</ele>
        <time>2013-11-09T16:04:01Z</time>
      </trkpt>
      <trkpt lat="43.38158" lon="6.1108">
        <ele>277.60000610352</ele>
        <time>2013-11-09T16:04:04Z</time>
      </trkpt>
      <trkpt lat="43.38161" lon="6.11071">
        <ele>277</ele>
        <time>2013-11-09T16:04:05Z</time>
      </trkpt>
      <trkpt lat="43.38166" lon="6.11052">
        <ele>276.20001220703</ele>
        <time>2013-11-09T16:04:07Z</time>
      </trkpt>
      <trkpt lat="43.38173" lon="6.11012">
        <ele>276.20001220703</ele>
        <time>2013-11-09T16:04:11Z</time>
      </trkpt>
      <trkpt lat="43.38177" lon="6.10991">
        <ele>275.39999389648</ele>
        <time>2013-11-09T16:04:13Z</time>
      </trkpt>
      <trkpt lat="43.38182" lon="6.10968">
        <ele>274.39999389648</ele>
        <time>2013-11-09T16:04:15Z</time>
      </trkpt>
      <trkpt lat="43.38187" lon="6.10946">
        <ele>274</ele>
        <time>2013-11-09T16:04:17Z</time>
      </trkpt>
      <trkpt lat="43.38192" lon="6.10923">
        <ele>273.20001220703</ele>
        <time>2013-11-09T16:04:19Z</time>
      </trkpt>
      <trkpt lat="43.38193" lon="6.10911">
        <ele>272.79998779297</ele>
        <time>2013-11-09T16:04:20Z</time>
      </trkpt>
      <trkpt lat="43.38195" lon="6.109">
        <ele>272.20001220703</ele>
        <time>2013-11-09T16:04:21Z</time>
      </trkpt>
      <trkpt lat="43.38196" lon="6.10889">
        <ele>271.79998779297</ele>
        <time>2013-11-09T16:04:22Z</time>
      </trkpt>
      <trkpt lat="43.38197" lon="6.10878">
        <ele>271.79998779297</ele>
        <time>2013-11-09T16:04:23Z</time>
      </trkpt>
      <trkpt lat="43.382" lon="6.10845">
        <ele>271.39999389648</ele>
        <time>2013-11-09T16:04:26Z</time>
      </trkpt>
      <trkpt lat="43.38202" lon="6.10835">
        <ele>271</ele>
        <time>2013-11-09T16:04:27Z</time>
      </trkpt>
      <trkpt lat="43.38204" lon="6.10824">
        <ele>270.60000610352</ele>
        <time>2013-11-09T16:04:28Z</time>
      </trkpt>
      <trkpt lat="43.38206" lon="6.10814">
        <ele>270.20001220703</ele>
        <time>2013-11-09T16:04:29Z</time>
      </trkpt>
      <trkpt lat="43.38208" lon="6.10805">
        <ele>269.79998779297</ele>
        <time>2013-11-09T16:04:30Z</time>
      </trkpt>
      <trkpt lat="43.38217" lon="6.1077">
        <ele>269.79998779297</ele>
        <time>2013-11-09T16:04:34Z</time>
      </trkpt>
      <trkpt lat="43.38221" lon="6.10756">
        <ele>269.79998779297</ele>
        <time>2013-11-09T16:04:36Z</time>
      </trkpt>
      <trkpt lat="43.38227" lon="6.10738">
        <ele>269.79998779297</ele>
        <time>2013-11-09T16:04:39Z</time>
      </trkpt>
      <trkpt lat="43.38243" lon="6.10698">
        <ele>269.79998779297</ele>
        <time>2013-11-09T16:04:45Z</time>
      </trkpt>
      <trkpt lat="43.38272" lon="6.10645">
        <ele>268.39999389648</ele>
        <time>2013-11-09T16:04:52Z</time>
      </trkpt>
      <trkpt lat="43.3828" lon="6.10629">
        <ele>267.60000610352</ele>
        <time>2013-11-09T16:04:54Z</time>
      </trkpt>
      <trkpt lat="43.38292" lon="6.10603">
        <ele>267.20001220703</ele>
        <time>2013-11-09T16:04:57Z</time>
      </trkpt>
      <trkpt lat="43.38297" lon="6.10594">
        <ele>266.79998779297</ele>
        <time>2013-11-09T16:04:58Z</time>
      </trkpt>
      <trkpt lat="43.383" lon="6.10585">
        <ele>266.20001220703</ele>
        <time>2013-11-09T16:04:59Z</time>
      </trkpt>
      <trkpt lat="43.38306" lon="6.10568">
        <ele>265.39999389648</ele>
        <time>2013-11-09T16:05:01Z</time>
      </trkpt>
      <trkpt lat="43.38324" lon="6.10524">
        <ele>265.39999389648</ele>
        <time>2013-11-09T16:05:06Z</time>
      </trkpt>
      <trkpt lat="43.3833" lon="6.10506">
        <ele>265</ele>
        <time>2013-11-09T16:05:08Z</time>
      </trkpt>
      <trkpt lat="43.38338" lon="6.1049">
        <ele>264.20001220703</ele>
        <time>2013-11-09T16:05:10Z</time>
      </trkpt>
      <trkpt lat="43.38349" lon="6.10483">
        <ele>263.20001220703</ele>
        <time>2013-11-09T16:05:12Z</time>
      </trkpt>
      <trkpt lat="43.38362" lon="6.10481">
        <ele>263.20001220703</ele>
        <time>2013-11-09T16:05:14Z</time>
      </trkpt>
      <trkpt lat="43.38379" lon="6.1048">
        <ele>263.20001220703</ele>
        <time>2013-11-09T16:05:17Z</time>
      </trkpt>
      <trkpt lat="43.38401" lon="6.10477">
        <ele>263.20001220703</ele>
        <time>2013-11-09T16:05:21Z</time>
      </trkpt>
      <trkpt lat="43.3841" lon="6.10476">
        <ele>263.20001220703</ele>
        <time>2013-11-09T16:05:23Z</time>
      </trkpt>
      <trkpt lat="43.38425" lon="6.10474">
        <ele>263.20001220703</ele>
        <time>2013-11-09T16:05:26Z</time>
      </trkpt>
      <trkpt lat="43.38433" lon="6.10471">
        <ele>263.20001220703</ele>
        <time>2013-11-09T16:05:28Z</time>
      </trkpt>
      <trkpt lat="43.38447" lon="6.10461">
        <ele>263.60000610352</ele>
        <time>2013-11-09T16:05:32Z</time>
      </trkpt>
      <trkpt lat="43.38453" lon="6.10456">
        <ele>264.39999389648</ele>
        <time>2013-11-09T16:05:34Z</time>
      </trkpt>
      <trkpt lat="43.38457" lon="6.10451">
        <ele>265.20001220703</ele>
        <time>2013-11-09T16:05:36Z</time>
      </trkpt>
      <trkpt lat="43.38465" lon="6.10445">
        <ele>265.79998779297</ele>
        <time>2013-11-09T16:05:39Z</time>
      </trkpt>
      <trkpt lat="43.38469" lon="6.10441">
        <ele>267.20001220703</ele>
        <time>2013-11-09T16:05:41Z</time>
      </trkpt>
      <trkpt lat="43.38471" lon="6.10439">
        <ele>267.60000610352</ele>
        <time>2013-11-09T16:05:42Z</time>
      </trkpt>
      <trkpt lat="43.38475" lon="6.10437">
        <ele>268.39999389648</ele>
        <time>2013-11-09T16:05:44Z</time>
      </trkpt>
      <trkpt lat="43.38478" lon="6.10436">
        <ele>268.79998779297</ele>
        <time>2013-11-09T16:05:45Z</time>
      </trkpt>
      <trkpt lat="43.38479" lon="6.10432">
        <ele>269.60000610352</ele>
        <time>2013-11-09T16:05:47Z</time>
      </trkpt>
      <trkpt lat="43.38482" lon="6.10431">
        <ele>270.20001220703</ele>
        <time>2013-11-09T16:05:49Z</time>
      </trkpt>
      <trkpt lat="43.38483" lon="6.10429">
        <ele>270.60000610352</ele>
        <time>2013-11-09T16:05:50Z</time>
      </trkpt>
      <trkpt lat="43.38485" lon="6.10424">
        <ele>271.60000610352</ele>
        <time>2013-11-09T16:05:52Z</time>
      </trkpt>
      <trkpt lat="43.38494" lon="6.10413">
        <ele>272.79998779297</ele>
        <time>2013-11-09T16:05:57Z</time>
      </trkpt>
      <trkpt lat="43.38498" lon="6.10405">
        <ele>274.20001220703</ele>
        <time>2013-11-09T16:06:00Z</time>
      </trkpt>
      <trkpt lat="43.38503" lon="6.10397">
        <ele>274.20001220703</ele>
        <time>2013-11-09T16:06:04Z</time>
      </trkpt>
      <trkpt lat="43.38517" lon="6.10375">
        <ele>276.39999389648</ele>
        <time>2013-11-09T16:06:16Z</time>
      </trkpt>
      <trkpt lat="43.38519" lon="6.10374">
        <ele>276.79998779297</ele>
        <time>2013-11-09T16:06:17Z</time>
      </trkpt>
      <trkpt lat="43.38523" lon="6.10371">
        <ele>278</ele>
        <time>2013-11-09T16:06:20Z</time>
      </trkpt>
      <trkpt lat="43.38524" lon="6.10369">
        <ele>278.39999389648</ele>
        <time>2013-11-09T16:06:21Z</time>
      </trkpt>
      <trkpt lat="43.38526" lon="6.10368">
        <ele>278.39999389648</ele>
        <time>2013-11-09T16:06:23Z</time>
      </trkpt>
      <trkpt lat="43.38527" lon="6.10367">
        <ele>278.39999389648</ele>
        <time>2013-11-09T16:06:26Z</time>
      </trkpt>
      <trkpt lat="43.38527" lon="6.10367">
        <ele>278.39999389648</ele>
        <time>2013-11-09T16:06:29Z</time>
      </trkpt>
      <trkpt lat="43.38527" lon="6.10367">
        <ele>278.39999389648</ele>
        <time>2013-11-09T16:06:48Z</time>
      </trkpt>
      <trkpt lat="43.38527" lon="6.10367">
        <ele>278.39999389648</ele>
        <time>2013-11-09T16:07:22Z</time>
      </trkpt>
      <trkpt lat="43.38527" lon="6.10367">
        <ele>278.39999389648</ele>
        <time>2013-11-09T16:07:37Z</time>
      </trkpt>
      <trkpt lat="43.38528" lon="6.10367">
        <ele>278.39999389648</ele>
        <time>2013-11-09T16:07:46Z</time>
      </trkpt>
      <trkpt lat="43.38528" lon="6.10367">
        <ele>278.39999389648</ele>
        <time>2013-11-09T16:08:07Z</time>
      </trkpt>
      <trkpt lat="43.38528" lon="6.10367">
        <ele>278.39999389648</ele>
        <time>2013-11-09T16:09:10Z</time>
      </trkpt>
      <trkpt lat="43.38528" lon="6.10367">
        <ele>278.39999389648</ele>
        <time>2013-11-09T16:09:29Z</time>
      </trkpt>
      <trkpt lat="43.38528" lon="6.10367">
        <ele>278.39999389648</ele>
        <time>2013-11-09T16:09:43Z</time>
      </trkpt>
      <trkpt lat="43.38529" lon="6.10367">
        <ele>278.39999389648</ele>
        <time>2013-11-09T16:09:45Z</time>
      </trkpt>
      <trkpt lat="43.38529" lon="6.10367">
        <ele>278.39999389648</ele>
        <time>2013-11-09T16:10:06Z</time>
      </trkpt>
      <trkpt lat="43.38529" lon="6.10367">
        <ele>278.39999389648</ele>
        <time>2013-11-09T16:10:19Z</time>
      </trkpt>
      <trkpt lat="43.38529" lon="6.10365">
        <ele>278.39999389648</ele>
        <time>2013-11-09T16:10:25Z</time>
      </trkpt>
      <trkpt lat="43.38529" lon="6.10365">
        <ele>278.39999389648</ele>
        <time>2013-11-09T16:10:31Z</time>
      </trkpt>
      <trkpt lat="43.38529" lon="6.10365">
        <ele>278.39999389648</ele>
        <time>2013-11-09T16:10:32Z</time>
      </trkpt>
      <trkpt lat="43.38533" lon="6.10364">
        <ele>278.39999389648</ele>
        <time>2013-11-09T16:10:34Z</time>
      </trkpt>
      <trkpt lat="43.38536" lon="6.10362">
        <ele>278.39999389648</ele>
        <time>2013-11-09T16:10:36Z</time>
      </trkpt>
      <trkpt lat="43.38538" lon="6.1036">
        <ele>278.39999389648</ele>
        <time>2013-11-09T16:10:37Z</time>
      </trkpt>
      <trkpt lat="43.38541" lon="6.10358">
        <ele>278.39999389648</ele>
        <time>2013-11-09T16:10:39Z</time>
      </trkpt>
      <trkpt lat="43.38551" lon="6.10348">
        <ele>279.60000610352</ele>
        <time>2013-11-09T16:10:45Z</time>
      </trkpt>
      <trkpt lat="43.38557" lon="6.10342">
        <ele>280.39999389648</ele>
        <time>2013-11-09T16:10:49Z</time>
      </trkpt>
      <trkpt lat="43.38572" lon="6.10329">
        <ele>280.39999389648</ele>
        <time>2013-11-09T16:10:55Z</time>
      </trkpt>
      <trkpt lat="43.38587" lon="6.10321">
        <ele>280.39999389648</ele>
        <time>2013-11-09T16:11:00Z</time>
      </trkpt>
      <trkpt lat="43.38601" lon="6.10316">
        <ele>280.39999389648</ele>
        <time>2013-11-09T16:11:04Z</time>
      </trkpt>
      <trkpt lat="43.3863" lon="6.10314">
        <ele>280.39999389648</ele>
        <time>2013-11-09T16:11:12Z</time>
      </trkpt>
      <trkpt lat="43.38654" lon="6.10311">
        <ele>280.39999389648</ele>
        <time>2013-11-09T16:11:19Z</time>
      </trkpt>
      <trkpt lat="43.38669" lon="6.10301">
        <ele>280.39999389648</ele>
        <time>2013-11-09T16:11:24Z</time>
      </trkpt>
      <trkpt lat="43.38674" lon="6.1029">
        <ele>281.20001220703</ele>
        <time>2013-11-09T16:11:27Z</time>
      </trkpt>
      <trkpt lat="43.38677" lon="6.10278">
        <ele>282.39999389648</ele>
        <time>2013-11-09T16:11:30Z</time>
      </trkpt>
      <trkpt lat="43.38679" lon="6.1026">
        <ele>282.39999389648</ele>
        <time>2013-11-09T16:11:34Z</time>
      </trkpt>
      <trkpt lat="43.3868" lon="6.10234">
        <ele>282.39999389648</ele>
        <time>2013-11-09T16:11:40Z</time>
      </trkpt>
      <trkpt lat="43.38681" lon="6.1022">
        <ele>282.39999389648</ele>
        <time>2013-11-09T16:11:45Z</time>
      </trkpt>
      <trkpt lat="43.38681" lon="6.10219">
        <ele>282.39999389648</ele>
        <time>2013-11-09T16:11:50Z</time>
      </trkpt>
      <trkpt lat="43.38681" lon="6.10218">
        <ele>282.39999389648</ele>
        <time>2013-11-09T16:11:52Z</time>
      </trkpt>
      <trkpt lat="43.38686" lon="6.10215">
        <ele>282.39999389648</ele>
        <time>2013-11-09T16:11:55Z</time>
      </trkpt>
      <trkpt lat="43.38697" lon="6.10212">
        <ele>282.39999389648</ele>
        <time>2013-11-09T16:11:58Z</time>
      </trkpt>
      <trkpt lat="43.38704" lon="6.1021">
        <ele>282.79998779297</ele>
        <time>2013-11-09T16:12:00Z</time>
      </trkpt>
      <trkpt lat="43.3871" lon="6.10206">
        <ele>283.60000610352</ele>
        <time>2013-11-09T16:12:02Z</time>
      </trkpt>
      <trkpt lat="43.38713" lon="6.10205">
        <ele>284</ele>
        <time>2013-11-09T16:12:03Z</time>
      </trkpt>
      <trkpt lat="43.38716" lon="6.10203">
        <ele>284.39999389648</ele>
        <time>2013-11-09T16:12:04Z</time>
      </trkpt>
      <trkpt lat="43.38723" lon="6.10201">
        <ele>284.39999389648</ele>
        <time>2013-11-09T16:12:06Z</time>
      </trkpt>
      <trkpt lat="43.3874" lon="6.10193">
        <ele>284.79998779297</ele>
        <time>2013-11-09T16:12:12Z</time>
      </trkpt>
      <trkpt lat="43.38742" lon="6.10191">
        <ele>285.20001220703</ele>
        <time>2013-11-09T16:12:13Z</time>
      </trkpt>
      <trkpt lat="43.38749" lon="6.10189">
        <ele>286.39999389648</ele>
        <time>2013-11-09T16:12:15Z</time>
      </trkpt>
      <trkpt lat="43.38758" lon="6.10187">
        <ele>286.39999389648</ele>
        <time>2013-11-09T16:12:18Z</time>
      </trkpt>
      <trkpt lat="43.38772" lon="6.10182">
        <ele>287</ele>
        <time>2013-11-09T16:12:23Z</time>
      </trkpt>
      <trkpt lat="43.38793" lon="6.10174">
        <ele>288.60000610352</ele>
        <time>2013-11-09T16:12:32Z</time>
      </trkpt>
      <trkpt lat="43.38803" lon="6.10171">
        <ele>289</ele>
        <time>2013-11-09T16:12:37Z</time>
      </trkpt>
      <trkpt lat="43.38808" lon="6.1017">
        <ele>289.79998779297</ele>
        <time>2013-11-09T16:12:39Z</time>
      </trkpt>
      <trkpt lat="43.38809" lon="6.10169">
        <ele>290.60000610352</ele>
        <time>2013-11-09T16:12:40Z</time>
      </trkpt>
      <trkpt lat="43.3882" lon="6.10168">
        <ele>290.60000610352</ele>
        <time>2013-11-09T16:12:46Z</time>
      </trkpt>
      <trkpt lat="43.38824" lon="6.10171">
        <ele>290.60000610352</ele>
        <time>2013-11-09T16:12:48Z</time>
      </trkpt>
      <trkpt lat="43.38827" lon="6.10178">
        <ele>290.60000610352</ele>
        <time>2013-11-09T16:12:50Z</time>
      </trkpt>
      <trkpt lat="43.38827" lon="6.10192">
        <ele>290.60000610352</ele>
        <time>2013-11-09T16:12:54Z</time>
      </trkpt>
      <trkpt lat="43.38831" lon="6.10227">
        <ele>290.60000610352</ele>
        <time>2013-11-09T16:13:00Z</time>
      </trkpt>
      <trkpt lat="43.38833" lon="6.10248">
        <ele>290.60000610352</ele>
        <time>2013-11-09T16:13:03Z</time>
      </trkpt>
      <trkpt lat="43.38836" lon="6.1027">
        <ele>290.60000610352</ele>
        <time>2013-11-09T16:13:06Z</time>
      </trkpt>
      <trkpt lat="43.38837" lon="6.10286">
        <ele>290.20001220703</ele>
        <time>2013-11-09T16:13:08Z</time>
      </trkpt>
      <trkpt lat="43.3884" lon="6.10318">
        <ele>288.20001220703</ele>
        <time>2013-11-09T16:13:12Z</time>
      </trkpt>
      <trkpt lat="43.38842" lon="6.10342">
        <ele>288.20001220703</ele>
        <time>2013-11-09T16:13:15Z</time>
      </trkpt>
      <trkpt lat="43.38847" lon="6.10387">
        <ele>286</ele>
        <time>2013-11-09T16:13:20Z</time>
      </trkpt>
      <trkpt lat="43.38848" lon="6.10397">
        <ele>285.39999389648</ele>
        <time>2013-11-09T16:13:21Z</time>
      </trkpt>
      <trkpt lat="43.38848" lon="6.10407">
        <ele>285</ele>
        <time>2013-11-09T16:13:22Z</time>
      </trkpt>
      <trkpt lat="43.38847" lon="6.10428">
        <ele>284.20001220703</ele>
        <time>2013-11-09T16:13:24Z</time>
      </trkpt>
      <trkpt lat="43.38844" lon="6.10449">
        <ele>283.20001220703</ele>
        <time>2013-11-09T16:13:26Z</time>
      </trkpt>
      <trkpt lat="43.38842" lon="6.10459">
        <ele>282.79998779297</ele>
        <time>2013-11-09T16:13:27Z</time>
      </trkpt>
      <trkpt lat="43.3884" lon="6.1048">
        <ele>281.39999389648</ele>
        <time>2013-11-09T16:13:29Z</time>
      </trkpt>
      <trkpt lat="43.38838" lon="6.1049">
        <ele>281.39999389648</ele>
        <time>2013-11-09T16:13:30Z</time>
      </trkpt>
      <trkpt lat="43.38834" lon="6.1052">
        <ele>281</ele>
        <time>2013-11-09T16:13:33Z</time>
      </trkpt>
      <trkpt lat="43.38831" lon="6.10539">
        <ele>280.20001220703</ele>
        <time>2013-11-09T16:13:35Z</time>
      </trkpt>
      <trkpt lat="43.38827" lon="6.10558">
        <ele>279.39999389648</ele>
        <time>2013-11-09T16:13:37Z</time>
      </trkpt>
      <trkpt lat="43.3881" lon="6.10618">
        <ele>277.60000610352</ele>
        <time>2013-11-09T16:13:44Z</time>
      </trkpt>
      <trkpt lat="43.38797" lon="6.10663">
        <ele>277</ele>
        <time>2013-11-09T16:13:50Z</time>
      </trkpt>
      <trkpt lat="43.38792" lon="6.10677">
        <ele>277</ele>
        <time>2013-11-09T16:13:52Z</time>
      </trkpt>
      <trkpt lat="43.38788" lon="6.10693">
        <ele>277</ele>
        <time>2013-11-09T16:13:54Z</time>
      </trkpt>
      <trkpt lat="43.38783" lon="6.10716">
        <ele>277</ele>
        <time>2013-11-09T16:13:57Z</time>
      </trkpt>
      <trkpt lat="43.3878" lon="6.1073">
        <ele>277</ele>
        <time>2013-11-09T16:13:59Z</time>
      </trkpt>
      <trkpt lat="43.38778" lon="6.1074">
        <ele>277</ele>
        <time>2013-11-09T16:14:01Z</time>
      </trkpt>
      <trkpt lat="43.38777" lon="6.10749">
        <ele>276.60000610352</ele>
        <time>2013-11-09T16:14:04Z</time>
      </trkpt>
      <trkpt lat="43.38777" lon="6.10752">
        <ele>276.20001220703</ele>
        <time>2013-11-09T16:14:05Z</time>
      </trkpt>
      <trkpt lat="43.38784" lon="6.10757">
        <ele>275</ele>
        <time>2013-11-09T16:14:08Z</time>
      </trkpt>
      <trkpt lat="43.38795" lon="6.10758">
        <ele>275</ele>
        <time>2013-11-09T16:14:10Z</time>
      </trkpt>
      <trkpt lat="43.38808" lon="6.10758">
        <ele>275</ele>
        <time>2013-11-09T16:14:12Z</time>
      </trkpt>
      <trkpt lat="43.38822" lon="6.10756">
        <ele>274.20001220703</ele>
        <time>2013-11-09T16:14:14Z</time>
      </trkpt>
      <trkpt lat="43.38828" lon="6.10756">
        <ele>273.79998779297</ele>
        <time>2013-11-09T16:14:15Z</time>
      </trkpt>
      <trkpt lat="43.38834" lon="6.10756">
        <ele>273.39999389648</ele>
        <time>2013-11-09T16:14:16Z</time>
      </trkpt>
      <trkpt lat="43.3884" lon="6.10756">
        <ele>273</ele>
        <time>2013-11-09T16:14:17Z</time>
      </trkpt>
      <trkpt lat="43.38853" lon="6.10756">
        <ele>273</ele>
        <time>2013-11-09T16:14:19Z</time>
      </trkpt>
      <trkpt lat="43.38871" lon="6.10756">
        <ele>273</ele>
        <time>2013-11-09T16:14:22Z</time>
      </trkpt>
      <trkpt lat="43.38894" lon="6.10762">
        <ele>272.39999389648</ele>
        <time>2013-11-09T16:14:26Z</time>
      </trkpt>
      <trkpt lat="43.38905" lon="6.10766">
        <ele>271.60000610352</ele>
        <time>2013-11-09T16:14:28Z</time>
      </trkpt>
      <trkpt lat="43.38913" lon="6.10773">
        <ele>270.79998779297</ele>
        <time>2013-11-09T16:14:30Z</time>
      </trkpt>
      <trkpt lat="43.38918" lon="6.10785">
        <ele>270.79998779297</ele>
        <time>2013-11-09T16:14:32Z</time>
      </trkpt>
      <trkpt lat="43.38921" lon="6.10798">
        <ele>270.79998779297</ele>
        <time>2013-11-09T16:14:34Z</time>
      </trkpt>
      <trkpt lat="43.38924" lon="6.10808">
        <ele>270.79998779297</ele>
        <time>2013-11-09T16:14:36Z</time>
      </trkpt>
      <trkpt lat="43.38929" lon="6.10816">
        <ele>270.79998779297</ele>
        <time>2013-11-09T16:14:38Z</time>
      </trkpt>
      <trkpt lat="43.38932" lon="6.1082">
        <ele>270.79998779297</ele>
        <time>2013-11-09T16:14:39Z</time>
      </trkpt>
      <trkpt lat="43.38944" lon="6.10829">
        <ele>270.79998779297</ele>
        <time>2013-11-09T16:14:42Z</time>
      </trkpt>
      <trkpt lat="43.38948" lon="6.10831">
        <ele>270.79998779297</ele>
        <time>2013-11-09T16:14:43Z</time>
      </trkpt>
      <trkpt lat="43.38969" lon="6.10839">
        <ele>270.79998779297</ele>
        <time>2013-11-09T16:14:47Z</time>
      </trkpt>
      <trkpt lat="43.38994" lon="6.10847">
        <ele>270.79998779297</ele>
        <time>2013-11-09T16:14:52Z</time>
      </trkpt>
      <trkpt lat="43.38998" lon="6.10845">
        <ele>270.79998779297</ele>
        <time>2013-11-09T16:14:53Z</time>
      </trkpt>
      <trkpt lat="43.39021" lon="6.10835">
        <ele>269.60000610352</ele>
        <time>2013-11-09T16:14:58Z</time>
      </trkpt>
      <trkpt lat="43.39031" lon="6.10832">
        <ele>268.60000610352</ele>
        <time>2013-11-09T16:15:00Z</time>
      </trkpt>
      <trkpt lat="43.39039" lon="6.10828">
        <ele>268.60000610352</ele>
        <time>2013-11-09T16:15:02Z</time>
      </trkpt>
      <trkpt lat="43.39054" lon="6.10824">
        <ele>268.60000610352</ele>
        <time>2013-11-09T16:15:06Z</time>
      </trkpt>
      <trkpt lat="43.3907" lon="6.10816">
        <ele>268.60000610352</ele>
        <time>2013-11-09T16:15:09Z</time>
      </trkpt>
      <trkpt lat="43.39075" lon="6.10812">
        <ele>268.60000610352</ele>
        <time>2013-11-09T16:15:10Z</time>
      </trkpt>
      <trkpt lat="43.39099" lon="6.10785">
        <ele>268.60000610352</ele>
        <time>2013-11-09T16:15:16Z</time>
      </trkpt>
      <trkpt lat="43.39116" lon="6.10772">
        <ele>268.20001220703</ele>
        <time>2013-11-09T16:15:20Z</time>
      </trkpt>
      <trkpt lat="43.39132" lon="6.10763">
        <ele>267</ele>
        <time>2013-11-09T16:15:23Z</time>
      </trkpt>
      <trkpt lat="43.39147" lon="6.10753">
        <ele>266.60000610352</ele>
        <time>2013-11-09T16:15:26Z</time>
      </trkpt>
      <trkpt lat="43.39156" lon="6.10744">
        <ele>266.60000610352</ele>
        <time>2013-11-09T16:15:28Z</time>
      </trkpt>
      <trkpt lat="43.39159" lon="6.10739">
        <ele>266</ele>
        <time>2013-11-09T16:15:29Z</time>
      </trkpt>
      <trkpt lat="43.39165" lon="6.10725">
        <ele>265.20001220703</ele>
        <time>2013-11-09T16:15:31Z</time>
      </trkpt>
      <trkpt lat="43.39172" lon="6.10695">
        <ele>264.20001220703</ele>
        <time>2013-11-09T16:15:35Z</time>
      </trkpt>
      <trkpt lat="43.39175" lon="6.10679">
        <ele>264.20001220703</ele>
        <time>2013-11-09T16:15:37Z</time>
      </trkpt>
      <trkpt lat="43.3918" lon="6.10664">
        <ele>264.20001220703</ele>
        <time>2013-11-09T16:15:39Z</time>
      </trkpt>
      <trkpt lat="43.39186" lon="6.10653">
        <ele>264.20001220703</ele>
        <time>2013-11-09T16:15:41Z</time>
      </trkpt>
      <trkpt lat="43.39197" lon="6.10639">
        <ele>264.20001220703</ele>
        <time>2013-11-09T16:15:44Z</time>
      </trkpt>
      <trkpt lat="43.39201" lon="6.10637">
        <ele>264.20001220703</ele>
        <time>2013-11-09T16:15:45Z</time>
      </trkpt>
      <trkpt lat="43.39219" lon="6.10625">
        <ele>264.20001220703</ele>
        <time>2013-11-09T16:15:49Z</time>
      </trkpt>
      <trkpt lat="43.39228" lon="6.10615">
        <ele>264.20001220703</ele>
        <time>2013-11-09T16:15:52Z</time>
      </trkpt>
      <trkpt lat="43.39234" lon="6.10607">
        <ele>264.20001220703</ele>
        <time>2013-11-09T16:15:54Z</time>
      </trkpt>
      <trkpt lat="43.39248" lon="6.10597">
        <ele>264.20001220703</ele>
        <time>2013-11-09T16:15:58Z</time>
      </trkpt>
      <trkpt lat="43.39259" lon="6.10584">
        <ele>264.20001220703</ele>
        <time>2013-11-09T16:16:01Z</time>
      </trkpt>
      <trkpt lat="43.39273" lon="6.10548">
        <ele>264.20001220703</ele>
        <time>2013-11-09T16:16:08Z</time>
      </trkpt>
      <trkpt lat="43.39276" lon="6.10536">
        <ele>264.20001220703</ele>
        <time>2013-11-09T16:16:10Z</time>
      </trkpt>
      <trkpt lat="43.39291" lon="6.105">
        <ele>264.20001220703</ele>
        <time>2013-11-09T16:16:16Z</time>
      </trkpt>
      <trkpt lat="43.39296" lon="6.10487">
        <ele>263.60000610352</ele>
        <time>2013-11-09T16:16:18Z</time>
      </trkpt>
      <trkpt lat="43.39303" lon="6.10475">
        <ele>262.79998779297</ele>
        <time>2013-11-09T16:16:20Z</time>
      </trkpt>
      <trkpt lat="43.39307" lon="6.10469">
        <ele>262.20001220703</ele>
        <time>2013-11-09T16:16:21Z</time>
      </trkpt>
      <trkpt lat="43.3931" lon="6.10463">
        <ele>261.79998779297</ele>
        <time>2013-11-09T16:16:22Z</time>
      </trkpt>
      <trkpt lat="43.39321" lon="6.10444">
        <ele>261.39999389648</ele>
        <time>2013-11-09T16:16:25Z</time>
      </trkpt>
      <trkpt lat="43.39325" lon="6.10438">
        <ele>261</ele>
        <time>2013-11-09T16:16:26Z</time>
      </trkpt>
      <trkpt lat="43.39328" lon="6.10432">
        <ele>260.60000610352</ele>
        <time>2013-11-09T16:16:27Z</time>
      </trkpt>
      <trkpt lat="43.39336" lon="6.10422">
        <ele>259.79998779297</ele>
        <time>2013-11-09T16:16:29Z</time>
      </trkpt>
      <trkpt lat="43.39345" lon="6.1042">
        <ele>259.79998779297</ele>
        <time>2013-11-09T16:16:31Z</time>
      </trkpt>
      <trkpt lat="43.39359" lon="6.10419">
        <ele>259.79998779297</ele>
        <time>2013-11-09T16:16:34Z</time>
      </trkpt>
      <trkpt lat="43.39363" lon="6.10416">
        <ele>259.39999389648</ele>
        <time>2013-11-09T16:16:35Z</time>
      </trkpt>
      <trkpt lat="43.39366" lon="6.10411">
        <ele>259</ele>
        <time>2013-11-09T16:16:36Z</time>
      </trkpt>
      <trkpt lat="43.39368" lon="6.10398">
        <ele>258.20001220703</ele>
        <time>2013-11-09T16:16:38Z</time>
      </trkpt>
      <trkpt lat="43.39374" lon="6.10381">
        <ele>257.79998779297</ele>
        <time>2013-11-09T16:16:41Z</time>
      </trkpt>
      <trkpt lat="43.39384" lon="6.10365">
        <ele>257.39999389648</ele>
        <time>2013-11-09T16:16:44Z</time>
      </trkpt>
      <trkpt lat="43.39392" lon="6.10348">
        <ele>255.60000610352</ele>
        <time>2013-11-09T16:16:47Z</time>
      </trkpt>
      <trkpt lat="43.39402" lon="6.10334">
        <ele>255.60000610352</ele>
        <time>2013-11-09T16:16:50Z</time>
      </trkpt>
      <trkpt lat="43.39409" lon="6.10324">
        <ele>255.60000610352</ele>
        <time>2013-11-09T16:16:52Z</time>
      </trkpt>
      <trkpt lat="43.39422" lon="6.10306">
        <ele>255.60000610352</ele>
        <time>2013-11-09T16:16:56Z</time>
      </trkpt>
      <trkpt lat="43.39438" lon="6.10291">
        <ele>255.60000610352</ele>
        <time>2013-11-09T16:17:00Z</time>
      </trkpt>
      <trkpt lat="43.39447" lon="6.10284">
        <ele>255.60000610352</ele>
        <time>2013-11-09T16:17:02Z</time>
      </trkpt>
      <trkpt lat="43.39463" lon="6.1027">
        <ele>255.19999694824</ele>
        <time>2013-11-09T16:17:06Z</time>
      </trkpt>
      <trkpt lat="43.39483" lon="6.10247">
        <ele>253.39999389648</ele>
        <time>2013-11-09T16:17:11Z</time>
      </trkpt>
      <trkpt lat="43.39489" lon="6.10234">
        <ele>252.60000610352</ele>
        <time>2013-11-09T16:17:13Z</time>
      </trkpt>
      <trkpt lat="43.39492" lon="6.10227">
        <ele>252.19999694824</ele>
        <time>2013-11-09T16:17:14Z</time>
      </trkpt>
      <trkpt lat="43.39499" lon="6.10212">
        <ele>251.39999389648</ele>
        <time>2013-11-09T16:17:16Z</time>
      </trkpt>
      <trkpt lat="43.39503" lon="6.10196">
        <ele>251.39999389648</ele>
        <time>2013-11-09T16:17:18Z</time>
      </trkpt>
      <trkpt lat="43.39511" lon="6.10166">
        <ele>251.39999389648</ele>
        <time>2013-11-09T16:17:22Z</time>
      </trkpt>
      <trkpt lat="43.39516" lon="6.10151">
        <ele>251.39999389648</ele>
        <time>2013-11-09T16:17:24Z</time>
      </trkpt>
      <trkpt lat="43.39524" lon="6.1012">
        <ele>249.80000305176</ele>
        <time>2013-11-09T16:17:28Z</time>
      </trkpt>
      <trkpt lat="43.39538" lon="6.1009">
        <ele>249.39999389648</ele>
        <time>2013-11-09T16:17:33Z</time>
      </trkpt>
      <trkpt lat="43.3954" lon="6.10084">
        <ele>249</ele>
        <time>2013-11-09T16:17:34Z</time>
      </trkpt>
      <trkpt lat="43.39543" lon="6.10078">
        <ele>248.60000610352</ele>
        <time>2013-11-09T16:17:35Z</time>
      </trkpt>
      <trkpt lat="43.39547" lon="6.10063">
        <ele>247.19999694824</ele>
        <time>2013-11-09T16:17:37Z</time>
      </trkpt>
      <trkpt lat="43.39558" lon="6.10024">
        <ele>247.19999694824</ele>
        <time>2013-11-09T16:17:43Z</time>
      </trkpt>
      <trkpt lat="43.39555" lon="6.10015">
        <ele>247.19999694824</ele>
        <time>2013-11-09T16:17:45Z</time>
      </trkpt>
      <trkpt lat="43.39551" lon="6.09996">
        <ele>247.19999694824</ele>
        <time>2013-11-09T16:17:50Z</time>
      </trkpt>
      <trkpt lat="43.39552" lon="6.09976">
        <ele>247.19999694824</ele>
        <time>2013-11-09T16:17:54Z</time>
      </trkpt>
      <trkpt lat="43.39553" lon="6.09946">
        <ele>247.19999694824</ele>
        <time>2013-11-09T16:17:59Z</time>
      </trkpt>
      <trkpt lat="43.39552" lon="6.09942">
        <ele>247.19999694824</ele>
        <time>2013-11-09T16:18:00Z</time>
      </trkpt>
      <trkpt lat="43.3955" lon="6.09938">
        <ele>247.19999694824</ele>
        <time>2013-11-09T16:18:01Z</time>
      </trkpt>
      <trkpt lat="43.39548" lon="6.09932">
        <ele>247.19999694824</ele>
        <time>2013-11-09T16:18:03Z</time>
      </trkpt>
      <trkpt lat="43.39543" lon="6.09923">
        <ele>247.60000610352</ele>
        <time>2013-11-09T16:18:06Z</time>
      </trkpt>
      <trkpt lat="43.39542" lon="6.0992">
        <ele>248</ele>
        <time>2013-11-09T16:18:07Z</time>
      </trkpt>
      <trkpt lat="43.39542" lon="6.09917">
        <ele>248.39999389648</ele>
        <time>2013-11-09T16:18:08Z</time>
      </trkpt>
      <trkpt lat="43.39542" lon="6.09913">
        <ele>248.80000305176</ele>
        <time>2013-11-09T16:18:09Z</time>
      </trkpt>
      <trkpt lat="43.39542" lon="6.0991">
        <ele>249.19999694824</ele>
        <time>2013-11-09T16:18:10Z</time>
      </trkpt>
      <trkpt lat="43.39545" lon="6.099">
        <ele>249.19999694824</ele>
        <time>2013-11-09T16:18:14Z</time>
      </trkpt>
      <trkpt lat="43.39553" lon="6.0988">
        <ele>249.19999694824</ele>
        <time>2013-11-09T16:18:20Z</time>
      </trkpt>
      <trkpt lat="43.39557" lon="6.09844">
        <ele>249.19999694824</ele>
        <time>2013-11-09T16:18:27Z</time>
      </trkpt>
      <trkpt lat="43.39563" lon="6.09815">
        <ele>249.19999694824</ele>
        <time>2013-11-09T16:18:34Z</time>
      </trkpt>
      <trkpt lat="43.39568" lon="6.09786">
        <ele>249.19999694824</ele>
        <time>2013-11-09T16:18:41Z</time>
      </trkpt>
      <trkpt lat="43.39585" lon="6.09726">
        <ele>249.19999694824</ele>
        <time>2013-11-09T16:18:55Z</time>
      </trkpt>
      <trkpt lat="43.39589" lon="6.09714">
        <ele>249.19999694824</ele>
        <time>2013-11-09T16:18:58Z</time>
      </trkpt>
      <trkpt lat="43.39594" lon="6.09681">
        <ele>249.19999694824</ele>
        <time>2013-11-09T16:19:05Z</time>
      </trkpt>
      <trkpt lat="43.39597" lon="6.09666">
        <ele>249.19999694824</ele>
        <time>2013-11-09T16:19:08Z</time>
      </trkpt>
      <trkpt lat="43.396" lon="6.0965">
        <ele>249.19999694824</ele>
        <time>2013-11-09T16:19:11Z</time>
      </trkpt>
      <trkpt lat="43.39606" lon="6.0962">
        <ele>249.19999694824</ele>
        <time>2013-11-09T16:19:18Z</time>
      </trkpt>
      <trkpt lat="43.39614" lon="6.09594">
        <ele>249.19999694824</ele>
        <time>2013-11-09T16:19:24Z</time>
      </trkpt>
      <trkpt lat="43.39619" lon="6.09582">
        <ele>249.19999694824</ele>
        <time>2013-11-09T16:19:28Z</time>
      </trkpt>
      <trkpt lat="43.39619" lon="6.09579">
        <ele>249.19999694824</ele>
        <time>2013-11-09T16:19:29Z</time>
      </trkpt>
      <trkpt lat="43.39621" lon="6.09576">
        <ele>249.19999694824</ele>
        <time>2013-11-09T16:19:30Z</time>
      </trkpt>
      <trkpt lat="43.39628" lon="6.09553">
        <ele>249.19999694824</ele>
        <time>2013-11-09T16:19:34Z</time>
      </trkpt>
      <trkpt lat="43.39639" lon="6.09535">
        <ele>249.19999694824</ele>
        <time>2013-11-09T16:19:37Z</time>
      </trkpt>
      <trkpt lat="43.39643" lon="6.09528">
        <ele>248.80000305176</ele>
        <time>2013-11-09T16:19:38Z</time>
      </trkpt>
      <trkpt lat="43.39648" lon="6.0952">
        <ele>248.39999389648</ele>
        <time>2013-11-09T16:19:39Z</time>
      </trkpt>
      <trkpt lat="43.39653" lon="6.09512">
        <ele>248</ele>
        <time>2013-11-09T16:19:40Z</time>
      </trkpt>
      <trkpt lat="43.39658" lon="6.09503">
        <ele>247.39999389648</ele>
        <time>2013-11-09T16:19:41Z</time>
      </trkpt>
      <trkpt lat="43.39662" lon="6.09493">
        <ele>246.80000305176</ele>
        <time>2013-11-09T16:19:42Z</time>
      </trkpt>
      <trkpt lat="43.39666" lon="6.09483">
        <ele>246</ele>
        <time>2013-11-09T16:19:43Z</time>
      </trkpt>
      <trkpt lat="43.3967" lon="6.09473">
        <ele>245.39999389648</ele>
        <time>2013-11-09T16:19:44Z</time>
      </trkpt>
      <trkpt lat="43.39672" lon="6.09462">
        <ele>244.60000610352</ele>
        <time>2013-11-09T16:19:45Z</time>
      </trkpt>
      <trkpt lat="43.39676" lon="6.09453">
        <ele>243.80000305176</ele>
        <time>2013-11-09T16:19:46Z</time>
      </trkpt>
      <trkpt lat="43.3968" lon="6.09444">
        <ele>243.19999694824</ele>
        <time>2013-11-09T16:19:47Z</time>
      </trkpt>
      <trkpt lat="43.39685" lon="6.09436">
        <ele>242.39999389648</ele>
        <time>2013-11-09T16:19:48Z</time>
      </trkpt>
      <trkpt lat="43.3969" lon="6.09431">
        <ele>241.60000610352</ele>
        <time>2013-11-09T16:19:49Z</time>
      </trkpt>
      <trkpt lat="43.39702" lon="6.09421">
        <ele>240</ele>
        <time>2013-11-09T16:19:51Z</time>
      </trkpt>
      <trkpt lat="43.39707" lon="6.09418">
        <ele>239</ele>
        <time>2013-11-09T16:19:52Z</time>
      </trkpt>
      <trkpt lat="43.39717" lon="6.09411">
        <ele>237.39999389648</ele>
        <time>2013-11-09T16:19:54Z</time>
      </trkpt>
      <trkpt lat="43.39732" lon="6.094">
        <ele>235.39999389648</ele>
        <time>2013-11-09T16:19:57Z</time>
      </trkpt>
      <trkpt lat="43.39738" lon="6.09389">
        <ele>234</ele>
        <time>2013-11-09T16:19:59Z</time>
      </trkpt>
      <trkpt lat="43.39742" lon="6.09384">
        <ele>233.60000610352</ele>
        <time>2013-11-09T16:20:00Z</time>
      </trkpt>
      <trkpt lat="43.39749" lon="6.09368">
        <ele>233.60000610352</ele>
        <time>2013-11-09T16:20:03Z</time>
      </trkpt>
      <trkpt lat="43.3976" lon="6.09346">
        <ele>233.60000610352</ele>
        <time>2013-11-09T16:20:07Z</time>
      </trkpt>
      <trkpt lat="43.39769" lon="6.09331">
        <ele>233.60000610352</ele>
        <time>2013-11-09T16:20:10Z</time>
      </trkpt>
      <trkpt lat="43.39775" lon="6.09315">
        <ele>233.60000610352</ele>
        <time>2013-11-09T16:20:13Z</time>
      </trkpt>
      <trkpt lat="43.39783" lon="6.09281">
        <ele>233.60000610352</ele>
        <time>2013-11-09T16:20:20Z</time>
      </trkpt>
      <trkpt lat="43.39789" lon="6.09262">
        <ele>233.60000610352</ele>
        <time>2013-11-09T16:20:24Z</time>
      </trkpt>
      <trkpt lat="43.39791" lon="6.09252">
        <ele>233.60000610352</ele>
        <time>2013-11-09T16:20:26Z</time>
      </trkpt>
      <trkpt lat="43.39795" lon="6.0923">
        <ele>233.60000610352</ele>
        <time>2013-11-09T16:20:31Z</time>
      </trkpt>
      <trkpt lat="43.39797" lon="6.09208">
        <ele>233.60000610352</ele>
        <time>2013-11-09T16:20:36Z</time>
      </trkpt>
      <trkpt lat="43.39796" lon="6.09175">
        <ele>233.60000610352</ele>
        <time>2013-11-09T16:20:43Z</time>
      </trkpt>
      <trkpt lat="43.39796" lon="6.09161">
        <ele>233.60000610352</ele>
        <time>2013-11-09T16:20:46Z</time>
      </trkpt>
      <trkpt lat="43.39797" lon="6.09147">
        <ele>233.60000610352</ele>
        <time>2013-11-09T16:20:49Z</time>
      </trkpt>
      <trkpt lat="43.39801" lon="6.09131">
        <ele>233.60000610352</ele>
        <time>2013-11-09T16:20:53Z</time>
      </trkpt>
      <trkpt lat="43.39806" lon="6.09108">
        <ele>233.60000610352</ele>
        <time>2013-11-09T16:20:59Z</time>
      </trkpt>
      <trkpt lat="43.3981" lon="6.0909">
        <ele>235</ele>
        <time>2013-11-09T16:21:03Z</time>
      </trkpt>
      <trkpt lat="43.39813" lon="6.0908">
        <ele>235.80000305176</ele>
        <time>2013-11-09T16:21:05Z</time>
      </trkpt>
      <trkpt lat="43.3982" lon="6.09063">
        <ele>235.80000305176</ele>
        <time>2013-11-09T16:21:09Z</time>
      </trkpt>
      <trkpt lat="43.39827" lon="6.09051">
        <ele>235.80000305176</ele>
        <time>2013-11-09T16:21:12Z</time>
      </trkpt>
      <trkpt lat="43.3984" lon="6.09037">
        <ele>235.80000305176</ele>
        <time>2013-11-09T16:21:17Z</time>
      </trkpt>
      <trkpt lat="43.39849" lon="6.09029">
        <ele>235.80000305176</ele>
        <time>2013-11-09T16:21:20Z</time>
      </trkpt>
      <trkpt lat="43.39859" lon="6.09016">
        <ele>235</ele>
        <time>2013-11-09T16:21:24Z</time>
      </trkpt>
      <trkpt lat="43.39862" lon="6.09013">
        <ele>234.60000610352</ele>
        <time>2013-11-09T16:21:25Z</time>
      </trkpt>
      <trkpt lat="43.39867" lon="6.09006">
        <ele>233.80000305176</ele>
        <time>2013-11-09T16:21:27Z</time>
      </trkpt>
      <trkpt lat="43.39875" lon="6.08997">
        <ele>233.80000305176</ele>
        <time>2013-11-09T16:21:30Z</time>
      </trkpt>
      <trkpt lat="43.39885" lon="6.08993">
        <ele>233.80000305176</ele>
        <time>2013-11-09T16:21:33Z</time>
      </trkpt>
      <trkpt lat="43.39889" lon="6.08992">
        <ele>233.80000305176</ele>
        <time>2013-11-09T16:21:35Z</time>
      </trkpt>
      <trkpt lat="43.39898" lon="6.08994">
        <ele>233</ele>
        <time>2013-11-09T16:21:38Z</time>
      </trkpt>
      <trkpt lat="43.39902" lon="6.08995">
        <ele>232.60000610352</ele>
        <time>2013-11-09T16:21:39Z</time>
      </trkpt>
      <trkpt lat="43.39906" lon="6.08997">
        <ele>232.19999694824</ele>
        <time>2013-11-09T16:21:40Z</time>
      </trkpt>
      <trkpt lat="43.39915" lon="6.08996">
        <ele>231.80000305176</ele>
        <time>2013-11-09T16:21:41Z</time>
      </trkpt>
      <trkpt lat="43.3993" lon="6.08994">
        <ele>231.19999694824</ele>
        <time>2013-11-09T16:21:43Z</time>
      </trkpt>
      <trkpt lat="43.39943" lon="6.08991">
        <ele>230.19999694824</ele>
        <time>2013-11-09T16:21:45Z</time>
      </trkpt>
      <trkpt lat="43.39949" lon="6.08989">
        <ele>229.80000305176</ele>
        <time>2013-11-09T16:21:46Z</time>
      </trkpt>
      <trkpt lat="43.39956" lon="6.08989">
        <ele>229.39999389648</ele>
        <time>2013-11-09T16:21:47Z</time>
      </trkpt>
      <trkpt lat="43.39962" lon="6.08988">
        <ele>229.39999389648</ele>
        <time>2013-11-09T16:21:48Z</time>
      </trkpt>
      <trkpt lat="43.39998" lon="6.0898">
        <ele>229.39999389648</ele>
        <time>2013-11-09T16:21:54Z</time>
      </trkpt>
      <trkpt lat="43.40004" lon="6.08976">
        <ele>229.39999389648</ele>
        <time>2013-11-09T16:21:55Z</time>
      </trkpt>
      <trkpt lat="43.40018" lon="6.08964">
        <ele>229.39999389648</ele>
        <time>2013-11-09T16:21:58Z</time>
      </trkpt>
      <trkpt lat="43.40028" lon="6.08939">
        <ele>229.39999389648</ele>
        <time>2013-11-09T16:22:02Z</time>
      </trkpt>
      <trkpt lat="43.40034" lon="6.08914">
        <ele>228.19999694824</ele>
        <time>2013-11-09T16:22:06Z</time>
      </trkpt>
      <trkpt lat="43.40037" lon="6.08902">
        <ele>227.39999389648</ele>
        <time>2013-11-09T16:22:08Z</time>
      </trkpt>
      <trkpt lat="43.40039" lon="6.08896">
        <ele>227.39999389648</ele>
        <time>2013-11-09T16:22:09Z</time>
      </trkpt>
      <trkpt lat="43.40046" lon="6.08869">
        <ele>227.39999389648</ele>
        <time>2013-11-09T16:22:14Z</time>
      </trkpt>
      <trkpt lat="43.40055" lon="6.0884">
        <ele>227.39999389648</ele>
        <time>2013-11-09T16:22:19Z</time>
      </trkpt>
      <trkpt lat="43.40072" lon="6.08801">
        <ele>227.39999389648</ele>
        <time>2013-11-09T16:22:27Z</time>
      </trkpt>
      <trkpt lat="43.40082" lon="6.08774">
        <ele>227.39999389648</ele>
        <time>2013-11-09T16:22:33Z</time>
      </trkpt>
      <trkpt lat="43.40095" lon="6.08734">
        <ele>227.39999389648</ele>
        <time>2013-11-09T16:22:41Z</time>
      </trkpt>
      <trkpt lat="43.40101" lon="6.08694">
        <ele>227.39999389648</ele>
        <time>2013-11-09T16:22:48Z</time>
      </trkpt>
      <trkpt lat="43.40099" lon="6.08668">
        <ele>227.39999389648</ele>
        <time>2013-11-09T16:22:52Z</time>
      </trkpt>
      <trkpt lat="43.40097" lon="6.08654">
        <ele>226.39999389648</ele>
        <time>2013-11-09T16:22:54Z</time>
      </trkpt>
      <trkpt lat="43.40098" lon="6.08647">
        <ele>226</ele>
        <time>2013-11-09T16:22:55Z</time>
      </trkpt>
      <trkpt lat="43.40099" lon="6.0864">
        <ele>225.39999389648</ele>
        <time>2013-11-09T16:22:56Z</time>
      </trkpt>
      <trkpt lat="43.40103" lon="6.08634">
        <ele>225</ele>
        <time>2013-11-09T16:22:57Z</time>
      </trkpt>
      <trkpt lat="43.40111" lon="6.08626">
        <ele>225</ele>
        <time>2013-11-09T16:22:59Z</time>
      </trkpt>
      <trkpt lat="43.40115" lon="6.08623">
        <ele>225</ele>
        <time>2013-11-09T16:23:00Z</time>
      </trkpt>
      <trkpt lat="43.40119" lon="6.08619">
        <ele>225</ele>
        <time>2013-11-09T16:23:01Z</time>
      </trkpt>
      <trkpt lat="43.40142" lon="6.08598">
        <ele>223.80000305176</ele>
        <time>2013-11-09T16:23:07Z</time>
      </trkpt>
      <trkpt lat="43.40146" lon="6.08595">
        <ele>223.39999389648</ele>
        <time>2013-11-09T16:23:08Z</time>
      </trkpt>
      <trkpt lat="43.40157" lon="6.08589">
        <ele>223</ele>
        <time>2013-11-09T16:23:11Z</time>
      </trkpt>
      <trkpt lat="43.40166" lon="6.08578">
        <ele>223</ele>
        <time>2013-11-09T16:23:14Z</time>
      </trkpt>
      <trkpt lat="43.40167" lon="6.08572">
        <ele>223</ele>
        <time>2013-11-09T16:23:15Z</time>
      </trkpt>
      <trkpt lat="43.40166" lon="6.08558">
        <ele>223</ele>
        <time>2013-11-09T16:23:18Z</time>
      </trkpt>
      <trkpt lat="43.40166" lon="6.08536">
        <ele>223</ele>
        <time>2013-11-09T16:23:23Z</time>
      </trkpt>
      <trkpt lat="43.40166" lon="6.08518">
        <ele>223</ele>
        <time>2013-11-09T16:23:27Z</time>
      </trkpt>
      <trkpt lat="43.40166" lon="6.0851">
        <ele>223</ele>
        <time>2013-11-09T16:23:29Z</time>
      </trkpt>
      <trkpt lat="43.4017" lon="6.08491">
        <ele>223</ele>
        <time>2013-11-09T16:23:34Z</time>
      </trkpt>
      <trkpt lat="43.40173" lon="6.08466">
        <ele>223</ele>
        <time>2013-11-09T16:23:40Z</time>
      </trkpt>
      <trkpt lat="43.40177" lon="6.08441">
        <ele>223</ele>
        <time>2013-11-09T16:23:45Z</time>
      </trkpt>
      <trkpt lat="43.40179" lon="6.08405">
        <ele>223</ele>
        <time>2013-11-09T16:23:51Z</time>
      </trkpt>
      <trkpt lat="43.4018" lon="6.08399">
        <ele>223</ele>
        <time>2013-11-09T16:23:52Z</time>
      </trkpt>
      <trkpt lat="43.4018" lon="6.08353">
        <ele>223</ele>
        <time>2013-11-09T16:23:59Z</time>
      </trkpt>
      <trkpt lat="43.40181" lon="6.08307">
        <ele>223</ele>
        <time>2013-11-09T16:24:06Z</time>
      </trkpt>
      <trkpt lat="43.40185" lon="6.0828">
        <ele>223</ele>
        <time>2013-11-09T16:24:11Z</time>
      </trkpt>
      <trkpt lat="43.40187" lon="6.08276">
        <ele>223</ele>
        <time>2013-11-09T16:24:12Z</time>
      </trkpt>
      <trkpt lat="43.40187" lon="6.0827">
        <ele>223</ele>
        <time>2013-11-09T16:24:15Z</time>
      </trkpt>
      <trkpt lat="43.40187" lon="6.08269">
        <ele>223</ele>
        <time>2013-11-09T16:24:19Z</time>
      </trkpt>
      <trkpt lat="43.40185" lon="6.08264">
        <ele>223</ele>
        <time>2013-11-09T16:24:25Z</time>
      </trkpt>
      <trkpt lat="43.40185" lon="6.08265">
        <ele>223</ele>
        <time>2013-11-09T16:24:28Z</time>
      </trkpt>
      <trkpt lat="43.40185" lon="6.08265">
        <ele>223</ele>
        <time>2013-11-09T16:24:33Z</time>
      </trkpt>
      <trkpt lat="43.40184" lon="6.08257">
        <ele>223</ele>
        <time>2013-11-09T16:24:38Z</time>
      </trkpt>
      <trkpt lat="43.40183" lon="6.08237">
        <ele>223</ele>
        <time>2013-11-09T16:24:42Z</time>
      </trkpt>
      <trkpt lat="43.40187" lon="6.0821">
        <ele>223</ele>
        <time>2013-11-09T16:24:47Z</time>
      </trkpt>
      <trkpt lat="43.40189" lon="6.08204">
        <ele>223</ele>
        <time>2013-11-09T16:24:48Z</time>
      </trkpt>
      <trkpt lat="43.40195" lon="6.08179">
        <ele>223</ele>
        <time>2013-11-09T16:24:52Z</time>
      </trkpt>
      <trkpt lat="43.40196" lon="6.08168">
        <ele>223</ele>
        <time>2013-11-09T16:24:54Z</time>
      </trkpt>
      <trkpt lat="43.40198" lon="6.08148">
        <ele>223</ele>
        <time>2013-11-09T16:24:57Z</time>
      </trkpt>
      <trkpt lat="43.40198" lon="6.08141">
        <ele>222.39999389648</ele>
        <time>2013-11-09T16:24:58Z</time>
      </trkpt>
      <trkpt lat="43.40197" lon="6.08136">
        <ele>222</ele>
        <time>2013-11-09T16:24:59Z</time>
      </trkpt>
      <trkpt lat="43.40196" lon="6.08128">
        <ele>221.19999694824</ele>
        <time>2013-11-09T16:25:01Z</time>
      </trkpt>
      <trkpt lat="43.40195" lon="6.08125">
        <ele>220.80000305176</ele>
        <time>2013-11-09T16:25:03Z</time>
      </trkpt>
      <trkpt lat="43.40194" lon="6.08124">
        <ele>220.80000305176</ele>
        <time>2013-11-09T16:25:04Z</time>
      </trkpt>
      <trkpt lat="43.40191" lon="6.08109">
        <ele>220.80000305176</ele>
        <time>2013-11-09T16:25:09Z</time>
      </trkpt>
      <trkpt lat="43.40191" lon="6.08092">
        <ele>220.80000305176</ele>
        <time>2013-11-09T16:25:12Z</time>
      </trkpt>
      <trkpt lat="43.40195" lon="6.0808">
        <ele>220.80000305176</ele>
        <time>2013-11-09T16:25:14Z</time>
      </trkpt>
      <trkpt lat="43.402" lon="6.08068">
        <ele>220</ele>
        <time>2013-11-09T16:25:16Z</time>
      </trkpt>
      <trkpt lat="43.40203" lon="6.08063">
        <ele>219.60000610352</ele>
        <time>2013-11-09T16:25:17Z</time>
      </trkpt>
      <trkpt lat="43.40207" lon="6.08058">
        <ele>219.19999694824</ele>
        <time>2013-11-09T16:25:18Z</time>
      </trkpt>
      <trkpt lat="43.40211" lon="6.08053">
        <ele>218.80000305176</ele>
        <time>2013-11-09T16:25:19Z</time>
      </trkpt>
      <trkpt lat="43.40226" lon="6.08033">
        <ele>218.80000305176</ele>
        <time>2013-11-09T16:25:23Z</time>
      </trkpt>
      <trkpt lat="43.40243" lon="6.08011">
        <ele>218.80000305176</ele>
        <time>2013-11-09T16:25:27Z</time>
      </trkpt>
      <trkpt lat="43.40256" lon="6.07993">
        <ele>217.80000305176</ele>
        <time>2013-11-09T16:25:30Z</time>
      </trkpt>
      <trkpt lat="43.4026" lon="6.07987">
        <ele>217.39999389648</ele>
        <time>2013-11-09T16:25:31Z</time>
      </trkpt>
      <trkpt lat="43.40264" lon="6.0798">
        <ele>217</ele>
        <time>2013-11-09T16:25:32Z</time>
      </trkpt>
      <trkpt lat="43.40272" lon="6.07966">
        <ele>216.60000610352</ele>
        <time>2013-11-09T16:25:34Z</time>
      </trkpt>
      <trkpt lat="43.40287" lon="6.07924">
        <ele>216.19999694824</ele>
        <time>2013-11-09T16:25:39Z</time>
      </trkpt>
      <trkpt lat="43.40289" lon="6.07916">
        <ele>215.80000305176</ele>
        <time>2013-11-09T16:25:40Z</time>
      </trkpt>
      <trkpt lat="43.40291" lon="6.07907">
        <ele>215.39999389648</ele>
        <time>2013-11-09T16:25:41Z</time>
      </trkpt>
      <trkpt lat="43.40293" lon="6.07889">
        <ele>214.60000610352</ele>
        <time>2013-11-09T16:25:43Z</time>
      </trkpt>
      <trkpt lat="43.403" lon="6.07834">
        <ele>213.80000305176</ele>
        <time>2013-11-09T16:25:49Z</time>
      </trkpt>
      <trkpt lat="43.40306" lon="6.0778">
        <ele>212.39999389648</ele>
        <time>2013-11-09T16:25:55Z</time>
      </trkpt>
      <trkpt lat="43.40313" lon="6.07737">
        <ele>212.39999389648</ele>
        <time>2013-11-09T16:26:00Z</time>
      </trkpt>
      <trkpt lat="43.40316" lon="6.07719">
        <ele>212.39999389648</ele>
        <time>2013-11-09T16:26:02Z</time>
      </trkpt>
      <trkpt lat="43.40319" lon="6.07711">
        <ele>212</ele>
        <time>2013-11-09T16:26:03Z</time>
      </trkpt>
      <trkpt lat="43.40327" lon="6.07696">
        <ele>211.19999694824</ele>
        <time>2013-11-09T16:26:05Z</time>
      </trkpt>
      <trkpt lat="43.40332" lon="6.0769">
        <ele>210.60000610352</ele>
        <time>2013-11-09T16:26:06Z</time>
      </trkpt>
      <trkpt lat="43.40347" lon="6.07674">
        <ele>210.19999694824</ele>
        <time>2013-11-09T16:26:09Z</time>
      </trkpt>
      <trkpt lat="43.40356" lon="6.07663">
        <ele>210.19999694824</ele>
        <time>2013-11-09T16:26:11Z</time>
      </trkpt>
      <trkpt lat="43.40368" lon="6.07634">
        <ele>210.19999694824</ele>
        <time>2013-11-09T16:26:15Z</time>
      </trkpt>
      <trkpt lat="43.40371" lon="6.07619">
        <ele>210.19999694824</ele>
        <time>2013-11-09T16:26:17Z</time>
      </trkpt>
      <trkpt lat="43.40372" lon="6.07596">
        <ele>210.19999694824</ele>
        <time>2013-11-09T16:26:20Z</time>
      </trkpt>
      <trkpt lat="43.40373" lon="6.07548">
        <ele>210.19999694824</ele>
        <time>2013-11-09T16:26:27Z</time>
      </trkpt>
      <trkpt lat="43.40374" lon="6.07515">
        <ele>210.19999694824</ele>
        <time>2013-11-09T16:26:32Z</time>
      </trkpt>
      <trkpt lat="43.40377" lon="6.07502">
        <ele>210.19999694824</ele>
        <time>2013-11-09T16:26:34Z</time>
      </trkpt>
      <trkpt lat="43.40385" lon="6.07457">
        <ele>210.19999694824</ele>
        <time>2013-11-09T16:26:41Z</time>
      </trkpt>
      <trkpt lat="43.40388" lon="6.07433">
        <ele>210.19999694824</ele>
        <time>2013-11-09T16:26:45Z</time>
      </trkpt>
      <trkpt lat="43.40389" lon="6.07415">
        <ele>210.19999694824</ele>
        <time>2013-11-09T16:26:48Z</time>
      </trkpt>
      <trkpt lat="43.40389" lon="6.07384">
        <ele>210.19999694824</ele>
        <time>2013-11-09T16:26:53Z</time>
      </trkpt>
      <trkpt lat="43.40388" lon="6.07377">
        <ele>210.19999694824</ele>
        <time>2013-11-09T16:26:54Z</time>
      </trkpt>
      <trkpt lat="43.40381" lon="6.07307">
        <ele>209.39999389648</ele>
        <time>2013-11-09T16:27:04Z</time>
      </trkpt>
      <trkpt lat="43.40381" lon="6.07299">
        <ele>209</ele>
        <time>2013-11-09T16:27:05Z</time>
      </trkpt>
      <trkpt lat="43.40387" lon="6.07285">
        <ele>208.19999694824</ele>
        <time>2013-11-09T16:27:07Z</time>
      </trkpt>
      <trkpt lat="43.40389" lon="6.07251">
        <ele>207.80000305176</ele>
        <time>2013-11-09T16:27:11Z</time>
      </trkpt>
      <trkpt lat="43.40387" lon="6.07243">
        <ele>207.39999389648</ele>
        <time>2013-11-09T16:27:12Z</time>
      </trkpt>
      <trkpt lat="43.40386" lon="6.07226">
        <ele>206.60000610352</ele>
        <time>2013-11-09T16:27:14Z</time>
      </trkpt>
      <trkpt lat="43.40387" lon="6.07209">
        <ele>206.19999694824</ele>
        <time>2013-11-09T16:27:16Z</time>
      </trkpt>
      <trkpt lat="43.40392" lon="6.07159">
        <ele>206.19999694824</ele>
        <time>2013-11-09T16:27:22Z</time>
      </trkpt>
      <trkpt lat="43.40393" lon="6.07144">
        <ele>206.19999694824</ele>
        <time>2013-11-09T16:27:24Z</time>
      </trkpt>
      <trkpt lat="43.40396" lon="6.0712">
        <ele>206.19999694824</ele>
        <time>2013-11-09T16:27:27Z</time>
      </trkpt>
      <trkpt lat="43.404" lon="6.07095">
        <ele>206.19999694824</ele>
        <time>2013-11-09T16:27:30Z</time>
      </trkpt>
      <trkpt lat="43.40401" lon="6.07087">
        <ele>206.19999694824</ele>
        <time>2013-11-09T16:27:31Z</time>
      </trkpt>
      <trkpt lat="43.40405" lon="6.07065">
        <ele>206.19999694824</ele>
        <time>2013-11-09T16:27:34Z</time>
      </trkpt>
      <trkpt lat="43.40406" lon="6.07054">
        <ele>206.19999694824</ele>
        <time>2013-11-09T16:27:36Z</time>
      </trkpt>
      <trkpt lat="43.40408" lon="6.07038">
        <ele>207.60000610352</ele>
        <time>2013-11-09T16:27:39Z</time>
      </trkpt>
      <trkpt lat="43.4041" lon="6.07028">
        <ele>208.39999389648</ele>
        <time>2013-11-09T16:27:41Z</time>
      </trkpt>
      <trkpt lat="43.40411" lon="6.07023">
        <ele>208.39999389648</ele>
        <time>2013-11-09T16:27:42Z</time>
      </trkpt>
      <trkpt lat="43.40416" lon="6.06989">
        <ele>208.39999389648</ele>
        <time>2013-11-09T16:27:49Z</time>
      </trkpt>
      <trkpt lat="43.4042" lon="6.0696">
        <ele>208.39999389648</ele>
        <time>2013-11-09T16:27:55Z</time>
      </trkpt>
      <trkpt lat="43.40427" lon="6.06943">
        <ele>208.39999389648</ele>
        <time>2013-11-09T16:27:59Z</time>
      </trkpt>
      <trkpt lat="43.4043" lon="6.06935">
        <ele>208.39999389648</ele>
        <time>2013-11-09T16:28:01Z</time>
      </trkpt>
      <trkpt lat="43.4044" lon="6.06911">
        <ele>208.39999389648</ele>
        <time>2013-11-09T16:28:08Z</time>
      </trkpt>
      <trkpt lat="43.4045" lon="6.06899">
        <ele>208.39999389648</ele>
        <time>2013-11-09T16:28:14Z</time>
      </trkpt>
      <trkpt lat="43.40459" lon="6.06859">
        <ele>208.80000305176</ele>
        <time>2013-11-09T16:28:23Z</time>
      </trkpt>
      <trkpt lat="43.40461" lon="6.06847">
        <ele>209.60000610352</ele>
        <time>2013-11-09T16:28:25Z</time>
      </trkpt>
      <trkpt lat="43.40461" lon="6.0684">
        <ele>210.19999694824</ele>
        <time>2013-11-09T16:28:26Z</time>
      </trkpt>
      <trkpt lat="43.40462" lon="6.06833">
        <ele>210.60000610352</ele>
        <time>2013-11-09T16:28:27Z</time>
      </trkpt>
      <trkpt lat="43.40462" lon="6.0682">
        <ele>210.60000610352</ele>
        <time>2013-11-09T16:28:29Z</time>
      </trkpt>
      <trkpt lat="43.40462" lon="6.06799">
        <ele>210.60000610352</ele>
        <time>2013-11-09T16:28:32Z</time>
      </trkpt>
      <trkpt lat="43.40462" lon="6.06773">
        <ele>210.60000610352</ele>
        <time>2013-11-09T16:28:36Z</time>
      </trkpt>
      <trkpt lat="43.40459" lon="6.06732">
        <ele>210.60000610352</ele>
        <time>2013-11-09T16:28:43Z</time>
      </trkpt>
      <trkpt lat="43.40461" lon="6.06717">
        <ele>210.60000610352</ele>
        <time>2013-11-09T16:28:46Z</time>
      </trkpt>
      <trkpt lat="43.40463" lon="6.06702">
        <ele>210.60000610352</ele>
        <time>2013-11-09T16:28:49Z</time>
      </trkpt>
      <trkpt lat="43.40475" lon="6.06659">
        <ele>210.60000610352</ele>
        <time>2013-11-09T16:28:57Z</time>
      </trkpt>
      <trkpt lat="43.40485" lon="6.06612">
        <ele>210.60000610352</ele>
        <time>2013-11-09T16:29:06Z</time>
      </trkpt>
      <trkpt lat="43.40487" lon="6.06602">
        <ele>210.60000610352</ele>
        <time>2013-11-09T16:29:08Z</time>
      </trkpt>
      <trkpt lat="43.40487" lon="6.06593">
        <ele>210.60000610352</ele>
        <time>2013-11-09T16:29:10Z</time>
      </trkpt>
      <trkpt lat="43.40485" lon="6.06586">
        <ele>210.60000610352</ele>
        <time>2013-11-09T16:29:12Z</time>
      </trkpt>
      <trkpt lat="43.40482" lon="6.06584">
        <ele>210.60000610352</ele>
        <time>2013-11-09T16:29:13Z</time>
      </trkpt>
      <trkpt lat="43.40478" lon="6.06582">
        <ele>210.60000610352</ele>
        <time>2013-11-09T16:29:15Z</time>
      </trkpt>
      <trkpt lat="43.40472" lon="6.06582">
        <ele>210.60000610352</ele>
        <time>2013-11-09T16:29:19Z</time>
      </trkpt>
      <trkpt lat="43.40469" lon="6.06582">
        <ele>210.60000610352</ele>
        <time>2013-11-09T16:29:21Z</time>
      </trkpt>
      <trkpt lat="43.40469" lon="6.06582">
        <ele>210.60000610352</ele>
        <time>2013-11-09T16:29:26Z</time>
      </trkpt>
      <trkpt lat="43.40469" lon="6.06582">
        <ele>210.60000610352</ele>
        <time>2013-11-09T16:29:40Z</time>
      </trkpt>
      <trkpt lat="43.40469" lon="6.06582">
        <ele>210.60000610352</ele>
        <time>2013-11-09T16:30:17Z</time>
      </trkpt>
      <trkpt lat="43.4047" lon="6.06582">
        <ele>210.60000610352</ele>
        <time>2013-11-09T16:30:45Z</time>
      </trkpt>
      <trkpt lat="43.4047" lon="6.06582">
        <ele>210.60000610352</ele>
        <time>2013-11-09T16:31:06Z</time>
      </trkpt>
      <trkpt lat="43.4047" lon="6.06582">
        <ele>210.60000610352</ele>
        <time>2013-11-09T16:31:45Z</time>
      </trkpt>
      <trkpt lat="43.4047" lon="6.06582">
        <ele>210.60000610352</ele>
        <time>2013-11-09T16:32:01Z</time>
      </trkpt>
      <trkpt lat="43.40469" lon="6.06583">
        <ele>210.60000610352</ele>
        <time>2013-11-09T16:32:05Z</time>
      </trkpt>
      <trkpt lat="43.40466" lon="6.06582">
        <ele>210.60000610352</ele>
        <time>2013-11-09T16:32:07Z</time>
      </trkpt>
      <trkpt lat="43.40462" lon="6.0658">
        <ele>210.60000610352</ele>
        <time>2013-11-09T16:32:09Z</time>
      </trkpt>
      <trkpt lat="43.40456" lon="6.06578">
        <ele>210.60000610352</ele>
        <time>2013-11-09T16:32:11Z</time>
      </trkpt>
      <trkpt lat="43.40453" lon="6.06577">
        <ele>210.60000610352</ele>
        <time>2013-11-09T16:32:12Z</time>
      </trkpt>
      <trkpt lat="43.40445" lon="6.06575">
        <ele>210.60000610352</ele>
        <time>2013-11-09T16:32:14Z</time>
      </trkpt>
      <trkpt lat="43.40435" lon="6.06574">
        <ele>210.60000610352</ele>
        <time>2013-11-09T16:32:17Z</time>
      </trkpt>
      <trkpt lat="43.40427" lon="6.06574">
        <ele>211</ele>
        <time>2013-11-09T16:32:19Z</time>
      </trkpt>
      <trkpt lat="43.40422" lon="6.06572">
        <ele>211.80000305176</ele>
        <time>2013-11-09T16:32:20Z</time>
      </trkpt>
      <trkpt lat="43.40418" lon="6.0657">
        <ele>212.19999694824</ele>
        <time>2013-11-09T16:32:21Z</time>
      </trkpt>
      <trkpt lat="43.40414" lon="6.0657">
        <ele>212.60000610352</ele>
        <time>2013-11-09T16:32:22Z</time>
      </trkpt>
      <trkpt lat="43.40407" lon="6.06567">
        <ele>212.60000610352</ele>
        <time>2013-11-09T16:32:24Z</time>
      </trkpt>
      <trkpt lat="43.40398" lon="6.06557">
        <ele>212.60000610352</ele>
        <time>2013-11-09T16:32:29Z</time>
      </trkpt>
      <trkpt lat="43.404" lon="6.06554">
        <ele>212.60000610352</ele>
        <time>2013-11-09T16:32:32Z</time>
      </trkpt>
      <trkpt lat="43.40401" lon="6.06553">
        <ele>212.60000610352</ele>
        <time>2013-11-09T16:32:39Z</time>
      </trkpt>
      <trkpt lat="43.40401" lon="6.06553">
        <ele>212.60000610352</ele>
        <time>2013-11-09T16:33:07Z</time>
      </trkpt>
      <trkpt lat="43.40401" lon="6.06553">
        <ele>212.60000610352</ele>
        <time>2013-11-09T16:33:16Z</time>
      </trkpt>
      <trkpt lat="43.40401" lon="6.06553">
        <ele>212.60000610352</ele>
        <time>2013-11-09T16:33:26Z</time>
      </trkpt>
      <trkpt lat="43.40401" lon="6.06553">
        <ele>212.60000610352</ele>
        <time>2013-11-09T16:33:45Z</time>
      </trkpt>
      <trkpt lat="43.40401" lon="6.06553">
        <ele>212.60000610352</ele>
        <time>2013-11-09T16:34:04Z</time>
      </trkpt>
      <trkpt lat="43.40401" lon="6.06553">
        <ele>212.60000610352</ele>
        <time>2013-11-09T16:34:27Z</time>
      </trkpt>
      <trkpt lat="43.40401" lon="6.06553">
        <ele>212.60000610352</ele>
        <time>2013-11-09T16:34:42Z</time>
      </trkpt>
      <trkpt lat="43.40401" lon="6.06552">
        <ele>212.60000610352</ele>
        <time>2013-11-09T16:34:47Z</time>
      </trkpt>
      <trkpt lat="43.40401" lon="6.06552">
        <ele>212.60000610352</ele>
        <time>2013-11-09T16:35:14Z</time>
      </trkpt>
      <trkpt lat="43.40401" lon="6.06552">
        <ele>212.60000610352</ele>
        <time>2013-11-09T16:36:00Z</time>
      </trkpt>
    </trkseg>
  </trk>
</gpx>